<?xml version="1.0" encoding="UTF-8" standalone="no" ?>
<gpx xmlns="http://www.topografix.com/GPX/1/1" xmlns:xsi="http://www.w3.org/2001/XMLSchema-instance" xsi:schemaLocation="http://www.topografix.com/GPX/1/1 http://www.topografix.com/GPX/1/1/gpx.xsd" version="1.1" creator="VisuGPX - https://www.visugpx.com">
  <metadata>
    <name>Vassieux / Mens</name>
    <desc><![CDATA[Sortie de printemps des Déjantés du Trièves : De Vassieux à Mens par Villard de Lans, Saint Nizier, Claix, Miribel, Monestier de Clermont]]></desc>
  </metadata>
  <wpt lat="44.89619" lon="5.37016">
    <ele>1050</ele>
    <name><![CDATA[Vassieux / Mens]]></name>
    <type><![CDATA[Generic]]></type>
  </wpt>
  <trk>
    <name><![CDATA[Vassieux / Mens]]></name>
    <trkseg>
      <trkpt lat="44.89619" lon="5.37016">
        <ele>1050</ele>
        <time>2017-10-21T19:22:17Z</time>
      </trkpt>
      <trkpt lat="44.89626" lon="5.3698">
        <ele>1049</ele>
        <time>2017-10-21T19:22:24Z</time>
      </trkpt>
      <trkpt lat="44.89635" lon="5.3696">
        <ele>1049</ele>
        <time>2017-10-21T19:22:44Z</time>
      </trkpt>
      <trkpt lat="44.89649" lon="5.36942">
        <ele>1048</ele>
        <time>2017-10-21T19:23:03Z</time>
      </trkpt>
      <trkpt lat="44.89664" lon="5.3693">
        <ele>1046</ele>
        <time>2017-10-21T19:23:14Z</time>
      </trkpt>
      <trkpt lat="44.89689" lon="5.36917">
        <ele>1043</ele>
        <time>2017-10-21T19:23:25Z</time>
      </trkpt>
      <trkpt lat="44.89729" lon="5.36904">
        <ele>1043</ele>
        <time>2017-10-21T19:23:33Z</time>
      </trkpt>
      <trkpt lat="44.89773" lon="5.36893">
        <ele>1043</ele>
        <time>2017-10-21T19:23:39Z</time>
      </trkpt>
      <trkpt lat="44.89794" lon="5.36892">
        <ele>1043</ele>
        <time>2017-10-21T19:23:47Z</time>
      </trkpt>
      <trkpt lat="44.89822" lon="5.36895">
        <ele>1043</ele>
        <time>2017-10-21T19:24:03Z</time>
      </trkpt>
      <trkpt lat="44.89849" lon="5.36902">
        <ele>1044</ele>
        <time>2017-10-21T19:24:13Z</time>
      </trkpt>
      <trkpt lat="44.89878" lon="5.36918">
        <ele>1044</ele>
        <time>2017-10-21T19:24:32Z</time>
      </trkpt>
      <trkpt lat="44.89941" lon="5.36965">
        <ele>1046</ele>
        <time>2017-10-21T19:24:50Z</time>
      </trkpt>
      <trkpt lat="44.89988" lon="5.37005">
        <ele>1047</ele>
        <time>2017-10-21T19:25:02Z</time>
      </trkpt>
      <trkpt lat="44.90009" lon="5.37028">
        <ele>1049</ele>
        <time>2017-10-21T19:25:12Z</time>
      </trkpt>
      <trkpt lat="44.90056" lon="5.37088">
        <ele>1050</ele>
        <time>2017-10-21T19:25:17Z</time>
      </trkpt>
      <trkpt lat="44.9008" lon="5.37116">
        <ele>1050</ele>
        <time>2017-10-21T19:25:35Z</time>
      </trkpt>
      <trkpt lat="44.90096" lon="5.37129">
        <ele>1053</ele>
        <time>2017-10-21T19:25:43Z</time>
      </trkpt>
      <trkpt lat="44.90109" lon="5.37137">
        <ele>1053</ele>
        <time>2017-10-21T19:25:49Z</time>
      </trkpt>
      <trkpt lat="44.90127" lon="5.37144">
        <ele>1054</ele>
        <time>2017-10-21T19:26:05Z</time>
      </trkpt>
      <trkpt lat="44.90156" lon="5.37148">
        <ele>1055</ele>
        <time>2017-10-21T19:26:08Z</time>
      </trkpt>
      <trkpt lat="44.90303" lon="5.37158">
        <ele>1063</ele>
        <time>2017-10-21T19:26:26Z</time>
      </trkpt>
      <trkpt lat="44.90315" lon="5.37159">
        <ele>1063</ele>
        <time>2017-10-21T19:26:46Z</time>
      </trkpt>
      <trkpt lat="44.90351" lon="5.37165">
        <ele>1064</ele>
        <time>2017-10-21T19:27:02Z</time>
      </trkpt>
      <trkpt lat="44.90412" lon="5.37183">
        <ele>1061</ele>
        <time>2017-10-21T19:27:07Z</time>
      </trkpt>
      <trkpt lat="44.90446" lon="5.37202">
        <ele>1061</ele>
        <time>2017-10-21T19:27:27Z</time>
      </trkpt>
      <trkpt lat="44.90576" lon="5.37287">
        <ele>1055</ele>
        <time>2017-10-21T19:27:29Z</time>
      </trkpt>
      <trkpt lat="44.90694" lon="5.37352">
        <ele>1048</ele>
        <time>2017-10-21T19:27:37Z</time>
      </trkpt>
      <trkpt lat="44.90739" lon="5.37386">
        <ele>1048</ele>
        <time>2017-10-21T19:27:51Z</time>
      </trkpt>
      <trkpt lat="44.90753" lon="5.37391">
        <ele>1048</ele>
        <time>2017-10-21T19:28:11Z</time>
      </trkpt>
      <trkpt lat="44.90766" lon="5.37391">
        <ele>1048</ele>
        <time>2017-10-21T19:28:13Z</time>
      </trkpt>
      <trkpt lat="44.90778" lon="5.37389">
        <ele>1047</ele>
        <time>2017-10-21T19:28:32Z</time>
      </trkpt>
      <trkpt lat="44.90791" lon="5.37378">
        <ele>1047</ele>
        <time>2017-10-21T19:28:41Z</time>
      </trkpt>
      <trkpt lat="44.9082" lon="5.37348">
        <ele>1048</ele>
        <time>2017-10-21T19:28:49Z</time>
      </trkpt>
      <trkpt lat="44.90837" lon="5.37338">
        <ele>1049</ele>
        <time>2017-10-21T19:29:00Z</time>
      </trkpt>
      <trkpt lat="44.90852" lon="5.37334">
        <ele>1048</ele>
        <time>2017-10-21T19:29:12Z</time>
      </trkpt>
      <trkpt lat="44.90881" lon="5.37337">
        <ele>1048</ele>
        <time>2017-10-21T19:29:25Z</time>
      </trkpt>
      <trkpt lat="44.90904" lon="5.37344">
        <ele>1049</ele>
        <time>2017-10-21T19:29:29Z</time>
      </trkpt>
      <trkpt lat="44.90913" lon="5.3735">
        <ele>1048</ele>
        <time>2017-10-21T19:29:46Z</time>
      </trkpt>
      <trkpt lat="44.90932" lon="5.37371">
        <ele>1049</ele>
        <time>2017-10-21T19:29:49Z</time>
      </trkpt>
      <trkpt lat="44.90948" lon="5.37393">
        <ele>1048</ele>
        <time>2017-10-21T19:29:58Z</time>
      </trkpt>
      <trkpt lat="44.90964" lon="5.37406">
        <ele>1048</ele>
        <time>2017-10-21T19:30:10Z</time>
      </trkpt>
      <trkpt lat="44.90989" lon="5.37423">
        <ele>1047</ele>
        <time>2017-10-21T19:30:25Z</time>
      </trkpt>
      <trkpt lat="44.91027" lon="5.37452">
        <ele>1051</ele>
        <time>2017-10-21T19:30:27Z</time>
      </trkpt>
      <trkpt lat="44.91096" lon="5.3751">
        <ele>1052</ele>
        <time>2017-10-21T19:30:42Z</time>
      </trkpt>
      <trkpt lat="44.9115" lon="5.37546">
        <ele>1052</ele>
        <time>2017-10-21T19:30:52Z</time>
      </trkpt>
      <trkpt lat="44.9118" lon="5.37562">
        <ele>1054</ele>
        <time>2017-10-21T19:31:06Z</time>
      </trkpt>
      <trkpt lat="44.91211" lon="5.37577">
        <ele>1055</ele>
        <time>2017-10-21T19:31:08Z</time>
      </trkpt>
      <trkpt lat="44.91237" lon="5.37589">
        <ele>1052</ele>
        <time>2017-10-21T19:31:13Z</time>
      </trkpt>
      <trkpt lat="44.91259" lon="5.37596">
        <ele>1054</ele>
        <time>2017-10-21T19:31:24Z</time>
      </trkpt>
      <trkpt lat="44.9135" lon="5.37611">
        <ele>1057</ele>
        <time>2017-10-21T19:31:42Z</time>
      </trkpt>
      <trkpt lat="44.9138" lon="5.37618">
        <ele>1058</ele>
        <time>2017-10-21T19:31:44Z</time>
      </trkpt>
      <trkpt lat="44.91407" lon="5.37626">
        <ele>1059</ele>
        <time>2017-10-21T19:31:46Z</time>
      </trkpt>
      <trkpt lat="44.91442" lon="5.37644">
        <ele>1064</ele>
        <time>2017-10-21T19:32:02Z</time>
      </trkpt>
      <trkpt lat="44.91476" lon="5.37663">
        <ele>1064</ele>
        <time>2017-10-21T19:32:16Z</time>
      </trkpt>
      <trkpt lat="44.91513" lon="5.37681">
        <ele>1066</ele>
        <time>2017-10-21T19:32:24Z</time>
      </trkpt>
      <trkpt lat="44.91564" lon="5.377">
        <ele>1066</ele>
        <time>2017-10-21T19:32:28Z</time>
      </trkpt>
      <trkpt lat="44.91633" lon="5.37726">
        <ele>1069</ele>
        <time>2017-10-21T19:32:40Z</time>
      </trkpt>
      <trkpt lat="44.9168" lon="5.37737">
        <ele>1071</ele>
        <time>2017-10-21T19:32:46Z</time>
      </trkpt>
      <trkpt lat="44.91775" lon="5.37757">
        <ele>1076</ele>
        <time>2017-10-21T19:33:04Z</time>
      </trkpt>
      <trkpt lat="44.91791" lon="5.37757">
        <ele>1077</ele>
        <time>2017-10-21T19:33:07Z</time>
      </trkpt>
      <trkpt lat="44.91861" lon="5.37746">
        <ele>1080</ele>
        <time>2017-10-21T19:33:10Z</time>
      </trkpt>
      <trkpt lat="44.92004" lon="5.37722">
        <ele>1086</ele>
        <time>2017-10-21T19:33:19Z</time>
      </trkpt>
      <trkpt lat="44.92029" lon="5.37718">
        <ele>1086</ele>
        <time>2017-10-21T19:33:24Z</time>
      </trkpt>
      <trkpt lat="44.92044" lon="5.37719">
        <ele>1086</ele>
        <time>2017-10-21T19:33:38Z</time>
      </trkpt>
      <trkpt lat="44.9206" lon="5.37723">
        <ele>1086</ele>
        <time>2017-10-21T19:33:54Z</time>
      </trkpt>
      <trkpt lat="44.92098" lon="5.37751">
        <ele>1085</ele>
        <time>2017-10-21T19:34:00Z</time>
      </trkpt>
      <trkpt lat="44.92136" lon="5.37789">
        <ele>1084</ele>
        <time>2017-10-21T19:34:18Z</time>
      </trkpt>
      <trkpt lat="44.92147" lon="5.37805">
        <ele>1084</ele>
        <time>2017-10-21T19:34:37Z</time>
      </trkpt>
      <trkpt lat="44.92169" lon="5.37844">
        <ele>1085</ele>
        <time>2017-10-21T19:34:48Z</time>
      </trkpt>
      <trkpt lat="44.92185" lon="5.37868">
        <ele>1084</ele>
        <time>2017-10-21T19:34:59Z</time>
      </trkpt>
      <trkpt lat="44.92197" lon="5.37884">
        <ele>1084</ele>
        <time>2017-10-21T19:35:08Z</time>
      </trkpt>
      <trkpt lat="44.92221" lon="5.37908">
        <ele>1085</ele>
        <time>2017-10-21T19:35:28Z</time>
      </trkpt>
      <trkpt lat="44.92286" lon="5.37968">
        <ele>1089</ele>
        <time>2017-10-21T19:35:37Z</time>
      </trkpt>
      <trkpt lat="44.92312" lon="5.37989">
        <ele>1091</ele>
        <time>2017-10-21T19:35:43Z</time>
      </trkpt>
      <trkpt lat="44.92329" lon="5.37999">
        <ele>1092</ele>
        <time>2017-10-21T19:35:48Z</time>
      </trkpt>
      <trkpt lat="44.92343" lon="5.38003">
        <ele>1093</ele>
        <time>2017-10-21T19:35:52Z</time>
      </trkpt>
      <trkpt lat="44.92352" lon="5.38001">
        <ele>1092</ele>
        <time>2017-10-21T19:35:54Z</time>
      </trkpt>
      <trkpt lat="44.92371" lon="5.37989">
        <ele>1093</ele>
        <time>2017-10-21T19:36:11Z</time>
      </trkpt>
      <trkpt lat="44.92386" lon="5.37972">
        <ele>1092</ele>
        <time>2017-10-21T19:36:20Z</time>
      </trkpt>
      <trkpt lat="44.92421" lon="5.37929">
        <ele>1092</ele>
        <time>2017-10-21T19:36:24Z</time>
      </trkpt>
      <trkpt lat="44.92444" lon="5.37907">
        <ele>1093</ele>
        <time>2017-10-21T19:36:35Z</time>
      </trkpt>
      <trkpt lat="44.92465" lon="5.3789">
        <ele>1093</ele>
        <time>2017-10-21T19:36:37Z</time>
      </trkpt>
      <trkpt lat="44.92516" lon="5.37858">
        <ele>1095</ele>
        <time>2017-10-21T19:36:40Z</time>
      </trkpt>
      <trkpt lat="44.9254" lon="5.37849">
        <ele>1097</ele>
        <time>2017-10-21T19:36:52Z</time>
      </trkpt>
      <trkpt lat="44.92558" lon="5.37848">
        <ele>1099</ele>
        <time>2017-10-21T19:36:57Z</time>
      </trkpt>
      <trkpt lat="44.92576" lon="5.37855">
        <ele>1100</ele>
        <time>2017-10-21T19:37:12Z</time>
      </trkpt>
      <trkpt lat="44.92612" lon="5.37878">
        <ele>1105</ele>
        <time>2017-10-21T19:37:14Z</time>
      </trkpt>
      <trkpt lat="44.92632" lon="5.37895">
        <ele>1105</ele>
        <time>2017-10-21T19:37:29Z</time>
      </trkpt>
      <trkpt lat="44.92665" lon="5.3794">
        <ele>1095</ele>
        <time>2017-10-21T19:37:38Z</time>
      </trkpt>
      <trkpt lat="44.92678" lon="5.37952">
        <ele>1100</ele>
        <time>2017-10-21T19:37:45Z</time>
      </trkpt>
      <trkpt lat="44.92702" lon="5.37969">
        <ele>1099</ele>
        <time>2017-10-21T19:37:52Z</time>
      </trkpt>
      <trkpt lat="44.92754" lon="5.37999">
        <ele>1099</ele>
        <time>2017-10-21T19:37:58Z</time>
      </trkpt>
      <trkpt lat="44.9277" lon="5.3801">
        <ele>1100</ele>
        <time>2017-10-21T19:38:07Z</time>
      </trkpt>
      <trkpt lat="44.92778" lon="5.38019">
        <ele>1101</ele>
        <time>2017-10-21T19:38:09Z</time>
      </trkpt>
      <trkpt lat="44.92784" lon="5.38031">
        <ele>1101</ele>
        <time>2017-10-21T19:38:18Z</time>
      </trkpt>
      <trkpt lat="44.92788" lon="5.38043">
        <ele>1101</ele>
        <time>2017-10-21T19:38:30Z</time>
      </trkpt>
      <trkpt lat="44.92789" lon="5.38063">
        <ele>1101</ele>
        <time>2017-10-21T19:38:47Z</time>
      </trkpt>
      <trkpt lat="44.92783" lon="5.3816">
        <ele>1097</ele>
        <time>2017-10-21T19:38:56Z</time>
      </trkpt>
      <trkpt lat="44.92783" lon="5.38205">
        <ele>1098</ele>
        <time>2017-10-21T19:39:06Z</time>
      </trkpt>
      <trkpt lat="44.92785" lon="5.38223">
        <ele>1098</ele>
        <time>2017-10-21T19:39:24Z</time>
      </trkpt>
      <trkpt lat="44.92792" lon="5.38244">
        <ele>1098</ele>
        <time>2017-10-21T19:39:43Z</time>
      </trkpt>
      <trkpt lat="44.92801" lon="5.38264">
        <ele>1100</ele>
        <time>2017-10-21T19:39:46Z</time>
      </trkpt>
      <trkpt lat="44.9281" lon="5.38279">
        <ele>1100</ele>
        <time>2017-10-21T19:40:01Z</time>
      </trkpt>
      <trkpt lat="44.92873" lon="5.38336">
        <ele>1099</ele>
        <time>2017-10-21T19:40:04Z</time>
      </trkpt>
      <trkpt lat="44.92926" lon="5.38378">
        <ele>1096</ele>
        <time>2017-10-21T19:40:22Z</time>
      </trkpt>
      <trkpt lat="44.92947" lon="5.38391">
        <ele>1096</ele>
        <time>2017-10-21T19:40:38Z</time>
      </trkpt>
      <trkpt lat="44.92986" lon="5.38404">
        <ele>1095</ele>
        <time>2017-10-21T19:40:52Z</time>
      </trkpt>
      <trkpt lat="44.93025" lon="5.38419">
        <ele>1093</ele>
        <time>2017-10-21T19:41:08Z</time>
      </trkpt>
      <trkpt lat="44.93063" lon="5.38432">
        <ele>1091</ele>
        <time>2017-10-21T19:41:24Z</time>
      </trkpt>
      <trkpt lat="44.9309" lon="5.38435">
        <ele>1088</ele>
        <time>2017-10-21T19:41:30Z</time>
      </trkpt>
      <trkpt lat="44.93098" lon="5.38434">
        <ele>1087</ele>
        <time>2017-10-21T19:41:49Z</time>
      </trkpt>
      <trkpt lat="44.9311" lon="5.38431">
        <ele>1087</ele>
        <time>2017-10-21T19:41:59Z</time>
      </trkpt>
      <trkpt lat="44.93129" lon="5.38419">
        <ele>1086</ele>
        <time>2017-10-21T19:42:19Z</time>
      </trkpt>
      <trkpt lat="44.93149" lon="5.38404">
        <ele>1086</ele>
        <time>2017-10-21T19:42:25Z</time>
      </trkpt>
      <trkpt lat="44.93165" lon="5.38395">
        <ele>1086</ele>
        <time>2017-10-21T19:42:32Z</time>
      </trkpt>
      <trkpt lat="44.93198" lon="5.38387">
        <ele>1082</ele>
        <time>2017-10-21T19:42:48Z</time>
      </trkpt>
      <trkpt lat="44.93224" lon="5.38384">
        <ele>1081</ele>
        <time>2017-10-21T19:43:00Z</time>
      </trkpt>
      <trkpt lat="44.9324" lon="5.38384">
        <ele>1080</ele>
        <time>2017-10-21T19:43:13Z</time>
      </trkpt>
      <trkpt lat="44.9326" lon="5.38389">
        <ele>1077</ele>
        <time>2017-10-21T19:43:24Z</time>
      </trkpt>
      <trkpt lat="44.93316" lon="5.38402">
        <ele>1076</ele>
        <time>2017-10-21T19:43:34Z</time>
      </trkpt>
      <trkpt lat="44.93385" lon="5.38418">
        <ele>1068</ele>
        <time>2017-10-21T19:43:52Z</time>
      </trkpt>
      <trkpt lat="44.93399" lon="5.38418">
        <ele>1068</ele>
        <time>2017-10-21T19:44:05Z</time>
      </trkpt>
      <trkpt lat="44.93441" lon="5.38411">
        <ele>1072</ele>
        <time>2017-10-21T19:44:17Z</time>
      </trkpt>
      <trkpt lat="44.93454" lon="5.38414">
        <ele>1072</ele>
        <time>2017-10-21T19:44:29Z</time>
      </trkpt>
      <trkpt lat="44.93482" lon="5.38424">
        <ele>1065</ele>
        <time>2017-10-21T19:44:46Z</time>
      </trkpt>
      <trkpt lat="44.93505" lon="5.38429">
        <ele>1064</ele>
        <time>2017-10-21T19:45:00Z</time>
      </trkpt>
      <trkpt lat="44.9352" lon="5.38429">
        <ele>1062</ele>
        <time>2017-10-21T19:45:06Z</time>
      </trkpt>
      <trkpt lat="44.93535" lon="5.38425">
        <ele>1061</ele>
        <time>2017-10-21T19:45:14Z</time>
      </trkpt>
      <trkpt lat="44.9355" lon="5.38416">
        <ele>1064</ele>
        <time>2017-10-21T19:45:25Z</time>
      </trkpt>
      <trkpt lat="44.93564" lon="5.38403">
        <ele>1064</ele>
        <time>2017-10-21T19:45:41Z</time>
      </trkpt>
      <trkpt lat="44.93575" lon="5.38387">
        <ele>1064</ele>
        <time>2017-10-21T19:45:48Z</time>
      </trkpt>
      <trkpt lat="44.93586" lon="5.38364">
        <ele>1059</ele>
        <time>2017-10-21T19:45:53Z</time>
      </trkpt>
      <trkpt lat="44.93596" lon="5.38333">
        <ele>1064</ele>
        <time>2017-10-21T19:46:01Z</time>
      </trkpt>
      <trkpt lat="44.93604" lon="5.3832">
        <ele>1064</ele>
        <time>2017-10-21T19:46:12Z</time>
      </trkpt>
      <trkpt lat="44.93621" lon="5.38308">
        <ele>1064</ele>
        <time>2017-10-21T19:46:17Z</time>
      </trkpt>
      <trkpt lat="44.93631" lon="5.38307">
        <ele>1063</ele>
        <time>2017-10-21T19:46:33Z</time>
      </trkpt>
      <trkpt lat="44.93647" lon="5.38311">
        <ele>1062</ele>
        <time>2017-10-21T19:46:52Z</time>
      </trkpt>
      <trkpt lat="44.93658" lon="5.38318">
        <ele>1060</ele>
        <time>2017-10-21T19:46:59Z</time>
      </trkpt>
      <trkpt lat="44.9367" lon="5.38332">
        <ele>1056</ele>
        <time>2017-10-21T19:47:02Z</time>
      </trkpt>
      <trkpt lat="44.9369" lon="5.38368">
        <ele>1053</ele>
        <time>2017-10-21T19:47:11Z</time>
      </trkpt>
      <trkpt lat="44.93706" lon="5.38387">
        <ele>1053</ele>
        <time>2017-10-21T19:47:28Z</time>
      </trkpt>
      <trkpt lat="44.93718" lon="5.38393">
        <ele>1052</ele>
        <time>2017-10-21T19:47:35Z</time>
      </trkpt>
      <trkpt lat="44.93736" lon="5.384">
        <ele>1051</ele>
        <time>2017-10-21T19:47:40Z</time>
      </trkpt>
      <trkpt lat="44.93786" lon="5.3841">
        <ele>1055</ele>
        <time>2017-10-21T19:47:49Z</time>
      </trkpt>
      <trkpt lat="44.93821" lon="5.38418">
        <ele>1049</ele>
        <time>2017-10-21T19:48:02Z</time>
      </trkpt>
      <trkpt lat="44.93837" lon="5.38431">
        <ele>1052</ele>
        <time>2017-10-21T19:48:09Z</time>
      </trkpt>
      <trkpt lat="44.9385" lon="5.38457">
        <ele>1049</ele>
        <time>2017-10-21T19:48:27Z</time>
      </trkpt>
      <trkpt lat="44.9386" lon="5.38474">
        <ele>1047</ele>
        <time>2017-10-21T19:48:41Z</time>
      </trkpt>
      <trkpt lat="44.9387" lon="5.38483">
        <ele>1048</ele>
        <time>2017-10-21T19:48:44Z</time>
      </trkpt>
      <trkpt lat="44.93919" lon="5.38526">
        <ele>1046</ele>
        <time>2017-10-21T19:48:58Z</time>
      </trkpt>
      <trkpt lat="44.93984" lon="5.38595">
        <ele>1037</ele>
        <time>2017-10-21T19:49:14Z</time>
      </trkpt>
      <trkpt lat="44.93993" lon="5.38613">
        <ele>1035</ele>
        <time>2017-10-21T19:49:30Z</time>
      </trkpt>
      <trkpt lat="44.93999" lon="5.38632">
        <ele>1033</ele>
        <time>2017-10-21T19:49:48Z</time>
      </trkpt>
      <trkpt lat="44.94004" lon="5.38662">
        <ele>1036</ele>
        <time>2017-10-21T19:49:50Z</time>
      </trkpt>
      <trkpt lat="44.94016" lon="5.38752">
        <ele>1027</ele>
        <time>2017-10-21T19:49:56Z</time>
      </trkpt>
      <trkpt lat="44.94024" lon="5.38795">
        <ele>1028</ele>
        <time>2017-10-21T19:50:01Z</time>
      </trkpt>
      <trkpt lat="44.94025" lon="5.38814">
        <ele>1027</ele>
        <time>2017-10-21T19:50:03Z</time>
      </trkpt>
      <trkpt lat="44.94008" lon="5.38928">
        <ele>1020</ele>
        <time>2017-10-21T19:50:21Z</time>
      </trkpt>
      <trkpt lat="44.94003" lon="5.38974">
        <ele>1020</ele>
        <time>2017-10-21T19:50:35Z</time>
      </trkpt>
      <trkpt lat="44.94005" lon="5.38998">
        <ele>1019</ele>
        <time>2017-10-21T19:50:55Z</time>
      </trkpt>
      <trkpt lat="44.94008" lon="5.3901">
        <ele>1018</ele>
        <time>2017-10-21T19:51:11Z</time>
      </trkpt>
      <trkpt lat="44.94017" lon="5.39029">
        <ele>1018</ele>
        <time>2017-10-21T19:51:29Z</time>
      </trkpt>
      <trkpt lat="44.94055" lon="5.39053">
        <ele>1016</ele>
        <time>2017-10-21T19:51:32Z</time>
      </trkpt>
      <trkpt lat="44.94102" lon="5.39076">
        <ele>1012</ele>
        <time>2017-10-21T19:51:42Z</time>
      </trkpt>
      <trkpt lat="44.94117" lon="5.39092">
        <ele>1007</ele>
        <time>2017-10-21T19:51:49Z</time>
      </trkpt>
      <trkpt lat="44.94133" lon="5.3911">
        <ele>1006</ele>
        <time>2017-10-21T19:51:56Z</time>
      </trkpt>
      <trkpt lat="44.94142" lon="5.39116">
        <ele>1006</ele>
        <time>2017-10-21T19:52:16Z</time>
      </trkpt>
      <trkpt lat="44.94156" lon="5.39118">
        <ele>1006</ele>
        <time>2017-10-21T19:52:36Z</time>
      </trkpt>
      <trkpt lat="44.94169" lon="5.39114">
        <ele>1000</ele>
        <time>2017-10-21T19:52:49Z</time>
      </trkpt>
      <trkpt lat="44.94183" lon="5.39103">
        <ele>1000</ele>
        <time>2017-10-21T19:52:56Z</time>
      </trkpt>
      <trkpt lat="44.94197" lon="5.39085">
        <ele>999</ele>
        <time>2017-10-21T19:53:09Z</time>
      </trkpt>
      <trkpt lat="44.94206" lon="5.39065">
        <ele>1002</ele>
        <time>2017-10-21T19:53:26Z</time>
      </trkpt>
      <trkpt lat="44.94208" lon="5.39046">
        <ele>1002</ele>
        <time>2017-10-21T19:53:33Z</time>
      </trkpt>
      <trkpt lat="44.94207" lon="5.38988">
        <ele>1007</ele>
        <time>2017-10-21T19:53:51Z</time>
      </trkpt>
      <trkpt lat="44.94211" lon="5.38961">
        <ele>1008</ele>
        <time>2017-10-21T19:53:56Z</time>
      </trkpt>
      <trkpt lat="44.94217" lon="5.38951">
        <ele>1009</ele>
        <time>2017-10-21T19:54:00Z</time>
      </trkpt>
      <trkpt lat="44.94226" lon="5.38945">
        <ele>1009</ele>
        <time>2017-10-21T19:54:07Z</time>
      </trkpt>
      <trkpt lat="44.94246" lon="5.38948">
        <ele>1009</ele>
        <time>2017-10-21T19:54:14Z</time>
      </trkpt>
      <trkpt lat="44.94257" lon="5.38952">
        <ele>1005</ele>
        <time>2017-10-21T19:54:30Z</time>
      </trkpt>
      <trkpt lat="44.94276" lon="5.38965">
        <ele>1003</ele>
        <time>2017-10-21T19:54:32Z</time>
      </trkpt>
      <trkpt lat="44.94299" lon="5.38979">
        <ele>1001</ele>
        <time>2017-10-21T19:54:50Z</time>
      </trkpt>
      <trkpt lat="44.94324" lon="5.38986">
        <ele>997</ele>
        <time>2017-10-21T19:55:04Z</time>
      </trkpt>
      <trkpt lat="44.94355" lon="5.38987">
        <ele>994</ele>
        <time>2017-10-21T19:55:18Z</time>
      </trkpt>
      <trkpt lat="44.94387" lon="5.38976">
        <ele>993</ele>
        <time>2017-10-21T19:55:35Z</time>
      </trkpt>
      <trkpt lat="44.94411" lon="5.3897">
        <ele>992</ele>
        <time>2017-10-21T19:55:49Z</time>
      </trkpt>
      <trkpt lat="44.94432" lon="5.38968">
        <ele>988</ele>
        <time>2017-10-21T19:56:04Z</time>
      </trkpt>
      <trkpt lat="44.94446" lon="5.3897">
        <ele>988</ele>
        <time>2017-10-21T19:56:12Z</time>
      </trkpt>
      <trkpt lat="44.94469" lon="5.3898">
        <ele>986</ele>
        <time>2017-10-21T19:56:27Z</time>
      </trkpt>
      <trkpt lat="44.94525" lon="5.39005">
        <ele>973</ele>
        <time>2017-10-21T19:56:35Z</time>
      </trkpt>
      <trkpt lat="44.94566" lon="5.39016">
        <ele>972</ele>
        <time>2017-10-21T19:56:47Z</time>
      </trkpt>
      <trkpt lat="44.94576" lon="5.3903">
        <ele>971</ele>
        <time>2017-10-21T19:56:57Z</time>
      </trkpt>
      <trkpt lat="44.94575" lon="5.39045">
        <ele>971</ele>
        <time>2017-10-21T19:57:04Z</time>
      </trkpt>
      <trkpt lat="44.94558" lon="5.39076">
        <ele>969</ele>
        <time>2017-10-21T19:57:15Z</time>
      </trkpt>
      <trkpt lat="44.94548" lon="5.391">
        <ele>963</ele>
        <time>2017-10-21T19:57:23Z</time>
      </trkpt>
      <trkpt lat="44.94544" lon="5.39124">
        <ele>961</ele>
        <time>2017-10-21T19:57:31Z</time>
      </trkpt>
      <trkpt lat="44.94543" lon="5.39158">
        <ele>960</ele>
        <time>2017-10-21T19:57:49Z</time>
      </trkpt>
      <trkpt lat="44.94553" lon="5.39191">
        <ele>954</ele>
        <time>2017-10-21T19:57:52Z</time>
      </trkpt>
      <trkpt lat="44.94561" lon="5.39205">
        <ele>953</ele>
        <time>2017-10-21T19:58:05Z</time>
      </trkpt>
      <trkpt lat="44.94572" lon="5.39216">
        <ele>952</ele>
        <time>2017-10-21T19:58:24Z</time>
      </trkpt>
      <trkpt lat="44.94585" lon="5.39221">
        <ele>954</ele>
        <time>2017-10-21T19:58:32Z</time>
      </trkpt>
      <trkpt lat="44.94619" lon="5.39227">
        <ele>954</ele>
        <time>2017-10-21T19:58:51Z</time>
      </trkpt>
      <trkpt lat="44.94627" lon="5.39232">
        <ele>954</ele>
        <time>2017-10-21T19:59:09Z</time>
      </trkpt>
      <trkpt lat="44.94635" lon="5.3924">
        <ele>953</ele>
        <time>2017-10-21T19:59:25Z</time>
      </trkpt>
      <trkpt lat="44.94652" lon="5.39269">
        <ele>948</ele>
        <time>2017-10-21T19:59:40Z</time>
      </trkpt>
      <trkpt lat="44.94674" lon="5.39311">
        <ele>946</ele>
        <time>2017-10-21T19:59:48Z</time>
      </trkpt>
      <trkpt lat="44.94706" lon="5.39414">
        <ele>945</ele>
        <time>2017-10-21T20:00:08Z</time>
      </trkpt>
      <trkpt lat="44.94709" lon="5.39432">
        <ele>944</ele>
        <time>2017-10-21T20:00:18Z</time>
      </trkpt>
      <trkpt lat="44.94713" lon="5.39507">
        <ele>942</ele>
        <time>2017-10-21T20:00:37Z</time>
      </trkpt>
      <trkpt lat="44.94717" lon="5.39522">
        <ele>942</ele>
        <time>2017-10-21T20:00:46Z</time>
      </trkpt>
      <trkpt lat="44.94723" lon="5.39535">
        <ele>942</ele>
        <time>2017-10-21T20:00:52Z</time>
      </trkpt>
      <trkpt lat="44.9473" lon="5.39543">
        <ele>941</ele>
        <time>2017-10-21T20:01:06Z</time>
      </trkpt>
      <trkpt lat="44.94741" lon="5.39548">
        <ele>941</ele>
        <time>2017-10-21T20:01:25Z</time>
      </trkpt>
      <trkpt lat="44.94773" lon="5.39559">
        <ele>939</ele>
        <time>2017-10-21T20:01:45Z</time>
      </trkpt>
      <trkpt lat="44.94821" lon="5.39576">
        <ele>936</ele>
        <time>2017-10-21T20:02:00Z</time>
      </trkpt>
      <trkpt lat="44.94838" lon="5.39586">
        <ele>932</ele>
        <time>2017-10-21T20:02:08Z</time>
      </trkpt>
      <trkpt lat="44.94867" lon="5.39609">
        <ele>929</ele>
        <time>2017-10-21T20:02:19Z</time>
      </trkpt>
      <trkpt lat="44.94878" lon="5.39616">
        <ele>929</ele>
        <time>2017-10-21T20:02:24Z</time>
      </trkpt>
      <trkpt lat="44.9489" lon="5.39617">
        <ele>929</ele>
        <time>2017-10-21T20:02:41Z</time>
      </trkpt>
      <trkpt lat="44.94915" lon="5.39611">
        <ele>928</ele>
        <time>2017-10-21T20:02:51Z</time>
      </trkpt>
      <trkpt lat="44.94921" lon="5.39611">
        <ele>924</ele>
        <time>2017-10-21T20:03:00Z</time>
      </trkpt>
      <trkpt lat="44.94926" lon="5.39619">
        <ele>923</ele>
        <time>2017-10-21T20:03:11Z</time>
      </trkpt>
      <trkpt lat="44.94927" lon="5.39637">
        <ele>922</ele>
        <time>2017-10-21T20:03:29Z</time>
      </trkpt>
      <trkpt lat="44.94911" lon="5.39676">
        <ele>924</ele>
        <time>2017-10-21T20:03:36Z</time>
      </trkpt>
      <trkpt lat="44.94902" lon="5.39695">
        <ele>925</ele>
        <time>2017-10-21T20:03:56Z</time>
      </trkpt>
      <trkpt lat="44.94898" lon="5.39718">
        <ele>924</ele>
        <time>2017-10-21T20:04:11Z</time>
      </trkpt>
      <trkpt lat="44.94903" lon="5.39742">
        <ele>922</ele>
        <time>2017-10-21T20:04:13Z</time>
      </trkpt>
      <trkpt lat="44.94915" lon="5.39757">
        <ele>920</ele>
        <time>2017-10-21T20:04:23Z</time>
      </trkpt>
      <trkpt lat="44.94939" lon="5.39783">
        <ele>915</ele>
        <time>2017-10-21T20:04:43Z</time>
      </trkpt>
      <trkpt lat="44.9496" lon="5.39803">
        <ele>914</ele>
        <time>2017-10-21T20:04:47Z</time>
      </trkpt>
      <trkpt lat="44.94968" lon="5.39806">
        <ele>914</ele>
        <time>2017-10-21T20:05:01Z</time>
      </trkpt>
      <trkpt lat="44.94995" lon="5.39801">
        <ele>912</ele>
        <time>2017-10-21T20:05:16Z</time>
      </trkpt>
      <trkpt lat="44.95028" lon="5.39794">
        <ele>907</ele>
        <time>2017-10-21T20:05:29Z</time>
      </trkpt>
      <trkpt lat="44.95038" lon="5.39797">
        <ele>906</ele>
        <time>2017-10-21T20:05:36Z</time>
      </trkpt>
      <trkpt lat="44.95048" lon="5.39805">
        <ele>906</ele>
        <time>2017-10-21T20:05:53Z</time>
      </trkpt>
      <trkpt lat="44.95054" lon="5.39819">
        <ele>905</ele>
        <time>2017-10-21T20:06:07Z</time>
      </trkpt>
      <trkpt lat="44.95055" lon="5.39831">
        <ele>904</ele>
        <time>2017-10-21T20:06:24Z</time>
      </trkpt>
      <trkpt lat="44.95052" lon="5.39842">
        <ele>900</ele>
        <time>2017-10-21T20:06:37Z</time>
      </trkpt>
      <trkpt lat="44.95045" lon="5.39854">
        <ele>900</ele>
        <time>2017-10-21T20:06:44Z</time>
      </trkpt>
      <trkpt lat="44.95034" lon="5.39865">
        <ele>901</ele>
        <time>2017-10-21T20:07:02Z</time>
      </trkpt>
      <trkpt lat="44.95014" lon="5.39886">
        <ele>901</ele>
        <time>2017-10-21T20:07:14Z</time>
      </trkpt>
      <trkpt lat="44.95006" lon="5.39896">
        <ele>901</ele>
        <time>2017-10-21T20:07:27Z</time>
      </trkpt>
      <trkpt lat="44.95001" lon="5.39907">
        <ele>902</ele>
        <time>2017-10-21T20:07:43Z</time>
      </trkpt>
      <trkpt lat="44.94999" lon="5.39925">
        <ele>907</ele>
        <time>2017-10-21T20:07:53Z</time>
      </trkpt>
      <trkpt lat="44.95002" lon="5.39937">
        <ele>899</ele>
        <time>2017-10-21T20:08:04Z</time>
      </trkpt>
      <trkpt lat="44.95008" lon="5.39949">
        <ele>898</ele>
        <time>2017-10-21T20:08:07Z</time>
      </trkpt>
      <trkpt lat="44.95028" lon="5.39983">
        <ele>896</ele>
        <time>2017-10-21T20:08:12Z</time>
      </trkpt>
      <trkpt lat="44.95038" lon="5.39995">
        <ele>895</ele>
        <time>2017-10-21T20:08:29Z</time>
      </trkpt>
      <trkpt lat="44.95051" lon="5.40004">
        <ele>897</ele>
        <time>2017-10-21T20:08:49Z</time>
      </trkpt>
      <trkpt lat="44.95065" lon="5.40009">
        <ele>895</ele>
        <time>2017-10-21T20:09:04Z</time>
      </trkpt>
      <trkpt lat="44.95103" lon="5.40022">
        <ele>887</ele>
        <time>2017-10-21T20:09:19Z</time>
      </trkpt>
      <trkpt lat="44.95113" lon="5.40029">
        <ele>887</ele>
        <time>2017-10-21T20:09:24Z</time>
      </trkpt>
      <trkpt lat="44.95129" lon="5.40046">
        <ele>887</ele>
        <time>2017-10-21T20:09:44Z</time>
      </trkpt>
      <trkpt lat="44.95162" lon="5.40096">
        <ele>889</ele>
        <time>2017-10-21T20:10:04Z</time>
      </trkpt>
      <trkpt lat="44.95177" lon="5.40115">
        <ele>884</ele>
        <time>2017-10-21T20:10:11Z</time>
      </trkpt>
      <trkpt lat="44.95189" lon="5.40125">
        <ele>884</ele>
        <time>2017-10-21T20:10:30Z</time>
      </trkpt>
      <trkpt lat="44.95206" lon="5.40133">
        <ele>884</ele>
        <time>2017-10-21T20:10:34Z</time>
      </trkpt>
      <trkpt lat="44.9523" lon="5.40142">
        <ele>883</ele>
        <time>2017-10-21T20:10:38Z</time>
      </trkpt>
      <trkpt lat="44.9524" lon="5.40149">
        <ele>883</ele>
        <time>2017-10-21T20:10:47Z</time>
      </trkpt>
      <trkpt lat="44.95262" lon="5.4017">
        <ele>882</ele>
        <time>2017-10-21T20:10:52Z</time>
      </trkpt>
      <trkpt lat="44.95291" lon="5.40216">
        <ele>881</ele>
        <time>2017-10-21T20:11:12Z</time>
      </trkpt>
      <trkpt lat="44.95312" lon="5.40243">
        <ele>881</ele>
        <time>2017-10-21T20:11:22Z</time>
      </trkpt>
      <trkpt lat="44.95337" lon="5.40268">
        <ele>879</ele>
        <time>2017-10-21T20:11:25Z</time>
      </trkpt>
      <trkpt lat="44.95352" lon="5.40283">
        <ele>879</ele>
        <time>2017-10-21T20:11:37Z</time>
      </trkpt>
      <trkpt lat="44.95379" lon="5.40328">
        <ele>878</ele>
        <time>2017-10-21T20:11:43Z</time>
      </trkpt>
      <trkpt lat="44.95398" lon="5.40361">
        <ele>882</ele>
        <time>2017-10-21T20:12:00Z</time>
      </trkpt>
      <trkpt lat="44.95415" lon="5.40385">
        <ele>882</ele>
        <time>2017-10-21T20:12:10Z</time>
      </trkpt>
      <trkpt lat="44.95429" lon="5.40398">
        <ele>872</ele>
        <time>2017-10-21T20:12:12Z</time>
      </trkpt>
      <trkpt lat="44.95452" lon="5.40415">
        <ele>871</ele>
        <time>2017-10-21T20:12:18Z</time>
      </trkpt>
      <trkpt lat="44.95478" lon="5.40432">
        <ele>872</ele>
        <time>2017-10-21T20:12:33Z</time>
      </trkpt>
      <trkpt lat="44.95524" lon="5.40468">
        <ele>867</ele>
        <time>2017-10-21T20:12:48Z</time>
      </trkpt>
      <trkpt lat="44.95564" lon="5.40513">
        <ele>870</ele>
        <time>2017-10-21T20:13:06Z</time>
      </trkpt>
      <trkpt lat="44.95597" lon="5.40557">
        <ele>869</ele>
        <time>2017-10-21T20:13:18Z</time>
      </trkpt>
      <trkpt lat="44.95616" lon="5.40579">
        <ele>869</ele>
        <time>2017-10-21T20:13:20Z</time>
      </trkpt>
      <trkpt lat="44.95632" lon="5.40588">
        <ele>874</ele>
        <time>2017-10-21T20:13:31Z</time>
      </trkpt>
      <trkpt lat="44.95666" lon="5.40604">
        <ele>872</ele>
        <time>2017-10-21T20:13:50Z</time>
      </trkpt>
      <trkpt lat="44.95721" lon="5.40626">
        <ele>869</ele>
        <time>2017-10-21T20:14:09Z</time>
      </trkpt>
      <trkpt lat="44.95746" lon="5.40638">
        <ele>869</ele>
        <time>2017-10-21T20:14:25Z</time>
      </trkpt>
      <trkpt lat="44.95763" lon="5.4065">
        <ele>866</ele>
        <time>2017-10-21T20:14:27Z</time>
      </trkpt>
      <trkpt lat="44.9579" lon="5.40674">
        <ele>868</ele>
        <time>2017-10-21T20:14:45Z</time>
      </trkpt>
      <trkpt lat="44.95813" lon="5.40699">
        <ele>867</ele>
        <time>2017-10-21T20:14:48Z</time>
      </trkpt>
      <trkpt lat="44.95842" lon="5.40746">
        <ele>863</ele>
        <time>2017-10-21T20:15:06Z</time>
      </trkpt>
      <trkpt lat="44.95897" lon="5.40812">
        <ele>861</ele>
        <time>2017-10-21T20:15:16Z</time>
      </trkpt>
      <trkpt lat="44.95963" lon="5.40881">
        <ele>858</ele>
        <time>2017-10-21T20:15:31Z</time>
      </trkpt>
      <trkpt lat="44.95977" lon="5.4089">
        <ele>858</ele>
        <time>2017-10-21T20:15:41Z</time>
      </trkpt>
      <trkpt lat="44.95997" lon="5.40897">
        <ele>857</ele>
        <time>2017-10-21T20:15:55Z</time>
      </trkpt>
      <trkpt lat="44.9605" lon="5.4091">
        <ele>855</ele>
        <time>2017-10-21T20:16:04Z</time>
      </trkpt>
      <trkpt lat="44.96077" lon="5.40914">
        <ele>856</ele>
        <time>2017-10-21T20:16:13Z</time>
      </trkpt>
      <trkpt lat="44.96095" lon="5.4092">
        <ele>859</ele>
        <time>2017-10-21T20:16:22Z</time>
      </trkpt>
      <trkpt lat="44.9611" lon="5.40927">
        <ele>861</ele>
        <time>2017-10-21T20:16:31Z</time>
      </trkpt>
      <trkpt lat="44.96145" lon="5.40949">
        <ele>862</ele>
        <time>2017-10-21T20:16:33Z</time>
      </trkpt>
      <trkpt lat="44.9626" lon="5.41022">
        <ele>868</ele>
        <time>2017-10-21T20:16:35Z</time>
      </trkpt>
      <trkpt lat="44.96294" lon="5.41052">
        <ele>870</ele>
        <time>2017-10-21T20:16:46Z</time>
      </trkpt>
      <trkpt lat="44.96374" lon="5.4114">
        <ele>875</ele>
        <time>2017-10-21T20:17:04Z</time>
      </trkpt>
      <trkpt lat="44.96459" lon="5.41205">
        <ele>876</ele>
        <time>2017-10-21T20:17:22Z</time>
      </trkpt>
      <trkpt lat="44.96483" lon="5.41224">
        <ele>876</ele>
        <time>2017-10-21T20:17:34Z</time>
      </trkpt>
      <trkpt lat="44.96489" lon="5.41231">
        <ele>876</ele>
        <time>2017-10-21T20:17:43Z</time>
      </trkpt>
      <trkpt lat="44.96498" lon="5.41249">
        <ele>875</ele>
        <time>2017-10-21T20:17:48Z</time>
      </trkpt>
      <trkpt lat="44.96501" lon="5.41265">
        <ele>876</ele>
        <time>2017-10-21T20:18:03Z</time>
      </trkpt>
      <trkpt lat="44.96501" lon="5.41289">
        <ele>876</ele>
        <time>2017-10-21T20:18:22Z</time>
      </trkpt>
      <trkpt lat="44.96501" lon="5.41309">
        <ele>877</ele>
        <time>2017-10-21T20:18:28Z</time>
      </trkpt>
      <trkpt lat="44.96505" lon="5.41352">
        <ele>879</ele>
        <time>2017-10-21T20:18:48Z</time>
      </trkpt>
      <trkpt lat="44.96511" lon="5.41377">
        <ele>879</ele>
        <time>2017-10-21T20:18:52Z</time>
      </trkpt>
      <trkpt lat="44.96521" lon="5.41402">
        <ele>879</ele>
        <time>2017-10-21T20:19:08Z</time>
      </trkpt>
      <trkpt lat="44.96538" lon="5.41427">
        <ele>880</ele>
        <time>2017-10-21T20:19:21Z</time>
      </trkpt>
      <trkpt lat="44.96557" lon="5.41448">
        <ele>881</ele>
        <time>2017-10-21T20:19:30Z</time>
      </trkpt>
      <trkpt lat="44.96577" lon="5.41465">
        <ele>881</ele>
        <time>2017-10-21T20:19:35Z</time>
      </trkpt>
      <trkpt lat="44.9659" lon="5.41472">
        <ele>880</ele>
        <time>2017-10-21T20:19:53Z</time>
      </trkpt>
      <trkpt lat="44.96612" lon="5.41484">
        <ele>880</ele>
        <time>2017-10-21T20:20:09Z</time>
      </trkpt>
      <trkpt lat="44.96659" lon="5.41513">
        <ele>881</ele>
        <time>2017-10-21T20:20:29Z</time>
      </trkpt>
      <trkpt lat="44.96717" lon="5.41554">
        <ele>884</ele>
        <time>2017-10-21T20:20:36Z</time>
      </trkpt>
      <trkpt lat="44.96729" lon="5.41567">
        <ele>885</ele>
        <time>2017-10-21T20:20:55Z</time>
      </trkpt>
      <trkpt lat="44.96739" lon="5.41572">
        <ele>886</ele>
        <time>2017-10-21T20:21:03Z</time>
      </trkpt>
      <trkpt lat="44.96747" lon="5.41551">
        <ele>885</ele>
        <time>2017-10-21T20:21:08Z</time>
      </trkpt>
      <trkpt lat="44.96757" lon="5.41533">
        <ele>888</ele>
        <time>2017-10-21T20:21:25Z</time>
      </trkpt>
      <trkpt lat="44.96767" lon="5.41503">
        <ele>887</ele>
        <time>2017-10-21T20:21:36Z</time>
      </trkpt>
      <trkpt lat="44.96791" lon="5.41423">
        <ele>887</ele>
        <time>2017-10-21T20:21:51Z</time>
      </trkpt>
      <trkpt lat="44.96805" lon="5.4137">
        <ele>885</ele>
        <time>2017-10-21T20:21:56Z</time>
      </trkpt>
      <trkpt lat="44.96825" lon="5.41277">
        <ele>881</ele>
        <time>2017-10-21T20:22:00Z</time>
      </trkpt>
      <trkpt lat="44.9683" lon="5.4125">
        <ele>881</ele>
        <time>2017-10-21T20:22:14Z</time>
      </trkpt>
      <trkpt lat="44.96837" lon="5.41234">
        <ele>880</ele>
        <time>2017-10-21T20:22:18Z</time>
      </trkpt>
      <trkpt lat="44.96845" lon="5.41216">
        <ele>880</ele>
        <time>2017-10-21T20:22:34Z</time>
      </trkpt>
      <trkpt lat="44.96862" lon="5.41198">
        <ele>879</ele>
        <time>2017-10-21T20:22:50Z</time>
      </trkpt>
      <trkpt lat="44.96916" lon="5.41151">
        <ele>874</ele>
        <time>2017-10-21T20:22:55Z</time>
      </trkpt>
      <trkpt lat="44.96936" lon="5.41133">
        <ele>873</ele>
        <time>2017-10-21T20:23:06Z</time>
      </trkpt>
      <trkpt lat="44.96956" lon="5.41124">
        <ele>873</ele>
        <time>2017-10-21T20:23:20Z</time>
      </trkpt>
      <trkpt lat="44.96975" lon="5.41122">
        <ele>873</ele>
        <time>2017-10-21T20:23:37Z</time>
      </trkpt>
      <trkpt lat="44.96983" lon="5.41119">
        <ele>873</ele>
        <time>2017-10-21T20:23:40Z</time>
      </trkpt>
      <trkpt lat="44.96987" lon="5.41114">
        <ele>873</ele>
        <time>2017-10-21T20:23:48Z</time>
      </trkpt>
      <trkpt lat="44.96995" lon="5.411">
        <ele>873</ele>
        <time>2017-10-21T20:23:51Z</time>
      </trkpt>
      <trkpt lat="44.96996" lon="5.41088">
        <ele>873</ele>
        <time>2017-10-21T20:24:00Z</time>
      </trkpt>
      <trkpt lat="44.96993" lon="5.41071">
        <ele>871</ele>
        <time>2017-10-21T20:24:14Z</time>
      </trkpt>
      <trkpt lat="44.96964" lon="5.40942">
        <ele>866</ele>
        <time>2017-10-21T20:24:34Z</time>
      </trkpt>
      <trkpt lat="44.96957" lon="5.40899">
        <ele>862</ele>
        <time>2017-10-21T20:24:49Z</time>
      </trkpt>
      <trkpt lat="44.96957" lon="5.40885">
        <ele>862</ele>
        <time>2017-10-21T20:25:03Z</time>
      </trkpt>
      <trkpt lat="44.96959" lon="5.40863">
        <ele>861</ele>
        <time>2017-10-21T20:25:08Z</time>
      </trkpt>
      <trkpt lat="44.96964" lon="5.40841">
        <ele>860</ele>
        <time>2017-10-21T20:25:22Z</time>
      </trkpt>
      <trkpt lat="44.96972" lon="5.40817">
        <ele>856</ele>
        <time>2017-10-21T20:25:27Z</time>
      </trkpt>
      <trkpt lat="44.96987" lon="5.40795">
        <ele>855</ele>
        <time>2017-10-21T20:25:32Z</time>
      </trkpt>
      <trkpt lat="44.97" lon="5.40781">
        <ele>853</ele>
        <time>2017-10-21T20:25:45Z</time>
      </trkpt>
      <trkpt lat="44.97093" lon="5.40704">
        <ele>851</ele>
        <time>2017-10-21T20:26:02Z</time>
      </trkpt>
      <trkpt lat="44.97121" lon="5.40679">
        <ele>850</ele>
        <time>2017-10-21T20:26:16Z</time>
      </trkpt>
      <trkpt lat="44.97136" lon="5.40658">
        <ele>844</ele>
        <time>2017-10-21T20:26:28Z</time>
      </trkpt>
      <trkpt lat="44.97145" lon="5.40641">
        <ele>843</ele>
        <time>2017-10-21T20:26:40Z</time>
      </trkpt>
      <trkpt lat="44.97154" lon="5.40615">
        <ele>842</ele>
        <time>2017-10-21T20:26:58Z</time>
      </trkpt>
      <trkpt lat="44.97167" lon="5.40558">
        <ele>840</ele>
        <time>2017-10-21T20:27:00Z</time>
      </trkpt>
      <trkpt lat="44.97186" lon="5.40498">
        <ele>835</ele>
        <time>2017-10-21T20:27:18Z</time>
      </trkpt>
      <trkpt lat="44.97189" lon="5.40491">
        <ele>835</ele>
        <time>2017-10-21T20:27:20Z</time>
      </trkpt>
      <trkpt lat="44.97199" lon="5.40472">
        <ele>835</ele>
        <time>2017-10-21T20:27:29Z</time>
      </trkpt>
      <trkpt lat="44.97213" lon="5.40453">
        <ele>834</ele>
        <time>2017-10-21T20:27:48Z</time>
      </trkpt>
      <trkpt lat="44.97257" lon="5.40392">
        <ele>830</ele>
        <time>2017-10-21T20:28:08Z</time>
      </trkpt>
      <trkpt lat="44.97314" lon="5.4033">
        <ele>825</ele>
        <time>2017-10-21T20:28:14Z</time>
      </trkpt>
      <trkpt lat="44.9735" lon="5.40292">
        <ele>825</ele>
        <time>2017-10-21T20:28:24Z</time>
      </trkpt>
      <trkpt lat="44.97489" lon="5.40153">
        <ele>827</ele>
        <time>2017-10-21T20:28:30Z</time>
      </trkpt>
      <trkpt lat="44.97608" lon="5.40034">
        <ele>829</ele>
        <time>2017-10-21T20:28:34Z</time>
      </trkpt>
      <trkpt lat="44.97709" lon="5.39928">
        <ele>827</ele>
        <time>2017-10-21T20:28:53Z</time>
      </trkpt>
      <trkpt lat="44.97731" lon="5.3991">
        <ele>834</ele>
        <time>2017-10-21T20:29:13Z</time>
      </trkpt>
      <trkpt lat="44.97751" lon="5.39902">
        <ele>832</ele>
        <time>2017-10-21T20:29:26Z</time>
      </trkpt>
      <trkpt lat="44.97778" lon="5.39899">
        <ele>834</ele>
        <time>2017-10-21T20:29:34Z</time>
      </trkpt>
      <trkpt lat="44.9784" lon="5.39898">
        <ele>828</ele>
        <time>2017-10-21T20:29:37Z</time>
      </trkpt>
      <trkpt lat="44.97898" lon="5.39885">
        <ele>829</ele>
        <time>2017-10-21T20:29:56Z</time>
      </trkpt>
      <trkpt lat="44.97916" lon="5.39885">
        <ele>828</ele>
        <time>2017-10-21T20:30:10Z</time>
      </trkpt>
      <trkpt lat="44.97934" lon="5.39888">
        <ele>827</ele>
        <time>2017-10-21T20:30:24Z</time>
      </trkpt>
      <trkpt lat="44.97953" lon="5.39895">
        <ele>827</ele>
        <time>2017-10-21T20:30:41Z</time>
      </trkpt>
      <trkpt lat="44.97987" lon="5.3992">
        <ele>816</ele>
        <time>2017-10-21T20:30:46Z</time>
      </trkpt>
      <trkpt lat="44.98026" lon="5.39947">
        <ele>818</ele>
        <time>2017-10-21T20:31:03Z</time>
      </trkpt>
      <trkpt lat="44.98044" lon="5.39957">
        <ele>818</ele>
        <time>2017-10-21T20:31:13Z</time>
      </trkpt>
      <trkpt lat="44.98071" lon="5.39963">
        <ele>818</ele>
        <time>2017-10-21T20:31:19Z</time>
      </trkpt>
      <trkpt lat="44.98095" lon="5.39964">
        <ele>820</ele>
        <time>2017-10-21T20:31:23Z</time>
      </trkpt>
      <trkpt lat="44.98128" lon="5.39961">
        <ele>820</ele>
        <time>2017-10-21T20:31:35Z</time>
      </trkpt>
      <trkpt lat="44.98164" lon="5.39961">
        <ele>820</ele>
        <time>2017-10-21T20:31:38Z</time>
      </trkpt>
      <trkpt lat="44.982" lon="5.3997">
        <ele>819</ele>
        <time>2017-10-21T20:31:45Z</time>
      </trkpt>
      <trkpt lat="44.98239" lon="5.39986">
        <ele>817</ele>
        <time>2017-10-21T20:32:02Z</time>
      </trkpt>
      <trkpt lat="44.98285" lon="5.40013">
        <ele>814</ele>
        <time>2017-10-21T20:32:07Z</time>
      </trkpt>
      <trkpt lat="44.98301" lon="5.40025">
        <ele>815</ele>
        <time>2017-10-21T20:32:20Z</time>
      </trkpt>
      <trkpt lat="44.9842" lon="5.40147">
        <ele>805</ele>
        <time>2017-10-21T20:32:29Z</time>
      </trkpt>
      <trkpt lat="44.98434" lon="5.40157">
        <ele>805</ele>
        <time>2017-10-21T20:32:33Z</time>
      </trkpt>
      <trkpt lat="44.98461" lon="5.40169">
        <ele>801</ele>
        <time>2017-10-21T20:32:38Z</time>
      </trkpt>
      <trkpt lat="44.9851" lon="5.40182">
        <ele>804</ele>
        <time>2017-10-21T20:32:50Z</time>
      </trkpt>
      <trkpt lat="44.98529" lon="5.40189">
        <ele>804</ele>
        <time>2017-10-21T20:32:52Z</time>
      </trkpt>
      <trkpt lat="44.98551" lon="5.40206">
        <ele>804</ele>
        <time>2017-10-21T20:33:07Z</time>
      </trkpt>
      <trkpt lat="44.98568" lon="5.40229">
        <ele>803</ele>
        <time>2017-10-21T20:33:23Z</time>
      </trkpt>
      <trkpt lat="44.98578" lon="5.40249">
        <ele>802</ele>
        <time>2017-10-21T20:33:43Z</time>
      </trkpt>
      <trkpt lat="44.98585" lon="5.40277">
        <ele>804</ele>
        <time>2017-10-21T20:33:48Z</time>
      </trkpt>
      <trkpt lat="44.98587" lon="5.40323">
        <ele>800</ele>
        <time>2017-10-21T20:33:52Z</time>
      </trkpt>
      <trkpt lat="44.9858" lon="5.40471">
        <ele>805</ele>
        <time>2017-10-21T20:34:07Z</time>
      </trkpt>
      <trkpt lat="44.9858" lon="5.40546">
        <ele>812</ele>
        <time>2017-10-21T20:34:14Z</time>
      </trkpt>
      <trkpt lat="44.98589" lon="5.4058">
        <ele>807</ele>
        <time>2017-10-21T20:34:20Z</time>
      </trkpt>
      <trkpt lat="44.98603" lon="5.40613">
        <ele>810</ele>
        <time>2017-10-21T20:34:24Z</time>
      </trkpt>
      <trkpt lat="44.98716" lon="5.40762">
        <ele>808</ele>
        <time>2017-10-21T20:34:39Z</time>
      </trkpt>
      <trkpt lat="44.98734" lon="5.40785">
        <ele>808</ele>
        <time>2017-10-21T20:34:59Z</time>
      </trkpt>
      <trkpt lat="44.98761" lon="5.40811">
        <ele>804</ele>
        <time>2017-10-21T20:35:13Z</time>
      </trkpt>
      <trkpt lat="44.98892" lon="5.40908">
        <ele>800</ele>
        <time>2017-10-21T20:35:32Z</time>
      </trkpt>
      <trkpt lat="44.98917" lon="5.40931">
        <ele>796</ele>
        <time>2017-10-21T20:35:52Z</time>
      </trkpt>
      <trkpt lat="44.98934" lon="5.40954">
        <ele>798</ele>
        <time>2017-10-21T20:36:04Z</time>
      </trkpt>
      <trkpt lat="44.98953" lon="5.40985">
        <ele>798</ele>
        <time>2017-10-21T20:36:20Z</time>
      </trkpt>
      <trkpt lat="44.9901" lon="5.41091">
        <ele>783</ele>
        <time>2017-10-21T20:36:34Z</time>
      </trkpt>
      <trkpt lat="44.99074" lon="5.41185">
        <ele>777</ele>
        <time>2017-10-21T20:36:53Z</time>
      </trkpt>
      <trkpt lat="44.99086" lon="5.41198">
        <ele>773</ele>
        <time>2017-10-21T20:37:06Z</time>
      </trkpt>
      <trkpt lat="44.99096" lon="5.41205">
        <ele>772</ele>
        <time>2017-10-21T20:37:12Z</time>
      </trkpt>
      <trkpt lat="44.99107" lon="5.41211">
        <ele>771</ele>
        <time>2017-10-21T20:37:22Z</time>
      </trkpt>
      <trkpt lat="44.99153" lon="5.41218">
        <ele>771</ele>
        <time>2017-10-21T20:37:42Z</time>
      </trkpt>
      <trkpt lat="44.9917" lon="5.41227">
        <ele>774</ele>
        <time>2017-10-21T20:37:59Z</time>
      </trkpt>
      <trkpt lat="44.99179" lon="5.41235">
        <ele>773</ele>
        <time>2017-10-21T20:38:19Z</time>
      </trkpt>
      <trkpt lat="44.9919" lon="5.41249">
        <ele>774</ele>
        <time>2017-10-21T20:38:23Z</time>
      </trkpt>
      <trkpt lat="44.992" lon="5.4127">
        <ele>769</ele>
        <time>2017-10-21T20:38:36Z</time>
      </trkpt>
      <trkpt lat="44.99243" lon="5.41403">
        <ele>758</ele>
        <time>2017-10-21T20:38:39Z</time>
      </trkpt>
      <trkpt lat="44.99301" lon="5.41587">
        <ele>751</ele>
        <time>2017-10-21T20:38:42Z</time>
      </trkpt>
      <trkpt lat="44.99314" lon="5.41624">
        <ele>751</ele>
        <time>2017-10-21T20:38:57Z</time>
      </trkpt>
      <trkpt lat="44.99333" lon="5.41664">
        <ele>748</ele>
        <time>2017-10-21T20:39:09Z</time>
      </trkpt>
      <trkpt lat="44.99366" lon="5.41714">
        <ele>747</ele>
        <time>2017-10-21T20:39:24Z</time>
      </trkpt>
      <trkpt lat="44.99585" lon="5.42024">
        <ele>722</ele>
        <time>2017-10-21T20:39:27Z</time>
      </trkpt>
      <trkpt lat="44.99608" lon="5.42052">
        <ele>720</ele>
        <time>2017-10-21T20:39:34Z</time>
      </trkpt>
      <trkpt lat="44.99629" lon="5.4207">
        <ele>719</ele>
        <time>2017-10-21T20:39:43Z</time>
      </trkpt>
      <trkpt lat="44.99641" lon="5.42079">
        <ele>719</ele>
        <time>2017-10-21T20:39:45Z</time>
      </trkpt>
      <trkpt lat="44.99686" lon="5.42103">
        <ele>718</ele>
        <time>2017-10-21T20:39:55Z</time>
      </trkpt>
      <trkpt lat="44.99707" lon="5.42116">
        <ele>719</ele>
        <time>2017-10-21T20:39:59Z</time>
      </trkpt>
      <trkpt lat="44.99719" lon="5.42127">
        <ele>719</ele>
        <time>2017-10-21T20:40:09Z</time>
      </trkpt>
      <trkpt lat="44.99727" lon="5.42137">
        <ele>719</ele>
        <time>2017-10-21T20:40:27Z</time>
      </trkpt>
      <trkpt lat="44.99748" lon="5.42177">
        <ele>714</ele>
        <time>2017-10-21T20:40:42Z</time>
      </trkpt>
      <trkpt lat="44.99766" lon="5.42208">
        <ele>714</ele>
        <time>2017-10-21T20:40:49Z</time>
      </trkpt>
      <trkpt lat="44.99785" lon="5.42234">
        <ele>713</ele>
        <time>2017-10-21T20:41:09Z</time>
      </trkpt>
      <trkpt lat="44.99807" lon="5.42254">
        <ele>707</ele>
        <time>2017-10-21T20:41:23Z</time>
      </trkpt>
      <trkpt lat="44.99822" lon="5.42264">
        <ele>708</ele>
        <time>2017-10-21T20:41:31Z</time>
      </trkpt>
      <trkpt lat="44.9984" lon="5.42273">
        <ele>705</ele>
        <time>2017-10-21T20:41:39Z</time>
      </trkpt>
      <trkpt lat="44.99857" lon="5.42276">
        <ele>703</ele>
        <time>2017-10-21T20:41:41Z</time>
      </trkpt>
      <trkpt lat="44.99873" lon="5.42276">
        <ele>702</ele>
        <time>2017-10-21T20:41:45Z</time>
      </trkpt>
      <trkpt lat="44.99931" lon="5.42261">
        <ele>698</ele>
        <time>2017-10-21T20:42:03Z</time>
      </trkpt>
      <trkpt lat="44.99951" lon="5.42257">
        <ele>696</ele>
        <time>2017-10-21T20:42:22Z</time>
      </trkpt>
      <trkpt lat="44.99969" lon="5.4226">
        <ele>695</ele>
        <time>2017-10-21T20:42:32Z</time>
      </trkpt>
      <trkpt lat="44.99998" lon="5.42269">
        <ele>695</ele>
        <time>2017-10-21T20:42:35Z</time>
      </trkpt>
      <trkpt lat="45.00062" lon="5.42292">
        <ele>689</ele>
        <time>2017-10-21T20:42:40Z</time>
      </trkpt>
      <trkpt lat="45.00072" lon="5.42291">
        <ele>689</ele>
        <time>2017-10-21T20:42:46Z</time>
      </trkpt>
      <trkpt lat="45.00081" lon="5.42286">
        <ele>689</ele>
        <time>2017-10-21T20:42:56Z</time>
      </trkpt>
      <trkpt lat="45.00092" lon="5.42271">
        <ele>688</ele>
        <time>2017-10-21T20:43:10Z</time>
      </trkpt>
      <trkpt lat="45.00108" lon="5.42238">
        <ele>692</ele>
        <time>2017-10-21T20:43:25Z</time>
      </trkpt>
      <trkpt lat="45.00136" lon="5.42191">
        <ele>692</ele>
        <time>2017-10-21T20:43:44Z</time>
      </trkpt>
      <trkpt lat="45.00154" lon="5.4217">
        <ele>691</ele>
        <time>2017-10-21T20:43:54Z</time>
      </trkpt>
      <trkpt lat="45.0017" lon="5.42157">
        <ele>693</ele>
        <time>2017-10-21T20:44:14Z</time>
      </trkpt>
      <trkpt lat="45.00179" lon="5.42151">
        <ele>695</ele>
        <time>2017-10-21T20:44:32Z</time>
      </trkpt>
      <trkpt lat="45.00189" lon="5.42149">
        <ele>697</ele>
        <time>2017-10-21T20:44:49Z</time>
      </trkpt>
      <trkpt lat="45.00199" lon="5.42149">
        <ele>698</ele>
        <time>2017-10-21T20:45:07Z</time>
      </trkpt>
      <trkpt lat="45.00205" lon="5.42152">
        <ele>698</ele>
        <time>2017-10-21T20:45:20Z</time>
      </trkpt>
      <trkpt lat="45.00209" lon="5.42156">
        <ele>698</ele>
        <time>2017-10-21T20:45:39Z</time>
      </trkpt>
      <trkpt lat="45.00213" lon="5.42167">
        <ele>693</ele>
        <time>2017-10-21T20:45:58Z</time>
      </trkpt>
      <trkpt lat="45.00214" lon="5.42179">
        <ele>693</ele>
        <time>2017-10-21T20:46:14Z</time>
      </trkpt>
      <trkpt lat="45.00205" lon="5.42236">
        <ele>692</ele>
        <time>2017-10-21T20:46:16Z</time>
      </trkpt>
      <trkpt lat="45.00192" lon="5.42297">
        <ele>691</ele>
        <time>2017-10-21T20:46:20Z</time>
      </trkpt>
      <trkpt lat="45.00187" lon="5.42339">
        <ele>692</ele>
        <time>2017-10-21T20:46:27Z</time>
      </trkpt>
      <trkpt lat="45.00185" lon="5.42364">
        <ele>695</ele>
        <time>2017-10-21T20:46:34Z</time>
      </trkpt>
      <trkpt lat="45.00183" lon="5.4237">
        <ele>696</ele>
        <time>2017-10-21T20:46:54Z</time>
      </trkpt>
      <trkpt lat="45.00165" lon="5.42402">
        <ele>686</ele>
        <time>2017-10-21T20:47:04Z</time>
      </trkpt>
      <trkpt lat="45.00162" lon="5.42404">
        <ele>686</ele>
        <time>2017-10-21T20:47:10Z</time>
      </trkpt>
      <trkpt lat="45.00159" lon="5.42406">
        <ele>686</ele>
        <time>2017-10-21T20:47:30Z</time>
      </trkpt>
      <trkpt lat="45.00155" lon="5.42414">
        <ele>686</ele>
        <time>2017-10-21T20:47:46Z</time>
      </trkpt>
      <trkpt lat="45.00154" lon="5.42423">
        <ele>688</ele>
        <time>2017-10-21T20:48:03Z</time>
      </trkpt>
      <trkpt lat="45.00156" lon="5.42431">
        <ele>688</ele>
        <time>2017-10-21T20:48:15Z</time>
      </trkpt>
      <trkpt lat="45.00158" lon="5.42435">
        <ele>688</ele>
        <time>2017-10-21T20:48:30Z</time>
      </trkpt>
      <trkpt lat="45.00165" lon="5.42484">
        <ele>693</ele>
        <time>2017-10-21T20:48:32Z</time>
      </trkpt>
      <trkpt lat="45.00164" lon="5.42494">
        <ele>696</ele>
        <time>2017-10-21T20:48:35Z</time>
      </trkpt>
      <trkpt lat="45.00162" lon="5.42503">
        <ele>698</ele>
        <time>2017-10-21T20:48:45Z</time>
      </trkpt>
      <trkpt lat="45.00154" lon="5.42533">
        <ele>697</ele>
        <time>2017-10-21T20:48:50Z</time>
      </trkpt>
      <trkpt lat="45.00141" lon="5.4257">
        <ele>699</ele>
        <time>2017-10-21T20:49:06Z</time>
      </trkpt>
      <trkpt lat="45.00124" lon="5.42605">
        <ele>709</ele>
        <time>2017-10-21T20:49:08Z</time>
      </trkpt>
      <trkpt lat="45.00107" lon="5.42632">
        <ele>711</ele>
        <time>2017-10-21T20:49:20Z</time>
      </trkpt>
      <trkpt lat="45.00065" lon="5.42683">
        <ele>711</ele>
        <time>2017-10-21T20:49:24Z</time>
      </trkpt>
      <trkpt lat="45.00047" lon="5.42697">
        <ele>711</ele>
        <time>2017-10-21T20:49:32Z</time>
      </trkpt>
      <trkpt lat="45.00038" lon="5.42701">
        <ele>710</ele>
        <time>2017-10-21T20:49:52Z</time>
      </trkpt>
      <trkpt lat="45.00023" lon="5.42703">
        <ele>709</ele>
        <time>2017-10-21T20:50:02Z</time>
      </trkpt>
      <trkpt lat="45.00001" lon="5.42701">
        <ele>707</ele>
        <time>2017-10-21T20:50:16Z</time>
      </trkpt>
      <trkpt lat="44.99985" lon="5.42707">
        <ele>701</ele>
        <time>2017-10-21T20:50:19Z</time>
      </trkpt>
      <trkpt lat="44.99979" lon="5.42714">
        <ele>702</ele>
        <time>2017-10-21T20:50:31Z</time>
      </trkpt>
      <trkpt lat="44.99975" lon="5.42721">
        <ele>703</ele>
        <time>2017-10-21T20:50:43Z</time>
      </trkpt>
      <trkpt lat="44.99973" lon="5.42738">
        <ele>705</ele>
        <time>2017-10-21T20:50:47Z</time>
      </trkpt>
      <trkpt lat="44.99978" lon="5.42752">
        <ele>711</ele>
        <time>2017-10-21T20:50:59Z</time>
      </trkpt>
      <trkpt lat="44.99993" lon="5.42764">
        <ele>711</ele>
        <time>2017-10-21T20:51:04Z</time>
      </trkpt>
      <trkpt lat="45.00018" lon="5.4278">
        <ele>718</ele>
        <time>2017-10-21T20:51:24Z</time>
      </trkpt>
      <trkpt lat="45.00024" lon="5.42788">
        <ele>719</ele>
        <time>2017-10-21T20:51:30Z</time>
      </trkpt>
      <trkpt lat="45.00029" lon="5.42801">
        <ele>719</ele>
        <time>2017-10-21T20:51:41Z</time>
      </trkpt>
      <trkpt lat="45.00035" lon="5.42827">
        <ele>720</ele>
        <time>2017-10-21T20:51:43Z</time>
      </trkpt>
      <trkpt lat="45.00041" lon="5.42863">
        <ele>717</ele>
        <time>2017-10-21T20:51:59Z</time>
      </trkpt>
      <trkpt lat="45.00047" lon="5.42912">
        <ele>716</ele>
        <time>2017-10-21T20:52:14Z</time>
      </trkpt>
      <trkpt lat="45.00059" lon="5.42947">
        <ele>712</ele>
        <time>2017-10-21T20:52:23Z</time>
      </trkpt>
      <trkpt lat="45.00073" lon="5.43009">
        <ele>713</ele>
        <time>2017-10-21T20:52:33Z</time>
      </trkpt>
      <trkpt lat="45.00083" lon="5.43065">
        <ele>705</ele>
        <time>2017-10-21T20:52:43Z</time>
      </trkpt>
      <trkpt lat="45.00088" lon="5.4308">
        <ele>715</ele>
        <time>2017-10-21T20:52:54Z</time>
      </trkpt>
      <trkpt lat="45.00115" lon="5.43146">
        <ele>721</ele>
        <time>2017-10-21T20:53:04Z</time>
      </trkpt>
      <trkpt lat="45.00143" lon="5.43255">
        <ele>714</ele>
        <time>2017-10-21T20:53:23Z</time>
      </trkpt>
      <trkpt lat="45.00147" lon="5.43291">
        <ele>709</ele>
        <time>2017-10-21T20:53:39Z</time>
      </trkpt>
      <trkpt lat="45.00151" lon="5.43326">
        <ele>709</ele>
        <time>2017-10-21T20:53:53Z</time>
      </trkpt>
      <trkpt lat="45.00165" lon="5.43399">
        <ele>702</ele>
        <time>2017-10-21T20:54:04Z</time>
      </trkpt>
      <trkpt lat="45.00167" lon="5.4343">
        <ele>708</ele>
        <time>2017-10-21T20:54:15Z</time>
      </trkpt>
      <trkpt lat="45.00167" lon="5.43446">
        <ele>710</ele>
        <time>2017-10-21T20:54:23Z</time>
      </trkpt>
      <trkpt lat="45.0016" lon="5.43512">
        <ele>694</ele>
        <time>2017-10-21T20:54:31Z</time>
      </trkpt>
      <trkpt lat="45.00156" lon="5.43555">
        <ele>695</ele>
        <time>2017-10-21T20:54:35Z</time>
      </trkpt>
      <trkpt lat="45.00157" lon="5.43572">
        <ele>695</ele>
        <time>2017-10-21T20:54:45Z</time>
      </trkpt>
      <trkpt lat="45.00168" lon="5.43604">
        <ele>699</ele>
        <time>2017-10-21T20:54:57Z</time>
      </trkpt>
      <trkpt lat="45.00182" lon="5.4362">
        <ele>699</ele>
        <time>2017-10-21T20:55:08Z</time>
      </trkpt>
      <trkpt lat="45.00215" lon="5.43643">
        <ele>700</ele>
        <time>2017-10-21T20:55:16Z</time>
      </trkpt>
      <trkpt lat="45.00243" lon="5.43656">
        <ele>698</ele>
        <time>2017-10-21T20:55:22Z</time>
      </trkpt>
      <trkpt lat="45.00278" lon="5.4367">
        <ele>697</ele>
        <time>2017-10-21T20:55:37Z</time>
      </trkpt>
      <trkpt lat="45.00306" lon="5.43688">
        <ele>698</ele>
        <time>2017-10-21T20:55:41Z</time>
      </trkpt>
      <trkpt lat="45.00317" lon="5.437">
        <ele>697</ele>
        <time>2017-10-21T20:55:56Z</time>
      </trkpt>
      <trkpt lat="45.00325" lon="5.43716">
        <ele>696</ele>
        <time>2017-10-21T20:56:01Z</time>
      </trkpt>
      <trkpt lat="45.00328" lon="5.43727">
        <ele>695</ele>
        <time>2017-10-21T20:56:12Z</time>
      </trkpt>
      <trkpt lat="45.00329" lon="5.43749">
        <ele>692</ele>
        <time>2017-10-21T20:56:16Z</time>
      </trkpt>
      <trkpt lat="45.00328" lon="5.43769">
        <ele>695</ele>
        <time>2017-10-21T20:56:26Z</time>
      </trkpt>
      <trkpt lat="45.003" lon="5.44004">
        <ele>715</ele>
        <time>2017-10-21T20:56:42Z</time>
      </trkpt>
      <trkpt lat="45.003" lon="5.44021">
        <ele>715</ele>
        <time>2017-10-21T20:56:49Z</time>
      </trkpt>
      <trkpt lat="45.00301" lon="5.44032">
        <ele>715</ele>
        <time>2017-10-21T20:57:01Z</time>
      </trkpt>
      <trkpt lat="45.00305" lon="5.44043">
        <ele>715</ele>
        <time>2017-10-21T20:57:08Z</time>
      </trkpt>
      <trkpt lat="45.00319" lon="5.44067">
        <ele>712</ele>
        <time>2017-10-21T20:57:18Z</time>
      </trkpt>
      <trkpt lat="45.00354" lon="5.44117">
        <ele>707</ele>
        <time>2017-10-21T20:57:34Z</time>
      </trkpt>
      <trkpt lat="45.00361" lon="5.44123">
        <ele>707</ele>
        <time>2017-10-21T20:57:44Z</time>
      </trkpt>
      <trkpt lat="45.00375" lon="5.4413">
        <ele>707</ele>
        <time>2017-10-21T20:57:51Z</time>
      </trkpt>
      <trkpt lat="45.00402" lon="5.44139">
        <ele>707</ele>
        <time>2017-10-21T20:58:08Z</time>
      </trkpt>
      <trkpt lat="45.0042" lon="5.44143">
        <ele>710</ele>
        <time>2017-10-21T20:58:27Z</time>
      </trkpt>
      <trkpt lat="45.0044" lon="5.44142">
        <ele>711</ele>
        <time>2017-10-21T20:58:39Z</time>
      </trkpt>
      <trkpt lat="45.00452" lon="5.44139">
        <ele>712</ele>
        <time>2017-10-21T20:58:41Z</time>
      </trkpt>
      <trkpt lat="45.00464" lon="5.4413">
        <ele>713</ele>
        <time>2017-10-21T20:58:52Z</time>
      </trkpt>
      <trkpt lat="45.00476" lon="5.4412">
        <ele>714</ele>
        <time>2017-10-21T20:58:58Z</time>
      </trkpt>
      <trkpt lat="45.0049" lon="5.44112">
        <ele>716</ele>
        <time>2017-10-21T20:59:16Z</time>
      </trkpt>
      <trkpt lat="45.00497" lon="5.4411">
        <ele>716</ele>
        <time>2017-10-21T20:59:32Z</time>
      </trkpt>
      <trkpt lat="45.00509" lon="5.44109">
        <ele>721</ele>
        <time>2017-10-21T20:59:52Z</time>
      </trkpt>
      <trkpt lat="45.0053" lon="5.44111">
        <ele>721</ele>
        <time>2017-10-21T21:00:08Z</time>
      </trkpt>
      <trkpt lat="45.00554" lon="5.44113">
        <ele>722</ele>
        <time>2017-10-21T21:00:11Z</time>
      </trkpt>
      <trkpt lat="45.00583" lon="5.4411">
        <ele>722</ele>
        <time>2017-10-21T21:00:13Z</time>
      </trkpt>
      <trkpt lat="45.00693" lon="5.44083">
        <ele>729</ele>
        <time>2017-10-21T21:00:27Z</time>
      </trkpt>
      <trkpt lat="45.00706" lon="5.44082">
        <ele>730</ele>
        <time>2017-10-21T21:00:31Z</time>
      </trkpt>
      <trkpt lat="45.00713" lon="5.44084">
        <ele>723</ele>
        <time>2017-10-21T21:00:44Z</time>
      </trkpt>
      <trkpt lat="45.00722" lon="5.4409">
        <ele>723</ele>
        <time>2017-10-21T21:00:59Z</time>
      </trkpt>
      <trkpt lat="45.00732" lon="5.44107">
        <ele>723</ele>
        <time>2017-10-21T21:01:19Z</time>
      </trkpt>
      <trkpt lat="45.00736" lon="5.44127">
        <ele>722</ele>
        <time>2017-10-21T21:01:37Z</time>
      </trkpt>
      <trkpt lat="45.00741" lon="5.44156">
        <ele>720</ele>
        <time>2017-10-21T21:01:47Z</time>
      </trkpt>
      <trkpt lat="45.00744" lon="5.44197">
        <ele>720</ele>
        <time>2017-10-21T21:01:53Z</time>
      </trkpt>
      <trkpt lat="45.00746" lon="5.44216">
        <ele>719</ele>
        <time>2017-10-21T21:02:11Z</time>
      </trkpt>
      <trkpt lat="45.00752" lon="5.44233">
        <ele>717</ele>
        <time>2017-10-21T21:02:28Z</time>
      </trkpt>
      <trkpt lat="45.0076" lon="5.44248">
        <ele>716</ele>
        <time>2017-10-21T21:02:38Z</time>
      </trkpt>
      <trkpt lat="45.0077" lon="5.44256">
        <ele>715</ele>
        <time>2017-10-21T21:02:48Z</time>
      </trkpt>
      <trkpt lat="45.00782" lon="5.44261">
        <ele>715</ele>
        <time>2017-10-21T21:02:50Z</time>
      </trkpt>
      <trkpt lat="45.0079" lon="5.44261">
        <ele>715</ele>
        <time>2017-10-21T21:02:52Z</time>
      </trkpt>
      <trkpt lat="45.00798" lon="5.4426">
        <ele>715</ele>
        <time>2017-10-21T21:03:12Z</time>
      </trkpt>
      <trkpt lat="45.00807" lon="5.44256">
        <ele>715</ele>
        <time>2017-10-21T21:03:31Z</time>
      </trkpt>
      <trkpt lat="45.00847" lon="5.44227">
        <ele>721</ele>
        <time>2017-10-21T21:03:40Z</time>
      </trkpt>
      <trkpt lat="45.00874" lon="5.44211">
        <ele>724</ele>
        <time>2017-10-21T21:03:47Z</time>
      </trkpt>
      <trkpt lat="45.00884" lon="5.44209">
        <ele>724</ele>
        <time>2017-10-21T21:04:02Z</time>
      </trkpt>
      <trkpt lat="45.00896" lon="5.44211">
        <ele>724</ele>
        <time>2017-10-21T21:04:17Z</time>
      </trkpt>
      <trkpt lat="45.00906" lon="5.44218">
        <ele>723</ele>
        <time>2017-10-21T21:04:34Z</time>
      </trkpt>
      <trkpt lat="45.00953" lon="5.4426">
        <ele>718</ele>
        <time>2017-10-21T21:04:45Z</time>
      </trkpt>
      <trkpt lat="45.00967" lon="5.44268">
        <ele>718</ele>
        <time>2017-10-21T21:05:04Z</time>
      </trkpt>
      <trkpt lat="45.00983" lon="5.44271">
        <ele>719</ele>
        <time>2017-10-21T21:05:18Z</time>
      </trkpt>
      <trkpt lat="45.01058" lon="5.44272">
        <ele>720</ele>
        <time>2017-10-21T21:05:32Z</time>
      </trkpt>
      <trkpt lat="45.01146" lon="5.44272">
        <ele>724</ele>
        <time>2017-10-21T21:05:38Z</time>
      </trkpt>
      <trkpt lat="45.01246" lon="5.44285">
        <ele>723</ele>
        <time>2017-10-21T21:05:50Z</time>
      </trkpt>
      <trkpt lat="45.01276" lon="5.44284">
        <ele>723</ele>
        <time>2017-10-21T21:05:52Z</time>
      </trkpt>
      <trkpt lat="45.01296" lon="5.4428">
        <ele>724</ele>
        <time>2017-10-21T21:06:04Z</time>
      </trkpt>
      <trkpt lat="45.01355" lon="5.44263">
        <ele>725</ele>
        <time>2017-10-21T21:06:11Z</time>
      </trkpt>
      <trkpt lat="45.01375" lon="5.44259">
        <ele>724</ele>
        <time>2017-10-21T21:06:14Z</time>
      </trkpt>
      <trkpt lat="45.01385" lon="5.44257">
        <ele>724</ele>
        <time>2017-10-21T21:06:20Z</time>
      </trkpt>
      <trkpt lat="45.01459" lon="5.4424">
        <ele>731</ele>
        <time>2017-10-21T21:06:34Z</time>
      </trkpt>
      <trkpt lat="45.01489" lon="5.44237">
        <ele>732</ele>
        <time>2017-10-21T21:06:44Z</time>
      </trkpt>
      <trkpt lat="45.0154" lon="5.44232">
        <ele>735</ele>
        <time>2017-10-21T21:06:57Z</time>
      </trkpt>
      <trkpt lat="45.01562" lon="5.44233">
        <ele>735</ele>
        <time>2017-10-21T21:07:13Z</time>
      </trkpt>
      <trkpt lat="45.01581" lon="5.44234">
        <ele>734</ele>
        <time>2017-10-21T21:07:25Z</time>
      </trkpt>
      <trkpt lat="45.01599" lon="5.44237">
        <ele>736</ele>
        <time>2017-10-21T21:07:32Z</time>
      </trkpt>
      <trkpt lat="45.01626" lon="5.44245">
        <ele>737</ele>
        <time>2017-10-21T21:07:41Z</time>
      </trkpt>
      <trkpt lat="45.01696" lon="5.44271">
        <ele>736</ele>
        <time>2017-10-21T21:07:56Z</time>
      </trkpt>
      <trkpt lat="45.01713" lon="5.44274">
        <ele>736</ele>
        <time>2017-10-21T21:08:03Z</time>
      </trkpt>
      <trkpt lat="45.01774" lon="5.44277">
        <ele>740</ele>
        <time>2017-10-21T21:08:17Z</time>
      </trkpt>
      <trkpt lat="45.01844" lon="5.44278">
        <ele>743</ele>
        <time>2017-10-21T21:08:37Z</time>
      </trkpt>
      <trkpt lat="45.01937" lon="5.44283">
        <ele>746</ele>
        <time>2017-10-21T21:08:47Z</time>
      </trkpt>
      <trkpt lat="45.01949" lon="5.44282">
        <ele>746</ele>
        <time>2017-10-21T21:09:06Z</time>
      </trkpt>
      <trkpt lat="45.0196" lon="5.44279">
        <ele>746</ele>
        <time>2017-10-21T21:09:14Z</time>
      </trkpt>
      <trkpt lat="45.01976" lon="5.44272">
        <ele>746</ele>
        <time>2017-10-21T21:09:27Z</time>
      </trkpt>
      <trkpt lat="45.02006" lon="5.44253">
        <ele>750</ele>
        <time>2017-10-21T21:09:45Z</time>
      </trkpt>
      <trkpt lat="45.02021" lon="5.44246">
        <ele>754</ele>
        <time>2017-10-21T21:10:00Z</time>
      </trkpt>
      <trkpt lat="45.02032" lon="5.44242">
        <ele>755</ele>
        <time>2017-10-21T21:10:19Z</time>
      </trkpt>
      <trkpt lat="45.02056" lon="5.4424">
        <ele>756</ele>
        <time>2017-10-21T21:10:31Z</time>
      </trkpt>
      <trkpt lat="45.02072" lon="5.44239">
        <ele>757</ele>
        <time>2017-10-21T21:10:47Z</time>
      </trkpt>
      <trkpt lat="45.02091" lon="5.44244">
        <ele>758</ele>
        <time>2017-10-21T21:10:49Z</time>
      </trkpt>
      <trkpt lat="45.02137" lon="5.44265">
        <ele>757</ele>
        <time>2017-10-21T21:11:06Z</time>
      </trkpt>
      <trkpt lat="45.02174" lon="5.44287">
        <ele>758</ele>
        <time>2017-10-21T21:11:20Z</time>
      </trkpt>
      <trkpt lat="45.02245" lon="5.4431">
        <ele>756</ele>
        <time>2017-10-21T21:11:36Z</time>
      </trkpt>
      <trkpt lat="45.02321" lon="5.44333">
        <ele>757</ele>
        <time>2017-10-21T21:11:49Z</time>
      </trkpt>
      <trkpt lat="45.02443" lon="5.44373">
        <ele>758</ele>
        <time>2017-10-21T21:12:01Z</time>
      </trkpt>
      <trkpt lat="45.02508" lon="5.44392">
        <ele>760</ele>
        <time>2017-10-21T21:12:19Z</time>
      </trkpt>
      <trkpt lat="45.02549" lon="5.44394">
        <ele>760</ele>
        <time>2017-10-21T21:12:39Z</time>
      </trkpt>
      <trkpt lat="45.02578" lon="5.44392">
        <ele>760</ele>
        <time>2017-10-21T21:12:44Z</time>
      </trkpt>
      <trkpt lat="45.0264" lon="5.44395">
        <ele>765</ele>
        <time>2017-10-21T21:12:49Z</time>
      </trkpt>
      <trkpt lat="45.02695" lon="5.44399">
        <ele>771</ele>
        <time>2017-10-21T21:12:59Z</time>
      </trkpt>
      <trkpt lat="45.02719" lon="5.44397">
        <ele>772</ele>
        <time>2017-10-21T21:13:15Z</time>
      </trkpt>
      <trkpt lat="45.02746" lon="5.44382">
        <ele>774</ele>
        <time>2017-10-21T21:13:18Z</time>
      </trkpt>
      <trkpt lat="45.02771" lon="5.44368">
        <ele>782</ele>
        <time>2017-10-21T21:13:33Z</time>
      </trkpt>
      <trkpt lat="45.02809" lon="5.4436">
        <ele>785</ele>
        <time>2017-10-21T21:13:35Z</time>
      </trkpt>
      <trkpt lat="45.02824" lon="5.44356">
        <ele>788</ele>
        <time>2017-10-21T21:13:44Z</time>
      </trkpt>
      <trkpt lat="45.02836" lon="5.44355">
        <ele>794</ele>
        <time>2017-10-21T21:13:48Z</time>
      </trkpt>
      <trkpt lat="45.0285" lon="5.44358">
        <ele>793</ele>
        <time>2017-10-21T21:14:00Z</time>
      </trkpt>
      <trkpt lat="45.02866" lon="5.44366">
        <ele>792</ele>
        <time>2017-10-21T21:14:11Z</time>
      </trkpt>
      <trkpt lat="45.02903" lon="5.44388">
        <ele>790</ele>
        <time>2017-10-21T21:14:20Z</time>
      </trkpt>
      <trkpt lat="45.02926" lon="5.44397">
        <ele>793</ele>
        <time>2017-10-21T21:14:22Z</time>
      </trkpt>
      <trkpt lat="45.0294" lon="5.44402">
        <ele>794</ele>
        <time>2017-10-21T21:14:41Z</time>
      </trkpt>
      <trkpt lat="45.02968" lon="5.44406">
        <ele>796</ele>
        <time>2017-10-21T21:14:44Z</time>
      </trkpt>
      <trkpt lat="45.0305" lon="5.44411">
        <ele>804</ele>
        <time>2017-10-21T21:14:49Z</time>
      </trkpt>
      <trkpt lat="45.03082" lon="5.44399">
        <ele>804</ele>
        <time>2017-10-21T21:14:57Z</time>
      </trkpt>
      <trkpt lat="45.03104" lon="5.44392">
        <ele>810</ele>
        <time>2017-10-21T21:15:04Z</time>
      </trkpt>
      <trkpt lat="45.03177" lon="5.44397">
        <ele>812</ele>
        <time>2017-10-21T21:15:09Z</time>
      </trkpt>
      <trkpt lat="45.03225" lon="5.44397">
        <ele>815</ele>
        <time>2017-10-21T21:15:24Z</time>
      </trkpt>
      <trkpt lat="45.03287" lon="5.44386">
        <ele>820</ele>
        <time>2017-10-21T21:15:43Z</time>
      </trkpt>
      <trkpt lat="45.03369" lon="5.4439">
        <ele>824</ele>
        <time>2017-10-21T21:16:01Z</time>
      </trkpt>
      <trkpt lat="45.03428" lon="5.44399">
        <ele>828</ele>
        <time>2017-10-21T21:16:17Z</time>
      </trkpt>
      <trkpt lat="45.03545" lon="5.4443">
        <ele>833</ele>
        <time>2017-10-21T21:16:30Z</time>
      </trkpt>
      <trkpt lat="45.036" lon="5.44439">
        <ele>838</ele>
        <time>2017-10-21T21:16:37Z</time>
      </trkpt>
      <trkpt lat="45.03735" lon="5.4445">
        <ele>842</ele>
        <time>2017-10-21T21:16:55Z</time>
      </trkpt>
      <trkpt lat="45.03781" lon="5.44457">
        <ele>844</ele>
        <time>2017-10-21T21:17:10Z</time>
      </trkpt>
      <trkpt lat="45.03892" lon="5.44475">
        <ele>848</ele>
        <time>2017-10-21T21:17:20Z</time>
      </trkpt>
      <trkpt lat="45.03908" lon="5.44478">
        <ele>847</ele>
        <time>2017-10-21T21:17:35Z</time>
      </trkpt>
      <trkpt lat="45.03924" lon="5.44488">
        <ele>850</ele>
        <time>2017-10-21T21:17:53Z</time>
      </trkpt>
      <trkpt lat="45.03955" lon="5.44516">
        <ele>850</ele>
        <time>2017-10-21T21:18:01Z</time>
      </trkpt>
      <trkpt lat="45.03984" lon="5.44538">
        <ele>851</ele>
        <time>2017-10-21T21:18:08Z</time>
      </trkpt>
      <trkpt lat="45.04011" lon="5.44554">
        <ele>856</ele>
        <time>2017-10-21T21:18:25Z</time>
      </trkpt>
      <trkpt lat="45.04034" lon="5.44562">
        <ele>857</ele>
        <time>2017-10-21T21:18:27Z</time>
      </trkpt>
      <trkpt lat="45.04064" lon="5.44578">
        <ele>859</ele>
        <time>2017-10-21T21:18:33Z</time>
      </trkpt>
      <trkpt lat="45.04097" lon="5.44605">
        <ele>862</ele>
        <time>2017-10-21T21:18:35Z</time>
      </trkpt>
      <trkpt lat="45.04124" lon="5.44627">
        <ele>863</ele>
        <time>2017-10-21T21:18:54Z</time>
      </trkpt>
      <trkpt lat="45.04141" lon="5.44638">
        <ele>863</ele>
        <time>2017-10-21T21:18:57Z</time>
      </trkpt>
      <trkpt lat="45.04318" lon="5.44747">
        <ele>878</ele>
        <time>2017-10-21T21:19:02Z</time>
      </trkpt>
      <trkpt lat="45.04342" lon="5.44759">
        <ele>880</ele>
        <time>2017-10-21T21:19:08Z</time>
      </trkpt>
      <trkpt lat="45.04366" lon="5.44768">
        <ele>882</ele>
        <time>2017-10-21T21:19:13Z</time>
      </trkpt>
      <trkpt lat="45.04409" lon="5.44777">
        <ele>884</ele>
        <time>2017-10-21T21:19:22Z</time>
      </trkpt>
      <trkpt lat="45.04468" lon="5.44785">
        <ele>890</ele>
        <time>2017-10-21T21:19:34Z</time>
      </trkpt>
      <trkpt lat="45.04509" lon="5.4479">
        <ele>895</ele>
        <time>2017-10-21T21:19:47Z</time>
      </trkpt>
      <trkpt lat="45.04635" lon="5.44782">
        <ele>900</ele>
        <time>2017-10-21T21:20:02Z</time>
      </trkpt>
      <trkpt lat="45.04699" lon="5.44773">
        <ele>903</ele>
        <time>2017-10-21T21:20:09Z</time>
      </trkpt>
      <trkpt lat="45.04777" lon="5.44756">
        <ele>906</ele>
        <time>2017-10-21T21:20:26Z</time>
      </trkpt>
      <trkpt lat="45.04793" lon="5.44754">
        <ele>906</ele>
        <time>2017-10-21T21:20:31Z</time>
      </trkpt>
      <trkpt lat="45.0481" lon="5.44754">
        <ele>906</ele>
        <time>2017-10-21T21:20:49Z</time>
      </trkpt>
      <trkpt lat="45.04883" lon="5.44786">
        <ele>906</ele>
        <time>2017-10-21T21:21:00Z</time>
      </trkpt>
      <trkpt lat="45.04936" lon="5.44849">
        <ele>911</ele>
        <time>2017-10-21T21:21:06Z</time>
      </trkpt>
      <trkpt lat="45.04944" lon="5.44858">
        <ele>911</ele>
        <time>2017-10-21T21:21:14Z</time>
      </trkpt>
      <trkpt lat="45.04988" lon="5.44883">
        <ele>912</ele>
        <time>2017-10-21T21:21:27Z</time>
      </trkpt>
      <trkpt lat="45.05016" lon="5.44896">
        <ele>913</ele>
        <time>2017-10-21T21:21:29Z</time>
      </trkpt>
      <trkpt lat="45.05064" lon="5.44931">
        <ele>915</ele>
        <time>2017-10-21T21:21:39Z</time>
      </trkpt>
      <trkpt lat="45.05107" lon="5.44955">
        <ele>915</ele>
        <time>2017-10-21T21:21:42Z</time>
      </trkpt>
      <trkpt lat="45.05301" lon="5.45062">
        <ele>917</ele>
        <time>2017-10-21T21:21:59Z</time>
      </trkpt>
      <trkpt lat="45.05361" lon="5.45097">
        <ele>920</ele>
        <time>2017-10-21T21:22:07Z</time>
      </trkpt>
      <trkpt lat="45.05373" lon="5.45109">
        <ele>920</ele>
        <time>2017-10-21T21:22:25Z</time>
      </trkpt>
      <trkpt lat="45.05383" lon="5.45123">
        <ele>920</ele>
        <time>2017-10-21T21:22:31Z</time>
      </trkpt>
      <trkpt lat="45.05456" lon="5.45224">
        <ele>924</ele>
        <time>2017-10-21T21:22:36Z</time>
      </trkpt>
      <trkpt lat="45.05474" lon="5.4524">
        <ele>924</ele>
        <time>2017-10-21T21:22:42Z</time>
      </trkpt>
      <trkpt lat="45.05498" lon="5.45255">
        <ele>928</ele>
        <time>2017-10-21T21:22:44Z</time>
      </trkpt>
      <trkpt lat="45.05535" lon="5.45261">
        <ele>929</ele>
        <time>2017-10-21T21:23:03Z</time>
      </trkpt>
      <trkpt lat="45.05603" lon="5.45261">
        <ele>926</ele>
        <time>2017-10-21T21:23:19Z</time>
      </trkpt>
      <trkpt lat="45.05635" lon="5.45265">
        <ele>926</ele>
        <time>2017-10-21T21:23:22Z</time>
      </trkpt>
      <trkpt lat="45.05702" lon="5.45281">
        <ele>927</ele>
        <time>2017-10-21T21:23:33Z</time>
      </trkpt>
      <trkpt lat="45.05736" lon="5.45285">
        <ele>927</ele>
        <time>2017-10-21T21:23:51Z</time>
      </trkpt>
      <trkpt lat="45.05765" lon="5.45283">
        <ele>926</ele>
        <time>2017-10-21T21:24:00Z</time>
      </trkpt>
      <trkpt lat="45.05815" lon="5.45279">
        <ele>926</ele>
        <time>2017-10-21T21:24:06Z</time>
      </trkpt>
      <trkpt lat="45.05853" lon="5.45283">
        <ele>925</ele>
        <time>2017-10-21T21:24:12Z</time>
      </trkpt>
      <trkpt lat="45.0589" lon="5.45306">
        <ele>925</ele>
        <time>2017-10-21T21:24:21Z</time>
      </trkpt>
      <trkpt lat="45.05932" lon="5.45341">
        <ele>926</ele>
        <time>2017-10-21T21:24:29Z</time>
      </trkpt>
      <trkpt lat="45.05955" lon="5.45358">
        <ele>927</ele>
        <time>2017-10-21T21:24:32Z</time>
      </trkpt>
      <trkpt lat="45.05971" lon="5.45366">
        <ele>926</ele>
        <time>2017-10-21T21:24:38Z</time>
      </trkpt>
      <trkpt lat="45.0599" lon="5.4537">
        <ele>926</ele>
        <time>2017-10-21T21:24:50Z</time>
      </trkpt>
      <trkpt lat="45.06056" lon="5.45375">
        <ele>924</ele>
        <time>2017-10-21T21:24:55Z</time>
      </trkpt>
      <trkpt lat="45.06077" lon="5.45378">
        <ele>925</ele>
        <time>2017-10-21T21:25:10Z</time>
      </trkpt>
      <trkpt lat="45.06101" lon="5.4539">
        <ele>923</ele>
        <time>2017-10-21T21:25:20Z</time>
      </trkpt>
      <trkpt lat="45.06122" lon="5.45405">
        <ele>922</ele>
        <time>2017-10-21T21:25:28Z</time>
      </trkpt>
      <trkpt lat="45.06159" lon="5.4544">
        <ele>926</ele>
        <time>2017-10-21T21:25:30Z</time>
      </trkpt>
      <trkpt lat="45.06174" lon="5.45451">
        <ele>924</ele>
        <time>2017-10-21T21:25:42Z</time>
      </trkpt>
      <trkpt lat="45.06196" lon="5.45461">
        <ele>924</ele>
        <time>2017-10-21T21:25:53Z</time>
      </trkpt>
      <trkpt lat="45.06244" lon="5.45475">
        <ele>924</ele>
        <time>2017-10-21T21:26:04Z</time>
      </trkpt>
      <trkpt lat="45.06294" lon="5.45499">
        <ele>920</ele>
        <time>2017-10-21T21:26:24Z</time>
      </trkpt>
      <trkpt lat="45.06324" lon="5.45519">
        <ele>923</ele>
        <time>2017-10-21T21:26:35Z</time>
      </trkpt>
      <trkpt lat="45.06344" lon="5.4553">
        <ele>921</ele>
        <time>2017-10-21T21:26:41Z</time>
      </trkpt>
      <trkpt lat="45.0638" lon="5.45542">
        <ele>920</ele>
        <time>2017-10-21T21:26:46Z</time>
      </trkpt>
      <trkpt lat="45.06427" lon="5.45551">
        <ele>917</ele>
        <time>2017-10-21T21:26:50Z</time>
      </trkpt>
      <trkpt lat="45.06463" lon="5.45561">
        <ele>916</ele>
        <time>2017-10-21T21:26:54Z</time>
      </trkpt>
      <trkpt lat="45.06493" lon="5.45578">
        <ele>918</ele>
        <time>2017-10-21T21:27:14Z</time>
      </trkpt>
      <trkpt lat="45.06517" lon="5.45599">
        <ele>919</ele>
        <time>2017-10-21T21:27:24Z</time>
      </trkpt>
      <trkpt lat="45.06542" lon="5.45624">
        <ele>918</ele>
        <time>2017-10-21T21:27:42Z</time>
      </trkpt>
      <trkpt lat="45.06738" lon="5.45819">
        <ele>915</ele>
        <time>2017-10-21T21:27:53Z</time>
      </trkpt>
      <trkpt lat="45.06779" lon="5.45842">
        <ele>913</ele>
        <time>2017-10-21T21:28:09Z</time>
      </trkpt>
      <trkpt lat="45.06913" lon="5.459">
        <ele>906</ele>
        <time>2017-10-21T21:28:14Z</time>
      </trkpt>
      <trkpt lat="45.07014" lon="5.45881">
        <ele>903</ele>
        <time>2017-10-21T21:28:28Z</time>
      </trkpt>
      <trkpt lat="45.07133" lon="5.45849">
        <ele>899</ele>
        <time>2017-10-21T21:28:41Z</time>
      </trkpt>
      <trkpt lat="45.07161" lon="5.45844">
        <ele>899</ele>
        <time>2017-10-21T21:28:48Z</time>
      </trkpt>
      <trkpt lat="45.0718" lon="5.45844">
        <ele>898</ele>
        <time>2017-10-21T21:29:01Z</time>
      </trkpt>
      <trkpt lat="45.07219" lon="5.4585">
        <ele>896</ele>
        <time>2017-10-21T21:29:13Z</time>
      </trkpt>
      <trkpt lat="45.0728" lon="5.45859">
        <ele>893</ele>
        <time>2017-10-21T21:29:27Z</time>
      </trkpt>
      <trkpt lat="45.07308" lon="5.4586">
        <ele>893</ele>
        <time>2017-10-21T21:29:39Z</time>
      </trkpt>
      <trkpt lat="45.07454" lon="5.45859">
        <ele>892</ele>
        <time>2017-10-21T21:29:57Z</time>
      </trkpt>
      <trkpt lat="45.07484" lon="5.45861">
        <ele>891</ele>
        <time>2017-10-21T21:30:01Z</time>
      </trkpt>
      <trkpt lat="45.0753" lon="5.4587">
        <ele>888</ele>
        <time>2017-10-21T21:30:09Z</time>
      </trkpt>
      <trkpt lat="45.07558" lon="5.45881">
        <ele>886</ele>
        <time>2017-10-21T21:30:17Z</time>
      </trkpt>
      <trkpt lat="45.07586" lon="5.45896">
        <ele>881</ele>
        <time>2017-10-21T21:30:22Z</time>
      </trkpt>
      <trkpt lat="45.07618" lon="5.45918">
        <ele>880</ele>
        <time>2017-10-21T21:30:26Z</time>
      </trkpt>
      <trkpt lat="45.07757" lon="5.46008">
        <ele>870</ele>
        <time>2017-10-21T21:30:44Z</time>
      </trkpt>
      <trkpt lat="45.07793" lon="5.46042">
        <ele>866</ele>
        <time>2017-10-21T21:30:56Z</time>
      </trkpt>
      <trkpt lat="45.07851" lon="5.46105">
        <ele>858</ele>
        <time>2017-10-21T21:31:13Z</time>
      </trkpt>
      <trkpt lat="45.07886" lon="5.46144">
        <ele>856</ele>
        <time>2017-10-21T21:31:15Z</time>
      </trkpt>
      <trkpt lat="45.079" lon="5.46164">
        <ele>855</ele>
        <time>2017-10-21T21:31:24Z</time>
      </trkpt>
      <trkpt lat="45.07907" lon="5.46182">
        <ele>857</ele>
        <time>2017-10-21T21:31:31Z</time>
      </trkpt>
      <trkpt lat="45.07918" lon="5.46235">
        <ele>848</ele>
        <time>2017-10-21T21:31:50Z</time>
      </trkpt>
      <trkpt lat="45.07932" lon="5.46297">
        <ele>846</ele>
        <time>2017-10-21T21:32:07Z</time>
      </trkpt>
      <trkpt lat="45.07947" lon="5.46339">
        <ele>850</ele>
        <time>2017-10-21T21:32:20Z</time>
      </trkpt>
      <trkpt lat="45.07973" lon="5.46396">
        <ele>848</ele>
        <time>2017-10-21T21:32:37Z</time>
      </trkpt>
      <trkpt lat="45.07986" lon="5.4643">
        <ele>852</ele>
        <time>2017-10-21T21:32:49Z</time>
      </trkpt>
      <trkpt lat="45.07992" lon="5.46461">
        <ele>856</ele>
        <time>2017-10-21T21:32:58Z</time>
      </trkpt>
      <trkpt lat="45.07996" lon="5.46482">
        <ele>856</ele>
        <time>2017-10-21T21:33:11Z</time>
      </trkpt>
      <trkpt lat="45.07997" lon="5.46509">
        <ele>856</ele>
        <time>2017-10-21T21:33:29Z</time>
      </trkpt>
      <trkpt lat="45.07995" lon="5.46546">
        <ele>859</ele>
        <time>2017-10-21T21:33:34Z</time>
      </trkpt>
      <trkpt lat="45.0798" lon="5.46579">
        <ele>856</ele>
        <time>2017-10-21T21:33:45Z</time>
      </trkpt>
      <trkpt lat="45.07959" lon="5.46608">
        <ele>859</ele>
        <time>2017-10-21T21:34:03Z</time>
      </trkpt>
      <trkpt lat="45.07953" lon="5.46623">
        <ele>860</ele>
        <time>2017-10-21T21:34:09Z</time>
      </trkpt>
      <trkpt lat="45.07952" lon="5.46646">
        <ele>860</ele>
        <time>2017-10-21T21:34:19Z</time>
      </trkpt>
      <trkpt lat="45.07963" lon="5.46691">
        <ele>856</ele>
        <time>2017-10-21T21:34:39Z</time>
      </trkpt>
      <trkpt lat="45.07973" lon="5.46718">
        <ele>855</ele>
        <time>2017-10-21T21:34:53Z</time>
      </trkpt>
      <trkpt lat="45.07982" lon="5.46732">
        <ele>853</ele>
        <time>2017-10-21T21:35:05Z</time>
      </trkpt>
      <trkpt lat="45.08006" lon="5.46747">
        <ele>840</ele>
        <time>2017-10-21T21:35:13Z</time>
      </trkpt>
      <trkpt lat="45.08019" lon="5.46754">
        <ele>840</ele>
        <time>2017-10-21T21:35:31Z</time>
      </trkpt>
      <trkpt lat="45.08031" lon="5.46765">
        <ele>838</ele>
        <time>2017-10-21T21:35:46Z</time>
      </trkpt>
      <trkpt lat="45.0804" lon="5.46791">
        <ele>837</ele>
        <time>2017-10-21T21:35:56Z</time>
      </trkpt>
      <trkpt lat="45.08043" lon="5.4681">
        <ele>838</ele>
        <time>2017-10-21T21:36:04Z</time>
      </trkpt>
      <trkpt lat="45.08043" lon="5.46823">
        <ele>838</ele>
        <time>2017-10-21T21:36:07Z</time>
      </trkpt>
      <trkpt lat="45.08037" lon="5.46855">
        <ele>842</ele>
        <time>2017-10-21T21:36:24Z</time>
      </trkpt>
      <trkpt lat="45.08035" lon="5.46886">
        <ele>843</ele>
        <time>2017-10-21T21:36:33Z</time>
      </trkpt>
      <trkpt lat="45.08044" lon="5.46911">
        <ele>841</ele>
        <time>2017-10-21T21:36:41Z</time>
      </trkpt>
      <trkpt lat="45.08053" lon="5.46925">
        <ele>844</ele>
        <time>2017-10-21T21:37:01Z</time>
      </trkpt>
      <trkpt lat="45.0807" lon="5.46941">
        <ele>842</ele>
        <time>2017-10-21T21:37:07Z</time>
      </trkpt>
      <trkpt lat="45.08104" lon="5.4698">
        <ele>830</ele>
        <time>2017-10-21T21:37:23Z</time>
      </trkpt>
      <trkpt lat="45.08166" lon="5.47024">
        <ele>830</ele>
        <time>2017-10-21T21:37:33Z</time>
      </trkpt>
      <trkpt lat="45.0819" lon="5.47048">
        <ele>818</ele>
        <time>2017-10-21T21:37:45Z</time>
      </trkpt>
      <trkpt lat="45.08222" lon="5.47088">
        <ele>821</ele>
        <time>2017-10-21T21:38:03Z</time>
      </trkpt>
      <trkpt lat="45.08248" lon="5.47144">
        <ele>820</ele>
        <time>2017-10-21T21:38:08Z</time>
      </trkpt>
      <trkpt lat="45.08257" lon="5.47189">
        <ele>806</ele>
        <time>2017-10-21T21:38:17Z</time>
      </trkpt>
      <trkpt lat="45.08256" lon="5.47233">
        <ele>808</ele>
        <time>2017-10-21T21:38:22Z</time>
      </trkpt>
      <trkpt lat="45.08249" lon="5.47259">
        <ele>821</ele>
        <time>2017-10-21T21:38:31Z</time>
      </trkpt>
      <trkpt lat="45.08251" lon="5.47288">
        <ele>806</ele>
        <time>2017-10-21T21:38:39Z</time>
      </trkpt>
      <trkpt lat="45.0826" lon="5.47308">
        <ele>807</ele>
        <time>2017-10-21T21:38:45Z</time>
      </trkpt>
      <trkpt lat="45.08281" lon="5.47343">
        <ele>805</ele>
        <time>2017-10-21T21:38:57Z</time>
      </trkpt>
      <trkpt lat="45.08287" lon="5.47362">
        <ele>803</ele>
        <time>2017-10-21T21:39:01Z</time>
      </trkpt>
      <trkpt lat="45.08292" lon="5.47393">
        <ele>803</ele>
        <time>2017-10-21T21:39:03Z</time>
      </trkpt>
      <trkpt lat="45.08291" lon="5.47431">
        <ele>803</ele>
        <time>2017-10-21T21:39:15Z</time>
      </trkpt>
      <trkpt lat="45.08281" lon="5.4747">
        <ele>804</ele>
        <time>2017-10-21T21:39:21Z</time>
      </trkpt>
      <trkpt lat="45.08275" lon="5.475">
        <ele>807</ele>
        <time>2017-10-21T21:39:27Z</time>
      </trkpt>
      <trkpt lat="45.08276" lon="5.47524">
        <ele>804</ele>
        <time>2017-10-21T21:39:38Z</time>
      </trkpt>
      <trkpt lat="45.08289" lon="5.47571">
        <ele>800</ele>
        <time>2017-10-21T21:39:55Z</time>
      </trkpt>
      <trkpt lat="45.083" lon="5.47605">
        <ele>799</ele>
        <time>2017-10-21T21:40:14Z</time>
      </trkpt>
      <trkpt lat="45.08304" lon="5.47626">
        <ele>799</ele>
        <time>2017-10-21T21:40:29Z</time>
      </trkpt>
      <trkpt lat="45.08305" lon="5.47648">
        <ele>798</ele>
        <time>2017-10-21T21:40:35Z</time>
      </trkpt>
      <trkpt lat="45.08305" lon="5.47688">
        <ele>816</ele>
        <time>2017-10-21T21:40:51Z</time>
      </trkpt>
      <trkpt lat="45.08308" lon="5.47704">
        <ele>819</ele>
        <time>2017-10-21T21:41:04Z</time>
      </trkpt>
      <trkpt lat="45.08338" lon="5.47769">
        <ele>776</ele>
        <time>2017-10-21T21:41:06Z</time>
      </trkpt>
      <trkpt lat="45.08355" lon="5.47801">
        <ele>769</ele>
        <time>2017-10-21T21:41:26Z</time>
      </trkpt>
      <trkpt lat="45.0838" lon="5.4786">
        <ele>756</ele>
        <time>2017-10-21T21:41:38Z</time>
      </trkpt>
      <trkpt lat="45.08378" lon="5.47888">
        <ele>756</ele>
        <time>2017-10-21T21:41:52Z</time>
      </trkpt>
      <trkpt lat="45.08375" lon="5.47901">
        <ele>757</ele>
        <time>2017-10-21T21:41:54Z</time>
      </trkpt>
      <trkpt lat="45.08352" lon="5.47932">
        <ele>764</ele>
        <time>2017-10-21T21:42:09Z</time>
      </trkpt>
      <trkpt lat="45.0832" lon="5.47981">
        <ele>804</ele>
        <time>2017-10-21T21:42:19Z</time>
      </trkpt>
      <trkpt lat="45.08297" lon="5.48022">
        <ele>790</ele>
        <time>2017-10-21T21:42:30Z</time>
      </trkpt>
      <trkpt lat="45.0829" lon="5.48042">
        <ele>789</ele>
        <time>2017-10-21T21:42:48Z</time>
      </trkpt>
      <trkpt lat="45.08272" lon="5.48067">
        <ele>792</ele>
        <time>2017-10-21T21:43:00Z</time>
      </trkpt>
      <trkpt lat="45.08268" lon="5.48086">
        <ele>777</ele>
        <time>2017-10-21T21:43:12Z</time>
      </trkpt>
      <trkpt lat="45.08278" lon="5.48112">
        <ele>762</ele>
        <time>2017-10-21T21:43:20Z</time>
      </trkpt>
      <trkpt lat="45.08279" lon="5.48121">
        <ele>759</ele>
        <time>2017-10-21T21:43:40Z</time>
      </trkpt>
      <trkpt lat="45.08277" lon="5.48133">
        <ele>758</ele>
        <time>2017-10-21T21:43:45Z</time>
      </trkpt>
      <trkpt lat="45.08266" lon="5.48158">
        <ele>762</ele>
        <time>2017-10-21T21:43:59Z</time>
      </trkpt>
      <trkpt lat="45.08251" lon="5.48179">
        <ele>754</ele>
        <time>2017-10-21T21:44:15Z</time>
      </trkpt>
      <trkpt lat="45.08239" lon="5.48204">
        <ele>765</ele>
        <time>2017-10-21T21:44:34Z</time>
      </trkpt>
      <trkpt lat="45.08228" lon="5.48227">
        <ele>758</ele>
        <time>2017-10-21T21:44:36Z</time>
      </trkpt>
      <trkpt lat="45.0821" lon="5.48239">
        <ele>760</ele>
        <time>2017-10-21T21:44:53Z</time>
      </trkpt>
      <trkpt lat="45.08193" lon="5.48247">
        <ele>762</ele>
        <time>2017-10-21T21:44:55Z</time>
      </trkpt>
      <trkpt lat="45.08165" lon="5.48246">
        <ele>764</ele>
        <time>2017-10-21T21:45:10Z</time>
      </trkpt>
      <trkpt lat="45.08131" lon="5.48255">
        <ele>749</ele>
        <time>2017-10-21T21:45:14Z</time>
      </trkpt>
      <trkpt lat="45.08099" lon="5.48267">
        <ele>753</ele>
        <time>2017-10-21T21:45:27Z</time>
      </trkpt>
      <trkpt lat="45.08036" lon="5.48273">
        <ele>763</ele>
        <time>2017-10-21T21:45:43Z</time>
      </trkpt>
      <trkpt lat="45.08017" lon="5.48277">
        <ele>765</ele>
        <time>2017-10-21T21:45:45Z</time>
      </trkpt>
      <trkpt lat="45.08002" lon="5.48284">
        <ele>764</ele>
        <time>2017-10-21T21:46:03Z</time>
      </trkpt>
      <trkpt lat="45.07993" lon="5.4829">
        <ele>784</ele>
        <time>2017-10-21T21:46:17Z</time>
      </trkpt>
      <trkpt lat="45.07987" lon="5.48307">
        <ele>780</ele>
        <time>2017-10-21T21:46:26Z</time>
      </trkpt>
      <trkpt lat="45.07987" lon="5.48322">
        <ele>773</ele>
        <time>2017-10-21T21:46:35Z</time>
      </trkpt>
      <trkpt lat="45.07999" lon="5.48374">
        <ele>772</ele>
        <time>2017-10-21T21:46:37Z</time>
      </trkpt>
      <trkpt lat="45.08" lon="5.48395">
        <ele>768</ele>
        <time>2017-10-21T21:46:42Z</time>
      </trkpt>
      <trkpt lat="45.07999" lon="5.48412">
        <ele>758</ele>
        <time>2017-10-21T21:46:51Z</time>
      </trkpt>
      <trkpt lat="45.07988" lon="5.48454">
        <ele>764</ele>
        <time>2017-10-21T21:47:00Z</time>
      </trkpt>
      <trkpt lat="45.07982" lon="5.48487">
        <ele>758</ele>
        <time>2017-10-21T21:47:17Z</time>
      </trkpt>
      <trkpt lat="45.0798" lon="5.48533">
        <ele>749</ele>
        <time>2017-10-21T21:47:20Z</time>
      </trkpt>
      <trkpt lat="45.07976" lon="5.48605">
        <ele>731</ele>
        <time>2017-10-21T21:47:38Z</time>
      </trkpt>
      <trkpt lat="45.07971" lon="5.48616">
        <ele>731</ele>
        <time>2017-10-21T21:47:53Z</time>
      </trkpt>
      <trkpt lat="45.07964" lon="5.4862">
        <ele>731</ele>
        <time>2017-10-21T21:48:01Z</time>
      </trkpt>
      <trkpt lat="45.07936" lon="5.48617">
        <ele>736</ele>
        <time>2017-10-21T21:48:10Z</time>
      </trkpt>
      <trkpt lat="45.07922" lon="5.48619">
        <ele>737</ele>
        <time>2017-10-21T21:48:26Z</time>
      </trkpt>
      <trkpt lat="45.07911" lon="5.48625">
        <ele>753</ele>
        <time>2017-10-21T21:48:33Z</time>
      </trkpt>
      <trkpt lat="45.07903" lon="5.48634">
        <ele>751</ele>
        <time>2017-10-21T21:48:48Z</time>
      </trkpt>
      <trkpt lat="45.07888" lon="5.48659">
        <ele>749</ele>
        <time>2017-10-21T21:49:08Z</time>
      </trkpt>
      <trkpt lat="45.07877" lon="5.48668">
        <ele>734</ele>
        <time>2017-10-21T21:49:12Z</time>
      </trkpt>
      <trkpt lat="45.07847" lon="5.48689">
        <ele>739</ele>
        <time>2017-10-21T21:49:18Z</time>
      </trkpt>
      <trkpt lat="45.07754" lon="5.48788">
        <ele>734</ele>
        <time>2017-10-21T21:49:20Z</time>
      </trkpt>
      <trkpt lat="45.07738" lon="5.48791">
        <ele>750</ele>
        <time>2017-10-21T21:49:33Z</time>
      </trkpt>
      <trkpt lat="45.07711" lon="5.48796">
        <ele>752</ele>
        <time>2017-10-21T21:49:43Z</time>
      </trkpt>
      <trkpt lat="45.07697" lon="5.48803">
        <ele>752</ele>
        <time>2017-10-21T21:49:59Z</time>
      </trkpt>
      <trkpt lat="45.07688" lon="5.48811">
        <ele>750</ele>
        <time>2017-10-21T21:50:13Z</time>
      </trkpt>
      <trkpt lat="45.07649" lon="5.48855">
        <ele>740</ele>
        <time>2017-10-21T21:50:19Z</time>
      </trkpt>
      <trkpt lat="45.07621" lon="5.48884">
        <ele>738</ele>
        <time>2017-10-21T21:50:36Z</time>
      </trkpt>
      <trkpt lat="45.07595" lon="5.48927">
        <ele>719</ele>
        <time>2017-10-21T21:50:41Z</time>
      </trkpt>
      <trkpt lat="45.07587" lon="5.48936">
        <ele>717</ele>
        <time>2017-10-21T21:50:51Z</time>
      </trkpt>
      <trkpt lat="45.07573" lon="5.48942">
        <ele>732</ele>
        <time>2017-10-21T21:50:53Z</time>
      </trkpt>
      <trkpt lat="45.0756" lon="5.48945">
        <ele>734</ele>
        <time>2017-10-21T21:51:07Z</time>
      </trkpt>
      <trkpt lat="45.07552" lon="5.48951">
        <ele>735</ele>
        <time>2017-10-21T21:51:27Z</time>
      </trkpt>
      <trkpt lat="45.07532" lon="5.48977">
        <ele>733</ele>
        <time>2017-10-21T21:51:41Z</time>
      </trkpt>
      <trkpt lat="45.07502" lon="5.48997">
        <ele>729</ele>
        <time>2017-10-21T21:51:59Z</time>
      </trkpt>
      <trkpt lat="45.07455" lon="5.49043">
        <ele>738</ele>
        <time>2017-10-21T21:52:08Z</time>
      </trkpt>
      <trkpt lat="45.07426" lon="5.49083">
        <ele>744</ele>
        <time>2017-10-21T21:52:26Z</time>
      </trkpt>
      <trkpt lat="45.07417" lon="5.49111">
        <ele>730</ele>
        <time>2017-10-21T21:52:30Z</time>
      </trkpt>
      <trkpt lat="45.07412" lon="5.49129">
        <ele>753</ele>
        <time>2017-10-21T21:52:46Z</time>
      </trkpt>
      <trkpt lat="45.07409" lon="5.49161">
        <ele>730</ele>
        <time>2017-10-21T21:53:01Z</time>
      </trkpt>
      <trkpt lat="45.07404" lon="5.49175">
        <ele>735</ele>
        <time>2017-10-21T21:53:14Z</time>
      </trkpt>
      <trkpt lat="45.07396" lon="5.49192">
        <ele>748</ele>
        <time>2017-10-21T21:53:17Z</time>
      </trkpt>
      <trkpt lat="45.07385" lon="5.4921">
        <ele>757</ele>
        <time>2017-10-21T21:53:32Z</time>
      </trkpt>
      <trkpt lat="45.07371" lon="5.49229">
        <ele>763</ele>
        <time>2017-10-21T21:53:47Z</time>
      </trkpt>
      <trkpt lat="45.07357" lon="5.49234">
        <ele>768</ele>
        <time>2017-10-21T21:53:58Z</time>
      </trkpt>
      <trkpt lat="45.07326" lon="5.49238">
        <ele>792</ele>
        <time>2017-10-21T21:54:11Z</time>
      </trkpt>
      <trkpt lat="45.07313" lon="5.49243">
        <ele>795</ele>
        <time>2017-10-21T21:54:23Z</time>
      </trkpt>
      <trkpt lat="45.07294" lon="5.49256">
        <ele>805</ele>
        <time>2017-10-21T21:54:28Z</time>
      </trkpt>
      <trkpt lat="45.07258" lon="5.49276">
        <ele>810</ele>
        <time>2017-10-21T21:54:32Z</time>
      </trkpt>
      <trkpt lat="45.07223" lon="5.49282">
        <ele>846</ele>
        <time>2017-10-21T21:54:34Z</time>
      </trkpt>
      <trkpt lat="45.0721" lon="5.49285">
        <ele>852</ele>
        <time>2017-10-21T21:54:50Z</time>
      </trkpt>
      <trkpt lat="45.07203" lon="5.49291">
        <ele>856</ele>
        <time>2017-10-21T21:55:04Z</time>
      </trkpt>
      <trkpt lat="45.07195" lon="5.49301">
        <ele>861</ele>
        <time>2017-10-21T21:55:09Z</time>
      </trkpt>
      <trkpt lat="45.07183" lon="5.49325">
        <ele>876</ele>
        <time>2017-10-21T21:55:28Z</time>
      </trkpt>
      <trkpt lat="45.07161" lon="5.49366">
        <ele>913</ele>
        <time>2017-10-21T21:55:31Z</time>
      </trkpt>
      <trkpt lat="45.07151" lon="5.49397">
        <ele>916</ele>
        <time>2017-10-21T21:55:40Z</time>
      </trkpt>
      <trkpt lat="45.07143" lon="5.49462">
        <ele>909</ele>
        <time>2017-10-21T21:55:42Z</time>
      </trkpt>
      <trkpt lat="45.07142" lon="5.49489">
        <ele>900</ele>
        <time>2017-10-21T21:56:01Z</time>
      </trkpt>
      <trkpt lat="45.07151" lon="5.49537">
        <ele>895</ele>
        <time>2017-10-21T21:56:12Z</time>
      </trkpt>
      <trkpt lat="45.07158" lon="5.4956">
        <ele>889</ele>
        <time>2017-10-21T21:56:27Z</time>
      </trkpt>
      <trkpt lat="45.0716" lon="5.49584">
        <ele>871</ele>
        <time>2017-10-21T21:56:37Z</time>
      </trkpt>
      <trkpt lat="45.07157" lon="5.49631">
        <ele>890</ele>
        <time>2017-10-21T21:56:43Z</time>
      </trkpt>
      <trkpt lat="45.07161" lon="5.49679">
        <ele>886</ele>
        <time>2017-10-21T21:56:53Z</time>
      </trkpt>
      <trkpt lat="45.0716" lon="5.49712">
        <ele>902</ele>
        <time>2017-10-21T21:57:13Z</time>
      </trkpt>
      <trkpt lat="45.07145" lon="5.49774">
        <ele>924</ele>
        <time>2017-10-21T21:57:31Z</time>
      </trkpt>
      <trkpt lat="45.07107" lon="5.49853">
        <ele>933</ele>
        <time>2017-10-21T21:57:41Z</time>
      </trkpt>
      <trkpt lat="45.07082" lon="5.49914">
        <ele>908</ele>
        <time>2017-10-21T21:57:54Z</time>
      </trkpt>
      <trkpt lat="45.07076" lon="5.49937">
        <ele>900</ele>
        <time>2017-10-21T21:57:58Z</time>
      </trkpt>
      <trkpt lat="45.07074" lon="5.49984">
        <ele>891</ele>
        <time>2017-10-21T21:58:11Z</time>
      </trkpt>
      <trkpt lat="45.07065" lon="5.50081">
        <ele>880</ele>
        <time>2017-10-21T21:58:16Z</time>
      </trkpt>
      <trkpt lat="45.07061" lon="5.50101">
        <ele>892</ele>
        <time>2017-10-21T21:58:19Z</time>
      </trkpt>
      <trkpt lat="45.07055" lon="5.50115">
        <ele>896</ele>
        <time>2017-10-21T21:58:25Z</time>
      </trkpt>
      <trkpt lat="45.07043" lon="5.50148">
        <ele>906</ele>
        <time>2017-10-21T21:58:38Z</time>
      </trkpt>
      <trkpt lat="45.0704" lon="5.5018">
        <ele>931</ele>
        <time>2017-10-21T21:58:48Z</time>
      </trkpt>
      <trkpt lat="45.07037" lon="5.50195">
        <ele>933</ele>
        <time>2017-10-21T21:58:50Z</time>
      </trkpt>
      <trkpt lat="45.07032" lon="5.50202">
        <ele>935</ele>
        <time>2017-10-21T21:59:05Z</time>
      </trkpt>
      <trkpt lat="45.07025" lon="5.50216">
        <ele>939</ele>
        <time>2017-10-21T21:59:14Z</time>
      </trkpt>
      <trkpt lat="45.07023" lon="5.50225">
        <ele>942</ele>
        <time>2017-10-21T21:59:25Z</time>
      </trkpt>
      <trkpt lat="45.07024" lon="5.50239">
        <ele>944</ele>
        <time>2017-10-21T21:59:41Z</time>
      </trkpt>
      <trkpt lat="45.07033" lon="5.50278">
        <ele>916</ele>
        <time>2017-10-21T21:59:50Z</time>
      </trkpt>
      <trkpt lat="45.07032" lon="5.50318">
        <ele>904</ele>
        <time>2017-10-21T21:59:53Z</time>
      </trkpt>
      <trkpt lat="45.07027" lon="5.50392">
        <ele>864</ele>
        <time>2017-10-21T22:00:10Z</time>
      </trkpt>
      <trkpt lat="45.07054" lon="5.50477">
        <ele>838</ele>
        <time>2017-10-21T22:00:16Z</time>
      </trkpt>
      <trkpt lat="45.07059" lon="5.50511">
        <ele>829</ele>
        <time>2017-10-21T22:00:19Z</time>
      </trkpt>
      <trkpt lat="45.07058" lon="5.50544">
        <ele>826</ele>
        <time>2017-10-21T22:00:33Z</time>
      </trkpt>
      <trkpt lat="45.07053" lon="5.50571">
        <ele>824</ele>
        <time>2017-10-21T22:00:39Z</time>
      </trkpt>
      <trkpt lat="45.07048" lon="5.50583">
        <ele>823</ele>
        <time>2017-10-21T22:00:55Z</time>
      </trkpt>
      <trkpt lat="45.0704" lon="5.50591">
        <ele>820</ele>
        <time>2017-10-21T22:00:58Z</time>
      </trkpt>
      <trkpt lat="45.07021" lon="5.5062">
        <ele>818</ele>
        <time>2017-10-21T22:01:14Z</time>
      </trkpt>
      <trkpt lat="45.07001" lon="5.50668">
        <ele>807</ele>
        <time>2017-10-21T22:01:28Z</time>
      </trkpt>
      <trkpt lat="45.06996" lon="5.50687">
        <ele>813</ele>
        <time>2017-10-21T22:01:44Z</time>
      </trkpt>
      <trkpt lat="45.06989" lon="5.507">
        <ele>816</ele>
        <time>2017-10-21T22:01:53Z</time>
      </trkpt>
      <trkpt lat="45.06969" lon="5.50736">
        <ele>819</ele>
        <time>2017-10-21T22:01:57Z</time>
      </trkpt>
      <trkpt lat="45.06952" lon="5.50829">
        <ele>824</ele>
        <time>2017-10-21T22:02:00Z</time>
      </trkpt>
      <trkpt lat="45.0694" lon="5.50884">
        <ele>830</ele>
        <time>2017-10-21T22:02:18Z</time>
      </trkpt>
      <trkpt lat="45.06938" lon="5.50919">
        <ele>831</ele>
        <time>2017-10-21T22:02:20Z</time>
      </trkpt>
      <trkpt lat="45.06935" lon="5.50994">
        <ele>832</ele>
        <time>2017-10-21T22:02:29Z</time>
      </trkpt>
      <trkpt lat="45.06935" lon="5.51042">
        <ele>839</ele>
        <time>2017-10-21T22:02:35Z</time>
      </trkpt>
      <trkpt lat="45.06931" lon="5.51059">
        <ele>838</ele>
        <time>2017-10-21T22:02:48Z</time>
      </trkpt>
      <trkpt lat="45.06922" lon="5.5109">
        <ele>837</ele>
        <time>2017-10-21T22:03:00Z</time>
      </trkpt>
      <trkpt lat="45.06904" lon="5.51148">
        <ele>836</ele>
        <time>2017-10-21T22:03:16Z</time>
      </trkpt>
      <trkpt lat="45.06897" lon="5.51164">
        <ele>836</ele>
        <time>2017-10-21T22:03:28Z</time>
      </trkpt>
      <trkpt lat="45.0689" lon="5.51213">
        <ele>832</ele>
        <time>2017-10-21T22:03:30Z</time>
      </trkpt>
      <trkpt lat="45.06861" lon="5.51293">
        <ele>843</ele>
        <time>2017-10-21T22:03:37Z</time>
      </trkpt>
      <trkpt lat="45.0685" lon="5.51321">
        <ele>859</ele>
        <time>2017-10-21T22:03:47Z</time>
      </trkpt>
      <trkpt lat="45.06847" lon="5.51337">
        <ele>900</ele>
        <time>2017-10-21T22:04:02Z</time>
      </trkpt>
      <trkpt lat="45.06842" lon="5.51374">
        <ele>929</ele>
        <time>2017-10-21T22:04:05Z</time>
      </trkpt>
      <trkpt lat="45.06828" lon="5.51422">
        <ele>998</ele>
        <time>2017-10-21T22:04:18Z</time>
      </trkpt>
      <trkpt lat="45.06826" lon="5.51442">
        <ele>1018</ele>
        <time>2017-10-21T22:04:26Z</time>
      </trkpt>
      <trkpt lat="45.06825" lon="5.51471">
        <ele>1031</ele>
        <time>2017-10-21T22:04:42Z</time>
      </trkpt>
      <trkpt lat="45.06831" lon="5.51508">
        <ele>1033</ele>
        <time>2017-10-21T22:04:44Z</time>
      </trkpt>
      <trkpt lat="45.06831" lon="5.51525">
        <ele>1026</ele>
        <time>2017-10-21T22:04:57Z</time>
      </trkpt>
      <trkpt lat="45.06827" lon="5.51549">
        <ele>1015</ele>
        <time>2017-10-21T22:05:16Z</time>
      </trkpt>
      <trkpt lat="45.06805" lon="5.51627">
        <ele>985</ele>
        <time>2017-10-21T22:05:19Z</time>
      </trkpt>
      <trkpt lat="45.06804" lon="5.51646">
        <ele>981</ele>
        <time>2017-10-21T22:05:25Z</time>
      </trkpt>
      <trkpt lat="45.06806" lon="5.51664">
        <ele>977</ele>
        <time>2017-10-21T22:05:43Z</time>
      </trkpt>
      <trkpt lat="45.06815" lon="5.51678">
        <ele>957</ele>
        <time>2017-10-21T22:05:51Z</time>
      </trkpt>
      <trkpt lat="45.06839" lon="5.51698">
        <ele>951</ele>
        <time>2017-10-21T22:05:53Z</time>
      </trkpt>
      <trkpt lat="45.06857" lon="5.51708">
        <ele>951</ele>
        <time>2017-10-21T22:06:09Z</time>
      </trkpt>
      <trkpt lat="45.06867" lon="5.51716">
        <ele>952</ele>
        <time>2017-10-21T22:06:20Z</time>
      </trkpt>
      <trkpt lat="45.06877" lon="5.51733">
        <ele>952</ele>
        <time>2017-10-21T22:06:40Z</time>
      </trkpt>
      <trkpt lat="45.06891" lon="5.51748">
        <ele>955</ele>
        <time>2017-10-21T22:06:45Z</time>
      </trkpt>
      <trkpt lat="45.06917" lon="5.51773">
        <ele>953</ele>
        <time>2017-10-21T22:06:50Z</time>
      </trkpt>
      <trkpt lat="45.06936" lon="5.51791">
        <ele>947</ele>
        <time>2017-10-21T22:07:08Z</time>
      </trkpt>
      <trkpt lat="45.06958" lon="5.51819">
        <ele>944</ele>
        <time>2017-10-21T22:07:24Z</time>
      </trkpt>
      <trkpt lat="45.06977" lon="5.5185">
        <ele>922</ele>
        <time>2017-10-21T22:07:33Z</time>
      </trkpt>
      <trkpt lat="45.06981" lon="5.51861">
        <ele>918</ele>
        <time>2017-10-21T22:07:38Z</time>
      </trkpt>
      <trkpt lat="45.06993" lon="5.5188">
        <ele>909</ele>
        <time>2017-10-21T22:07:49Z</time>
      </trkpt>
      <trkpt lat="45.07013" lon="5.51902">
        <ele>923</ele>
        <time>2017-10-21T22:07:59Z</time>
      </trkpt>
      <trkpt lat="45.07029" lon="5.51918">
        <ele>908</ele>
        <time>2017-10-21T22:08:15Z</time>
      </trkpt>
      <trkpt lat="45.07044" lon="5.51937">
        <ele>916</ele>
        <time>2017-10-21T22:08:29Z</time>
      </trkpt>
      <trkpt lat="45.07058" lon="5.51952">
        <ele>918</ele>
        <time>2017-10-21T22:08:35Z</time>
      </trkpt>
      <trkpt lat="45.07067" lon="5.51957">
        <ele>918</ele>
        <time>2017-10-21T22:08:43Z</time>
      </trkpt>
      <trkpt lat="45.07078" lon="5.5196">
        <ele>919</ele>
        <time>2017-10-21T22:08:46Z</time>
      </trkpt>
      <trkpt lat="45.07092" lon="5.51961">
        <ele>943</ele>
        <time>2017-10-21T22:08:49Z</time>
      </trkpt>
      <trkpt lat="45.07099" lon="5.51958">
        <ele>946</ele>
        <time>2017-10-21T22:09:06Z</time>
      </trkpt>
      <trkpt lat="45.0711" lon="5.51958">
        <ele>948</ele>
        <time>2017-10-21T22:09:15Z</time>
      </trkpt>
      <trkpt lat="45.0713" lon="5.51955">
        <ele>953</ele>
        <time>2017-10-21T22:09:30Z</time>
      </trkpt>
      <trkpt lat="45.0714" lon="5.51957">
        <ele>954</ele>
        <time>2017-10-21T22:09:49Z</time>
      </trkpt>
      <trkpt lat="45.07148" lon="5.51963">
        <ele>954</ele>
        <time>2017-10-21T22:10:04Z</time>
      </trkpt>
      <trkpt lat="45.07164" lon="5.51979">
        <ele>951</ele>
        <time>2017-10-21T22:10:09Z</time>
      </trkpt>
      <trkpt lat="45.07183" lon="5.51987">
        <ele>959</ele>
        <time>2017-10-21T22:10:24Z</time>
      </trkpt>
      <trkpt lat="45.07205" lon="5.51993">
        <ele>960</ele>
        <time>2017-10-21T22:10:44Z</time>
      </trkpt>
      <trkpt lat="45.07214" lon="5.51997">
        <ele>960</ele>
        <time>2017-10-21T22:10:58Z</time>
      </trkpt>
      <trkpt lat="45.07227" lon="5.52008">
        <ele>950</ele>
        <time>2017-10-21T22:11:15Z</time>
      </trkpt>
      <trkpt lat="45.07246" lon="5.52018">
        <ele>949</ele>
        <time>2017-10-21T22:11:25Z</time>
      </trkpt>
      <trkpt lat="45.07261" lon="5.52022">
        <ele>945</ele>
        <time>2017-10-21T22:11:35Z</time>
      </trkpt>
      <trkpt lat="45.07292" lon="5.52022">
        <ele>946</ele>
        <time>2017-10-21T22:11:49Z</time>
      </trkpt>
      <trkpt lat="45.07313" lon="5.5203">
        <ele>947</ele>
        <time>2017-10-21T22:11:56Z</time>
      </trkpt>
      <trkpt lat="45.07336" lon="5.52031">
        <ele>954</ele>
        <time>2017-10-21T22:12:00Z</time>
      </trkpt>
      <trkpt lat="45.0736" lon="5.5204">
        <ele>955</ele>
        <time>2017-10-21T22:12:07Z</time>
      </trkpt>
      <trkpt lat="45.07401" lon="5.5204">
        <ele>959</ele>
        <time>2017-10-21T22:12:17Z</time>
      </trkpt>
      <trkpt lat="45.07488" lon="5.5202">
        <ele>968</ele>
        <time>2017-10-21T22:12:35Z</time>
      </trkpt>
      <trkpt lat="45.07501" lon="5.5202">
        <ele>971</ele>
        <time>2017-10-21T22:12:39Z</time>
      </trkpt>
      <trkpt lat="45.07513" lon="5.52025">
        <ele>970</ele>
        <time>2017-10-21T22:12:58Z</time>
      </trkpt>
      <trkpt lat="45.07523" lon="5.52034">
        <ele>969</ele>
        <time>2017-10-21T22:13:16Z</time>
      </trkpt>
      <trkpt lat="45.0753" lon="5.52046">
        <ele>967</ele>
        <time>2017-10-21T22:13:27Z</time>
      </trkpt>
      <trkpt lat="45.07533" lon="5.52061">
        <ele>964</ele>
        <time>2017-10-21T22:13:34Z</time>
      </trkpt>
      <trkpt lat="45.07539" lon="5.52087">
        <ele>958</ele>
        <time>2017-10-21T22:13:37Z</time>
      </trkpt>
      <trkpt lat="45.07548" lon="5.52102">
        <ele>960</ele>
        <time>2017-10-21T22:13:55Z</time>
      </trkpt>
      <trkpt lat="45.07563" lon="5.52119">
        <ele>961</ele>
        <time>2017-10-21T22:14:15Z</time>
      </trkpt>
      <trkpt lat="45.07578" lon="5.52128">
        <ele>961</ele>
        <time>2017-10-21T22:14:34Z</time>
      </trkpt>
      <trkpt lat="45.07594" lon="5.52132">
        <ele>965</ele>
        <time>2017-10-21T22:14:54Z</time>
      </trkpt>
      <trkpt lat="45.07627" lon="5.52129">
        <ele>969</ele>
        <time>2017-10-21T22:15:03Z</time>
      </trkpt>
      <trkpt lat="45.07638" lon="5.52132">
        <ele>970</ele>
        <time>2017-10-21T22:15:17Z</time>
      </trkpt>
      <trkpt lat="45.07647" lon="5.52138">
        <ele>970</ele>
        <time>2017-10-21T22:15:32Z</time>
      </trkpt>
      <trkpt lat="45.07651" lon="5.52141">
        <ele>970</ele>
        <time>2017-10-21T22:15:47Z</time>
      </trkpt>
      <trkpt lat="45.07657" lon="5.5214">
        <ele>971</ele>
        <time>2017-10-21T22:16:00Z</time>
      </trkpt>
      <trkpt lat="45.07674" lon="5.52134">
        <ele>976</ele>
        <time>2017-10-21T22:16:11Z</time>
      </trkpt>
      <trkpt lat="45.07694" lon="5.5213">
        <ele>977</ele>
        <time>2017-10-21T22:16:30Z</time>
      </trkpt>
      <trkpt lat="45.07725" lon="5.52119">
        <ele>977</ele>
        <time>2017-10-21T22:16:39Z</time>
      </trkpt>
      <trkpt lat="45.0774" lon="5.52112">
        <ele>977</ele>
        <time>2017-10-21T22:16:58Z</time>
      </trkpt>
      <trkpt lat="45.07758" lon="5.52106">
        <ele>976</ele>
        <time>2017-10-21T22:17:17Z</time>
      </trkpt>
      <trkpt lat="45.07771" lon="5.52106">
        <ele>975</ele>
        <time>2017-10-21T22:17:21Z</time>
      </trkpt>
      <trkpt lat="45.07784" lon="5.52109">
        <ele>975</ele>
        <time>2017-10-21T22:17:39Z</time>
      </trkpt>
      <trkpt lat="45.07826" lon="5.52129">
        <ele>973</ele>
        <time>2017-10-21T22:17:49Z</time>
      </trkpt>
      <trkpt lat="45.07854" lon="5.52131">
        <ele>971</ele>
        <time>2017-10-21T22:17:56Z</time>
      </trkpt>
      <trkpt lat="45.07879" lon="5.52129">
        <ele>971</ele>
        <time>2017-10-21T22:18:10Z</time>
      </trkpt>
      <trkpt lat="45.07895" lon="5.52125">
        <ele>971</ele>
        <time>2017-10-21T22:18:27Z</time>
      </trkpt>
      <trkpt lat="45.07913" lon="5.52124">
        <ele>971</ele>
        <time>2017-10-21T22:18:29Z</time>
      </trkpt>
      <trkpt lat="45.07939" lon="5.52131">
        <ele>972</ele>
        <time>2017-10-21T22:18:35Z</time>
      </trkpt>
      <trkpt lat="45.07962" lon="5.52141">
        <ele>971</ele>
        <time>2017-10-21T22:18:40Z</time>
      </trkpt>
      <trkpt lat="45.08006" lon="5.52183">
        <ele>966</ele>
        <time>2017-10-21T22:18:53Z</time>
      </trkpt>
      <trkpt lat="45.0802" lon="5.52184">
        <ele>966</ele>
        <time>2017-10-21T22:18:56Z</time>
      </trkpt>
      <trkpt lat="45.08061" lon="5.5216">
        <ele>969</ele>
        <time>2017-10-21T22:19:02Z</time>
      </trkpt>
      <trkpt lat="45.08079" lon="5.52151">
        <ele>968</ele>
        <time>2017-10-21T22:19:21Z</time>
      </trkpt>
      <trkpt lat="45.08098" lon="5.52144">
        <ele>967</ele>
        <time>2017-10-21T22:19:36Z</time>
      </trkpt>
      <trkpt lat="45.08126" lon="5.52126">
        <ele>968</ele>
        <time>2017-10-21T22:19:54Z</time>
      </trkpt>
      <trkpt lat="45.08144" lon="5.52119">
        <ele>969</ele>
        <time>2017-10-21T22:20:12Z</time>
      </trkpt>
      <trkpt lat="45.08153" lon="5.5212">
        <ele>969</ele>
        <time>2017-10-21T22:20:16Z</time>
      </trkpt>
      <trkpt lat="45.08168" lon="5.52129">
        <ele>965</ele>
        <time>2017-10-21T22:20:26Z</time>
      </trkpt>
      <trkpt lat="45.08181" lon="5.52133">
        <ele>965</ele>
        <time>2017-10-21T22:20:30Z</time>
      </trkpt>
      <trkpt lat="45.08192" lon="5.52134">
        <ele>965</ele>
        <time>2017-10-21T22:20:48Z</time>
      </trkpt>
      <trkpt lat="45.08209" lon="5.52129">
        <ele>965</ele>
        <time>2017-10-21T22:21:01Z</time>
      </trkpt>
      <trkpt lat="45.08226" lon="5.5211">
        <ele>964</ele>
        <time>2017-10-21T22:21:08Z</time>
      </trkpt>
      <trkpt lat="45.08234" lon="5.52088">
        <ele>963</ele>
        <time>2017-10-21T22:21:10Z</time>
      </trkpt>
      <trkpt lat="45.08239" lon="5.52059">
        <ele>969</ele>
        <time>2017-10-21T22:21:16Z</time>
      </trkpt>
      <trkpt lat="45.08244" lon="5.52048">
        <ele>971</ele>
        <time>2017-10-21T22:21:31Z</time>
      </trkpt>
      <trkpt lat="45.08249" lon="5.52042">
        <ele>972</ele>
        <time>2017-10-21T22:21:39Z</time>
      </trkpt>
      <trkpt lat="45.08273" lon="5.52023">
        <ele>967</ele>
        <time>2017-10-21T22:21:43Z</time>
      </trkpt>
      <trkpt lat="45.08308" lon="5.52011">
        <ele>964</ele>
        <time>2017-10-21T22:21:52Z</time>
      </trkpt>
      <trkpt lat="45.08326" lon="5.52007">
        <ele>962</ele>
        <time>2017-10-21T22:22:00Z</time>
      </trkpt>
      <trkpt lat="45.0834" lon="5.52008">
        <ele>960</ele>
        <time>2017-10-21T22:22:15Z</time>
      </trkpt>
      <trkpt lat="45.08379" lon="5.5202">
        <ele>957</ele>
        <time>2017-10-21T22:22:30Z</time>
      </trkpt>
      <trkpt lat="45.08398" lon="5.5203">
        <ele>957</ele>
        <time>2017-10-21T22:22:45Z</time>
      </trkpt>
      <trkpt lat="45.08406" lon="5.52031">
        <ele>957</ele>
        <time>2017-10-21T22:22:52Z</time>
      </trkpt>
      <trkpt lat="45.08425" lon="5.52031">
        <ele>955</ele>
        <time>2017-10-21T22:23:07Z</time>
      </trkpt>
      <trkpt lat="45.08445" lon="5.52028">
        <ele>955</ele>
        <time>2017-10-21T22:23:09Z</time>
      </trkpt>
      <trkpt lat="45.08452" lon="5.5203">
        <ele>955</ele>
        <time>2017-10-21T22:23:27Z</time>
      </trkpt>
      <trkpt lat="45.08459" lon="5.52036">
        <ele>954</ele>
        <time>2017-10-21T22:23:37Z</time>
      </trkpt>
      <trkpt lat="45.08476" lon="5.52062">
        <ele>951</ele>
        <time>2017-10-21T22:23:43Z</time>
      </trkpt>
      <trkpt lat="45.08496" lon="5.52095">
        <ele>943</ele>
        <time>2017-10-21T22:23:50Z</time>
      </trkpt>
      <trkpt lat="45.08517" lon="5.52125">
        <ele>941</ele>
        <time>2017-10-21T22:24:10Z</time>
      </trkpt>
      <trkpt lat="45.08529" lon="5.52149">
        <ele>940</ele>
        <time>2017-10-21T22:24:30Z</time>
      </trkpt>
      <trkpt lat="45.08548" lon="5.52186">
        <ele>937</ele>
        <time>2017-10-21T22:24:41Z</time>
      </trkpt>
      <trkpt lat="45.08559" lon="5.52204">
        <ele>937</ele>
        <time>2017-10-21T22:24:47Z</time>
      </trkpt>
      <trkpt lat="45.08561" lon="5.52205">
        <ele>937</ele>
        <time>2017-10-21T22:24:58Z</time>
      </trkpt>
      <trkpt lat="45.08581" lon="5.52229">
        <ele>936</ele>
        <time>2017-10-21T22:25:17Z</time>
      </trkpt>
      <trkpt lat="45.08596" lon="5.5225">
        <ele>934</ele>
        <time>2017-10-21T22:25:37Z</time>
      </trkpt>
      <trkpt lat="45.08602" lon="5.52267">
        <ele>933</ele>
        <time>2017-10-21T22:25:42Z</time>
      </trkpt>
      <trkpt lat="45.08604" lon="5.52285">
        <ele>933</ele>
        <time>2017-10-21T22:25:52Z</time>
      </trkpt>
      <trkpt lat="45.08597" lon="5.52321">
        <ele>933</ele>
        <time>2017-10-21T22:25:57Z</time>
      </trkpt>
      <trkpt lat="45.0857" lon="5.52436">
        <ele>933</ele>
        <time>2017-10-21T22:26:02Z</time>
      </trkpt>
      <trkpt lat="45.08537" lon="5.52559">
        <ele>937</ele>
        <time>2017-10-21T22:26:20Z</time>
      </trkpt>
      <trkpt lat="45.08513" lon="5.52653">
        <ele>943</ele>
        <time>2017-10-21T22:26:23Z</time>
      </trkpt>
      <trkpt lat="45.08495" lon="5.52721">
        <ele>942</ele>
        <time>2017-10-21T22:26:26Z</time>
      </trkpt>
      <trkpt lat="45.08478" lon="5.52793">
        <ele>948</ele>
        <time>2017-10-21T22:26:34Z</time>
      </trkpt>
      <trkpt lat="45.08461" lon="5.52882">
        <ele>953</ele>
        <time>2017-10-21T22:26:42Z</time>
      </trkpt>
      <trkpt lat="45.08455" lon="5.52934">
        <ele>959</ele>
        <time>2017-10-21T22:26:56Z</time>
      </trkpt>
      <trkpt lat="45.08448" lon="5.52971">
        <ele>960</ele>
        <time>2017-10-21T22:27:05Z</time>
      </trkpt>
      <trkpt lat="45.08443" lon="5.52996">
        <ele>959</ele>
        <time>2017-10-21T22:27:22Z</time>
      </trkpt>
      <trkpt lat="45.08435" lon="5.53021">
        <ele>966</ele>
        <time>2017-10-21T22:27:25Z</time>
      </trkpt>
      <trkpt lat="45.08423" lon="5.53045">
        <ele>969</ele>
        <time>2017-10-21T22:27:30Z</time>
      </trkpt>
      <trkpt lat="45.08403" lon="5.53073">
        <ele>960</ele>
        <time>2017-10-21T22:27:47Z</time>
      </trkpt>
      <trkpt lat="45.08375" lon="5.53103">
        <ele>964</ele>
        <time>2017-10-21T22:28:03Z</time>
      </trkpt>
      <trkpt lat="45.08332" lon="5.53145">
        <ele>956</ele>
        <time>2017-10-21T22:28:15Z</time>
      </trkpt>
      <trkpt lat="45.08225" lon="5.53246">
        <ele>948</ele>
        <time>2017-10-21T22:28:20Z</time>
      </trkpt>
      <trkpt lat="45.08187" lon="5.53278">
        <ele>955</ele>
        <time>2017-10-21T22:28:37Z</time>
      </trkpt>
      <trkpt lat="45.0816" lon="5.53295">
        <ele>949</ele>
        <time>2017-10-21T22:28:57Z</time>
      </trkpt>
      <trkpt lat="45.08097" lon="5.53329">
        <ele>948</ele>
        <time>2017-10-21T22:29:00Z</time>
      </trkpt>
      <trkpt lat="45.08026" lon="5.53374">
        <ele>954</ele>
        <time>2017-10-21T22:29:10Z</time>
      </trkpt>
      <trkpt lat="45.07977" lon="5.53407">
        <ele>950</ele>
        <time>2017-10-21T22:29:24Z</time>
      </trkpt>
      <trkpt lat="45.07948" lon="5.53431">
        <ele>956</ele>
        <time>2017-10-21T22:29:32Z</time>
      </trkpt>
      <trkpt lat="45.07925" lon="5.53454">
        <ele>956</ele>
        <time>2017-10-21T22:29:44Z</time>
      </trkpt>
      <trkpt lat="45.07896" lon="5.53495">
        <ele>955</ele>
        <time>2017-10-21T22:29:47Z</time>
      </trkpt>
      <trkpt lat="45.07839" lon="5.53581">
        <ele>955</ele>
        <time>2017-10-21T22:30:01Z</time>
      </trkpt>
      <trkpt lat="45.07824" lon="5.53609">
        <ele>960</ele>
        <time>2017-10-21T22:30:11Z</time>
      </trkpt>
      <trkpt lat="45.07806" lon="5.53651">
        <ele>963</ele>
        <time>2017-10-21T22:30:25Z</time>
      </trkpt>
      <trkpt lat="45.07792" lon="5.53669">
        <ele>969</ele>
        <time>2017-10-21T22:30:42Z</time>
      </trkpt>
      <trkpt lat="45.0778" lon="5.53678">
        <ele>968</ele>
        <time>2017-10-21T22:30:57Z</time>
      </trkpt>
      <trkpt lat="45.07764" lon="5.53685">
        <ele>966</ele>
        <time>2017-10-21T22:31:00Z</time>
      </trkpt>
      <trkpt lat="45.07667" lon="5.53696">
        <ele>959</ele>
        <time>2017-10-21T22:31:06Z</time>
      </trkpt>
      <trkpt lat="45.07649" lon="5.53702">
        <ele>960</ele>
        <time>2017-10-21T22:31:16Z</time>
      </trkpt>
      <trkpt lat="45.07638" lon="5.53709">
        <ele>961</ele>
        <time>2017-10-21T22:31:26Z</time>
      </trkpt>
      <trkpt lat="45.07627" lon="5.53724">
        <ele>961</ele>
        <time>2017-10-21T22:31:34Z</time>
      </trkpt>
      <trkpt lat="45.07621" lon="5.53742">
        <ele>960</ele>
        <time>2017-10-21T22:31:41Z</time>
      </trkpt>
      <trkpt lat="45.07613" lon="5.53777">
        <ele>958</ele>
        <time>2017-10-21T22:31:43Z</time>
      </trkpt>
      <trkpt lat="45.07605" lon="5.53802">
        <ele>957</ele>
        <time>2017-10-21T22:31:50Z</time>
      </trkpt>
      <trkpt lat="45.07598" lon="5.53814">
        <ele>955</ele>
        <time>2017-10-21T22:31:54Z</time>
      </trkpt>
      <trkpt lat="45.07583" lon="5.53837">
        <ele>950</ele>
        <time>2017-10-21T22:31:57Z</time>
      </trkpt>
      <trkpt lat="45.07567" lon="5.5385">
        <ele>952</ele>
        <time>2017-10-21T22:32:15Z</time>
      </trkpt>
      <trkpt lat="45.07391" lon="5.53978">
        <ele>951</ele>
        <time>2017-10-21T22:32:26Z</time>
      </trkpt>
      <trkpt lat="45.0733" lon="5.54024">
        <ele>959</ele>
        <time>2017-10-21T22:32:31Z</time>
      </trkpt>
      <trkpt lat="45.07325" lon="5.54031">
        <ele>960</ele>
        <time>2017-10-21T22:32:40Z</time>
      </trkpt>
      <trkpt lat="45.07322" lon="5.54043">
        <ele>962</ele>
        <time>2017-10-21T22:33:00Z</time>
      </trkpt>
      <trkpt lat="45.07322" lon="5.54052">
        <ele>962</ele>
        <time>2017-10-21T22:33:10Z</time>
      </trkpt>
      <trkpt lat="45.07326" lon="5.54062">
        <ele>960</ele>
        <time>2017-10-21T22:33:21Z</time>
      </trkpt>
      <trkpt lat="45.07334" lon="5.5407">
        <ele>955</ele>
        <time>2017-10-21T22:33:29Z</time>
      </trkpt>
      <trkpt lat="45.07356" lon="5.54073">
        <ele>957</ele>
        <time>2017-10-21T22:33:33Z</time>
      </trkpt>
      <trkpt lat="45.07379" lon="5.54076">
        <ele>960</ele>
        <time>2017-10-21T22:33:38Z</time>
      </trkpt>
      <trkpt lat="45.0739" lon="5.54085">
        <ele>965</ele>
        <time>2017-10-21T22:33:43Z</time>
      </trkpt>
      <trkpt lat="45.07398" lon="5.54097">
        <ele>966</ele>
        <time>2017-10-21T22:33:50Z</time>
      </trkpt>
      <trkpt lat="45.07402" lon="5.54108">
        <ele>966</ele>
        <time>2017-10-21T22:33:53Z</time>
      </trkpt>
      <trkpt lat="45.07402" lon="5.54135">
        <ele>965</ele>
        <time>2017-10-21T22:34:00Z</time>
      </trkpt>
      <trkpt lat="45.07393" lon="5.54169">
        <ele>966</ele>
        <time>2017-10-21T22:34:03Z</time>
      </trkpt>
      <trkpt lat="45.07382" lon="5.54201">
        <ele>966</ele>
        <time>2017-10-21T22:34:23Z</time>
      </trkpt>
      <trkpt lat="45.0737" lon="5.54252">
        <ele>973</ele>
        <time>2017-10-21T22:34:35Z</time>
      </trkpt>
      <trkpt lat="45.07363" lon="5.54277">
        <ele>973</ele>
        <time>2017-10-21T22:34:50Z</time>
      </trkpt>
      <trkpt lat="45.07351" lon="5.54308">
        <ele>972</ele>
        <time>2017-10-21T22:35:10Z</time>
      </trkpt>
      <trkpt lat="45.07337" lon="5.54327">
        <ele>965</ele>
        <time>2017-10-21T22:35:20Z</time>
      </trkpt>
      <trkpt lat="45.07322" lon="5.54341">
        <ele>970</ele>
        <time>2017-10-21T22:35:34Z</time>
      </trkpt>
      <trkpt lat="45.07309" lon="5.54353">
        <ele>977</ele>
        <time>2017-10-21T22:35:45Z</time>
      </trkpt>
      <trkpt lat="45.07301" lon="5.54366">
        <ele>980</ele>
        <time>2017-10-21T22:35:53Z</time>
      </trkpt>
      <trkpt lat="45.07298" lon="5.54377">
        <ele>982</ele>
        <time>2017-10-21T22:36:10Z</time>
      </trkpt>
      <trkpt lat="45.07299" lon="5.54393">
        <ele>983</ele>
        <time>2017-10-21T22:36:30Z</time>
      </trkpt>
      <trkpt lat="45.07303" lon="5.54406">
        <ele>983</ele>
        <time>2017-10-21T22:36:50Z</time>
      </trkpt>
      <trkpt lat="45.07311" lon="5.5442">
        <ele>983</ele>
        <time>2017-10-21T22:36:54Z</time>
      </trkpt>
      <trkpt lat="45.07332" lon="5.54448">
        <ele>982</ele>
        <time>2017-10-21T22:37:02Z</time>
      </trkpt>
      <trkpt lat="45.07364" lon="5.54509">
        <ele>982</ele>
        <time>2017-10-21T22:37:13Z</time>
      </trkpt>
      <trkpt lat="45.07383" lon="5.54574">
        <ele>980</ele>
        <time>2017-10-21T22:37:24Z</time>
      </trkpt>
      <trkpt lat="45.07386" lon="5.54598">
        <ele>972</ele>
        <time>2017-10-21T22:37:37Z</time>
      </trkpt>
      <trkpt lat="45.07385" lon="5.54615">
        <ele>970</ele>
        <time>2017-10-21T22:37:53Z</time>
      </trkpt>
      <trkpt lat="45.07383" lon="5.54631">
        <ele>969</ele>
        <time>2017-10-21T22:38:11Z</time>
      </trkpt>
      <trkpt lat="45.07367" lon="5.54675">
        <ele>964</ele>
        <time>2017-10-21T22:38:16Z</time>
      </trkpt>
      <trkpt lat="45.07363" lon="5.54674">
        <ele>964</ele>
        <time>2017-10-21T22:38:18Z</time>
      </trkpt>
      <trkpt lat="45.07357" lon="5.54676">
        <ele>964</ele>
        <time>2017-10-21T22:38:21Z</time>
      </trkpt>
      <trkpt lat="45.07352" lon="5.54682">
        <ele>964</ele>
        <time>2017-10-21T22:38:28Z</time>
      </trkpt>
      <trkpt lat="45.0735" lon="5.5469">
        <ele>964</ele>
        <time>2017-10-21T22:38:32Z</time>
      </trkpt>
      <trkpt lat="45.0735" lon="5.54698">
        <ele>965</ele>
        <time>2017-10-21T22:38:44Z</time>
      </trkpt>
      <trkpt lat="45.07356" lon="5.5471">
        <ele>965</ele>
        <time>2017-10-21T22:39:04Z</time>
      </trkpt>
      <trkpt lat="45.07369" lon="5.54783">
        <ele>969</ele>
        <time>2017-10-21T22:39:21Z</time>
      </trkpt>
      <trkpt lat="45.07386" lon="5.54824">
        <ele>969</ele>
        <time>2017-10-21T22:39:27Z</time>
      </trkpt>
      <trkpt lat="45.0741" lon="5.5486">
        <ele>974</ele>
        <time>2017-10-21T22:39:38Z</time>
      </trkpt>
      <trkpt lat="45.07455" lon="5.54913">
        <ele>970</ele>
        <time>2017-10-21T22:39:41Z</time>
      </trkpt>
      <trkpt lat="45.07483" lon="5.54946">
        <ele>975</ele>
        <time>2017-10-21T22:39:53Z</time>
      </trkpt>
      <trkpt lat="45.07499" lon="5.54963">
        <ele>976</ele>
        <time>2017-10-21T22:40:12Z</time>
      </trkpt>
      <trkpt lat="45.07515" lon="5.54975">
        <ele>973</ele>
        <time>2017-10-21T22:40:25Z</time>
      </trkpt>
      <trkpt lat="45.07531" lon="5.54988">
        <ele>973</ele>
        <time>2017-10-21T22:40:27Z</time>
      </trkpt>
      <trkpt lat="45.07588" lon="5.55028">
        <ele>975</ele>
        <time>2017-10-21T22:40:38Z</time>
      </trkpt>
      <trkpt lat="45.07634" lon="5.55057">
        <ele>976</ele>
        <time>2017-10-21T22:40:49Z</time>
      </trkpt>
      <trkpt lat="45.0766" lon="5.55077">
        <ele>977</ele>
        <time>2017-10-21T22:40:55Z</time>
      </trkpt>
      <trkpt lat="45.0768" lon="5.55098">
        <ele>978</ele>
        <time>2017-10-21T22:41:15Z</time>
      </trkpt>
      <trkpt lat="45.07706" lon="5.55133">
        <ele>978</ele>
        <time>2017-10-21T22:41:20Z</time>
      </trkpt>
      <trkpt lat="45.07719" lon="5.55154">
        <ele>978</ele>
        <time>2017-10-21T22:41:30Z</time>
      </trkpt>
      <trkpt lat="45.07751" lon="5.55212">
        <ele>976</ele>
        <time>2017-10-21T22:41:40Z</time>
      </trkpt>
      <trkpt lat="45.07797" lon="5.55307">
        <ele>978</ele>
        <time>2017-10-21T22:41:59Z</time>
      </trkpt>
      <trkpt lat="45.07804" lon="5.55318">
        <ele>978</ele>
        <time>2017-10-21T22:42:01Z</time>
      </trkpt>
      <trkpt lat="45.07816" lon="5.5533">
        <ele>977</ele>
        <time>2017-10-21T22:42:03Z</time>
      </trkpt>
      <trkpt lat="45.07828" lon="5.55338">
        <ele>978</ele>
        <time>2017-10-21T22:42:11Z</time>
      </trkpt>
      <trkpt lat="45.07839" lon="5.55342">
        <ele>978</ele>
        <time>2017-10-21T22:42:25Z</time>
      </trkpt>
      <trkpt lat="45.07858" lon="5.55344">
        <ele>980</ele>
        <time>2017-10-21T22:42:32Z</time>
      </trkpt>
      <trkpt lat="45.0789" lon="5.55341">
        <ele>982</ele>
        <time>2017-10-21T22:42:41Z</time>
      </trkpt>
      <trkpt lat="45.07901" lon="5.55347">
        <ele>982</ele>
        <time>2017-10-21T22:42:44Z</time>
      </trkpt>
      <trkpt lat="45.07911" lon="5.5535">
        <ele>982</ele>
        <time>2017-10-21T22:43:00Z</time>
      </trkpt>
      <trkpt lat="45.07912" lon="5.55352">
        <ele>982</ele>
        <time>2017-10-21T22:43:05Z</time>
      </trkpt>
      <trkpt lat="45.07913" lon="5.55354">
        <ele>982</ele>
        <time>2017-10-21T22:43:14Z</time>
      </trkpt>
      <trkpt lat="45.07915" lon="5.55356">
        <ele>983</ele>
        <time>2017-10-21T22:43:30Z</time>
      </trkpt>
      <trkpt lat="45.07919" lon="5.55359">
        <ele>987</ele>
        <time>2017-10-21T22:43:32Z</time>
      </trkpt>
      <trkpt lat="45.07925" lon="5.55359">
        <ele>987</ele>
        <time>2017-10-21T22:43:37Z</time>
      </trkpt>
      <trkpt lat="45.07932" lon="5.55351">
        <ele>987</ele>
        <time>2017-10-21T22:43:40Z</time>
      </trkpt>
      <trkpt lat="45.07933" lon="5.55348">
        <ele>986</ele>
        <time>2017-10-21T22:43:42Z</time>
      </trkpt>
      <trkpt lat="45.0796" lon="5.55327">
        <ele>984</ele>
        <time>2017-10-21T22:43:46Z</time>
      </trkpt>
      <trkpt lat="45.07984" lon="5.55317">
        <ele>985</ele>
        <time>2017-10-21T22:43:53Z</time>
      </trkpt>
      <trkpt lat="45.08009" lon="5.55314">
        <ele>986</ele>
        <time>2017-10-21T22:44:02Z</time>
      </trkpt>
      <trkpt lat="45.08031" lon="5.55317">
        <ele>985</ele>
        <time>2017-10-21T22:44:10Z</time>
      </trkpt>
      <trkpt lat="45.0804" lon="5.55319">
        <ele>985</ele>
        <time>2017-10-21T22:44:23Z</time>
      </trkpt>
      <trkpt lat="45.08049" lon="5.55324">
        <ele>985</ele>
        <time>2017-10-21T22:44:30Z</time>
      </trkpt>
      <trkpt lat="45.08058" lon="5.55331">
        <ele>985</ele>
        <time>2017-10-21T22:44:38Z</time>
      </trkpt>
      <trkpt lat="45.08114" lon="5.55375">
        <ele>986</ele>
        <time>2017-10-21T22:44:43Z</time>
      </trkpt>
      <trkpt lat="45.08146" lon="5.55395">
        <ele>986</ele>
        <time>2017-10-21T22:44:51Z</time>
      </trkpt>
      <trkpt lat="45.08167" lon="5.55401">
        <ele>985</ele>
        <time>2017-10-21T22:44:54Z</time>
      </trkpt>
      <trkpt lat="45.08183" lon="5.55401">
        <ele>984</ele>
        <time>2017-10-21T22:45:07Z</time>
      </trkpt>
      <trkpt lat="45.08227" lon="5.55396">
        <ele>984</ele>
        <time>2017-10-21T22:45:20Z</time>
      </trkpt>
      <trkpt lat="45.08327" lon="5.55382">
        <ele>982</ele>
        <time>2017-10-21T22:45:27Z</time>
      </trkpt>
      <trkpt lat="45.08353" lon="5.55381">
        <ele>981</ele>
        <time>2017-10-21T22:45:31Z</time>
      </trkpt>
      <trkpt lat="45.08393" lon="5.55383">
        <ele>980</ele>
        <time>2017-10-21T22:45:46Z</time>
      </trkpt>
      <trkpt lat="45.08447" lon="5.55396">
        <ele>978</ele>
        <time>2017-10-21T22:45:57Z</time>
      </trkpt>
      <trkpt lat="45.08474" lon="5.55405">
        <ele>978</ele>
        <time>2017-10-21T22:46:13Z</time>
      </trkpt>
      <trkpt lat="45.08518" lon="5.55422">
        <ele>978</ele>
        <time>2017-10-21T22:46:24Z</time>
      </trkpt>
      <trkpt lat="45.08558" lon="5.55431">
        <ele>978</ele>
        <time>2017-10-21T22:46:36Z</time>
      </trkpt>
      <trkpt lat="45.08571" lon="5.55431">
        <ele>978</ele>
        <time>2017-10-21T22:46:43Z</time>
      </trkpt>
      <trkpt lat="45.08626" lon="5.55447">
        <ele>978</ele>
        <time>2017-10-21T22:47:01Z</time>
      </trkpt>
      <trkpt lat="45.08707" lon="5.55471">
        <ele>979</ele>
        <time>2017-10-21T22:47:18Z</time>
      </trkpt>
      <trkpt lat="45.08937" lon="5.55536">
        <ele>977</ele>
        <time>2017-10-21T22:47:28Z</time>
      </trkpt>
      <trkpt lat="45.08962" lon="5.55543">
        <ele>977</ele>
        <time>2017-10-21T22:47:46Z</time>
      </trkpt>
      <trkpt lat="45.08972" lon="5.5555">
        <ele>977</ele>
        <time>2017-10-21T22:47:54Z</time>
      </trkpt>
      <trkpt lat="45.08998" lon="5.55561">
        <ele>977</ele>
        <time>2017-10-21T22:48:14Z</time>
      </trkpt>
      <trkpt lat="45.08999" lon="5.55565">
        <ele>977</ele>
        <time>2017-10-21T22:48:29Z</time>
      </trkpt>
      <trkpt lat="45.09003" lon="5.55573">
        <ele>977</ele>
        <time>2017-10-21T22:48:39Z</time>
      </trkpt>
      <trkpt lat="45.09008" lon="5.55578">
        <ele>977</ele>
        <time>2017-10-21T22:48:55Z</time>
      </trkpt>
      <trkpt lat="45.09015" lon="5.55581">
        <ele>977</ele>
        <time>2017-10-21T22:49:00Z</time>
      </trkpt>
      <trkpt lat="45.09025" lon="5.55577">
        <ele>976</ele>
        <time>2017-10-21T22:49:18Z</time>
      </trkpt>
      <trkpt lat="45.09029" lon="5.55572">
        <ele>976</ele>
        <time>2017-10-21T22:49:27Z</time>
      </trkpt>
      <trkpt lat="45.09062" lon="5.55578">
        <ele>976</ele>
        <time>2017-10-21T22:49:29Z</time>
      </trkpt>
      <trkpt lat="45.09071" lon="5.55576">
        <ele>976</ele>
        <time>2017-10-21T22:49:44Z</time>
      </trkpt>
      <trkpt lat="45.0909" lon="5.55581">
        <ele>976</ele>
        <time>2017-10-21T22:49:56Z</time>
      </trkpt>
      <trkpt lat="45.09257" lon="5.55619">
        <ele>980</ele>
        <time>2017-10-21T22:50:04Z</time>
      </trkpt>
      <trkpt lat="45.09269" lon="5.55622">
        <ele>980</ele>
        <time>2017-10-21T22:50:12Z</time>
      </trkpt>
      <trkpt lat="45.0928" lon="5.55622">
        <ele>980</ele>
        <time>2017-10-21T22:50:19Z</time>
      </trkpt>
      <trkpt lat="45.09348" lon="5.55639">
        <ele>982</ele>
        <time>2017-10-21T22:50:23Z</time>
      </trkpt>
      <trkpt lat="45.09409" lon="5.55655">
        <ele>982</ele>
        <time>2017-10-21T22:50:41Z</time>
      </trkpt>
      <trkpt lat="45.09494" lon="5.55674">
        <ele>981</ele>
        <time>2017-10-21T22:50:44Z</time>
      </trkpt>
      <trkpt lat="45.09617" lon="5.55707">
        <ele>986</ele>
        <time>2017-10-21T22:51:01Z</time>
      </trkpt>
      <trkpt lat="45.09628" lon="5.55706">
        <ele>986</ele>
        <time>2017-10-21T22:51:08Z</time>
      </trkpt>
      <trkpt lat="45.09658" lon="5.55723">
        <ele>984</ele>
        <time>2017-10-21T22:51:24Z</time>
      </trkpt>
      <trkpt lat="45.09695" lon="5.55739">
        <ele>987</ele>
        <time>2017-10-21T22:51:44Z</time>
      </trkpt>
      <trkpt lat="45.09726" lon="5.55745">
        <ele>988</ele>
        <time>2017-10-21T22:51:46Z</time>
      </trkpt>
      <trkpt lat="45.09746" lon="5.55746">
        <ele>987</ele>
        <time>2017-10-21T22:52:06Z</time>
      </trkpt>
      <trkpt lat="45.09764" lon="5.55752">
        <ele>987</ele>
        <time>2017-10-21T22:52:24Z</time>
      </trkpt>
      <trkpt lat="45.09801" lon="5.55768">
        <ele>987</ele>
        <time>2017-10-21T22:52:35Z</time>
      </trkpt>
      <trkpt lat="45.09852" lon="5.55798">
        <ele>987</ele>
        <time>2017-10-21T22:52:52Z</time>
      </trkpt>
      <trkpt lat="45.09873" lon="5.55809">
        <ele>987</ele>
        <time>2017-10-21T22:52:54Z</time>
      </trkpt>
      <trkpt lat="45.09898" lon="5.55824">
        <ele>986</ele>
        <time>2017-10-21T22:53:03Z</time>
      </trkpt>
      <trkpt lat="45.09922" lon="5.55842">
        <ele>985</ele>
        <time>2017-10-21T22:53:12Z</time>
      </trkpt>
      <trkpt lat="45.09954" lon="5.55873">
        <ele>987</ele>
        <time>2017-10-21T22:53:26Z</time>
      </trkpt>
      <trkpt lat="45.1003" lon="5.55974">
        <ele>988</ele>
        <time>2017-10-21T22:53:28Z</time>
      </trkpt>
      <trkpt lat="45.10052" lon="5.55997">
        <ele>989</ele>
        <time>2017-10-21T22:53:45Z</time>
      </trkpt>
      <trkpt lat="45.10071" lon="5.56013">
        <ele>988</ele>
        <time>2017-10-21T22:53:55Z</time>
      </trkpt>
      <trkpt lat="45.10175" lon="5.56085">
        <ele>991</ele>
        <time>2017-10-21T22:54:13Z</time>
      </trkpt>
      <trkpt lat="45.10224" lon="5.56116">
        <ele>990</ele>
        <time>2017-10-21T22:54:22Z</time>
      </trkpt>
      <trkpt lat="45.10296" lon="5.56158">
        <ele>991</ele>
        <time>2017-10-21T22:54:33Z</time>
      </trkpt>
      <trkpt lat="45.10354" lon="5.56186">
        <ele>988</ele>
        <time>2017-10-21T22:54:52Z</time>
      </trkpt>
      <trkpt lat="45.10505" lon="5.56262">
        <ele>989</ele>
        <time>2017-10-21T22:55:07Z</time>
      </trkpt>
      <trkpt lat="45.10612" lon="5.56324">
        <ele>994</ele>
        <time>2017-10-21T22:55:18Z</time>
      </trkpt>
      <trkpt lat="45.10662" lon="5.56354">
        <ele>988</ele>
        <time>2017-10-21T22:55:21Z</time>
      </trkpt>
      <trkpt lat="45.10702" lon="5.56381">
        <ele>990</ele>
        <time>2017-10-21T22:55:24Z</time>
      </trkpt>
      <trkpt lat="45.10815" lon="5.56469">
        <ele>991</ele>
        <time>2017-10-21T22:55:33Z</time>
      </trkpt>
      <trkpt lat="45.1091" lon="5.56543">
        <ele>991</ele>
        <time>2017-10-21T22:55:52Z</time>
      </trkpt>
      <trkpt lat="45.10974" lon="5.56596">
        <ele>993</ele>
        <time>2017-10-21T22:56:12Z</time>
      </trkpt>
      <trkpt lat="45.11039" lon="5.5666">
        <ele>997</ele>
        <time>2017-10-21T22:56:19Z</time>
      </trkpt>
      <trkpt lat="45.11093" lon="5.56715">
        <ele>994</ele>
        <time>2017-10-21T22:56:24Z</time>
      </trkpt>
      <trkpt lat="45.11114" lon="5.56739">
        <ele>994</ele>
        <time>2017-10-21T22:56:30Z</time>
      </trkpt>
      <trkpt lat="45.11137" lon="5.56775">
        <ele>992</ele>
        <time>2017-10-21T22:56:47Z</time>
      </trkpt>
      <trkpt lat="45.11207" lon="5.56901">
        <ele>997</ele>
        <time>2017-10-21T22:57:04Z</time>
      </trkpt>
      <trkpt lat="45.11235" lon="5.56946">
        <ele>996</ele>
        <time>2017-10-21T22:57:16Z</time>
      </trkpt>
      <trkpt lat="45.11264" lon="5.56999">
        <ele>996</ele>
        <time>2017-10-21T22:57:27Z</time>
      </trkpt>
      <trkpt lat="45.11287" lon="5.57049">
        <ele>999</ele>
        <time>2017-10-21T22:57:38Z</time>
      </trkpt>
      <trkpt lat="45.11306" lon="5.57103">
        <ele>1001</ele>
        <time>2017-10-21T22:57:50Z</time>
      </trkpt>
      <trkpt lat="45.11322" lon="5.57162">
        <ele>1001</ele>
        <time>2017-10-21T22:57:56Z</time>
      </trkpt>
      <trkpt lat="45.11336" lon="5.57211">
        <ele>1002</ele>
        <time>2017-10-21T22:58:03Z</time>
      </trkpt>
      <trkpt lat="45.11365" lon="5.57249">
        <ele>1002</ele>
        <time>2017-10-21T22:58:21Z</time>
      </trkpt>
      <trkpt lat="45.11384" lon="5.57266">
        <ele>1001</ele>
        <time>2017-10-21T22:58:30Z</time>
      </trkpt>
      <trkpt lat="45.11402" lon="5.57276">
        <ele>1001</ele>
        <time>2017-10-21T22:58:35Z</time>
      </trkpt>
      <trkpt lat="45.11419" lon="5.57281">
        <ele>1003</ele>
        <time>2017-10-21T22:58:47Z</time>
      </trkpt>
      <trkpt lat="45.11439" lon="5.57281">
        <ele>1003</ele>
        <time>2017-10-21T22:58:49Z</time>
      </trkpt>
      <trkpt lat="45.11473" lon="5.57273">
        <ele>1004</ele>
        <time>2017-10-21T22:58:56Z</time>
      </trkpt>
      <trkpt lat="45.11555" lon="5.57253">
        <ele>1005</ele>
        <time>2017-10-21T22:59:14Z</time>
      </trkpt>
      <trkpt lat="45.11575" lon="5.57248">
        <ele>1007</ele>
        <time>2017-10-21T22:59:27Z</time>
      </trkpt>
      <trkpt lat="45.11599" lon="5.57235">
        <ele>1009</ele>
        <time>2017-10-21T22:59:46Z</time>
      </trkpt>
      <trkpt lat="45.11639" lon="5.57208">
        <ele>1010</ele>
        <time>2017-10-21T23:00:00Z</time>
      </trkpt>
      <trkpt lat="45.11658" lon="5.57196">
        <ele>1011</ele>
        <time>2017-10-21T23:00:03Z</time>
      </trkpt>
      <trkpt lat="45.11682" lon="5.57186">
        <ele>1012</ele>
        <time>2017-10-21T23:00:06Z</time>
      </trkpt>
      <trkpt lat="45.11702" lon="5.57181">
        <ele>1012</ele>
        <time>2017-10-21T23:00:21Z</time>
      </trkpt>
      <trkpt lat="45.11735" lon="5.57181">
        <ele>1013</ele>
        <time>2017-10-21T23:00:41Z</time>
      </trkpt>
      <trkpt lat="45.118" lon="5.57193">
        <ele>1012</ele>
        <time>2017-10-21T23:00:48Z</time>
      </trkpt>
      <trkpt lat="45.1191" lon="5.57224">
        <ele>1011</ele>
        <time>2017-10-21T23:00:57Z</time>
      </trkpt>
      <trkpt lat="45.1202" lon="5.57257">
        <ele>1012</ele>
        <time>2017-10-21T23:01:01Z</time>
      </trkpt>
      <trkpt lat="45.12042" lon="5.57266">
        <ele>1011</ele>
        <time>2017-10-21T23:01:17Z</time>
      </trkpt>
      <trkpt lat="45.12057" lon="5.57275">
        <ele>1011</ele>
        <time>2017-10-21T23:01:20Z</time>
      </trkpt>
      <trkpt lat="45.12078" lon="5.57291">
        <ele>1010</ele>
        <time>2017-10-21T23:01:26Z</time>
      </trkpt>
      <trkpt lat="45.12098" lon="5.57311">
        <ele>1011</ele>
        <time>2017-10-21T23:01:45Z</time>
      </trkpt>
      <trkpt lat="45.1215" lon="5.57381">
        <ele>1002</ele>
        <time>2017-10-21T23:01:58Z</time>
      </trkpt>
      <trkpt lat="45.12176" lon="5.5741">
        <ele>1002</ele>
        <time>2017-10-21T23:02:17Z</time>
      </trkpt>
      <trkpt lat="45.12192" lon="5.57424">
        <ele>998</ele>
        <time>2017-10-21T23:02:25Z</time>
      </trkpt>
      <trkpt lat="45.12395" lon="5.57585">
        <ele>999</ele>
        <time>2017-10-21T23:02:31Z</time>
      </trkpt>
      <trkpt lat="45.12445" lon="5.57624">
        <ele>1002</ele>
        <time>2017-10-21T23:02:47Z</time>
      </trkpt>
      <trkpt lat="45.12494" lon="5.57662">
        <ele>1002</ele>
        <time>2017-10-21T23:02:54Z</time>
      </trkpt>
      <trkpt lat="45.125" lon="5.5767">
        <ele>1002</ele>
        <time>2017-10-21T23:02:56Z</time>
      </trkpt>
      <trkpt lat="45.12509" lon="5.57676">
        <ele>1002</ele>
        <time>2017-10-21T23:03:08Z</time>
      </trkpt>
      <trkpt lat="45.12546" lon="5.57707">
        <ele>1002</ele>
        <time>2017-10-21T23:03:15Z</time>
      </trkpt>
      <trkpt lat="45.12601" lon="5.57748">
        <ele>1004</ele>
        <time>2017-10-21T23:03:23Z</time>
      </trkpt>
      <trkpt lat="45.1267" lon="5.57801">
        <ele>1005</ele>
        <time>2017-10-21T23:03:26Z</time>
      </trkpt>
      <trkpt lat="45.12908" lon="5.57986">
        <ele>1007</ele>
        <time>2017-10-21T23:03:31Z</time>
      </trkpt>
      <trkpt lat="45.12991" lon="5.58052">
        <ele>1006</ele>
        <time>2017-10-21T23:03:34Z</time>
      </trkpt>
      <trkpt lat="45.13003" lon="5.58062">
        <ele>1007</ele>
        <time>2017-10-21T23:03:54Z</time>
      </trkpt>
      <trkpt lat="45.13009" lon="5.58065">
        <ele>1007</ele>
        <time>2017-10-21T23:04:12Z</time>
      </trkpt>
      <trkpt lat="45.13013" lon="5.58072">
        <ele>1007</ele>
        <time>2017-10-21T23:04:17Z</time>
      </trkpt>
      <trkpt lat="45.13021" lon="5.58076">
        <ele>1007</ele>
        <time>2017-10-21T23:04:33Z</time>
      </trkpt>
      <trkpt lat="45.13034" lon="5.58084">
        <ele>1006</ele>
        <time>2017-10-21T23:04:37Z</time>
      </trkpt>
      <trkpt lat="45.13043" lon="5.58094">
        <ele>1005</ele>
        <time>2017-10-21T23:04:40Z</time>
      </trkpt>
      <trkpt lat="45.13049" lon="5.58103">
        <ele>1005</ele>
        <time>2017-10-21T23:04:46Z</time>
      </trkpt>
      <trkpt lat="45.13052" lon="5.58114">
        <ele>1005</ele>
        <time>2017-10-21T23:04:55Z</time>
      </trkpt>
      <trkpt lat="45.13052" lon="5.58124">
        <ele>1005</ele>
        <time>2017-10-21T23:04:58Z</time>
      </trkpt>
      <trkpt lat="45.13052" lon="5.58135">
        <ele>1005</ele>
        <time>2017-10-21T23:05:03Z</time>
      </trkpt>
      <trkpt lat="45.13054" lon="5.58145">
        <ele>1005</ele>
        <time>2017-10-21T23:05:05Z</time>
      </trkpt>
      <trkpt lat="45.1306" lon="5.58153">
        <ele>1005</ele>
        <time>2017-10-21T23:05:09Z</time>
      </trkpt>
      <trkpt lat="45.13068" lon="5.58158">
        <ele>1004</ele>
        <time>2017-10-21T23:05:22Z</time>
      </trkpt>
      <trkpt lat="45.13077" lon="5.58161">
        <ele>1004</ele>
        <time>2017-10-21T23:05:25Z</time>
      </trkpt>
      <trkpt lat="45.13077" lon="5.58163">
        <ele>1004</ele>
        <time>2017-10-21T23:05:35Z</time>
      </trkpt>
      <trkpt lat="45.13077" lon="5.58168">
        <ele>1003</ele>
        <time>2017-10-21T23:05:51Z</time>
      </trkpt>
      <trkpt lat="45.1308" lon="5.58176">
        <ele>1004</ele>
        <time>2017-10-21T23:06:03Z</time>
      </trkpt>
      <trkpt lat="45.13082" lon="5.5818">
        <ele>1004</ele>
        <time>2017-10-21T23:06:23Z</time>
      </trkpt>
      <trkpt lat="45.13073" lon="5.58197">
        <ele>1004</ele>
        <time>2017-10-21T23:06:28Z</time>
      </trkpt>
      <trkpt lat="45.13064" lon="5.58204">
        <ele>1005</ele>
        <time>2017-10-21T23:06:30Z</time>
      </trkpt>
      <trkpt lat="45.13053" lon="5.58207">
        <ele>1005</ele>
        <time>2017-10-21T23:06:36Z</time>
      </trkpt>
      <trkpt lat="45.1302" lon="5.58232">
        <ele>1005</ele>
        <time>2017-10-21T23:06:39Z</time>
      </trkpt>
      <trkpt lat="45.13012" lon="5.58246">
        <ele>1006</ele>
        <time>2017-10-21T23:06:41Z</time>
      </trkpt>
      <trkpt lat="45.13005" lon="5.5826">
        <ele>1006</ele>
        <time>2017-10-21T23:06:49Z</time>
      </trkpt>
      <trkpt lat="45.12988" lon="5.58315">
        <ele>1007</ele>
        <time>2017-10-21T23:07:05Z</time>
      </trkpt>
      <trkpt lat="45.12971" lon="5.58375">
        <ele>1009</ele>
        <time>2017-10-21T23:07:10Z</time>
      </trkpt>
      <trkpt lat="45.12917" lon="5.58558">
        <ele>1011</ele>
        <time>2017-10-21T23:07:27Z</time>
      </trkpt>
      <trkpt lat="45.12868" lon="5.58729">
        <ele>1015</ele>
        <time>2017-10-21T23:07:39Z</time>
      </trkpt>
      <trkpt lat="45.12838" lon="5.58828">
        <ele>1015</ele>
        <time>2017-10-21T23:07:58Z</time>
      </trkpt>
      <trkpt lat="45.12827" lon="5.58867">
        <ele>1017</ele>
        <time>2017-10-21T23:08:16Z</time>
      </trkpt>
      <trkpt lat="45.12806" lon="5.59007">
        <ele>1019</ele>
        <time>2017-10-21T23:08:31Z</time>
      </trkpt>
      <trkpt lat="45.12797" lon="5.59048">
        <ele>1020</ele>
        <time>2017-10-21T23:08:51Z</time>
      </trkpt>
      <trkpt lat="45.12773" lon="5.59146">
        <ele>1020</ele>
        <time>2017-10-21T23:09:04Z</time>
      </trkpt>
      <trkpt lat="45.12758" lon="5.59205">
        <ele>1022</ele>
        <time>2017-10-21T23:09:21Z</time>
      </trkpt>
      <trkpt lat="45.12717" lon="5.59349">
        <ele>1025</ele>
        <time>2017-10-21T23:09:36Z</time>
      </trkpt>
      <trkpt lat="45.12686" lon="5.59458">
        <ele>1026</ele>
        <time>2017-10-21T23:09:41Z</time>
      </trkpt>
      <trkpt lat="45.12677" lon="5.59486">
        <ele>1027</ele>
        <time>2017-10-21T23:09:51Z</time>
      </trkpt>
      <trkpt lat="45.12659" lon="5.59529">
        <ele>1029</ele>
        <time>2017-10-21T23:10:05Z</time>
      </trkpt>
      <trkpt lat="45.12646" lon="5.59558">
        <ele>1030</ele>
        <time>2017-10-21T23:10:10Z</time>
      </trkpt>
      <trkpt lat="45.12642" lon="5.59575">
        <ele>1030</ele>
        <time>2017-10-21T23:10:21Z</time>
      </trkpt>
      <trkpt lat="45.12634" lon="5.59672">
        <ele>1035</ele>
        <time>2017-10-21T23:10:41Z</time>
      </trkpt>
      <trkpt lat="45.12624" lon="5.59765">
        <ele>1039</ele>
        <time>2017-10-21T23:10:57Z</time>
      </trkpt>
      <trkpt lat="45.12628" lon="5.59799">
        <ele>1040</ele>
        <time>2017-10-21T23:11:09Z</time>
      </trkpt>
      <trkpt lat="45.12634" lon="5.59826">
        <ele>1040</ele>
        <time>2017-10-21T23:11:17Z</time>
      </trkpt>
      <trkpt lat="45.12642" lon="5.59844">
        <ele>1043</ele>
        <time>2017-10-21T23:11:29Z</time>
      </trkpt>
      <trkpt lat="45.12651" lon="5.59856">
        <ele>1043</ele>
        <time>2017-10-21T23:11:31Z</time>
      </trkpt>
      <trkpt lat="45.12664" lon="5.59868">
        <ele>1043</ele>
        <time>2017-10-21T23:11:44Z</time>
      </trkpt>
      <trkpt lat="45.12682" lon="5.59883">
        <ele>1038</ele>
        <time>2017-10-21T23:11:59Z</time>
      </trkpt>
      <trkpt lat="45.12725" lon="5.59906">
        <ele>1038</ele>
        <time>2017-10-21T23:12:14Z</time>
      </trkpt>
      <trkpt lat="45.12764" lon="5.59927">
        <ele>1042</ele>
        <time>2017-10-21T23:12:29Z</time>
      </trkpt>
      <trkpt lat="45.12793" lon="5.59941">
        <ele>1045</ele>
        <time>2017-10-21T23:12:33Z</time>
      </trkpt>
      <trkpt lat="45.12808" lon="5.59944">
        <ele>1046</ele>
        <time>2017-10-21T23:12:40Z</time>
      </trkpt>
      <trkpt lat="45.12824" lon="5.59941">
        <ele>1046</ele>
        <time>2017-10-21T23:12:52Z</time>
      </trkpt>
      <trkpt lat="45.12863" lon="5.59922">
        <ele>1050</ele>
        <time>2017-10-21T23:13:04Z</time>
      </trkpt>
      <trkpt lat="45.12892" lon="5.59916">
        <ele>1045</ele>
        <time>2017-10-21T23:13:11Z</time>
      </trkpt>
      <trkpt lat="45.12922" lon="5.59915">
        <ele>1047</ele>
        <time>2017-10-21T23:13:31Z</time>
      </trkpt>
      <trkpt lat="45.12943" lon="5.59922">
        <ele>1049</ele>
        <time>2017-10-21T23:13:47Z</time>
      </trkpt>
      <trkpt lat="45.12977" lon="5.59942">
        <ele>1048</ele>
        <time>2017-10-21T23:14:00Z</time>
      </trkpt>
      <trkpt lat="45.13001" lon="5.59959">
        <ele>1045</ele>
        <time>2017-10-21T23:14:17Z</time>
      </trkpt>
      <trkpt lat="45.13013" lon="5.59975">
        <ele>1046</ele>
        <time>2017-10-21T23:14:37Z</time>
      </trkpt>
      <trkpt lat="45.13022" lon="5.59991">
        <ele>1046</ele>
        <time>2017-10-21T23:14:48Z</time>
      </trkpt>
      <trkpt lat="45.1303" lon="5.60032">
        <ele>1053</ele>
        <time>2017-10-21T23:14:51Z</time>
      </trkpt>
      <trkpt lat="45.13035" lon="5.60057">
        <ele>1055</ele>
        <time>2017-10-21T23:15:07Z</time>
      </trkpt>
      <trkpt lat="45.13043" lon="5.60076">
        <ele>1055</ele>
        <time>2017-10-21T23:15:26Z</time>
      </trkpt>
      <trkpt lat="45.1305" lon="5.60089">
        <ele>1063</ele>
        <time>2017-10-21T23:15:45Z</time>
      </trkpt>
      <trkpt lat="45.1306" lon="5.601">
        <ele>1063</ele>
        <time>2017-10-21T23:15:49Z</time>
      </trkpt>
      <trkpt lat="45.13072" lon="5.60106">
        <ele>1063</ele>
        <time>2017-10-21T23:16:04Z</time>
      </trkpt>
      <trkpt lat="45.13083" lon="5.60107">
        <ele>1062</ele>
        <time>2017-10-21T23:16:06Z</time>
      </trkpt>
      <trkpt lat="45.13095" lon="5.60104">
        <ele>1059</ele>
        <time>2017-10-21T23:16:23Z</time>
      </trkpt>
      <trkpt lat="45.13105" lon="5.60097">
        <ele>1058</ele>
        <time>2017-10-21T23:16:33Z</time>
      </trkpt>
      <trkpt lat="45.13116" lon="5.60097">
        <ele>1058</ele>
        <time>2017-10-21T23:16:40Z</time>
      </trkpt>
      <trkpt lat="45.13133" lon="5.60104">
        <ele>1058</ele>
        <time>2017-10-21T23:17:00Z</time>
      </trkpt>
      <trkpt lat="45.13143" lon="5.60117">
        <ele>1058</ele>
        <time>2017-10-21T23:17:11Z</time>
      </trkpt>
      <trkpt lat="45.13155" lon="5.60139">
        <ele>1060</ele>
        <time>2017-10-21T23:17:30Z</time>
      </trkpt>
      <trkpt lat="45.13164" lon="5.60154">
        <ele>1062</ele>
        <time>2017-10-21T23:17:37Z</time>
      </trkpt>
      <trkpt lat="45.13176" lon="5.60166">
        <ele>1060</ele>
        <time>2017-10-21T23:17:50Z</time>
      </trkpt>
      <trkpt lat="45.13217" lon="5.60188">
        <ele>1063</ele>
        <time>2017-10-21T23:18:06Z</time>
      </trkpt>
      <trkpt lat="45.13228" lon="5.60202">
        <ele>1063</ele>
        <time>2017-10-21T23:18:11Z</time>
      </trkpt>
      <trkpt lat="45.13238" lon="5.60217">
        <ele>1064</ele>
        <time>2017-10-21T23:18:24Z</time>
      </trkpt>
      <trkpt lat="45.13278" lon="5.60292">
        <ele>1067</ele>
        <time>2017-10-21T23:18:31Z</time>
      </trkpt>
      <trkpt lat="45.13312" lon="5.60346">
        <ele>1072</ele>
        <time>2017-10-21T23:18:40Z</time>
      </trkpt>
      <trkpt lat="45.13338" lon="5.6038">
        <ele>1066</ele>
        <time>2017-10-21T23:18:57Z</time>
      </trkpt>
      <trkpt lat="45.13345" lon="5.60395">
        <ele>1067</ele>
        <time>2017-10-21T23:19:08Z</time>
      </trkpt>
      <trkpt lat="45.13348" lon="5.60422">
        <ele>1071</ele>
        <time>2017-10-21T23:19:10Z</time>
      </trkpt>
      <trkpt lat="45.13353" lon="5.60444">
        <ele>1073</ele>
        <time>2017-10-21T23:19:27Z</time>
      </trkpt>
      <trkpt lat="45.13358" lon="5.60455">
        <ele>1074</ele>
        <time>2017-10-21T23:19:41Z</time>
      </trkpt>
      <trkpt lat="45.13368" lon="5.60469">
        <ele>1074</ele>
        <time>2017-10-21T23:19:48Z</time>
      </trkpt>
      <trkpt lat="45.13387" lon="5.60481">
        <ele>1075</ele>
        <time>2017-10-21T23:19:50Z</time>
      </trkpt>
      <trkpt lat="45.13429" lon="5.60499">
        <ele>1074</ele>
        <time>2017-10-21T23:20:03Z</time>
      </trkpt>
      <trkpt lat="45.1349" lon="5.60542">
        <ele>1085</ele>
        <time>2017-10-21T23:20:17Z</time>
      </trkpt>
      <trkpt lat="45.13514" lon="5.60556">
        <ele>1088</ele>
        <time>2017-10-21T23:20:29Z</time>
      </trkpt>
      <trkpt lat="45.13526" lon="5.60558">
        <ele>1089</ele>
        <time>2017-10-21T23:20:48Z</time>
      </trkpt>
      <trkpt lat="45.1354" lon="5.60556">
        <ele>1088</ele>
        <time>2017-10-21T23:21:00Z</time>
      </trkpt>
      <trkpt lat="45.1357" lon="5.60543">
        <ele>1088</ele>
        <time>2017-10-21T23:21:13Z</time>
      </trkpt>
      <trkpt lat="45.13585" lon="5.60539">
        <ele>1092</ele>
        <time>2017-10-21T23:21:21Z</time>
      </trkpt>
      <trkpt lat="45.13598" lon="5.60538">
        <ele>1092</ele>
        <time>2017-10-21T23:21:26Z</time>
      </trkpt>
      <trkpt lat="45.13619" lon="5.6054">
        <ele>1094</ele>
        <time>2017-10-21T23:21:43Z</time>
      </trkpt>
      <trkpt lat="45.13631" lon="5.60542">
        <ele>1095</ele>
        <time>2017-10-21T23:22:00Z</time>
      </trkpt>
      <trkpt lat="45.13638" lon="5.60541">
        <ele>1096</ele>
        <time>2017-10-21T23:22:19Z</time>
      </trkpt>
      <trkpt lat="45.13653" lon="5.60534">
        <ele>1095</ele>
        <time>2017-10-21T23:22:28Z</time>
      </trkpt>
      <trkpt lat="45.13683" lon="5.60491">
        <ele>1088</ele>
        <time>2017-10-21T23:22:42Z</time>
      </trkpt>
      <trkpt lat="45.13705" lon="5.60462">
        <ele>1087</ele>
        <time>2017-10-21T23:22:57Z</time>
      </trkpt>
      <trkpt lat="45.13725" lon="5.60445">
        <ele>1086</ele>
        <time>2017-10-21T23:23:16Z</time>
      </trkpt>
      <trkpt lat="45.13739" lon="5.60437">
        <ele>1086</ele>
        <time>2017-10-21T23:23:26Z</time>
      </trkpt>
      <trkpt lat="45.13747" lon="5.60434">
        <ele>1086</ele>
        <time>2017-10-21T23:23:31Z</time>
      </trkpt>
      <trkpt lat="45.13761" lon="5.60432">
        <ele>1090</ele>
        <time>2017-10-21T23:23:48Z</time>
      </trkpt>
      <trkpt lat="45.13772" lon="5.60434">
        <ele>1091</ele>
        <time>2017-10-21T23:24:08Z</time>
      </trkpt>
      <trkpt lat="45.13781" lon="5.60437">
        <ele>1092</ele>
        <time>2017-10-21T23:24:21Z</time>
      </trkpt>
      <trkpt lat="45.13793" lon="5.60445">
        <ele>1093</ele>
        <time>2017-10-21T23:24:29Z</time>
      </trkpt>
      <trkpt lat="45.13809" lon="5.60463">
        <ele>1095</ele>
        <time>2017-10-21T23:24:47Z</time>
      </trkpt>
      <trkpt lat="45.13837" lon="5.60502">
        <ele>1103</ele>
        <time>2017-10-21T23:25:02Z</time>
      </trkpt>
      <trkpt lat="45.1388" lon="5.60559">
        <ele>1105</ele>
        <time>2017-10-21T23:25:17Z</time>
      </trkpt>
      <trkpt lat="45.13904" lon="5.6059">
        <ele>1115</ele>
        <time>2017-10-21T23:25:31Z</time>
      </trkpt>
      <trkpt lat="45.13914" lon="5.60597">
        <ele>1115</ele>
        <time>2017-10-21T23:25:42Z</time>
      </trkpt>
      <trkpt lat="45.13926" lon="5.606">
        <ele>1111</ele>
        <time>2017-10-21T23:25:50Z</time>
      </trkpt>
      <trkpt lat="45.13945" lon="5.60596">
        <ele>1111</ele>
        <time>2017-10-21T23:26:05Z</time>
      </trkpt>
      <trkpt lat="45.13985" lon="5.60567">
        <ele>1092</ele>
        <time>2017-10-21T23:26:17Z</time>
      </trkpt>
      <trkpt lat="45.14003" lon="5.60562">
        <ele>1090</ele>
        <time>2017-10-21T23:26:21Z</time>
      </trkpt>
      <trkpt lat="45.14024" lon="5.60563">
        <ele>1089</ele>
        <time>2017-10-21T23:26:24Z</time>
      </trkpt>
      <trkpt lat="45.1404" lon="5.60567">
        <ele>1089</ele>
        <time>2017-10-21T23:26:38Z</time>
      </trkpt>
      <trkpt lat="45.14062" lon="5.60577">
        <ele>1091</ele>
        <time>2017-10-21T23:26:49Z</time>
      </trkpt>
      <trkpt lat="45.14112" lon="5.60603">
        <ele>1099</ele>
        <time>2017-10-21T23:27:04Z</time>
      </trkpt>
      <trkpt lat="45.14126" lon="5.60616">
        <ele>1099</ele>
        <time>2017-10-21T23:27:17Z</time>
      </trkpt>
      <trkpt lat="45.14136" lon="5.60629">
        <ele>1100</ele>
        <time>2017-10-21T23:27:36Z</time>
      </trkpt>
      <trkpt lat="45.14144" lon="5.60651">
        <ele>1100</ele>
        <time>2017-10-21T23:27:38Z</time>
      </trkpt>
      <trkpt lat="45.1415" lon="5.60678">
        <ele>1111</ele>
        <time>2017-10-21T23:27:47Z</time>
      </trkpt>
      <trkpt lat="45.14156" lon="5.60704">
        <ele>1117</ele>
        <time>2017-10-21T23:28:01Z</time>
      </trkpt>
      <trkpt lat="45.14161" lon="5.60713">
        <ele>1118</ele>
        <time>2017-10-21T23:28:04Z</time>
      </trkpt>
      <trkpt lat="45.14172" lon="5.60726">
        <ele>1112</ele>
        <time>2017-10-21T23:28:22Z</time>
      </trkpt>
      <trkpt lat="45.14182" lon="5.60732">
        <ele>1113</ele>
        <time>2017-10-21T23:28:42Z</time>
      </trkpt>
      <trkpt lat="45.14197" lon="5.60735">
        <ele>1112</ele>
        <time>2017-10-21T23:28:46Z</time>
      </trkpt>
      <trkpt lat="45.14214" lon="5.60733">
        <ele>1111</ele>
        <time>2017-10-21T23:29:01Z</time>
      </trkpt>
      <trkpt lat="45.14264" lon="5.60723">
        <ele>1111</ele>
        <time>2017-10-21T23:29:16Z</time>
      </trkpt>
      <trkpt lat="45.14353" lon="5.60711">
        <ele>1113</ele>
        <time>2017-10-21T23:29:19Z</time>
      </trkpt>
      <trkpt lat="45.1437" lon="5.60712">
        <ele>1113</ele>
        <time>2017-10-21T23:29:37Z</time>
      </trkpt>
      <trkpt lat="45.1438" lon="5.60713">
        <ele>1113</ele>
        <time>2017-10-21T23:29:57Z</time>
      </trkpt>
      <trkpt lat="45.14392" lon="5.60718">
        <ele>1114</ele>
        <time>2017-10-21T23:30:11Z</time>
      </trkpt>
      <trkpt lat="45.14422" lon="5.60734">
        <ele>1114</ele>
        <time>2017-10-21T23:30:21Z</time>
      </trkpt>
      <trkpt lat="45.1445" lon="5.60747">
        <ele>1111</ele>
        <time>2017-10-21T23:30:38Z</time>
      </trkpt>
      <trkpt lat="45.14482" lon="5.60754">
        <ele>1113</ele>
        <time>2017-10-21T23:30:40Z</time>
      </trkpt>
      <trkpt lat="45.14492" lon="5.60757">
        <ele>1112</ele>
        <time>2017-10-21T23:30:57Z</time>
      </trkpt>
      <trkpt lat="45.14504" lon="5.60765">
        <ele>1109</ele>
        <time>2017-10-21T23:31:00Z</time>
      </trkpt>
      <trkpt lat="45.14511" lon="5.60778">
        <ele>1110</ele>
        <time>2017-10-21T23:31:20Z</time>
      </trkpt>
      <trkpt lat="45.14513" lon="5.60793">
        <ele>1110</ele>
        <time>2017-10-21T23:31:26Z</time>
      </trkpt>
      <trkpt lat="45.14512" lon="5.60803">
        <ele>1110</ele>
        <time>2017-10-21T23:31:30Z</time>
      </trkpt>
      <trkpt lat="45.14501" lon="5.60822">
        <ele>1112</ele>
        <time>2017-10-21T23:31:48Z</time>
      </trkpt>
      <trkpt lat="45.1448" lon="5.60841">
        <ele>1116</ele>
        <time>2017-10-21T23:31:50Z</time>
      </trkpt>
      <trkpt lat="45.14466" lon="5.60853">
        <ele>1117</ele>
        <time>2017-10-21T23:32:07Z</time>
      </trkpt>
      <trkpt lat="45.14429" lon="5.60884">
        <ele>1118</ele>
        <time>2017-10-21T23:32:09Z</time>
      </trkpt>
      <trkpt lat="45.14387" lon="5.60908">
        <ele>1131</ele>
        <time>2017-10-21T23:32:19Z</time>
      </trkpt>
      <trkpt lat="45.14358" lon="5.60931">
        <ele>1129</ele>
        <time>2017-10-21T23:32:27Z</time>
      </trkpt>
      <trkpt lat="45.14342" lon="5.60952">
        <ele>1129</ele>
        <time>2017-10-21T23:32:41Z</time>
      </trkpt>
      <trkpt lat="45.14337" lon="5.60967">
        <ele>1128</ele>
        <time>2017-10-21T23:32:52Z</time>
      </trkpt>
      <trkpt lat="45.14335" lon="5.60982">
        <ele>1128</ele>
        <time>2017-10-21T23:32:56Z</time>
      </trkpt>
      <trkpt lat="45.14336" lon="5.61">
        <ele>1130</ele>
        <time>2017-10-21T23:33:10Z</time>
      </trkpt>
      <trkpt lat="45.14341" lon="5.61021">
        <ele>1129</ele>
        <time>2017-10-21T23:33:23Z</time>
      </trkpt>
      <trkpt lat="45.14346" lon="5.61032">
        <ele>1130</ele>
        <time>2017-10-21T23:33:28Z</time>
      </trkpt>
      <trkpt lat="45.14356" lon="5.61043">
        <ele>1130</ele>
        <time>2017-10-21T23:33:46Z</time>
      </trkpt>
      <trkpt lat="45.14367" lon="5.61052">
        <ele>1129</ele>
        <time>2017-10-21T23:34:00Z</time>
      </trkpt>
      <trkpt lat="45.1438" lon="5.61058">
        <ele>1128</ele>
        <time>2017-10-21T23:34:13Z</time>
      </trkpt>
      <trkpt lat="45.14408" lon="5.61068">
        <ele>1124</ele>
        <time>2017-10-21T23:34:24Z</time>
      </trkpt>
      <trkpt lat="45.14428" lon="5.61077">
        <ele>1115</ele>
        <time>2017-10-21T23:34:35Z</time>
      </trkpt>
      <trkpt lat="45.14445" lon="5.61093">
        <ele>1116</ele>
        <time>2017-10-21T23:34:39Z</time>
      </trkpt>
      <trkpt lat="45.14454" lon="5.61114">
        <ele>1115</ele>
        <time>2017-10-21T23:34:55Z</time>
      </trkpt>
      <trkpt lat="45.14457" lon="5.61135">
        <ele>1115</ele>
        <time>2017-10-21T23:35:13Z</time>
      </trkpt>
      <trkpt lat="45.14455" lon="5.61156">
        <ele>1116</ele>
        <time>2017-10-21T23:35:33Z</time>
      </trkpt>
      <trkpt lat="45.14452" lon="5.61169">
        <ele>1114</ele>
        <time>2017-10-21T23:35:45Z</time>
      </trkpt>
      <trkpt lat="45.14446" lon="5.61181">
        <ele>1115</ele>
        <time>2017-10-21T23:35:56Z</time>
      </trkpt>
      <trkpt lat="45.14428" lon="5.61206">
        <ele>1114</ele>
        <time>2017-10-21T23:36:05Z</time>
      </trkpt>
      <trkpt lat="45.144" lon="5.6124">
        <ele>1132</ele>
        <time>2017-10-21T23:36:12Z</time>
      </trkpt>
      <trkpt lat="45.14365" lon="5.61297">
        <ele>1130</ele>
        <time>2017-10-21T23:36:17Z</time>
      </trkpt>
      <trkpt lat="45.14344" lon="5.61331">
        <ele>1136</ele>
        <time>2017-10-21T23:36:36Z</time>
      </trkpt>
      <trkpt lat="45.14329" lon="5.61365">
        <ele>1144</ele>
        <time>2017-10-21T23:36:52Z</time>
      </trkpt>
      <trkpt lat="45.14309" lon="5.61414">
        <ele>1138</ele>
        <time>2017-10-21T23:36:57Z</time>
      </trkpt>
      <trkpt lat="45.14279" lon="5.61489">
        <ele>1133</ele>
        <time>2017-10-21T23:37:16Z</time>
      </trkpt>
      <trkpt lat="45.14246" lon="5.61584">
        <ele>1132</ele>
        <time>2017-10-21T23:37:20Z</time>
      </trkpt>
      <trkpt lat="45.14239" lon="5.6161">
        <ele>1141</ele>
        <time>2017-10-21T23:37:38Z</time>
      </trkpt>
      <trkpt lat="45.14237" lon="5.61627">
        <ele>1142</ele>
        <time>2017-10-21T23:37:51Z</time>
      </trkpt>
      <trkpt lat="45.14239" lon="5.61644">
        <ele>1139</ele>
        <time>2017-10-21T23:38:00Z</time>
      </trkpt>
      <trkpt lat="45.14247" lon="5.61679">
        <ele>1135</ele>
        <time>2017-10-21T23:38:10Z</time>
      </trkpt>
      <trkpt lat="45.14254" lon="5.61696">
        <ele>1124</ele>
        <time>2017-10-21T23:38:20Z</time>
      </trkpt>
      <trkpt lat="45.14272" lon="5.61719">
        <ele>1124</ele>
        <time>2017-10-21T23:38:37Z</time>
      </trkpt>
      <trkpt lat="45.143" lon="5.6175">
        <ele>1121</ele>
        <time>2017-10-21T23:38:57Z</time>
      </trkpt>
      <trkpt lat="45.14315" lon="5.61777">
        <ele>1127</ele>
        <time>2017-10-21T23:39:10Z</time>
      </trkpt>
      <trkpt lat="45.14324" lon="5.61802">
        <ele>1128</ele>
        <time>2017-10-21T23:39:16Z</time>
      </trkpt>
      <trkpt lat="45.1434" lon="5.61863">
        <ele>1115</ele>
        <time>2017-10-21T23:39:26Z</time>
      </trkpt>
      <trkpt lat="45.14352" lon="5.61945">
        <ele>1121</ele>
        <time>2017-10-21T23:39:29Z</time>
      </trkpt>
      <trkpt lat="45.14357" lon="5.61969">
        <ele>1122</ele>
        <time>2017-10-21T23:39:38Z</time>
      </trkpt>
      <trkpt lat="45.14367" lon="5.61992">
        <ele>1122</ele>
        <time>2017-10-21T23:39:58Z</time>
      </trkpt>
      <trkpt lat="45.14378" lon="5.62014">
        <ele>1127</ele>
        <time>2017-10-21T23:40:13Z</time>
      </trkpt>
      <trkpt lat="45.14391" lon="5.62033">
        <ele>1127</ele>
        <time>2017-10-21T23:40:15Z</time>
      </trkpt>
      <trkpt lat="45.14407" lon="5.62051">
        <ele>1127</ele>
        <time>2017-10-21T23:40:21Z</time>
      </trkpt>
      <trkpt lat="45.14424" lon="5.62066">
        <ele>1116</ele>
        <time>2017-10-21T23:40:27Z</time>
      </trkpt>
      <trkpt lat="45.14448" lon="5.62087">
        <ele>1126</ele>
        <time>2017-10-21T23:40:42Z</time>
      </trkpt>
      <trkpt lat="45.14473" lon="5.62109">
        <ele>1125</ele>
        <time>2017-10-21T23:40:55Z</time>
      </trkpt>
      <trkpt lat="45.14499" lon="5.62126">
        <ele>1126</ele>
        <time>2017-10-21T23:41:12Z</time>
      </trkpt>
      <trkpt lat="45.14526" lon="5.62137">
        <ele>1120</ele>
        <time>2017-10-21T23:41:23Z</time>
      </trkpt>
      <trkpt lat="45.14575" lon="5.62148">
        <ele>1121</ele>
        <time>2017-10-21T23:41:41Z</time>
      </trkpt>
      <trkpt lat="45.14644" lon="5.62164">
        <ele>1115</ele>
        <time>2017-10-21T23:41:44Z</time>
      </trkpt>
      <trkpt lat="45.14711" lon="5.62182">
        <ele>1129</ele>
        <time>2017-10-21T23:41:46Z</time>
      </trkpt>
      <trkpt lat="45.14734" lon="5.62189">
        <ele>1127</ele>
        <time>2017-10-21T23:41:48Z</time>
      </trkpt>
      <trkpt lat="45.14742" lon="5.6219">
        <ele>1127</ele>
        <time>2017-10-21T23:41:55Z</time>
      </trkpt>
      <trkpt lat="45.1476" lon="5.62189">
        <ele>1128</ele>
        <time>2017-10-21T23:42:07Z</time>
      </trkpt>
      <trkpt lat="45.14813" lon="5.62166">
        <ele>1111</ele>
        <time>2017-10-21T23:42:10Z</time>
      </trkpt>
      <trkpt lat="45.14842" lon="5.62162">
        <ele>1116</ele>
        <time>2017-10-21T23:42:13Z</time>
      </trkpt>
      <trkpt lat="45.14881" lon="5.62161">
        <ele>1115</ele>
        <time>2017-10-21T23:42:31Z</time>
      </trkpt>
      <trkpt lat="45.1491" lon="5.6216">
        <ele>1123</ele>
        <time>2017-10-21T23:42:36Z</time>
      </trkpt>
      <trkpt lat="45.1493" lon="5.62156">
        <ele>1126</ele>
        <time>2017-10-21T23:42:53Z</time>
      </trkpt>
      <trkpt lat="45.1495" lon="5.62149">
        <ele>1124</ele>
        <time>2017-10-21T23:43:07Z</time>
      </trkpt>
      <trkpt lat="45.14968" lon="5.6214">
        <ele>1125</ele>
        <time>2017-10-21T23:43:13Z</time>
      </trkpt>
      <trkpt lat="45.15035" lon="5.62105">
        <ele>1130</ele>
        <time>2017-10-21T23:43:27Z</time>
      </trkpt>
      <trkpt lat="45.15076" lon="5.62083">
        <ele>1117</ele>
        <time>2017-10-21T23:43:31Z</time>
      </trkpt>
      <trkpt lat="45.15113" lon="5.62067">
        <ele>1118</ele>
        <time>2017-10-21T23:43:33Z</time>
      </trkpt>
      <trkpt lat="45.15135" lon="5.62059">
        <ele>1119</ele>
        <time>2017-10-21T23:43:36Z</time>
      </trkpt>
      <trkpt lat="45.15185" lon="5.62046">
        <ele>1127</ele>
        <time>2017-10-21T23:43:46Z</time>
      </trkpt>
      <trkpt lat="45.15254" lon="5.62032">
        <ele>1130</ele>
        <time>2017-10-21T23:44:00Z</time>
      </trkpt>
      <trkpt lat="45.15279" lon="5.62033">
        <ele>1131</ele>
        <time>2017-10-21T23:44:12Z</time>
      </trkpt>
      <trkpt lat="45.15311" lon="5.62038">
        <ele>1130</ele>
        <time>2017-10-21T23:44:24Z</time>
      </trkpt>
      <trkpt lat="45.15351" lon="5.62043">
        <ele>1131</ele>
        <time>2017-10-21T23:44:31Z</time>
      </trkpt>
      <trkpt lat="45.15374" lon="5.62041">
        <ele>1131</ele>
        <time>2017-10-21T23:44:51Z</time>
      </trkpt>
      <trkpt lat="45.15404" lon="5.62042">
        <ele>1132</ele>
        <time>2017-10-21T23:45:03Z</time>
      </trkpt>
      <trkpt lat="45.1543" lon="5.62049">
        <ele>1135</ele>
        <time>2017-10-21T23:45:13Z</time>
      </trkpt>
      <trkpt lat="45.15457" lon="5.62058">
        <ele>1136</ele>
        <time>2017-10-21T23:45:16Z</time>
      </trkpt>
      <trkpt lat="45.15466" lon="5.62059">
        <ele>1136</ele>
        <time>2017-10-21T23:45:22Z</time>
      </trkpt>
      <trkpt lat="45.15479" lon="5.62057">
        <ele>1136</ele>
        <time>2017-10-21T23:45:42Z</time>
      </trkpt>
      <trkpt lat="45.15494" lon="5.62051">
        <ele>1136</ele>
        <time>2017-10-21T23:45:48Z</time>
      </trkpt>
      <trkpt lat="45.15509" lon="5.62035">
        <ele>1142</ele>
        <time>2017-10-21T23:45:59Z</time>
      </trkpt>
      <trkpt lat="45.15528" lon="5.62002">
        <ele>1141</ele>
        <time>2017-10-21T23:46:13Z</time>
      </trkpt>
      <trkpt lat="45.15558" lon="5.61946">
        <ele>1134</ele>
        <time>2017-10-21T23:46:20Z</time>
      </trkpt>
      <trkpt lat="45.15569" lon="5.61933">
        <ele>1134</ele>
        <time>2017-10-21T23:46:31Z</time>
      </trkpt>
      <trkpt lat="45.15582" lon="5.61923">
        <ele>1134</ele>
        <time>2017-10-21T23:46:36Z</time>
      </trkpt>
      <trkpt lat="45.15596" lon="5.61918">
        <ele>1138</ele>
        <time>2017-10-21T23:46:44Z</time>
      </trkpt>
      <trkpt lat="45.15614" lon="5.61916">
        <ele>1134</ele>
        <time>2017-10-21T23:47:03Z</time>
      </trkpt>
      <trkpt lat="45.15652" lon="5.6192">
        <ele>1140</ele>
        <time>2017-10-21T23:47:10Z</time>
      </trkpt>
      <trkpt lat="45.15707" lon="5.61937">
        <ele>1146</ele>
        <time>2017-10-21T23:47:28Z</time>
      </trkpt>
      <trkpt lat="45.15747" lon="5.61953">
        <ele>1148</ele>
        <time>2017-10-21T23:47:36Z</time>
      </trkpt>
      <trkpt lat="45.15765" lon="5.61964">
        <ele>1154</ele>
        <time>2017-10-21T23:47:42Z</time>
      </trkpt>
      <trkpt lat="45.15788" lon="5.61979">
        <ele>1157</ele>
        <time>2017-10-21T23:47:54Z</time>
      </trkpt>
      <trkpt lat="45.158" lon="5.61982">
        <ele>1158</ele>
        <time>2017-10-21T23:48:00Z</time>
      </trkpt>
      <trkpt lat="45.1581" lon="5.61981">
        <ele>1159</ele>
        <time>2017-10-21T23:48:10Z</time>
      </trkpt>
      <trkpt lat="45.15818" lon="5.61975">
        <ele>1159</ele>
        <time>2017-10-21T23:48:18Z</time>
      </trkpt>
      <trkpt lat="45.15825" lon="5.61965">
        <ele>1158</ele>
        <time>2017-10-21T23:48:33Z</time>
      </trkpt>
      <trkpt lat="45.15832" lon="5.6195">
        <ele>1156</ele>
        <time>2017-10-21T23:48:40Z</time>
      </trkpt>
      <trkpt lat="45.15863" lon="5.61867">
        <ele>1153</ele>
        <time>2017-10-21T23:48:50Z</time>
      </trkpt>
      <trkpt lat="45.15871" lon="5.61852">
        <ele>1153</ele>
        <time>2017-10-21T23:48:54Z</time>
      </trkpt>
      <trkpt lat="45.15882" lon="5.61838">
        <ele>1154</ele>
        <time>2017-10-21T23:49:01Z</time>
      </trkpt>
      <trkpt lat="45.159" lon="5.61827">
        <ele>1148</ele>
        <time>2017-10-21T23:49:15Z</time>
      </trkpt>
      <trkpt lat="45.15931" lon="5.61817">
        <ele>1153</ele>
        <time>2017-10-21T23:49:31Z</time>
      </trkpt>
      <trkpt lat="45.16001" lon="5.61789">
        <ele>1155</ele>
        <time>2017-10-21T23:49:36Z</time>
      </trkpt>
      <trkpt lat="45.16019" lon="5.61784">
        <ele>1154</ele>
        <time>2017-10-21T23:49:50Z</time>
      </trkpt>
      <trkpt lat="45.16032" lon="5.61784">
        <ele>1154</ele>
        <time>2017-10-21T23:49:56Z</time>
      </trkpt>
      <trkpt lat="45.16044" lon="5.61787">
        <ele>1155</ele>
        <time>2017-10-21T23:50:16Z</time>
      </trkpt>
      <trkpt lat="45.16053" lon="5.61794">
        <ele>1155</ele>
        <time>2017-10-21T23:50:35Z</time>
      </trkpt>
      <trkpt lat="45.16059" lon="5.61801">
        <ele>1156</ele>
        <time>2017-10-21T23:50:43Z</time>
      </trkpt>
      <trkpt lat="45.16065" lon="5.61814">
        <ele>1157</ele>
        <time>2017-10-21T23:50:57Z</time>
      </trkpt>
      <trkpt lat="45.16067" lon="5.61829">
        <ele>1158</ele>
        <time>2017-10-21T23:51:07Z</time>
      </trkpt>
      <trkpt lat="45.16058" lon="5.61858">
        <ele>1162</ele>
        <time>2017-10-21T23:51:11Z</time>
      </trkpt>
      <trkpt lat="45.16041" lon="5.61889">
        <ele>1163</ele>
        <time>2017-10-21T23:51:31Z</time>
      </trkpt>
      <trkpt lat="45.16035" lon="5.61902">
        <ele>1164</ele>
        <time>2017-10-21T23:51:35Z</time>
      </trkpt>
      <trkpt lat="45.1603" lon="5.61917">
        <ele>1168</ele>
        <time>2017-10-21T23:51:44Z</time>
      </trkpt>
      <trkpt lat="45.16028" lon="5.61932">
        <ele>1168</ele>
        <time>2017-10-21T23:51:54Z</time>
      </trkpt>
      <trkpt lat="45.16027" lon="5.61947">
        <ele>1168</ele>
        <time>2017-10-21T23:51:59Z</time>
      </trkpt>
      <trkpt lat="45.1603" lon="5.61962">
        <ele>1168</ele>
        <time>2017-10-21T23:52:03Z</time>
      </trkpt>
      <trkpt lat="45.16039" lon="5.61988">
        <ele>1167</ele>
        <time>2017-10-21T23:52:13Z</time>
      </trkpt>
      <trkpt lat="45.16074" lon="5.62046">
        <ele>1170</ele>
        <time>2017-10-21T23:52:27Z</time>
      </trkpt>
      <trkpt lat="45.16089" lon="5.62083">
        <ele>1165</ele>
        <time>2017-10-21T23:52:39Z</time>
      </trkpt>
      <trkpt lat="45.16095" lon="5.62111">
        <ele>1164</ele>
        <time>2017-10-21T23:52:55Z</time>
      </trkpt>
      <trkpt lat="45.161" lon="5.62158">
        <ele>1168</ele>
        <time>2017-10-21T23:53:15Z</time>
      </trkpt>
      <trkpt lat="45.16106" lon="5.62176">
        <ele>1172</ele>
        <time>2017-10-21T23:53:22Z</time>
      </trkpt>
      <trkpt lat="45.16113" lon="5.62191">
        <ele>1171</ele>
        <time>2017-10-21T23:53:39Z</time>
      </trkpt>
      <trkpt lat="45.16125" lon="5.62208">
        <ele>1171</ele>
        <time>2017-10-21T23:53:45Z</time>
      </trkpt>
      <trkpt lat="45.16148" lon="5.62246">
        <ele>1168</ele>
        <time>2017-10-21T23:53:53Z</time>
      </trkpt>
      <trkpt lat="45.16157" lon="5.62269">
        <ele>1173</ele>
        <time>2017-10-21T23:53:59Z</time>
      </trkpt>
      <trkpt lat="45.16168" lon="5.62321">
        <ele>1164</ele>
        <time>2017-10-21T23:54:17Z</time>
      </trkpt>
      <trkpt lat="45.16179" lon="5.6236">
        <ele>1166</ele>
        <time>2017-10-21T23:54:21Z</time>
      </trkpt>
      <trkpt lat="45.16223" lon="5.62456">
        <ele>1172</ele>
        <time>2017-10-21T23:54:39Z</time>
      </trkpt>
      <trkpt lat="45.16255" lon="5.62523">
        <ele>1160</ele>
        <time>2017-10-21T23:54:42Z</time>
      </trkpt>
      <trkpt lat="45.16267" lon="5.62537">
        <ele>1160</ele>
        <time>2017-10-21T23:54:44Z</time>
      </trkpt>
      <trkpt lat="45.16276" lon="5.62544">
        <ele>1161</ele>
        <time>2017-10-21T23:54:51Z</time>
      </trkpt>
      <trkpt lat="45.16308" lon="5.62559">
        <ele>1161</ele>
        <time>2017-10-21T23:55:04Z</time>
      </trkpt>
      <trkpt lat="45.16347" lon="5.6258">
        <ele>1160</ele>
        <time>2017-10-21T23:55:23Z</time>
      </trkpt>
      <trkpt lat="45.16366" lon="5.62601">
        <ele>1163</ele>
        <time>2017-10-21T23:55:31Z</time>
      </trkpt>
      <trkpt lat="45.16389" lon="5.62635">
        <ele>1163</ele>
        <time>2017-10-21T23:55:45Z</time>
      </trkpt>
      <trkpt lat="45.16428" lon="5.62675">
        <ele>1165</ele>
        <time>2017-10-21T23:55:50Z</time>
      </trkpt>
      <trkpt lat="45.16438" lon="5.62684">
        <ele>1167</ele>
        <time>2017-10-21T23:56:08Z</time>
      </trkpt>
      <trkpt lat="45.16455" lon="5.62693">
        <ele>1169</ele>
        <time>2017-10-21T23:56:14Z</time>
      </trkpt>
      <trkpt lat="45.16471" lon="5.62695">
        <ele>1170</ele>
        <time>2017-10-21T23:56:30Z</time>
      </trkpt>
      <trkpt lat="45.16478" lon="5.62694">
        <ele>1170</ele>
        <time>2017-10-21T23:56:34Z</time>
      </trkpt>
      <trkpt lat="45.1649" lon="5.62689">
        <ele>1170</ele>
        <time>2017-10-21T23:56:41Z</time>
      </trkpt>
      <trkpt lat="45.16507" lon="5.62672">
        <ele>1173</ele>
        <time>2017-10-21T23:56:44Z</time>
      </trkpt>
      <trkpt lat="45.16565" lon="5.62597">
        <ele>1178</ele>
        <time>2017-10-21T23:56:51Z</time>
      </trkpt>
      <trkpt lat="45.1658" lon="5.62571">
        <ele>1174</ele>
        <time>2017-10-21T23:57:09Z</time>
      </trkpt>
      <trkpt lat="45.16588" lon="5.62548">
        <ele>1181</ele>
        <time>2017-10-21T23:57:22Z</time>
      </trkpt>
      <trkpt lat="45.16596" lon="5.62512">
        <ele>1174</ele>
        <time>2017-10-21T23:57:34Z</time>
      </trkpt>
      <trkpt lat="45.16604" lon="5.62469">
        <ele>1165</ele>
        <time>2017-10-21T23:57:46Z</time>
      </trkpt>
      <trkpt lat="45.16618" lon="5.62447">
        <ele>1164</ele>
        <time>2017-10-21T23:57:55Z</time>
      </trkpt>
      <trkpt lat="45.16631" lon="5.62437">
        <ele>1165</ele>
        <time>2017-10-21T23:58:14Z</time>
      </trkpt>
      <trkpt lat="45.16649" lon="5.62432">
        <ele>1166</ele>
        <time>2017-10-21T23:58:20Z</time>
      </trkpt>
      <trkpt lat="45.16659" lon="5.62434">
        <ele>1166</ele>
        <time>2017-10-21T23:58:40Z</time>
      </trkpt>
      <trkpt lat="45.16666" lon="5.62437">
        <ele>1166</ele>
        <time>2017-10-21T23:58:43Z</time>
      </trkpt>
      <trkpt lat="45.16677" lon="5.62447">
        <ele>1169</ele>
        <time>2017-10-21T23:58:59Z</time>
      </trkpt>
      <trkpt lat="45.16691" lon="5.6247">
        <ele>1172</ele>
        <time>2017-10-21T23:59:04Z</time>
      </trkpt>
      <trkpt lat="45.167" lon="5.62485">
        <ele>1173</ele>
        <time>2017-10-21T23:59:07Z</time>
      </trkpt>
      <trkpt lat="45.16712" lon="5.62496">
        <ele>1173</ele>
        <time>2017-10-21T23:59:24Z</time>
      </trkpt>
      <trkpt lat="45.16718" lon="5.62501">
        <ele>1187</ele>
        <time>2017-10-21T23:59:44Z</time>
      </trkpt>
      <trkpt lat="45.16731" lon="5.62504">
        <ele>1185</ele>
        <time>2017-10-22T00:00:00Z</time>
      </trkpt>
      <trkpt lat="45.16746" lon="5.62504">
        <ele>1181</ele>
        <time>2017-10-22T00:00:19Z</time>
      </trkpt>
      <trkpt lat="45.16777" lon="5.62497">
        <ele>1172</ele>
        <time>2017-10-22T00:00:26Z</time>
      </trkpt>
      <trkpt lat="45.16809" lon="5.62489">
        <ele>1172</ele>
        <time>2017-10-22T00:00:44Z</time>
      </trkpt>
      <trkpt lat="45.16824" lon="5.62481">
        <ele>1172</ele>
        <time>2017-10-22T00:00:53Z</time>
      </trkpt>
      <trkpt lat="45.1685" lon="5.6246">
        <ele>1168</ele>
        <time>2017-10-22T00:01:12Z</time>
      </trkpt>
      <trkpt lat="45.16862" lon="5.62452">
        <ele>1167</ele>
        <time>2017-10-22T00:01:22Z</time>
      </trkpt>
      <trkpt lat="45.16869" lon="5.6245">
        <ele>1167</ele>
        <time>2017-10-22T00:01:28Z</time>
      </trkpt>
      <trkpt lat="45.16881" lon="5.62451">
        <ele>1167</ele>
        <time>2017-10-22T00:01:43Z</time>
      </trkpt>
      <trkpt lat="45.16901" lon="5.62463">
        <ele>1168</ele>
        <time>2017-10-22T00:01:50Z</time>
      </trkpt>
      <trkpt lat="45.16914" lon="5.62482">
        <ele>1169</ele>
        <time>2017-10-22T00:02:08Z</time>
      </trkpt>
      <trkpt lat="45.1692" lon="5.62501">
        <ele>1171</ele>
        <time>2017-10-22T00:02:20Z</time>
      </trkpt>
      <trkpt lat="45.16923" lon="5.62518">
        <ele>1170</ele>
        <time>2017-10-22T00:02:37Z</time>
      </trkpt>
      <trkpt lat="45.16917" lon="5.62608">
        <ele>1176</ele>
        <time>2017-10-22T00:02:50Z</time>
      </trkpt>
      <trkpt lat="45.16917" lon="5.62619">
        <ele>1175</ele>
        <time>2017-10-22T00:02:55Z</time>
      </trkpt>
      <trkpt lat="45.16921" lon="5.62639">
        <ele>1176</ele>
        <time>2017-10-22T00:03:10Z</time>
      </trkpt>
      <trkpt lat="45.16929" lon="5.62657">
        <ele>1178</ele>
        <time>2017-10-22T00:03:14Z</time>
      </trkpt>
      <trkpt lat="45.16939" lon="5.6267">
        <ele>1179</ele>
        <time>2017-10-22T00:03:23Z</time>
      </trkpt>
      <trkpt lat="45.16953" lon="5.6268">
        <ele>1177</ele>
        <time>2017-10-22T00:03:35Z</time>
      </trkpt>
      <trkpt lat="45.17017" lon="5.62718">
        <ele>1168</ele>
        <time>2017-10-22T00:03:48Z</time>
      </trkpt>
      <trkpt lat="45.1703" lon="5.62728">
        <ele>1168</ele>
        <time>2017-10-22T00:04:07Z</time>
      </trkpt>
      <trkpt lat="45.17047" lon="5.62752">
        <ele>1171</ele>
        <time>2017-10-22T00:04:22Z</time>
      </trkpt>
      <trkpt lat="45.17055" lon="5.6278">
        <ele>1170</ele>
        <time>2017-10-22T00:04:35Z</time>
      </trkpt>
      <trkpt lat="45.17058" lon="5.62816">
        <ele>1170</ele>
        <time>2017-10-22T00:04:45Z</time>
      </trkpt>
      <trkpt lat="45.17058" lon="5.6284">
        <ele>1168</ele>
        <time>2017-10-22T00:04:57Z</time>
      </trkpt>
      <trkpt lat="45.17062" lon="5.62915">
        <ele>1167</ele>
        <time>2017-10-22T00:05:12Z</time>
      </trkpt>
      <trkpt lat="45.17062" lon="5.62939">
        <ele>1165</ele>
        <time>2017-10-22T00:05:18Z</time>
      </trkpt>
      <trkpt lat="45.1706" lon="5.6295">
        <ele>1165</ele>
        <time>2017-10-22T00:05:27Z</time>
      </trkpt>
      <trkpt lat="45.17059" lon="5.62971">
        <ele>1165</ele>
        <time>2017-10-22T00:05:44Z</time>
      </trkpt>
      <trkpt lat="45.17064" lon="5.62986">
        <ele>1165</ele>
        <time>2017-10-22T00:05:47Z</time>
      </trkpt>
      <trkpt lat="45.17078" lon="5.63006">
        <ele>1163</ele>
        <time>2017-10-22T00:05:52Z</time>
      </trkpt>
      <trkpt lat="45.17112" lon="5.63067">
        <ele>1162</ele>
        <time>2017-10-22T00:06:07Z</time>
      </trkpt>
      <trkpt lat="45.17112" lon="5.63068">
        <ele>1162</ele>
        <time>2017-10-22T00:06:23Z</time>
      </trkpt>
      <trkpt lat="45.17113" lon="5.63071">
        <ele>1162</ele>
        <time>2017-10-22T00:06:36Z</time>
      </trkpt>
      <trkpt lat="45.17115" lon="5.63073">
        <ele>1162</ele>
        <time>2017-10-22T00:06:47Z</time>
      </trkpt>
      <trkpt lat="45.17119" lon="5.63075">
        <ele>1162</ele>
        <time>2017-10-22T00:06:57Z</time>
      </trkpt>
      <trkpt lat="45.17124" lon="5.63073">
        <ele>1162</ele>
        <time>2017-10-22T00:07:11Z</time>
      </trkpt>
      <trkpt lat="45.17126" lon="5.63066">
        <ele>1162</ele>
        <time>2017-10-22T00:07:30Z</time>
      </trkpt>
      <trkpt lat="45.17153" lon="5.63061">
        <ele>1161</ele>
        <time>2017-10-22T00:07:46Z</time>
      </trkpt>
      <trkpt lat="45.17199" lon="5.63047">
        <ele>1156</ele>
        <time>2017-10-22T00:07:56Z</time>
      </trkpt>
      <trkpt lat="45.17206" lon="5.63048">
        <ele>1155</ele>
        <time>2017-10-22T00:07:59Z</time>
      </trkpt>
      <trkpt lat="45.17214" lon="5.63053">
        <ele>1155</ele>
        <time>2017-10-22T00:08:19Z</time>
      </trkpt>
      <trkpt lat="45.17227" lon="5.63063">
        <ele>1153</ele>
        <time>2017-10-22T00:08:36Z</time>
      </trkpt>
      <trkpt lat="45.17236" lon="5.63078">
        <ele>1152</ele>
        <time>2017-10-22T00:08:47Z</time>
      </trkpt>
      <trkpt lat="45.17243" lon="5.63103">
        <ele>1153</ele>
        <time>2017-10-22T00:08:52Z</time>
      </trkpt>
      <trkpt lat="45.17247" lon="5.63139">
        <ele>1154</ele>
        <time>2017-10-22T00:09:01Z</time>
      </trkpt>
      <trkpt lat="45.1725" lon="5.63195">
        <ele>1157</ele>
        <time>2017-10-22T00:09:15Z</time>
      </trkpt>
      <trkpt lat="45.17248" lon="5.63236">
        <ele>1157</ele>
        <time>2017-10-22T00:09:30Z</time>
      </trkpt>
      <trkpt lat="45.17243" lon="5.63278">
        <ele>1158</ele>
        <time>2017-10-22T00:09:43Z</time>
      </trkpt>
      <trkpt lat="45.17237" lon="5.63337">
        <ele>1157</ele>
        <time>2017-10-22T00:09:51Z</time>
      </trkpt>
      <trkpt lat="45.17237" lon="5.6336">
        <ele>1157</ele>
        <time>2017-10-22T00:10:05Z</time>
      </trkpt>
      <trkpt lat="45.17241" lon="5.6339">
        <ele>1155</ele>
        <time>2017-10-22T00:10:08Z</time>
      </trkpt>
      <trkpt lat="45.17247" lon="5.63425">
        <ele>1151</ele>
        <time>2017-10-22T00:10:11Z</time>
      </trkpt>
      <trkpt lat="45.17248" lon="5.6345">
        <ele>1151</ele>
        <time>2017-10-22T00:10:29Z</time>
      </trkpt>
      <trkpt lat="45.17245" lon="5.63483">
        <ele>1149</ele>
        <time>2017-10-22T00:10:40Z</time>
      </trkpt>
      <trkpt lat="45.17235" lon="5.6352">
        <ele>1144</ele>
        <time>2017-10-22T00:10:58Z</time>
      </trkpt>
      <trkpt lat="45.17212" lon="5.63598">
        <ele>1131</ele>
        <time>2017-10-22T00:11:11Z</time>
      </trkpt>
      <trkpt lat="45.17192" lon="5.63633">
        <ele>1128</ele>
        <time>2017-10-22T00:11:13Z</time>
      </trkpt>
      <trkpt lat="45.17178" lon="5.63648">
        <ele>1126</ele>
        <time>2017-10-22T00:11:33Z</time>
      </trkpt>
      <trkpt lat="45.17163" lon="5.63657">
        <ele>1126</ele>
        <time>2017-10-22T00:11:48Z</time>
      </trkpt>
      <trkpt lat="45.1711" lon="5.63673">
        <ele>1117</ele>
        <time>2017-10-22T00:11:53Z</time>
      </trkpt>
      <trkpt lat="45.17084" lon="5.63683">
        <ele>1118</ele>
        <time>2017-10-22T00:12:12Z</time>
      </trkpt>
      <trkpt lat="45.17075" lon="5.63692">
        <ele>1123</ele>
        <time>2017-10-22T00:12:31Z</time>
      </trkpt>
      <trkpt lat="45.1706" lon="5.63714">
        <ele>1122</ele>
        <time>2017-10-22T00:12:45Z</time>
      </trkpt>
      <trkpt lat="45.17013" lon="5.63792">
        <ele>1112</ele>
        <time>2017-10-22T00:12:48Z</time>
      </trkpt>
      <trkpt lat="45.16987" lon="5.63827">
        <ele>1114</ele>
        <time>2017-10-22T00:12:55Z</time>
      </trkpt>
      <trkpt lat="45.16956" lon="5.63859">
        <ele>1105</ele>
        <time>2017-10-22T00:12:59Z</time>
      </trkpt>
      <trkpt lat="45.16923" lon="5.63886">
        <ele>1103</ele>
        <time>2017-10-22T00:13:02Z</time>
      </trkpt>
      <trkpt lat="45.16895" lon="5.63903">
        <ele>1106</ele>
        <time>2017-10-22T00:13:13Z</time>
      </trkpt>
      <trkpt lat="45.16885" lon="5.63908">
        <ele>1107</ele>
        <time>2017-10-22T00:13:19Z</time>
      </trkpt>
      <trkpt lat="45.16879" lon="5.63908">
        <ele>1107</ele>
        <time>2017-10-22T00:13:22Z</time>
      </trkpt>
      <trkpt lat="45.16862" lon="5.63904">
        <ele>1109</ele>
        <time>2017-10-22T00:13:28Z</time>
      </trkpt>
      <trkpt lat="45.16851" lon="5.63902">
        <ele>1109</ele>
        <time>2017-10-22T00:13:43Z</time>
      </trkpt>
      <trkpt lat="45.1684" lon="5.63912">
        <ele>1108</ele>
        <time>2017-10-22T00:13:52Z</time>
      </trkpt>
      <trkpt lat="45.16836" lon="5.63922">
        <ele>1106</ele>
        <time>2017-10-22T00:13:55Z</time>
      </trkpt>
      <trkpt lat="45.16836" lon="5.63939">
        <ele>1101</ele>
        <time>2017-10-22T00:14:07Z</time>
      </trkpt>
      <trkpt lat="45.16842" lon="5.63956">
        <ele>1099</ele>
        <time>2017-10-22T00:14:14Z</time>
      </trkpt>
      <trkpt lat="45.16848" lon="5.63963">
        <ele>1098</ele>
        <time>2017-10-22T00:14:22Z</time>
      </trkpt>
      <trkpt lat="45.16854" lon="5.63964">
        <ele>1098</ele>
        <time>2017-10-22T00:14:32Z</time>
      </trkpt>
      <trkpt lat="45.16873" lon="5.63957">
        <ele>1097</ele>
        <time>2017-10-22T00:14:34Z</time>
      </trkpt>
      <trkpt lat="45.16945" lon="5.63918">
        <ele>1090</ele>
        <time>2017-10-22T00:14:49Z</time>
      </trkpt>
      <trkpt lat="45.16994" lon="5.63896">
        <ele>1098</ele>
        <time>2017-10-22T00:15:05Z</time>
      </trkpt>
      <trkpt lat="45.17033" lon="5.63887">
        <ele>1093</ele>
        <time>2017-10-22T00:15:14Z</time>
      </trkpt>
      <trkpt lat="45.17078" lon="5.63882">
        <ele>1091</ele>
        <time>2017-10-22T00:15:32Z</time>
      </trkpt>
      <trkpt lat="45.17133" lon="5.6388">
        <ele>1082</ele>
        <time>2017-10-22T00:15:34Z</time>
      </trkpt>
      <trkpt lat="45.17167" lon="5.63881">
        <ele>1076</ele>
        <time>2017-10-22T00:15:54Z</time>
      </trkpt>
      <trkpt lat="45.17185" lon="5.63886">
        <ele>1076</ele>
        <time>2017-10-22T00:16:14Z</time>
      </trkpt>
      <trkpt lat="45.17191" lon="5.63889">
        <ele>1076</ele>
        <time>2017-10-22T00:16:33Z</time>
      </trkpt>
      <trkpt lat="45.17209" lon="5.63903">
        <ele>1075</ele>
        <time>2017-10-22T00:16:35Z</time>
      </trkpt>
      <trkpt lat="45.17238" lon="5.6393">
        <ele>1070</ele>
        <time>2017-10-22T00:16:42Z</time>
      </trkpt>
      <trkpt lat="45.1725" lon="5.63943">
        <ele>1069</ele>
        <time>2017-10-22T00:16:58Z</time>
      </trkpt>
      <trkpt lat="45.17264" lon="5.63951">
        <ele>1066</ele>
        <time>2017-10-22T00:17:00Z</time>
      </trkpt>
      <trkpt lat="45.17273" lon="5.63955">
        <ele>1066</ele>
        <time>2017-10-22T00:17:04Z</time>
      </trkpt>
      <trkpt lat="45.17287" lon="5.63956">
        <ele>1065</ele>
        <time>2017-10-22T00:17:19Z</time>
      </trkpt>
      <trkpt lat="45.17318" lon="5.6395">
        <ele>1065</ele>
        <time>2017-10-22T00:17:38Z</time>
      </trkpt>
      <trkpt lat="45.17354" lon="5.63944">
        <ele>1063</ele>
        <time>2017-10-22T00:17:46Z</time>
      </trkpt>
      <trkpt lat="45.17396" lon="5.63941">
        <ele>1062</ele>
        <time>2017-10-22T00:17:50Z</time>
      </trkpt>
      <trkpt lat="45.1742" lon="5.63949">
        <ele>1058</ele>
        <time>2017-10-22T00:17:57Z</time>
      </trkpt>
      <trkpt lat="45.17437" lon="5.63964">
        <ele>1056</ele>
        <time>2017-10-22T00:17:59Z</time>
      </trkpt>
      <trkpt lat="45.17444" lon="5.63974">
        <ele>1056</ele>
        <time>2017-10-22T00:18:16Z</time>
      </trkpt>
      <trkpt lat="45.17454" lon="5.64">
        <ele>1055</ele>
        <time>2017-10-22T00:18:27Z</time>
      </trkpt>
      <trkpt lat="45.17457" lon="5.64028">
        <ele>1052</ele>
        <time>2017-10-22T00:18:37Z</time>
      </trkpt>
      <trkpt lat="45.17455" lon="5.64098">
        <ele>1050</ele>
        <time>2017-10-22T00:18:41Z</time>
      </trkpt>
      <trkpt lat="45.17445" lon="5.64198">
        <ele>1047</ele>
        <time>2017-10-22T00:18:49Z</time>
      </trkpt>
      <trkpt lat="45.17445" lon="5.64221">
        <ele>1047</ele>
        <time>2017-10-22T00:18:53Z</time>
      </trkpt>
      <trkpt lat="45.17439" lon="5.6427">
        <ele>1043</ele>
        <time>2017-10-22T00:19:11Z</time>
      </trkpt>
      <trkpt lat="45.17446" lon="5.64312">
        <ele>1041</ele>
        <time>2017-10-22T00:19:14Z</time>
      </trkpt>
      <trkpt lat="45.17449" lon="5.64321">
        <ele>1041</ele>
        <time>2017-10-22T00:19:26Z</time>
      </trkpt>
      <trkpt lat="45.17458" lon="5.64334">
        <ele>1033</ele>
        <time>2017-10-22T00:19:38Z</time>
      </trkpt>
      <trkpt lat="45.17469" lon="5.64346">
        <ele>1033</ele>
        <time>2017-10-22T00:19:54Z</time>
      </trkpt>
      <trkpt lat="45.17482" lon="5.64351">
        <ele>1034</ele>
        <time>2017-10-22T00:20:04Z</time>
      </trkpt>
      <trkpt lat="45.17501" lon="5.64351">
        <ele>1037</ele>
        <time>2017-10-22T00:20:07Z</time>
      </trkpt>
      <trkpt lat="45.17527" lon="5.64347">
        <ele>1036</ele>
        <time>2017-10-22T00:20:26Z</time>
      </trkpt>
      <trkpt lat="45.17551" lon="5.64351">
        <ele>1035</ele>
        <time>2017-10-22T00:20:33Z</time>
      </trkpt>
      <trkpt lat="45.17584" lon="5.64361">
        <ele>1037</ele>
        <time>2017-10-22T00:20:53Z</time>
      </trkpt>
      <trkpt lat="45.17615" lon="5.64378">
        <ele>1035</ele>
        <time>2017-10-22T00:21:08Z</time>
      </trkpt>
      <trkpt lat="45.17651" lon="5.64397">
        <ele>1033</ele>
        <time>2017-10-22T00:21:19Z</time>
      </trkpt>
      <trkpt lat="45.17701" lon="5.64424">
        <ele>1028</ele>
        <time>2017-10-22T00:21:38Z</time>
      </trkpt>
      <trkpt lat="45.1773" lon="5.64445">
        <ele>1029</ele>
        <time>2017-10-22T00:21:48Z</time>
      </trkpt>
      <trkpt lat="45.17749" lon="5.64467">
        <ele>1026</ele>
        <time>2017-10-22T00:22:05Z</time>
      </trkpt>
      <trkpt lat="45.17761" lon="5.64485">
        <ele>1029</ele>
        <time>2017-10-22T00:22:14Z</time>
      </trkpt>
      <trkpt lat="45.17788" lon="5.64534">
        <ele>1018</ele>
        <time>2017-10-22T00:22:20Z</time>
      </trkpt>
      <trkpt lat="45.17802" lon="5.64554">
        <ele>1016</ele>
        <time>2017-10-22T00:22:40Z</time>
      </trkpt>
      <trkpt lat="45.17821" lon="5.64572">
        <ele>1014</ele>
        <time>2017-10-22T00:22:50Z</time>
      </trkpt>
      <trkpt lat="45.1786" lon="5.64604">
        <ele>1008</ele>
        <time>2017-10-22T00:23:00Z</time>
      </trkpt>
      <trkpt lat="45.17906" lon="5.64638">
        <ele>1005</ele>
        <time>2017-10-22T00:23:15Z</time>
      </trkpt>
      <trkpt lat="45.18001" lon="5.6469">
        <ele>998</ele>
        <time>2017-10-22T00:23:24Z</time>
      </trkpt>
      <trkpt lat="45.18136" lon="5.64757">
        <ele>985</ele>
        <time>2017-10-22T00:23:26Z</time>
      </trkpt>
      <trkpt lat="45.18165" lon="5.6477">
        <ele>988</ele>
        <time>2017-10-22T00:23:31Z</time>
      </trkpt>
      <trkpt lat="45.18193" lon="5.6478">
        <ele>988</ele>
        <time>2017-10-22T00:23:36Z</time>
      </trkpt>
      <trkpt lat="45.18236" lon="5.64791">
        <ele>986</ele>
        <time>2017-10-22T00:23:52Z</time>
      </trkpt>
      <trkpt lat="45.18254" lon="5.64793">
        <ele>991</ele>
        <time>2017-10-22T00:24:06Z</time>
      </trkpt>
      <trkpt lat="45.18285" lon="5.64791">
        <ele>993</ele>
        <time>2017-10-22T00:24:09Z</time>
      </trkpt>
      <trkpt lat="45.18304" lon="5.64791">
        <ele>994</ele>
        <time>2017-10-22T00:24:22Z</time>
      </trkpt>
      <trkpt lat="45.1831" lon="5.64795">
        <ele>994</ele>
        <time>2017-10-22T00:24:26Z</time>
      </trkpt>
      <trkpt lat="45.18314" lon="5.64806">
        <ele>991</ele>
        <time>2017-10-22T00:24:38Z</time>
      </trkpt>
      <trkpt lat="45.18311" lon="5.64817">
        <ele>988</ele>
        <time>2017-10-22T00:24:56Z</time>
      </trkpt>
      <trkpt lat="45.18304" lon="5.6482">
        <ele>988</ele>
        <time>2017-10-22T00:25:09Z</time>
      </trkpt>
      <trkpt lat="45.18296" lon="5.64818">
        <ele>988</ele>
        <time>2017-10-22T00:25:20Z</time>
      </trkpt>
      <trkpt lat="45.18269" lon="5.64811">
        <ele>986</ele>
        <time>2017-10-22T00:25:33Z</time>
      </trkpt>
      <trkpt lat="45.18247" lon="5.6481">
        <ele>980</ele>
        <time>2017-10-22T00:25:40Z</time>
      </trkpt>
      <trkpt lat="45.18223" lon="5.64811">
        <ele>981</ele>
        <time>2017-10-22T00:25:45Z</time>
      </trkpt>
      <trkpt lat="45.18154" lon="5.64819">
        <ele>969</ele>
        <time>2017-10-22T00:25:48Z</time>
      </trkpt>
      <trkpt lat="45.18122" lon="5.64819">
        <ele>969</ele>
        <time>2017-10-22T00:26:08Z</time>
      </trkpt>
      <trkpt lat="45.18101" lon="5.64816">
        <ele>966</ele>
        <time>2017-10-22T00:26:14Z</time>
      </trkpt>
      <trkpt lat="45.1804" lon="5.64806">
        <ele>960</ele>
        <time>2017-10-22T00:26:28Z</time>
      </trkpt>
      <trkpt lat="45.17987" lon="5.64796">
        <ele>954</ele>
        <time>2017-10-22T00:26:31Z</time>
      </trkpt>
      <trkpt lat="45.17957" lon="5.64798">
        <ele>953</ele>
        <time>2017-10-22T00:26:40Z</time>
      </trkpt>
      <trkpt lat="45.1792" lon="5.64804">
        <ele>948</ele>
        <time>2017-10-22T00:26:59Z</time>
      </trkpt>
      <trkpt lat="45.17883" lon="5.64805">
        <ele>945</ele>
        <time>2017-10-22T00:27:08Z</time>
      </trkpt>
      <trkpt lat="45.17767" lon="5.64804">
        <ele>940</ele>
        <time>2017-10-22T00:27:10Z</time>
      </trkpt>
      <trkpt lat="45.1763" lon="5.64806">
        <ele>925</ele>
        <time>2017-10-22T00:27:29Z</time>
      </trkpt>
      <trkpt lat="45.17605" lon="5.64798">
        <ele>924</ele>
        <time>2017-10-22T00:27:45Z</time>
      </trkpt>
      <trkpt lat="45.1757" lon="5.64779">
        <ele>921</ele>
        <time>2017-10-22T00:28:05Z</time>
      </trkpt>
      <trkpt lat="45.17552" lon="5.64774">
        <ele>921</ele>
        <time>2017-10-22T00:28:20Z</time>
      </trkpt>
      <trkpt lat="45.17533" lon="5.64775">
        <ele>920</ele>
        <time>2017-10-22T00:28:38Z</time>
      </trkpt>
      <trkpt lat="45.17493" lon="5.64788">
        <ele>916</ele>
        <time>2017-10-22T00:28:52Z</time>
      </trkpt>
      <trkpt lat="45.17475" lon="5.64796">
        <ele>914</ele>
        <time>2017-10-22T00:28:57Z</time>
      </trkpt>
      <trkpt lat="45.1744" lon="5.64806">
        <ele>912</ele>
        <time>2017-10-22T00:29:01Z</time>
      </trkpt>
      <trkpt lat="45.17378" lon="5.64821">
        <ele>912</ele>
        <time>2017-10-22T00:29:20Z</time>
      </trkpt>
      <trkpt lat="45.17332" lon="5.64831">
        <ele>904</ele>
        <time>2017-10-22T00:29:28Z</time>
      </trkpt>
      <trkpt lat="45.17266" lon="5.6485">
        <ele>892</ele>
        <time>2017-10-22T00:29:39Z</time>
      </trkpt>
      <trkpt lat="45.17237" lon="5.64854">
        <ele>893</ele>
        <time>2017-10-22T00:29:56Z</time>
      </trkpt>
      <trkpt lat="45.17209" lon="5.64851">
        <ele>892</ele>
        <time>2017-10-22T00:30:11Z</time>
      </trkpt>
      <trkpt lat="45.17192" lon="5.64848">
        <ele>894</ele>
        <time>2017-10-22T00:30:20Z</time>
      </trkpt>
      <trkpt lat="45.17176" lon="5.64849">
        <ele>896</ele>
        <time>2017-10-22T00:30:31Z</time>
      </trkpt>
      <trkpt lat="45.17161" lon="5.64856">
        <ele>899</ele>
        <time>2017-10-22T00:30:48Z</time>
      </trkpt>
      <trkpt lat="45.1715" lon="5.64869">
        <ele>897</ele>
        <time>2017-10-22T00:30:56Z</time>
      </trkpt>
      <trkpt lat="45.17145" lon="5.6489">
        <ele>893</ele>
        <time>2017-10-22T00:31:05Z</time>
      </trkpt>
      <trkpt lat="45.17143" lon="5.6492">
        <ele>877</ele>
        <time>2017-10-22T00:31:10Z</time>
      </trkpt>
      <trkpt lat="45.17139" lon="5.6494">
        <ele>876</ele>
        <time>2017-10-22T00:31:15Z</time>
      </trkpt>
      <trkpt lat="45.17132" lon="5.64948">
        <ele>875</ele>
        <time>2017-10-22T00:31:28Z</time>
      </trkpt>
      <trkpt lat="45.17113" lon="5.64951">
        <ele>876</ele>
        <time>2017-10-22T00:31:41Z</time>
      </trkpt>
      <trkpt lat="45.17094" lon="5.64948">
        <ele>878</ele>
        <time>2017-10-22T00:31:47Z</time>
      </trkpt>
      <trkpt lat="45.17082" lon="5.64951">
        <ele>882</ele>
        <time>2017-10-22T00:31:58Z</time>
      </trkpt>
      <trkpt lat="45.17066" lon="5.64955">
        <ele>881</ele>
        <time>2017-10-22T00:32:18Z</time>
      </trkpt>
      <trkpt lat="45.17051" lon="5.64963">
        <ele>880</ele>
        <time>2017-10-22T00:32:33Z</time>
      </trkpt>
      <trkpt lat="45.17034" lon="5.64976">
        <ele>879</ele>
        <time>2017-10-22T00:32:38Z</time>
      </trkpt>
      <trkpt lat="45.17022" lon="5.6499">
        <ele>877</ele>
        <time>2017-10-22T00:32:47Z</time>
      </trkpt>
      <trkpt lat="45.17014" lon="5.65006">
        <ele>869</ele>
        <time>2017-10-22T00:32:55Z</time>
      </trkpt>
      <trkpt lat="45.17008" lon="5.65026">
        <ele>867</ele>
        <time>2017-10-22T00:33:14Z</time>
      </trkpt>
      <trkpt lat="45.16996" lon="5.6507">
        <ele>871</ele>
        <time>2017-10-22T00:33:33Z</time>
      </trkpt>
      <trkpt lat="45.16996" lon="5.6509">
        <ele>868</ele>
        <time>2017-10-22T00:33:35Z</time>
      </trkpt>
      <trkpt lat="45.16999" lon="5.65098">
        <ele>869</ele>
        <time>2017-10-22T00:33:48Z</time>
      </trkpt>
      <trkpt lat="45.17003" lon="5.65101">
        <ele>860</ele>
        <time>2017-10-22T00:34:05Z</time>
      </trkpt>
      <trkpt lat="45.17011" lon="5.65102">
        <ele>859</ele>
        <time>2017-10-22T00:34:16Z</time>
      </trkpt>
      <trkpt lat="45.17016" lon="5.651">
        <ele>859</ele>
        <time>2017-10-22T00:34:33Z</time>
      </trkpt>
      <trkpt lat="45.17024" lon="5.65089">
        <ele>859</ele>
        <time>2017-10-22T00:34:47Z</time>
      </trkpt>
      <trkpt lat="45.17035" lon="5.65034">
        <ele>864</ele>
        <time>2017-10-22T00:34:55Z</time>
      </trkpt>
      <trkpt lat="45.17041" lon="5.65018">
        <ele>865</ele>
        <time>2017-10-22T00:35:13Z</time>
      </trkpt>
      <trkpt lat="45.1705" lon="5.65005">
        <ele>865</ele>
        <time>2017-10-22T00:35:20Z</time>
      </trkpt>
      <trkpt lat="45.17068" lon="5.64994">
        <ele>873</ele>
        <time>2017-10-22T00:35:23Z</time>
      </trkpt>
      <trkpt lat="45.17082" lon="5.64992">
        <ele>870</ele>
        <time>2017-10-22T00:35:42Z</time>
      </trkpt>
      <trkpt lat="45.17094" lon="5.64994">
        <ele>869</ele>
        <time>2017-10-22T00:35:49Z</time>
      </trkpt>
      <trkpt lat="45.17112" lon="5.65003">
        <ele>860</ele>
        <time>2017-10-22T00:36:05Z</time>
      </trkpt>
      <trkpt lat="45.17159" lon="5.65049">
        <ele>853</ele>
        <time>2017-10-22T00:36:11Z</time>
      </trkpt>
      <trkpt lat="45.17177" lon="5.65063">
        <ele>846</ele>
        <time>2017-10-22T00:36:13Z</time>
      </trkpt>
      <trkpt lat="45.17189" lon="5.65067">
        <ele>846</ele>
        <time>2017-10-22T00:36:16Z</time>
      </trkpt>
      <trkpt lat="45.17208" lon="5.65064">
        <ele>845</ele>
        <time>2017-10-22T00:36:26Z</time>
      </trkpt>
      <trkpt lat="45.17221" lon="5.65057">
        <ele>844</ele>
        <time>2017-10-22T00:36:33Z</time>
      </trkpt>
      <trkpt lat="45.17228" lon="5.65049">
        <ele>845</ele>
        <time>2017-10-22T00:36:35Z</time>
      </trkpt>
      <trkpt lat="45.17237" lon="5.65036">
        <ele>846</ele>
        <time>2017-10-22T00:36:48Z</time>
      </trkpt>
      <trkpt lat="45.17245" lon="5.65014">
        <ele>848</ele>
        <time>2017-10-22T00:37:00Z</time>
      </trkpt>
      <trkpt lat="45.17253" lon="5.64999">
        <ele>851</ele>
        <time>2017-10-22T00:37:20Z</time>
      </trkpt>
      <trkpt lat="45.17259" lon="5.64993">
        <ele>852</ele>
        <time>2017-10-22T00:37:37Z</time>
      </trkpt>
      <trkpt lat="45.17278" lon="5.64982">
        <ele>854</ele>
        <time>2017-10-22T00:37:49Z</time>
      </trkpt>
      <trkpt lat="45.17324" lon="5.64977">
        <ele>850</ele>
        <time>2017-10-22T00:37:58Z</time>
      </trkpt>
      <trkpt lat="45.17367" lon="5.64974">
        <ele>849</ele>
        <time>2017-10-22T00:38:00Z</time>
      </trkpt>
      <trkpt lat="45.17388" lon="5.64974">
        <ele>849</ele>
        <time>2017-10-22T00:38:07Z</time>
      </trkpt>
      <trkpt lat="45.17403" lon="5.64976">
        <ele>847</ele>
        <time>2017-10-22T00:38:27Z</time>
      </trkpt>
      <trkpt lat="45.17418" lon="5.64984">
        <ele>843</ele>
        <time>2017-10-22T00:38:42Z</time>
      </trkpt>
      <trkpt lat="45.17431" lon="5.64997">
        <ele>842</ele>
        <time>2017-10-22T00:38:48Z</time>
      </trkpt>
      <trkpt lat="45.17461" lon="5.65033">
        <ele>824</ele>
        <time>2017-10-22T00:38:52Z</time>
      </trkpt>
      <trkpt lat="45.17471" lon="5.65041">
        <ele>823</ele>
        <time>2017-10-22T00:39:12Z</time>
      </trkpt>
      <trkpt lat="45.17482" lon="5.65045">
        <ele>823</ele>
        <time>2017-10-22T00:39:19Z</time>
      </trkpt>
      <trkpt lat="45.17498" lon="5.65048">
        <ele>822</ele>
        <time>2017-10-22T00:39:25Z</time>
      </trkpt>
      <trkpt lat="45.17515" lon="5.65048">
        <ele>825</ele>
        <time>2017-10-22T00:39:40Z</time>
      </trkpt>
      <trkpt lat="45.17543" lon="5.65048">
        <ele>825</ele>
        <time>2017-10-22T00:39:48Z</time>
      </trkpt>
      <trkpt lat="45.17572" lon="5.6506">
        <ele>821</ele>
        <time>2017-10-22T00:40:07Z</time>
      </trkpt>
      <trkpt lat="45.17623" lon="5.6509">
        <ele>805</ele>
        <time>2017-10-22T00:40:26Z</time>
      </trkpt>
      <trkpt lat="45.17669" lon="5.65114">
        <ele>806</ele>
        <time>2017-10-22T00:40:34Z</time>
      </trkpt>
      <trkpt lat="45.17715" lon="5.65142">
        <ele>801</ele>
        <time>2017-10-22T00:40:47Z</time>
      </trkpt>
      <trkpt lat="45.17731" lon="5.65153">
        <ele>799</ele>
        <time>2017-10-22T00:41:06Z</time>
      </trkpt>
      <trkpt lat="45.1776" lon="5.6519">
        <ele>790</ele>
        <time>2017-10-22T00:41:11Z</time>
      </trkpt>
      <trkpt lat="45.17787" lon="5.65227">
        <ele>787</ele>
        <time>2017-10-22T00:41:30Z</time>
      </trkpt>
      <trkpt lat="45.17801" lon="5.6524">
        <ele>787</ele>
        <time>2017-10-22T00:41:32Z</time>
      </trkpt>
      <trkpt lat="45.17818" lon="5.65249">
        <ele>785</ele>
        <time>2017-10-22T00:41:34Z</time>
      </trkpt>
      <trkpt lat="45.17874" lon="5.65273">
        <ele>777</ele>
        <time>2017-10-22T00:41:39Z</time>
      </trkpt>
      <trkpt lat="45.17899" lon="5.65276">
        <ele>778</ele>
        <time>2017-10-22T00:41:50Z</time>
      </trkpt>
      <trkpt lat="45.17922" lon="5.65271">
        <ele>782</ele>
        <time>2017-10-22T00:41:52Z</time>
      </trkpt>
      <trkpt lat="45.17936" lon="5.6527">
        <ele>782</ele>
        <time>2017-10-22T00:42:01Z</time>
      </trkpt>
      <trkpt lat="45.17945" lon="5.65272">
        <ele>782</ele>
        <time>2017-10-22T00:42:04Z</time>
      </trkpt>
      <trkpt lat="45.17954" lon="5.65283">
        <ele>780</ele>
        <time>2017-10-22T00:42:10Z</time>
      </trkpt>
      <trkpt lat="45.17958" lon="5.65292">
        <ele>779</ele>
        <time>2017-10-22T00:42:24Z</time>
      </trkpt>
      <trkpt lat="45.17959" lon="5.65306">
        <ele>778</ele>
        <time>2017-10-22T00:42:29Z</time>
      </trkpt>
      <trkpt lat="45.17955" lon="5.65317">
        <ele>776</ele>
        <time>2017-10-22T00:42:36Z</time>
      </trkpt>
      <trkpt lat="45.17946" lon="5.65327">
        <ele>774</ele>
        <time>2017-10-22T00:42:49Z</time>
      </trkpt>
      <trkpt lat="45.17923" lon="5.6533">
        <ele>768</ele>
        <time>2017-10-22T00:43:02Z</time>
      </trkpt>
      <trkpt lat="45.17879" lon="5.65332">
        <ele>771</ele>
        <time>2017-10-22T00:43:15Z</time>
      </trkpt>
      <trkpt lat="45.17826" lon="5.65344">
        <ele>759</ele>
        <time>2017-10-22T00:43:31Z</time>
      </trkpt>
      <trkpt lat="45.17779" lon="5.65359">
        <ele>754</ele>
        <time>2017-10-22T00:43:48Z</time>
      </trkpt>
      <trkpt lat="45.17696" lon="5.65381">
        <ele>747</ele>
        <time>2017-10-22T00:44:01Z</time>
      </trkpt>
      <trkpt lat="45.17673" lon="5.65384">
        <ele>746</ele>
        <time>2017-10-22T00:44:18Z</time>
      </trkpt>
      <trkpt lat="45.17648" lon="5.65382">
        <ele>743</ele>
        <time>2017-10-22T00:44:22Z</time>
      </trkpt>
      <trkpt lat="45.17621" lon="5.65374">
        <ele>743</ele>
        <time>2017-10-22T00:44:25Z</time>
      </trkpt>
      <trkpt lat="45.17607" lon="5.65373">
        <ele>743</ele>
        <time>2017-10-22T00:44:27Z</time>
      </trkpt>
      <trkpt lat="45.17596" lon="5.65376">
        <ele>743</ele>
        <time>2017-10-22T00:44:46Z</time>
      </trkpt>
      <trkpt lat="45.17589" lon="5.65382">
        <ele>742</ele>
        <time>2017-10-22T00:44:49Z</time>
      </trkpt>
      <trkpt lat="45.17581" lon="5.65396">
        <ele>741</ele>
        <time>2017-10-22T00:45:08Z</time>
      </trkpt>
      <trkpt lat="45.17579" lon="5.65411">
        <ele>738</ele>
        <time>2017-10-22T00:45:27Z</time>
      </trkpt>
      <trkpt lat="45.17582" lon="5.65426">
        <ele>735</ele>
        <time>2017-10-22T00:45:42Z</time>
      </trkpt>
      <trkpt lat="45.17588" lon="5.65439">
        <ele>732</ele>
        <time>2017-10-22T00:45:54Z</time>
      </trkpt>
      <trkpt lat="45.17603" lon="5.65464">
        <ele>730</ele>
        <time>2017-10-22T00:46:03Z</time>
      </trkpt>
      <trkpt lat="45.17609" lon="5.65478">
        <ele>729</ele>
        <time>2017-10-22T00:46:05Z</time>
      </trkpt>
      <trkpt lat="45.17613" lon="5.65501">
        <ele>720</ele>
        <time>2017-10-22T00:46:23Z</time>
      </trkpt>
      <trkpt lat="45.17613" lon="5.6552">
        <ele>719</ele>
        <time>2017-10-22T00:46:30Z</time>
      </trkpt>
      <trkpt lat="45.17609" lon="5.65541">
        <ele>718</ele>
        <time>2017-10-22T00:46:32Z</time>
      </trkpt>
      <trkpt lat="45.17594" lon="5.65586">
        <ele>712</ele>
        <time>2017-10-22T00:46:36Z</time>
      </trkpt>
      <trkpt lat="45.17586" lon="5.656">
        <ele>711</ele>
        <time>2017-10-22T00:46:45Z</time>
      </trkpt>
      <trkpt lat="45.17567" lon="5.6565">
        <ele>713</ele>
        <time>2017-10-22T00:46:57Z</time>
      </trkpt>
      <trkpt lat="45.17564" lon="5.65663">
        <ele>712</ele>
        <time>2017-10-22T00:47:05Z</time>
      </trkpt>
      <trkpt lat="45.17546" lon="5.65715">
        <ele>708</ele>
        <time>2017-10-22T00:47:10Z</time>
      </trkpt>
      <trkpt lat="45.17518" lon="5.6579">
        <ele>702</ele>
        <time>2017-10-22T00:47:14Z</time>
      </trkpt>
      <trkpt lat="45.17507" lon="5.65817">
        <ele>701</ele>
        <time>2017-10-22T00:47:24Z</time>
      </trkpt>
      <trkpt lat="45.17491" lon="5.6584">
        <ele>701</ele>
        <time>2017-10-22T00:47:31Z</time>
      </trkpt>
      <trkpt lat="45.17478" lon="5.65871">
        <ele>701</ele>
        <time>2017-10-22T00:47:50Z</time>
      </trkpt>
      <trkpt lat="45.17422" lon="5.65963">
        <ele>695</ele>
        <time>2017-10-22T00:48:04Z</time>
      </trkpt>
      <trkpt lat="45.17392" lon="5.6602">
        <ele>689</ele>
        <time>2017-10-22T00:48:16Z</time>
      </trkpt>
      <trkpt lat="45.17384" lon="5.66043">
        <ele>688</ele>
        <time>2017-10-22T00:48:30Z</time>
      </trkpt>
      <trkpt lat="45.1738" lon="5.66071">
        <ele>686</ele>
        <time>2017-10-22T00:48:38Z</time>
      </trkpt>
      <trkpt lat="45.17379" lon="5.6611">
        <ele>681</ele>
        <time>2017-10-22T00:48:54Z</time>
      </trkpt>
      <trkpt lat="45.1738" lon="5.6616">
        <ele>679</ele>
        <time>2017-10-22T00:49:09Z</time>
      </trkpt>
      <trkpt lat="45.17377" lon="5.66175">
        <ele>677</ele>
        <time>2017-10-22T00:49:29Z</time>
      </trkpt>
      <trkpt lat="45.17369" lon="5.66191">
        <ele>678</ele>
        <time>2017-10-22T00:49:39Z</time>
      </trkpt>
      <trkpt lat="45.17354" lon="5.66216">
        <ele>679</ele>
        <time>2017-10-22T00:49:52Z</time>
      </trkpt>
      <trkpt lat="45.17343" lon="5.66245">
        <ele>681</ele>
        <time>2017-10-22T00:49:59Z</time>
      </trkpt>
      <trkpt lat="45.17335" lon="5.66296">
        <ele>671</ele>
        <time>2017-10-22T00:50:10Z</time>
      </trkpt>
      <trkpt lat="45.17326" lon="5.66332">
        <ele>673</ele>
        <time>2017-10-22T00:50:17Z</time>
      </trkpt>
      <trkpt lat="45.17311" lon="5.66367">
        <ele>669</ele>
        <time>2017-10-22T00:50:35Z</time>
      </trkpt>
      <trkpt lat="45.17295" lon="5.66392">
        <ele>668</ele>
        <time>2017-10-22T00:50:53Z</time>
      </trkpt>
      <trkpt lat="45.17282" lon="5.66407">
        <ele>668</ele>
        <time>2017-10-22T00:50:59Z</time>
      </trkpt>
      <trkpt lat="45.17263" lon="5.66421">
        <ele>660</ele>
        <time>2017-10-22T00:51:19Z</time>
      </trkpt>
      <trkpt lat="45.17235" lon="5.6644">
        <ele>664</ele>
        <time>2017-10-22T00:51:29Z</time>
      </trkpt>
      <trkpt lat="45.1722" lon="5.66457">
        <ele>662</ele>
        <time>2017-10-22T00:51:36Z</time>
      </trkpt>
      <trkpt lat="45.17204" lon="5.66471">
        <ele>662</ele>
        <time>2017-10-22T00:51:56Z</time>
      </trkpt>
      <trkpt lat="45.17193" lon="5.66487">
        <ele>661</ele>
        <time>2017-10-22T00:52:14Z</time>
      </trkpt>
      <trkpt lat="45.17171" lon="5.66533">
        <ele>648</ele>
        <time>2017-10-22T00:52:32Z</time>
      </trkpt>
      <trkpt lat="45.1716" lon="5.66561">
        <ele>656</ele>
        <time>2017-10-22T00:52:42Z</time>
      </trkpt>
      <trkpt lat="45.17157" lon="5.66575">
        <ele>653</ele>
        <time>2017-10-22T00:52:53Z</time>
      </trkpt>
      <trkpt lat="45.17158" lon="5.66611">
        <ele>647</ele>
        <time>2017-10-22T00:53:08Z</time>
      </trkpt>
      <trkpt lat="45.17165" lon="5.66672">
        <ele>640</ele>
        <time>2017-10-22T00:53:17Z</time>
      </trkpt>
      <trkpt lat="45.17163" lon="5.66695">
        <ele>640</ele>
        <time>2017-10-22T00:53:19Z</time>
      </trkpt>
      <trkpt lat="45.17157" lon="5.66702">
        <ele>639</ele>
        <time>2017-10-22T00:53:21Z</time>
      </trkpt>
      <trkpt lat="45.1715" lon="5.66706">
        <ele>639</ele>
        <time>2017-10-22T00:53:23Z</time>
      </trkpt>
      <trkpt lat="45.1714" lon="5.66707">
        <ele>639</ele>
        <time>2017-10-22T00:53:30Z</time>
      </trkpt>
      <trkpt lat="45.17123" lon="5.66701">
        <ele>639</ele>
        <time>2017-10-22T00:53:42Z</time>
      </trkpt>
      <trkpt lat="45.17097" lon="5.66687">
        <ele>640</ele>
        <time>2017-10-22T00:53:55Z</time>
      </trkpt>
      <trkpt lat="45.17075" lon="5.66675">
        <ele>640</ele>
        <time>2017-10-22T00:54:11Z</time>
      </trkpt>
      <trkpt lat="45.17058" lon="5.66677">
        <ele>638</ele>
        <time>2017-10-22T00:54:25Z</time>
      </trkpt>
      <trkpt lat="45.17004" lon="5.66689">
        <ele>639</ele>
        <time>2017-10-22T00:54:40Z</time>
      </trkpt>
      <trkpt lat="45.16987" lon="5.66695">
        <ele>639</ele>
        <time>2017-10-22T00:54:45Z</time>
      </trkpt>
      <trkpt lat="45.16972" lon="5.66706">
        <ele>636</ele>
        <time>2017-10-22T00:54:51Z</time>
      </trkpt>
      <trkpt lat="45.16969" lon="5.66708">
        <ele>636</ele>
        <time>2017-10-22T00:54:55Z</time>
      </trkpt>
      <trkpt lat="45.16932" lon="5.66747">
        <ele>628</ele>
        <time>2017-10-22T00:54:59Z</time>
      </trkpt>
      <trkpt lat="45.16898" lon="5.66776">
        <ele>610</ele>
        <time>2017-10-22T00:55:07Z</time>
      </trkpt>
      <trkpt lat="45.16883" lon="5.6678">
        <ele>609</ele>
        <time>2017-10-22T00:55:24Z</time>
      </trkpt>
      <trkpt lat="45.16876" lon="5.66779">
        <ele>609</ele>
        <time>2017-10-22T00:55:40Z</time>
      </trkpt>
      <trkpt lat="45.16821" lon="5.66757">
        <ele>616</ele>
        <time>2017-10-22T00:56:00Z</time>
      </trkpt>
      <trkpt lat="45.16795" lon="5.66756">
        <ele>612</ele>
        <time>2017-10-22T00:56:03Z</time>
      </trkpt>
      <trkpt lat="45.16778" lon="5.66758">
        <ele>612</ele>
        <time>2017-10-22T00:56:12Z</time>
      </trkpt>
      <trkpt lat="45.16747" lon="5.66761">
        <ele>612</ele>
        <time>2017-10-22T00:56:19Z</time>
      </trkpt>
      <trkpt lat="45.1673" lon="5.66761">
        <ele>609</ele>
        <time>2017-10-22T00:56:30Z</time>
      </trkpt>
      <trkpt lat="45.16686" lon="5.66754">
        <ele>605</ele>
        <time>2017-10-22T00:56:47Z</time>
      </trkpt>
      <trkpt lat="45.1667" lon="5.66754">
        <ele>605</ele>
        <time>2017-10-22T00:56:51Z</time>
      </trkpt>
      <trkpt lat="45.16658" lon="5.66757">
        <ele>605</ele>
        <time>2017-10-22T00:57:08Z</time>
      </trkpt>
      <trkpt lat="45.16642" lon="5.66767">
        <ele>604</ele>
        <time>2017-10-22T00:57:17Z</time>
      </trkpt>
      <trkpt lat="45.16605" lon="5.66816">
        <ele>598</ele>
        <time>2017-10-22T00:57:26Z</time>
      </trkpt>
      <trkpt lat="45.16593" lon="5.66826">
        <ele>596</ele>
        <time>2017-10-22T00:57:39Z</time>
      </trkpt>
      <trkpt lat="45.16574" lon="5.66836">
        <ele>589</ele>
        <time>2017-10-22T00:57:57Z</time>
      </trkpt>
      <trkpt lat="45.16551" lon="5.66845">
        <ele>587</ele>
        <time>2017-10-22T00:58:06Z</time>
      </trkpt>
      <trkpt lat="45.16484" lon="5.66873">
        <ele>585</ele>
        <time>2017-10-22T00:58:17Z</time>
      </trkpt>
      <trkpt lat="45.16448" lon="5.66875">
        <ele>583</ele>
        <time>2017-10-22T00:58:24Z</time>
      </trkpt>
      <trkpt lat="45.16385" lon="5.6687">
        <ele>580</ele>
        <time>2017-10-22T00:58:32Z</time>
      </trkpt>
      <trkpt lat="45.16352" lon="5.66867">
        <ele>579</ele>
        <time>2017-10-22T00:58:45Z</time>
      </trkpt>
      <trkpt lat="45.16305" lon="5.66866">
        <ele>576</ele>
        <time>2017-10-22T00:59:02Z</time>
      </trkpt>
      <trkpt lat="45.16273" lon="5.66865">
        <ele>575</ele>
        <time>2017-10-22T00:59:20Z</time>
      </trkpt>
      <trkpt lat="45.16235" lon="5.66861">
        <ele>571</ele>
        <time>2017-10-22T00:59:38Z</time>
      </trkpt>
      <trkpt lat="45.16223" lon="5.66857">
        <ele>570</ele>
        <time>2017-10-22T00:59:51Z</time>
      </trkpt>
      <trkpt lat="45.16195" lon="5.6684">
        <ele>568</ele>
        <time>2017-10-22T00:59:57Z</time>
      </trkpt>
      <trkpt lat="45.16141" lon="5.66806">
        <ele>571</ele>
        <time>2017-10-22T01:00:10Z</time>
      </trkpt>
      <trkpt lat="45.16117" lon="5.66784">
        <ele>571</ele>
        <time>2017-10-22T01:00:19Z</time>
      </trkpt>
      <trkpt lat="45.16098" lon="5.66768">
        <ele>572</ele>
        <time>2017-10-22T01:00:34Z</time>
      </trkpt>
      <trkpt lat="45.16091" lon="5.66765">
        <ele>572</ele>
        <time>2017-10-22T01:00:36Z</time>
      </trkpt>
      <trkpt lat="45.16084" lon="5.66765">
        <ele>572</ele>
        <time>2017-10-22T01:00:53Z</time>
      </trkpt>
      <trkpt lat="45.16073" lon="5.66778">
        <ele>562</ele>
        <time>2017-10-22T01:01:04Z</time>
      </trkpt>
      <trkpt lat="45.16071" lon="5.66788">
        <ele>560</ele>
        <time>2017-10-22T01:01:09Z</time>
      </trkpt>
      <trkpt lat="45.16074" lon="5.66804">
        <ele>558</ele>
        <time>2017-10-22T01:01:13Z</time>
      </trkpt>
      <trkpt lat="45.16082" lon="5.66815">
        <ele>557</ele>
        <time>2017-10-22T01:01:28Z</time>
      </trkpt>
      <trkpt lat="45.16098" lon="5.66828">
        <ele>563</ele>
        <time>2017-10-22T01:01:36Z</time>
      </trkpt>
      <trkpt lat="45.16117" lon="5.66848">
        <ele>555</ele>
        <time>2017-10-22T01:01:43Z</time>
      </trkpt>
      <trkpt lat="45.16138" lon="5.66877">
        <ele>553</ele>
        <time>2017-10-22T01:02:01Z</time>
      </trkpt>
      <trkpt lat="45.16157" lon="5.669">
        <ele>551</ele>
        <time>2017-10-22T01:02:10Z</time>
      </trkpt>
      <trkpt lat="45.16171" lon="5.66912">
        <ele>553</ele>
        <time>2017-10-22T01:02:19Z</time>
      </trkpt>
      <trkpt lat="45.16184" lon="5.6692">
        <ele>548</ele>
        <time>2017-10-22T01:02:36Z</time>
      </trkpt>
      <trkpt lat="45.16194" lon="5.66924">
        <ele>548</ele>
        <time>2017-10-22T01:02:50Z</time>
      </trkpt>
      <trkpt lat="45.16209" lon="5.66934">
        <ele>548</ele>
        <time>2017-10-22T01:03:07Z</time>
      </trkpt>
      <trkpt lat="45.16219" lon="5.66946">
        <ele>548</ele>
        <time>2017-10-22T01:03:24Z</time>
      </trkpt>
      <trkpt lat="45.16232" lon="5.66984">
        <ele>544</ele>
        <time>2017-10-22T01:03:41Z</time>
      </trkpt>
      <trkpt lat="45.16246" lon="5.67026">
        <ele>532</ele>
        <time>2017-10-22T01:03:53Z</time>
      </trkpt>
      <trkpt lat="45.16258" lon="5.67044">
        <ele>535</ele>
        <time>2017-10-22T01:04:01Z</time>
      </trkpt>
      <trkpt lat="45.16268" lon="5.67051">
        <ele>534</ele>
        <time>2017-10-22T01:04:21Z</time>
      </trkpt>
      <trkpt lat="45.1628" lon="5.67054">
        <ele>533</ele>
        <time>2017-10-22T01:04:28Z</time>
      </trkpt>
      <trkpt lat="45.16296" lon="5.67053">
        <ele>533</ele>
        <time>2017-10-22T01:04:30Z</time>
      </trkpt>
      <trkpt lat="45.16312" lon="5.67048">
        <ele>533</ele>
        <time>2017-10-22T01:04:50Z</time>
      </trkpt>
      <trkpt lat="45.16353" lon="5.67036">
        <ele>532</ele>
        <time>2017-10-22T01:05:01Z</time>
      </trkpt>
      <trkpt lat="45.16371" lon="5.67032">
        <ele>532</ele>
        <time>2017-10-22T01:05:20Z</time>
      </trkpt>
      <trkpt lat="45.16391" lon="5.67031">
        <ele>531</ele>
        <time>2017-10-22T01:05:27Z</time>
      </trkpt>
      <trkpt lat="45.16431" lon="5.67036">
        <ele>531</ele>
        <time>2017-10-22T01:05:44Z</time>
      </trkpt>
      <trkpt lat="45.16464" lon="5.67043">
        <ele>530</ele>
        <time>2017-10-22T01:05:49Z</time>
      </trkpt>
      <trkpt lat="45.16475" lon="5.67051">
        <ele>529</ele>
        <time>2017-10-22T01:05:58Z</time>
      </trkpt>
      <trkpt lat="45.16484" lon="5.67063">
        <ele>527</ele>
        <time>2017-10-22T01:06:15Z</time>
      </trkpt>
      <trkpt lat="45.1649" lon="5.67074">
        <ele>525</ele>
        <time>2017-10-22T01:06:24Z</time>
      </trkpt>
      <trkpt lat="45.16494" lon="5.6709">
        <ele>518</ele>
        <time>2017-10-22T01:06:43Z</time>
      </trkpt>
      <trkpt lat="45.16493" lon="5.67124">
        <ele>514</ele>
        <time>2017-10-22T01:07:03Z</time>
      </trkpt>
      <trkpt lat="45.16486" lon="5.67141">
        <ele>513</ele>
        <time>2017-10-22T01:07:14Z</time>
      </trkpt>
      <trkpt lat="45.16471" lon="5.67157">
        <ele>512</ele>
        <time>2017-10-22T01:07:27Z</time>
      </trkpt>
      <trkpt lat="45.1646" lon="5.67165">
        <ele>513</ele>
        <time>2017-10-22T01:07:39Z</time>
      </trkpt>
      <trkpt lat="45.16417" lon="5.67163">
        <ele>512</ele>
        <time>2017-10-22T01:07:58Z</time>
      </trkpt>
      <trkpt lat="45.16393" lon="5.67157">
        <ele>514</ele>
        <time>2017-10-22T01:08:01Z</time>
      </trkpt>
      <trkpt lat="45.16372" lon="5.67154">
        <ele>515</ele>
        <time>2017-10-22T01:08:21Z</time>
      </trkpt>
      <trkpt lat="45.16352" lon="5.67157">
        <ele>514</ele>
        <time>2017-10-22T01:08:27Z</time>
      </trkpt>
      <trkpt lat="45.16336" lon="5.67168">
        <ele>511</ele>
        <time>2017-10-22T01:08:40Z</time>
      </trkpt>
      <trkpt lat="45.16329" lon="5.67184">
        <ele>511</ele>
        <time>2017-10-22T01:08:43Z</time>
      </trkpt>
      <trkpt lat="45.16326" lon="5.67196">
        <ele>510</ele>
        <time>2017-10-22T01:08:55Z</time>
      </trkpt>
      <trkpt lat="45.16315" lon="5.67284">
        <ele>498</ele>
        <time>2017-10-22T01:09:09Z</time>
      </trkpt>
      <trkpt lat="45.16309" lon="5.67303">
        <ele>496</ele>
        <time>2017-10-22T01:09:11Z</time>
      </trkpt>
      <trkpt lat="45.163" lon="5.6732">
        <ele>496</ele>
        <time>2017-10-22T01:09:24Z</time>
      </trkpt>
      <trkpt lat="45.16287" lon="5.67334">
        <ele>488</ele>
        <time>2017-10-22T01:09:40Z</time>
      </trkpt>
      <trkpt lat="45.16271" lon="5.67347">
        <ele>489</ele>
        <time>2017-10-22T01:09:44Z</time>
      </trkpt>
      <trkpt lat="45.16241" lon="5.67363">
        <ele>488</ele>
        <time>2017-10-22T01:09:52Z</time>
      </trkpt>
      <trkpt lat="45.16224" lon="5.6737">
        <ele>486</ele>
        <time>2017-10-22T01:10:05Z</time>
      </trkpt>
      <trkpt lat="45.16206" lon="5.67371">
        <ele>485</ele>
        <time>2017-10-22T01:10:18Z</time>
      </trkpt>
      <trkpt lat="45.16185" lon="5.67365">
        <ele>485</ele>
        <time>2017-10-22T01:10:25Z</time>
      </trkpt>
      <trkpt lat="45.16162" lon="5.67354">
        <ele>478</ele>
        <time>2017-10-22T01:10:38Z</time>
      </trkpt>
      <trkpt lat="45.16156" lon="5.67347">
        <ele>479</ele>
        <time>2017-10-22T01:10:46Z</time>
      </trkpt>
      <trkpt lat="45.16153" lon="5.67338">
        <ele>480</ele>
        <time>2017-10-22T01:11:02Z</time>
      </trkpt>
      <trkpt lat="45.16153" lon="5.67326">
        <ele>482</ele>
        <time>2017-10-22T01:11:18Z</time>
      </trkpt>
      <trkpt lat="45.16163" lon="5.67264">
        <ele>484</ele>
        <time>2017-10-22T01:11:22Z</time>
      </trkpt>
      <trkpt lat="45.1616" lon="5.6723">
        <ele>484</ele>
        <time>2017-10-22T01:11:29Z</time>
      </trkpt>
      <trkpt lat="45.16155" lon="5.67213">
        <ele>483</ele>
        <time>2017-10-22T01:11:49Z</time>
      </trkpt>
      <trkpt lat="45.16145" lon="5.67194">
        <ele>482</ele>
        <time>2017-10-22T01:11:56Z</time>
      </trkpt>
      <trkpt lat="45.16131" lon="5.67177">
        <ele>481</ele>
        <time>2017-10-22T01:12:15Z</time>
      </trkpt>
      <trkpt lat="45.16116" lon="5.67168">
        <ele>477</ele>
        <time>2017-10-22T01:12:32Z</time>
      </trkpt>
      <trkpt lat="45.16073" lon="5.67152">
        <ele>471</ele>
        <time>2017-10-22T01:12:50Z</time>
      </trkpt>
      <trkpt lat="45.15999" lon="5.67131">
        <ele>461</ele>
        <time>2017-10-22T01:12:55Z</time>
      </trkpt>
      <trkpt lat="45.15924" lon="5.67095">
        <ele>458</ele>
        <time>2017-10-22T01:13:07Z</time>
      </trkpt>
      <trkpt lat="45.159" lon="5.67079">
        <ele>459</ele>
        <time>2017-10-22T01:13:23Z</time>
      </trkpt>
      <trkpt lat="45.15854" lon="5.6705">
        <ele>459</ele>
        <time>2017-10-22T01:13:40Z</time>
      </trkpt>
      <trkpt lat="45.15838" lon="5.67042">
        <ele>460</ele>
        <time>2017-10-22T01:13:43Z</time>
      </trkpt>
      <trkpt lat="45.15826" lon="5.6704">
        <ele>455</ele>
        <time>2017-10-22T01:14:02Z</time>
      </trkpt>
      <trkpt lat="45.15797" lon="5.67043">
        <ele>454</ele>
        <time>2017-10-22T01:14:11Z</time>
      </trkpt>
      <trkpt lat="45.15772" lon="5.67046">
        <ele>453</ele>
        <time>2017-10-22T01:14:19Z</time>
      </trkpt>
      <trkpt lat="45.15745" lon="5.67052">
        <ele>450</ele>
        <time>2017-10-22T01:14:24Z</time>
      </trkpt>
      <trkpt lat="45.15724" lon="5.6706">
        <ele>450</ele>
        <time>2017-10-22T01:14:33Z</time>
      </trkpt>
      <trkpt lat="45.15695" lon="5.67074">
        <ele>450</ele>
        <time>2017-10-22T01:14:42Z</time>
      </trkpt>
      <trkpt lat="45.15626" lon="5.67112">
        <ele>443</ele>
        <time>2017-10-22T01:14:50Z</time>
      </trkpt>
      <trkpt lat="45.15576" lon="5.67146">
        <ele>442</ele>
        <time>2017-10-22T01:15:04Z</time>
      </trkpt>
      <trkpt lat="45.15539" lon="5.67175">
        <ele>440</ele>
        <time>2017-10-22T01:15:19Z</time>
      </trkpt>
      <trkpt lat="45.15533" lon="5.67182">
        <ele>440</ele>
        <time>2017-10-22T01:15:26Z</time>
      </trkpt>
      <trkpt lat="45.15529" lon="5.67196">
        <ele>440</ele>
        <time>2017-10-22T01:15:41Z</time>
      </trkpt>
      <trkpt lat="45.15531" lon="5.67208">
        <ele>439</ele>
        <time>2017-10-22T01:15:50Z</time>
      </trkpt>
      <trkpt lat="45.15534" lon="5.67218">
        <ele>438</ele>
        <time>2017-10-22T01:16:05Z</time>
      </trkpt>
      <trkpt lat="45.15525" lon="5.67224">
        <ele>438</ele>
        <time>2017-10-22T01:16:12Z</time>
      </trkpt>
      <trkpt lat="45.15515" lon="5.67229">
        <ele>439</ele>
        <time>2017-10-22T01:16:28Z</time>
      </trkpt>
      <trkpt lat="45.15504" lon="5.6723">
        <ele>439</ele>
        <time>2017-10-22T01:16:40Z</time>
      </trkpt>
      <trkpt lat="45.15498" lon="5.67235">
        <ele>448</ele>
        <time>2017-10-22T01:17:00Z</time>
      </trkpt>
      <trkpt lat="45.15488" lon="5.67249">
        <ele>447</ele>
        <time>2017-10-22T01:17:20Z</time>
      </trkpt>
      <trkpt lat="45.15471" lon="5.67294">
        <ele>444</ele>
        <time>2017-10-22T01:17:34Z</time>
      </trkpt>
      <trkpt lat="45.1547" lon="5.67303">
        <ele>443</ele>
        <time>2017-10-22T01:17:40Z</time>
      </trkpt>
      <trkpt lat="45.1547" lon="5.67323">
        <ele>441</ele>
        <time>2017-10-22T01:17:43Z</time>
      </trkpt>
      <trkpt lat="45.15466" lon="5.6736">
        <ele>431</ele>
        <time>2017-10-22T01:17:49Z</time>
      </trkpt>
      <trkpt lat="45.1545" lon="5.67404">
        <ele>430</ele>
        <time>2017-10-22T01:17:57Z</time>
      </trkpt>
      <trkpt lat="45.15429" lon="5.67439">
        <ele>421</ele>
        <time>2017-10-22T01:18:01Z</time>
      </trkpt>
      <trkpt lat="45.15415" lon="5.67451">
        <ele>425</ele>
        <time>2017-10-22T01:18:07Z</time>
      </trkpt>
      <trkpt lat="45.15396" lon="5.67457">
        <ele>424</ele>
        <time>2017-10-22T01:18:21Z</time>
      </trkpt>
      <trkpt lat="45.15343" lon="5.67467">
        <ele>423</ele>
        <time>2017-10-22T01:18:27Z</time>
      </trkpt>
      <trkpt lat="45.15322" lon="5.6747">
        <ele>422</ele>
        <time>2017-10-22T01:18:35Z</time>
      </trkpt>
      <trkpt lat="45.15306" lon="5.67477">
        <ele>422</ele>
        <time>2017-10-22T01:18:53Z</time>
      </trkpt>
      <trkpt lat="45.15272" lon="5.67491">
        <ele>420</ele>
        <time>2017-10-22T01:18:57Z</time>
      </trkpt>
      <trkpt lat="45.15263" lon="5.67493">
        <ele>419</ele>
        <time>2017-10-22T01:19:00Z</time>
      </trkpt>
      <trkpt lat="45.15251" lon="5.67491">
        <ele>418</ele>
        <time>2017-10-22T01:19:13Z</time>
      </trkpt>
      <trkpt lat="45.15225" lon="5.67478">
        <ele>422</ele>
        <time>2017-10-22T01:19:25Z</time>
      </trkpt>
      <trkpt lat="45.15208" lon="5.67472">
        <ele>423</ele>
        <time>2017-10-22T01:19:40Z</time>
      </trkpt>
      <trkpt lat="45.15201" lon="5.67471">
        <ele>423</ele>
        <time>2017-10-22T01:19:54Z</time>
      </trkpt>
      <trkpt lat="45.1519" lon="5.67474">
        <ele>423</ele>
        <time>2017-10-22T01:20:02Z</time>
      </trkpt>
      <trkpt lat="45.15171" lon="5.67489">
        <ele>420</ele>
        <time>2017-10-22T01:20:04Z</time>
      </trkpt>
      <trkpt lat="45.15155" lon="5.6751">
        <ele>413</ele>
        <time>2017-10-22T01:20:19Z</time>
      </trkpt>
      <trkpt lat="45.15142" lon="5.67528">
        <ele>410</ele>
        <time>2017-10-22T01:20:28Z</time>
      </trkpt>
      <trkpt lat="45.15132" lon="5.67537">
        <ele>409</ele>
        <time>2017-10-22T01:20:35Z</time>
      </trkpt>
      <trkpt lat="45.15067" lon="5.67576">
        <ele>405</ele>
        <time>2017-10-22T01:20:42Z</time>
      </trkpt>
      <trkpt lat="45.15056" lon="5.6758">
        <ele>406</ele>
        <time>2017-10-22T01:20:46Z</time>
      </trkpt>
      <trkpt lat="45.15042" lon="5.67582">
        <ele>406</ele>
        <time>2017-10-22T01:21:04Z</time>
      </trkpt>
      <trkpt lat="45.15013" lon="5.67578">
        <ele>403</ele>
        <time>2017-10-22T01:21:20Z</time>
      </trkpt>
      <trkpt lat="45.14995" lon="5.67579">
        <ele>402</ele>
        <time>2017-10-22T01:21:31Z</time>
      </trkpt>
      <trkpt lat="45.14981" lon="5.6759">
        <ele>398</ele>
        <time>2017-10-22T01:21:41Z</time>
      </trkpt>
      <trkpt lat="45.14967" lon="5.67622">
        <ele>395</ele>
        <time>2017-10-22T01:21:58Z</time>
      </trkpt>
      <trkpt lat="45.1496" lon="5.67641">
        <ele>394</ele>
        <time>2017-10-22T01:22:00Z</time>
      </trkpt>
      <trkpt lat="45.1495" lon="5.67658">
        <ele>393</ele>
        <time>2017-10-22T01:22:06Z</time>
      </trkpt>
      <trkpt lat="45.14936" lon="5.67669">
        <ele>385</ele>
        <time>2017-10-22T01:22:12Z</time>
      </trkpt>
      <trkpt lat="45.14912" lon="5.6768">
        <ele>387</ele>
        <time>2017-10-22T01:22:22Z</time>
      </trkpt>
      <trkpt lat="45.14886" lon="5.67688">
        <ele>385</ele>
        <time>2017-10-22T01:22:26Z</time>
      </trkpt>
      <trkpt lat="45.14816" lon="5.67685">
        <ele>387</ele>
        <time>2017-10-22T01:22:44Z</time>
      </trkpt>
      <trkpt lat="45.14796" lon="5.67685">
        <ele>387</ele>
        <time>2017-10-22T01:22:47Z</time>
      </trkpt>
      <trkpt lat="45.14772" lon="5.67694">
        <ele>388</ele>
        <time>2017-10-22T01:22:58Z</time>
      </trkpt>
      <trkpt lat="45.14758" lon="5.67709">
        <ele>387</ele>
        <time>2017-10-22T01:23:03Z</time>
      </trkpt>
      <trkpt lat="45.14736" lon="5.67768">
        <ele>384</ele>
        <time>2017-10-22T01:23:06Z</time>
      </trkpt>
      <trkpt lat="45.14683" lon="5.67746">
        <ele>389</ele>
        <time>2017-10-22T01:23:14Z</time>
      </trkpt>
      <trkpt lat="45.14605" lon="5.67715">
        <ele>394</ele>
        <time>2017-10-22T01:23:24Z</time>
      </trkpt>
      <trkpt lat="45.1454" lon="5.67686">
        <ele>400</ele>
        <time>2017-10-22T01:23:29Z</time>
      </trkpt>
      <trkpt lat="45.14476" lon="5.67653">
        <ele>410</ele>
        <time>2017-10-22T01:23:38Z</time>
      </trkpt>
      <trkpt lat="45.14439" lon="5.67632">
        <ele>412</ele>
        <time>2017-10-22T01:23:42Z</time>
      </trkpt>
      <trkpt lat="45.14422" lon="5.67621">
        <ele>413</ele>
        <time>2017-10-22T01:23:55Z</time>
      </trkpt>
      <trkpt lat="45.14394" lon="5.67595">
        <ele>417</ele>
        <time>2017-10-22T01:24:00Z</time>
      </trkpt>
      <trkpt lat="45.14369" lon="5.67576">
        <ele>424</ele>
        <time>2017-10-22T01:24:12Z</time>
      </trkpt>
      <trkpt lat="45.14282" lon="5.67528">
        <ele>430</ele>
        <time>2017-10-22T01:24:23Z</time>
      </trkpt>
      <trkpt lat="45.14179" lon="5.67482">
        <ele>434</ele>
        <time>2017-10-22T01:24:31Z</time>
      </trkpt>
      <trkpt lat="45.14149" lon="5.67464">
        <ele>432</ele>
        <time>2017-10-22T01:24:38Z</time>
      </trkpt>
      <trkpt lat="45.14129" lon="5.67448">
        <ele>433</ele>
        <time>2017-10-22T01:24:46Z</time>
      </trkpt>
      <trkpt lat="45.14099" lon="5.67407">
        <ele>436</ele>
        <time>2017-10-22T01:25:06Z</time>
      </trkpt>
      <trkpt lat="45.14073" lon="5.67367">
        <ele>434</ele>
        <time>2017-10-22T01:25:24Z</time>
      </trkpt>
      <trkpt lat="45.14053" lon="5.6734">
        <ele>434</ele>
        <time>2017-10-22T01:25:43Z</time>
      </trkpt>
      <trkpt lat="45.1404" lon="5.6733">
        <ele>436</ele>
        <time>2017-10-22T01:25:56Z</time>
      </trkpt>
      <trkpt lat="45.14023" lon="5.67322">
        <ele>435</ele>
        <time>2017-10-22T01:25:58Z</time>
      </trkpt>
      <trkpt lat="45.13926" lon="5.67293">
        <ele>434</ele>
        <time>2017-10-22T01:26:03Z</time>
      </trkpt>
      <trkpt lat="45.13873" lon="5.67279">
        <ele>432</ele>
        <time>2017-10-22T01:26:22Z</time>
      </trkpt>
      <trkpt lat="45.13831" lon="5.67271">
        <ele>429</ele>
        <time>2017-10-22T01:26:32Z</time>
      </trkpt>
      <trkpt lat="45.13751" lon="5.67265">
        <ele>427</ele>
        <time>2017-10-22T01:26:48Z</time>
      </trkpt>
      <trkpt lat="45.137" lon="5.6726">
        <ele>423</ele>
        <time>2017-10-22T01:27:00Z</time>
      </trkpt>
      <trkpt lat="45.13626" lon="5.67246">
        <ele>420</ele>
        <time>2017-10-22T01:27:10Z</time>
      </trkpt>
      <trkpt lat="45.13351" lon="5.67189">
        <ele>408</ele>
        <time>2017-10-22T01:27:14Z</time>
      </trkpt>
      <trkpt lat="45.1332" lon="5.67181">
        <ele>406</ele>
        <time>2017-10-22T01:27:17Z</time>
      </trkpt>
      <trkpt lat="45.13227" lon="5.6714">
        <ele>405</ele>
        <time>2017-10-22T01:27:34Z</time>
      </trkpt>
      <trkpt lat="45.132" lon="5.67133">
        <ele>405</ele>
        <time>2017-10-22T01:27:49Z</time>
      </trkpt>
      <trkpt lat="45.13148" lon="5.67135">
        <ele>399</ele>
        <time>2017-10-22T01:28:04Z</time>
      </trkpt>
      <trkpt lat="45.1311" lon="5.6714">
        <ele>398</ele>
        <time>2017-10-22T01:28:08Z</time>
      </trkpt>
      <trkpt lat="45.13083" lon="5.67141">
        <ele>394</ele>
        <time>2017-10-22T01:28:16Z</time>
      </trkpt>
      <trkpt lat="45.13055" lon="5.67138">
        <ele>393</ele>
        <time>2017-10-22T01:28:30Z</time>
      </trkpt>
      <trkpt lat="45.13001" lon="5.67126">
        <ele>392</ele>
        <time>2017-10-22T01:28:50Z</time>
      </trkpt>
      <trkpt lat="45.12985" lon="5.67126">
        <ele>386</ele>
        <time>2017-10-22T01:29:08Z</time>
      </trkpt>
      <trkpt lat="45.12778" lon="5.67124">
        <ele>368</ele>
        <time>2017-10-22T01:29:24Z</time>
      </trkpt>
      <trkpt lat="45.12745" lon="5.67123">
        <ele>363</ele>
        <time>2017-10-22T01:29:26Z</time>
      </trkpt>
      <trkpt lat="45.12714" lon="5.67128">
        <ele>362</ele>
        <time>2017-10-22T01:29:40Z</time>
      </trkpt>
      <trkpt lat="45.12656" lon="5.6713">
        <ele>356</ele>
        <time>2017-10-22T01:29:53Z</time>
      </trkpt>
      <trkpt lat="45.12614" lon="5.67128">
        <ele>355</ele>
        <time>2017-10-22T01:30:12Z</time>
      </trkpt>
      <trkpt lat="45.12573" lon="5.67129">
        <ele>349</ele>
        <time>2017-10-22T01:30:19Z</time>
      </trkpt>
      <trkpt lat="45.1253" lon="5.67135">
        <ele>347</ele>
        <time>2017-10-22T01:30:35Z</time>
      </trkpt>
      <trkpt lat="45.12435" lon="5.67147">
        <ele>337</ele>
        <time>2017-10-22T01:30:52Z</time>
      </trkpt>
      <trkpt lat="45.1239" lon="5.67152">
        <ele>331</ele>
        <time>2017-10-22T01:31:10Z</time>
      </trkpt>
      <trkpt lat="45.12361" lon="5.67157">
        <ele>329</ele>
        <time>2017-10-22T01:31:15Z</time>
      </trkpt>
      <trkpt lat="45.12318" lon="5.67181">
        <ele>323</ele>
        <time>2017-10-22T01:31:25Z</time>
      </trkpt>
      <trkpt lat="45.12287" lon="5.67198">
        <ele>320</ele>
        <time>2017-10-22T01:31:27Z</time>
      </trkpt>
      <trkpt lat="45.12262" lon="5.67207">
        <ele>318</ele>
        <time>2017-10-22T01:31:36Z</time>
      </trkpt>
      <trkpt lat="45.12204" lon="5.67221">
        <ele>310</ele>
        <time>2017-10-22T01:31:41Z</time>
      </trkpt>
      <trkpt lat="45.12173" lon="5.6722">
        <ele>309</ele>
        <time>2017-10-22T01:31:59Z</time>
      </trkpt>
      <trkpt lat="45.12099" lon="5.67206">
        <ele>301</ele>
        <time>2017-10-22T01:32:13Z</time>
      </trkpt>
      <trkpt lat="45.1204" lon="5.67193">
        <ele>294</ele>
        <time>2017-10-22T01:32:16Z</time>
      </trkpt>
      <trkpt lat="45.12033" lon="5.67193">
        <ele>293</ele>
        <time>2017-10-22T01:32:27Z</time>
      </trkpt>
      <trkpt lat="45.12022" lon="5.67202">
        <ele>293</ele>
        <time>2017-10-22T01:32:46Z</time>
      </trkpt>
      <trkpt lat="45.12012" lon="5.67196">
        <ele>292</ele>
        <time>2017-10-22T01:33:06Z</time>
      </trkpt>
      <trkpt lat="45.12003" lon="5.6721">
        <ele>292</ele>
        <time>2017-10-22T01:33:22Z</time>
      </trkpt>
      <trkpt lat="45.1196" lon="5.6728">
        <ele>285</ele>
        <time>2017-10-22T01:33:40Z</time>
      </trkpt>
      <trkpt lat="45.11941" lon="5.67265">
        <ele>285</ele>
        <time>2017-10-22T01:33:54Z</time>
      </trkpt>
      <trkpt lat="45.11923" lon="5.67248">
        <ele>285</ele>
        <time>2017-10-22T01:34:04Z</time>
      </trkpt>
      <trkpt lat="45.11912" lon="5.67237">
        <ele>284</ele>
        <time>2017-10-22T01:34:14Z</time>
      </trkpt>
      <trkpt lat="45.11906" lon="5.67235">
        <ele>283</ele>
        <time>2017-10-22T01:34:20Z</time>
      </trkpt>
      <trkpt lat="45.11888" lon="5.67244">
        <ele>283</ele>
        <time>2017-10-22T01:34:37Z</time>
      </trkpt>
      <trkpt lat="45.1186" lon="5.67258">
        <ele>278</ele>
        <time>2017-10-22T01:34:46Z</time>
      </trkpt>
      <trkpt lat="45.1183" lon="5.67285">
        <ele>272</ele>
        <time>2017-10-22T01:34:57Z</time>
      </trkpt>
      <trkpt lat="45.11801" lon="5.67309">
        <ele>271</ele>
        <time>2017-10-22T01:35:09Z</time>
      </trkpt>
      <trkpt lat="45.1178" lon="5.67322">
        <ele>269</ele>
        <time>2017-10-22T01:35:11Z</time>
      </trkpt>
      <trkpt lat="45.11769" lon="5.6733">
        <ele>268</ele>
        <time>2017-10-22T01:35:13Z</time>
      </trkpt>
      <trkpt lat="45.11732" lon="5.67344">
        <ele>263</ele>
        <time>2017-10-22T01:35:30Z</time>
      </trkpt>
      <trkpt lat="45.11722" lon="5.67346">
        <ele>262</ele>
        <time>2017-10-22T01:35:41Z</time>
      </trkpt>
      <trkpt lat="45.11695" lon="5.67345">
        <ele>261</ele>
        <time>2017-10-22T01:35:47Z</time>
      </trkpt>
      <trkpt lat="45.11664" lon="5.67341">
        <ele>258</ele>
        <time>2017-10-22T01:35:49Z</time>
      </trkpt>
      <trkpt lat="45.11649" lon="5.67338">
        <ele>258</ele>
        <time>2017-10-22T01:36:05Z</time>
      </trkpt>
      <trkpt lat="45.11634" lon="5.67331">
        <ele>259</ele>
        <time>2017-10-22T01:36:19Z</time>
      </trkpt>
      <trkpt lat="45.11607" lon="5.67314">
        <ele>258</ele>
        <time>2017-10-22T01:36:24Z</time>
      </trkpt>
      <trkpt lat="45.1156" lon="5.67288">
        <ele>258</ele>
        <time>2017-10-22T01:36:40Z</time>
      </trkpt>
      <trkpt lat="45.1152" lon="5.67279">
        <ele>258</ele>
        <time>2017-10-22T01:36:48Z</time>
      </trkpt>
      <trkpt lat="45.11433" lon="5.67266">
        <ele>255</ele>
        <time>2017-10-22T01:37:01Z</time>
      </trkpt>
      <trkpt lat="45.11406" lon="5.6726">
        <ele>255</ele>
        <time>2017-10-22T01:37:19Z</time>
      </trkpt>
      <trkpt lat="45.11377" lon="5.67255">
        <ele>255</ele>
        <time>2017-10-22T01:37:24Z</time>
      </trkpt>
      <trkpt lat="45.11349" lon="5.67237">
        <ele>256</ele>
        <time>2017-10-22T01:37:43Z</time>
      </trkpt>
      <trkpt lat="45.11302" lon="5.67213">
        <ele>257</ele>
        <time>2017-10-22T01:37:47Z</time>
      </trkpt>
      <trkpt lat="45.11293" lon="5.67211">
        <ele>257</ele>
        <time>2017-10-22T01:37:50Z</time>
      </trkpt>
      <trkpt lat="45.1118" lon="5.67191">
        <ele>259</ele>
        <time>2017-10-22T01:38:06Z</time>
      </trkpt>
      <trkpt lat="45.111" lon="5.6719">
        <ele>262</ele>
        <time>2017-10-22T01:38:12Z</time>
      </trkpt>
      <trkpt lat="45.11004" lon="5.67191">
        <ele>267</ele>
        <time>2017-10-22T01:38:21Z</time>
      </trkpt>
      <trkpt lat="45.1088" lon="5.67196">
        <ele>273</ele>
        <time>2017-10-22T01:38:41Z</time>
      </trkpt>
      <trkpt lat="45.10856" lon="5.67197">
        <ele>273</ele>
        <time>2017-10-22T01:38:58Z</time>
      </trkpt>
      <trkpt lat="45.10838" lon="5.672">
        <ele>273</ele>
        <time>2017-10-22T01:39:01Z</time>
      </trkpt>
      <trkpt lat="45.10797" lon="5.67216">
        <ele>274</ele>
        <time>2017-10-22T01:39:12Z</time>
      </trkpt>
      <trkpt lat="45.10741" lon="5.67237">
        <ele>277</ele>
        <time>2017-10-22T01:39:26Z</time>
      </trkpt>
      <trkpt lat="45.1071" lon="5.67248">
        <ele>278</ele>
        <time>2017-10-22T01:39:34Z</time>
      </trkpt>
      <trkpt lat="45.10695" lon="5.67254">
        <ele>277</ele>
        <time>2017-10-22T01:39:53Z</time>
      </trkpt>
      <trkpt lat="45.1069" lon="5.67262">
        <ele>278</ele>
        <time>2017-10-22T01:40:02Z</time>
      </trkpt>
      <trkpt lat="45.10686" lon="5.67271">
        <ele>277</ele>
        <time>2017-10-22T01:40:19Z</time>
      </trkpt>
      <trkpt lat="45.10653" lon="5.67267">
        <ele>280</ele>
        <time>2017-10-22T01:40:27Z</time>
      </trkpt>
      <trkpt lat="45.10624" lon="5.67266">
        <ele>280</ele>
        <time>2017-10-22T01:40:32Z</time>
      </trkpt>
      <trkpt lat="45.10612" lon="5.67272">
        <ele>280</ele>
        <time>2017-10-22T01:40:40Z</time>
      </trkpt>
      <trkpt lat="45.1059" lon="5.6728">
        <ele>280</ele>
        <time>2017-10-22T01:40:56Z</time>
      </trkpt>
      <trkpt lat="45.10565" lon="5.67291">
        <ele>279</ele>
        <time>2017-10-22T01:41:07Z</time>
      </trkpt>
      <trkpt lat="45.10541" lon="5.6731">
        <ele>279</ele>
        <time>2017-10-22T01:41:18Z</time>
      </trkpt>
      <trkpt lat="45.10523" lon="5.67328">
        <ele>278</ele>
        <time>2017-10-22T01:41:22Z</time>
      </trkpt>
      <trkpt lat="45.10512" lon="5.67344">
        <ele>276</ele>
        <time>2017-10-22T01:41:24Z</time>
      </trkpt>
      <trkpt lat="45.10499" lon="5.67356">
        <ele>274</ele>
        <time>2017-10-22T01:41:41Z</time>
      </trkpt>
      <trkpt lat="45.10487" lon="5.67361">
        <ele>274</ele>
        <time>2017-10-22T01:41:46Z</time>
      </trkpt>
      <trkpt lat="45.10479" lon="5.67361">
        <ele>274</ele>
        <time>2017-10-22T01:41:57Z</time>
      </trkpt>
      <trkpt lat="45.10459" lon="5.67358">
        <ele>274</ele>
        <time>2017-10-22T01:42:10Z</time>
      </trkpt>
      <trkpt lat="45.10415" lon="5.6734">
        <ele>274</ele>
        <time>2017-10-22T01:42:14Z</time>
      </trkpt>
      <trkpt lat="45.10364" lon="5.67315">
        <ele>274</ele>
        <time>2017-10-22T01:42:33Z</time>
      </trkpt>
      <trkpt lat="45.10339" lon="5.67303">
        <ele>274</ele>
        <time>2017-10-22T01:42:41Z</time>
      </trkpt>
      <trkpt lat="45.103" lon="5.6729">
        <ele>272</ele>
        <time>2017-10-22T01:42:55Z</time>
      </trkpt>
      <trkpt lat="45.10195" lon="5.67257">
        <ele>269</ele>
        <time>2017-10-22T01:43:14Z</time>
      </trkpt>
      <trkpt lat="45.10131" lon="5.67224">
        <ele>268</ele>
        <time>2017-10-22T01:43:28Z</time>
      </trkpt>
      <trkpt lat="45.10112" lon="5.67213">
        <ele>268</ele>
        <time>2017-10-22T01:43:32Z</time>
      </trkpt>
      <trkpt lat="45.10099" lon="5.67208">
        <ele>268</ele>
        <time>2017-10-22T01:43:36Z</time>
      </trkpt>
      <trkpt lat="45.1008" lon="5.6721">
        <ele>267</ele>
        <time>2017-10-22T01:43:45Z</time>
      </trkpt>
      <trkpt lat="45.10052" lon="5.67214">
        <ele>267</ele>
        <time>2017-10-22T01:43:50Z</time>
      </trkpt>
      <trkpt lat="45.10033" lon="5.6722">
        <ele>267</ele>
        <time>2017-10-22T01:43:59Z</time>
      </trkpt>
      <trkpt lat="45.10019" lon="5.67229">
        <ele>267</ele>
        <time>2017-10-22T01:44:08Z</time>
      </trkpt>
      <trkpt lat="45.09996" lon="5.67252">
        <ele>268</ele>
        <time>2017-10-22T01:44:24Z</time>
      </trkpt>
      <trkpt lat="45.09973" lon="5.67281">
        <ele>269</ele>
        <time>2017-10-22T01:44:30Z</time>
      </trkpt>
      <trkpt lat="45.09964" lon="5.67285">
        <ele>269</ele>
        <time>2017-10-22T01:44:40Z</time>
      </trkpt>
      <trkpt lat="45.09955" lon="5.67285">
        <ele>269</ele>
        <time>2017-10-22T01:44:48Z</time>
      </trkpt>
      <trkpt lat="45.09922" lon="5.67267">
        <ele>270</ele>
        <time>2017-10-22T01:44:55Z</time>
      </trkpt>
      <trkpt lat="45.09858" lon="5.67229">
        <ele>269</ele>
        <time>2017-10-22T01:45:14Z</time>
      </trkpt>
      <trkpt lat="45.09847" lon="5.67226">
        <ele>269</ele>
        <time>2017-10-22T01:45:24Z</time>
      </trkpt>
      <trkpt lat="45.09834" lon="5.67228">
        <ele>269</ele>
        <time>2017-10-22T01:45:41Z</time>
      </trkpt>
      <trkpt lat="45.09821" lon="5.67234">
        <ele>268</ele>
        <time>2017-10-22T01:45:45Z</time>
      </trkpt>
      <trkpt lat="45.09809" lon="5.67245">
        <ele>268</ele>
        <time>2017-10-22T01:45:57Z</time>
      </trkpt>
      <trkpt lat="45.09797" lon="5.67263">
        <ele>268</ele>
        <time>2017-10-22T01:46:12Z</time>
      </trkpt>
      <trkpt lat="45.09775" lon="5.67304">
        <ele>267</ele>
        <time>2017-10-22T01:46:23Z</time>
      </trkpt>
      <trkpt lat="45.0974" lon="5.67365">
        <ele>268</ele>
        <time>2017-10-22T01:46:28Z</time>
      </trkpt>
      <trkpt lat="45.09735" lon="5.67371">
        <ele>268</ele>
        <time>2017-10-22T01:46:43Z</time>
      </trkpt>
      <trkpt lat="45.09727" lon="5.67381">
        <ele>268</ele>
        <time>2017-10-22T01:47:00Z</time>
      </trkpt>
      <trkpt lat="45.09683" lon="5.67433">
        <ele>267</ele>
        <time>2017-10-22T01:47:12Z</time>
      </trkpt>
      <trkpt lat="45.09675" lon="5.67446">
        <ele>267</ele>
        <time>2017-10-22T01:47:19Z</time>
      </trkpt>
      <trkpt lat="45.0967" lon="5.67462">
        <ele>267</ele>
        <time>2017-10-22T01:47:39Z</time>
      </trkpt>
      <trkpt lat="45.09664" lon="5.67475">
        <ele>266</ele>
        <time>2017-10-22T01:47:44Z</time>
      </trkpt>
      <trkpt lat="45.09653" lon="5.67474">
        <ele>266</ele>
        <time>2017-10-22T01:47:58Z</time>
      </trkpt>
      <trkpt lat="45.09653" lon="5.67485">
        <ele>266</ele>
        <time>2017-10-22T01:48:18Z</time>
      </trkpt>
      <trkpt lat="45.09651" lon="5.67497">
        <ele>266</ele>
        <time>2017-10-22T01:48:35Z</time>
      </trkpt>
      <trkpt lat="45.09603" lon="5.67663">
        <ele>267</ele>
        <time>2017-10-22T01:48:45Z</time>
      </trkpt>
      <trkpt lat="45.09569" lon="5.67783">
        <ele>266</ele>
        <time>2017-10-22T01:48:58Z</time>
      </trkpt>
      <trkpt lat="45.09561" lon="5.67817">
        <ele>266</ele>
        <time>2017-10-22T01:49:16Z</time>
      </trkpt>
      <trkpt lat="45.09552" lon="5.67842">
        <ele>266</ele>
        <time>2017-10-22T01:49:35Z</time>
      </trkpt>
      <trkpt lat="45.09465" lon="5.68071">
        <ele>268</ele>
        <time>2017-10-22T01:49:46Z</time>
      </trkpt>
      <trkpt lat="45.09441" lon="5.68124">
        <ele>270</ele>
        <time>2017-10-22T01:50:03Z</time>
      </trkpt>
      <trkpt lat="45.09426" lon="5.68151">
        <ele>270</ele>
        <time>2017-10-22T01:50:18Z</time>
      </trkpt>
      <trkpt lat="45.09429" lon="5.68161">
        <ele>271</ele>
        <time>2017-10-22T01:50:32Z</time>
      </trkpt>
      <trkpt lat="45.09431" lon="5.68177">
        <ele>270</ele>
        <time>2017-10-22T01:50:47Z</time>
      </trkpt>
      <trkpt lat="45.0943" lon="5.68193">
        <ele>270</ele>
        <time>2017-10-22T01:51:07Z</time>
      </trkpt>
      <trkpt lat="45.09426" lon="5.68204">
        <ele>269</ele>
        <time>2017-10-22T01:51:26Z</time>
      </trkpt>
      <trkpt lat="45.09394" lon="5.6825">
        <ele>269</ele>
        <time>2017-10-22T01:51:31Z</time>
      </trkpt>
      <trkpt lat="45.09362" lon="5.68332">
        <ele>269</ele>
        <time>2017-10-22T01:51:44Z</time>
      </trkpt>
      <trkpt lat="45.09356" lon="5.68345">
        <ele>268</ele>
        <time>2017-10-22T01:52:02Z</time>
      </trkpt>
      <trkpt lat="45.09353" lon="5.68359">
        <ele>269</ele>
        <time>2017-10-22T01:52:08Z</time>
      </trkpt>
      <trkpt lat="45.0935" lon="5.68361">
        <ele>269</ele>
        <time>2017-10-22T01:52:13Z</time>
      </trkpt>
      <trkpt lat="45.09347" lon="5.68365">
        <ele>268</ele>
        <time>2017-10-22T01:52:31Z</time>
      </trkpt>
      <trkpt lat="45.09325" lon="5.68366">
        <ele>268</ele>
        <time>2017-10-22T01:52:41Z</time>
      </trkpt>
      <trkpt lat="45.09313" lon="5.68366">
        <ele>269</ele>
        <time>2017-10-22T01:52:51Z</time>
      </trkpt>
      <trkpt lat="45.09302" lon="5.6837">
        <ele>269</ele>
        <time>2017-10-22T01:53:00Z</time>
      </trkpt>
      <trkpt lat="45.09117" lon="5.68364">
        <ele>272</ele>
        <time>2017-10-22T01:53:11Z</time>
      </trkpt>
      <trkpt lat="45.09065" lon="5.68363">
        <ele>273</ele>
        <time>2017-10-22T01:53:28Z</time>
      </trkpt>
      <trkpt lat="45.08968" lon="5.6836">
        <ele>272</ele>
        <time>2017-10-22T01:53:44Z</time>
      </trkpt>
      <trkpt lat="45.08939" lon="5.68359">
        <ele>273</ele>
        <time>2017-10-22T01:54:02Z</time>
      </trkpt>
      <trkpt lat="45.08931" lon="5.68356">
        <ele>273</ele>
        <time>2017-10-22T01:54:22Z</time>
      </trkpt>
      <trkpt lat="45.08871" lon="5.68354">
        <ele>273</ele>
        <time>2017-10-22T01:54:26Z</time>
      </trkpt>
      <trkpt lat="45.08837" lon="5.6835">
        <ele>273</ele>
        <time>2017-10-22T01:54:35Z</time>
      </trkpt>
      <trkpt lat="45.08821" lon="5.6835">
        <ele>274</ele>
        <time>2017-10-22T01:54:38Z</time>
      </trkpt>
      <trkpt lat="45.08788" lon="5.68344">
        <ele>274</ele>
        <time>2017-10-22T01:54:46Z</time>
      </trkpt>
      <trkpt lat="45.08743" lon="5.68335">
        <ele>275</ele>
        <time>2017-10-22T01:54:57Z</time>
      </trkpt>
      <trkpt lat="45.08664" lon="5.6831">
        <ele>276</ele>
        <time>2017-10-22T01:55:11Z</time>
      </trkpt>
      <trkpt lat="45.08654" lon="5.68306">
        <ele>276</ele>
        <time>2017-10-22T01:55:14Z</time>
      </trkpt>
      <trkpt lat="45.08651" lon="5.68336">
        <ele>276</ele>
        <time>2017-10-22T01:55:28Z</time>
      </trkpt>
      <trkpt lat="45.08649" lon="5.68368">
        <ele>275</ele>
        <time>2017-10-22T01:55:31Z</time>
      </trkpt>
      <trkpt lat="45.08649" lon="5.68371">
        <ele>275</ele>
        <time>2017-10-22T01:55:33Z</time>
      </trkpt>
      <trkpt lat="45.08652" lon="5.68389">
        <ele>275</ele>
        <time>2017-10-22T01:55:50Z</time>
      </trkpt>
      <trkpt lat="45.08664" lon="5.6843">
        <ele>274</ele>
        <time>2017-10-22T01:56:07Z</time>
      </trkpt>
      <trkpt lat="45.08703" lon="5.68562">
        <ele>272</ele>
        <time>2017-10-22T01:56:21Z</time>
      </trkpt>
      <trkpt lat="45.08706" lon="5.68578">
        <ele>272</ele>
        <time>2017-10-22T01:56:41Z</time>
      </trkpt>
      <trkpt lat="45.08707" lon="5.68619">
        <ele>272</ele>
        <time>2017-10-22T01:56:46Z</time>
      </trkpt>
      <trkpt lat="45.08701" lon="5.68759">
        <ele>273</ele>
        <time>2017-10-22T01:56:56Z</time>
      </trkpt>
      <trkpt lat="45.08698" lon="5.68792">
        <ele>273</ele>
        <time>2017-10-22T01:57:02Z</time>
      </trkpt>
      <trkpt lat="45.08686" lon="5.68839">
        <ele>273</ele>
        <time>2017-10-22T01:57:06Z</time>
      </trkpt>
      <trkpt lat="45.08681" lon="5.68885">
        <ele>274</ele>
        <time>2017-10-22T01:57:23Z</time>
      </trkpt>
      <trkpt lat="45.08679" lon="5.68904">
        <ele>274</ele>
        <time>2017-10-22T01:57:41Z</time>
      </trkpt>
      <trkpt lat="45.08681" lon="5.68919">
        <ele>273</ele>
        <time>2017-10-22T01:57:58Z</time>
      </trkpt>
      <trkpt lat="45.08683" lon="5.68925">
        <ele>273</ele>
        <time>2017-10-22T01:58:02Z</time>
      </trkpt>
      <trkpt lat="45.08688" lon="5.68937">
        <ele>273</ele>
        <time>2017-10-22T01:58:09Z</time>
      </trkpt>
      <trkpt lat="45.08705" lon="5.68963">
        <ele>272</ele>
        <time>2017-10-22T01:58:21Z</time>
      </trkpt>
      <trkpt lat="45.08715" lon="5.68988">
        <ele>272</ele>
        <time>2017-10-22T01:58:36Z</time>
      </trkpt>
      <trkpt lat="45.08728" lon="5.69007">
        <ele>271</ele>
        <time>2017-10-22T01:58:40Z</time>
      </trkpt>
      <trkpt lat="45.08762" lon="5.69044">
        <ele>271</ele>
        <time>2017-10-22T01:58:45Z</time>
      </trkpt>
      <trkpt lat="45.08764" lon="5.6905">
        <ele>271</ele>
        <time>2017-10-22T01:58:51Z</time>
      </trkpt>
      <trkpt lat="45.08754" lon="5.69111">
        <ele>270</ele>
        <time>2017-10-22T01:59:06Z</time>
      </trkpt>
      <trkpt lat="45.08738" lon="5.69208">
        <ele>268</ele>
        <time>2017-10-22T01:59:17Z</time>
      </trkpt>
      <trkpt lat="45.08728" lon="5.69289">
        <ele>268</ele>
        <time>2017-10-22T01:59:37Z</time>
      </trkpt>
      <trkpt lat="45.08716" lon="5.6937">
        <ele>268</ele>
        <time>2017-10-22T01:59:50Z</time>
      </trkpt>
      <trkpt lat="45.08713" lon="5.69411">
        <ele>268</ele>
        <time>2017-10-22T02:00:06Z</time>
      </trkpt>
      <trkpt lat="45.08706" lon="5.69543">
        <ele>266</ele>
        <time>2017-10-22T02:00:26Z</time>
      </trkpt>
      <trkpt lat="45.08704" lon="5.69618">
        <ele>266</ele>
        <time>2017-10-22T02:00:44Z</time>
      </trkpt>
      <trkpt lat="45.0871" lon="5.6966">
        <ele>265</ele>
        <time>2017-10-22T02:00:59Z</time>
      </trkpt>
      <trkpt lat="45.08719" lon="5.69698">
        <ele>265</ele>
        <time>2017-10-22T02:01:14Z</time>
      </trkpt>
      <trkpt lat="45.08725" lon="5.69735">
        <ele>265</ele>
        <time>2017-10-22T02:01:24Z</time>
      </trkpt>
      <trkpt lat="45.08723" lon="5.69798">
        <ele>266</ele>
        <time>2017-10-22T02:01:36Z</time>
      </trkpt>
      <trkpt lat="45.08702" lon="5.69976">
        <ele>267</ele>
        <time>2017-10-22T02:01:45Z</time>
      </trkpt>
      <trkpt lat="45.08696" lon="5.70051">
        <ele>267</ele>
        <time>2017-10-22T02:01:55Z</time>
      </trkpt>
      <trkpt lat="45.08693" lon="5.70136">
        <ele>266</ele>
        <time>2017-10-22T02:01:57Z</time>
      </trkpt>
      <trkpt lat="45.08696" lon="5.70198">
        <ele>266</ele>
        <time>2017-10-22T02:01:59Z</time>
      </trkpt>
      <trkpt lat="45.087" lon="5.7022">
        <ele>266</ele>
        <time>2017-10-22T02:02:15Z</time>
      </trkpt>
      <trkpt lat="45.08703" lon="5.70231">
        <ele>266</ele>
        <time>2017-10-22T02:02:25Z</time>
      </trkpt>
      <trkpt lat="45.08691" lon="5.70235">
        <ele>266</ele>
        <time>2017-10-22T02:02:44Z</time>
      </trkpt>
      <trkpt lat="45.08654" lon="5.70233">
        <ele>267</ele>
        <time>2017-10-22T02:02:59Z</time>
      </trkpt>
      <trkpt lat="45.08606" lon="5.70231">
        <ele>267</ele>
        <time>2017-10-22T02:03:09Z</time>
      </trkpt>
      <trkpt lat="45.08492" lon="5.70225">
        <ele>268</ele>
        <time>2017-10-22T02:03:19Z</time>
      </trkpt>
      <trkpt lat="45.08456" lon="5.70223">
        <ele>268</ele>
        <time>2017-10-22T02:03:23Z</time>
      </trkpt>
      <trkpt lat="45.0845" lon="5.70265">
        <ele>268</ele>
        <time>2017-10-22T02:03:40Z</time>
      </trkpt>
      <trkpt lat="45.08449" lon="5.70277">
        <ele>268</ele>
        <time>2017-10-22T02:03:45Z</time>
      </trkpt>
      <trkpt lat="45.08438" lon="5.70336">
        <ele>267</ele>
        <time>2017-10-22T02:03:53Z</time>
      </trkpt>
      <trkpt lat="45.08404" lon="5.70451">
        <ele>268</ele>
        <time>2017-10-22T02:04:11Z</time>
      </trkpt>
      <trkpt lat="45.08399" lon="5.70469">
        <ele>268</ele>
        <time>2017-10-22T02:04:17Z</time>
      </trkpt>
      <trkpt lat="45.08354" lon="5.70442">
        <ele>269</ele>
        <time>2017-10-22T02:04:27Z</time>
      </trkpt>
      <trkpt lat="45.08273" lon="5.70396">
        <ele>268</ele>
        <time>2017-10-22T02:04:41Z</time>
      </trkpt>
      <trkpt lat="45.08241" lon="5.7038">
        <ele>268</ele>
        <time>2017-10-22T02:04:59Z</time>
      </trkpt>
      <trkpt lat="45.08223" lon="5.70377">
        <ele>269</ele>
        <time>2017-10-22T02:05:11Z</time>
      </trkpt>
      <trkpt lat="45.08198" lon="5.70379">
        <ele>269</ele>
        <time>2017-10-22T02:05:19Z</time>
      </trkpt>
      <trkpt lat="45.08177" lon="5.7038">
        <ele>269</ele>
        <time>2017-10-22T02:05:37Z</time>
      </trkpt>
      <trkpt lat="45.08154" lon="5.70377">
        <ele>269</ele>
        <time>2017-10-22T02:05:54Z</time>
      </trkpt>
      <trkpt lat="45.08106" lon="5.70363">
        <ele>269</ele>
        <time>2017-10-22T02:06:08Z</time>
      </trkpt>
      <trkpt lat="45.0808" lon="5.70348">
        <ele>269</ele>
        <time>2017-10-22T02:06:20Z</time>
      </trkpt>
      <trkpt lat="45.08012" lon="5.70304">
        <ele>270</ele>
        <time>2017-10-22T02:06:35Z</time>
      </trkpt>
      <trkpt lat="45.0791" lon="5.7025">
        <ele>270</ele>
        <time>2017-10-22T02:06:39Z</time>
      </trkpt>
      <trkpt lat="45.07843" lon="5.70212">
        <ele>272</ele>
        <time>2017-10-22T02:06:49Z</time>
      </trkpt>
      <trkpt lat="45.07731" lon="5.70153">
        <ele>274</ele>
        <time>2017-10-22T02:06:56Z</time>
      </trkpt>
      <trkpt lat="45.07677" lon="5.70118">
        <ele>274</ele>
        <time>2017-10-22T02:07:16Z</time>
      </trkpt>
      <trkpt lat="45.07646" lon="5.70094">
        <ele>274</ele>
        <time>2017-10-22T02:07:27Z</time>
      </trkpt>
      <trkpt lat="45.076" lon="5.70064">
        <ele>275</ele>
        <time>2017-10-22T02:07:42Z</time>
      </trkpt>
      <trkpt lat="45.07589" lon="5.70058">
        <ele>275</ele>
        <time>2017-10-22T02:07:59Z</time>
      </trkpt>
      <trkpt lat="45.0757" lon="5.70053">
        <ele>276</ele>
        <time>2017-10-22T02:08:13Z</time>
      </trkpt>
      <trkpt lat="45.07541" lon="5.70041">
        <ele>276</ele>
        <time>2017-10-22T02:08:32Z</time>
      </trkpt>
      <trkpt lat="45.07504" lon="5.70011">
        <ele>277</ele>
        <time>2017-10-22T02:08:41Z</time>
      </trkpt>
      <trkpt lat="45.07489" lon="5.69995">
        <ele>277</ele>
        <time>2017-10-22T02:09:00Z</time>
      </trkpt>
      <trkpt lat="45.07477" lon="5.69974">
        <ele>276</ele>
        <time>2017-10-22T02:09:16Z</time>
      </trkpt>
      <trkpt lat="45.0746" lon="5.69952">
        <ele>276</ele>
        <time>2017-10-22T02:09:27Z</time>
      </trkpt>
      <trkpt lat="45.07446" lon="5.6994">
        <ele>276</ele>
        <time>2017-10-22T02:09:33Z</time>
      </trkpt>
      <trkpt lat="45.07403" lon="5.69911">
        <ele>277</ele>
        <time>2017-10-22T02:09:42Z</time>
      </trkpt>
      <trkpt lat="45.07376" lon="5.69893">
        <ele>277</ele>
        <time>2017-10-22T02:09:46Z</time>
      </trkpt>
      <trkpt lat="45.07346" lon="5.69869">
        <ele>278</ele>
        <time>2017-10-22T02:10:05Z</time>
      </trkpt>
      <trkpt lat="45.07325" lon="5.69846">
        <ele>278</ele>
        <time>2017-10-22T02:10:11Z</time>
      </trkpt>
      <trkpt lat="45.07299" lon="5.6981">
        <ele>278</ele>
        <time>2017-10-22T02:10:20Z</time>
      </trkpt>
      <trkpt lat="45.07268" lon="5.69741">
        <ele>279</ele>
        <time>2017-10-22T02:10:28Z</time>
      </trkpt>
      <trkpt lat="45.07249" lon="5.69702">
        <ele>280</ele>
        <time>2017-10-22T02:10:33Z</time>
      </trkpt>
      <trkpt lat="45.07219" lon="5.69668">
        <ele>280</ele>
        <time>2017-10-22T02:10:44Z</time>
      </trkpt>
      <trkpt lat="45.07157" lon="5.69615">
        <ele>281</ele>
        <time>2017-10-22T02:10:56Z</time>
      </trkpt>
      <trkpt lat="45.07114" lon="5.6957">
        <ele>281</ele>
        <time>2017-10-22T02:11:16Z</time>
      </trkpt>
      <trkpt lat="45.07085" lon="5.69537">
        <ele>282</ele>
        <time>2017-10-22T02:11:21Z</time>
      </trkpt>
      <trkpt lat="45.07025" lon="5.69498">
        <ele>282</ele>
        <time>2017-10-22T02:11:25Z</time>
      </trkpt>
      <trkpt lat="45.06996" lon="5.69488">
        <ele>282</ele>
        <time>2017-10-22T02:11:38Z</time>
      </trkpt>
      <trkpt lat="45.06963" lon="5.69466">
        <ele>283</ele>
        <time>2017-10-22T02:11:57Z</time>
      </trkpt>
      <trkpt lat="45.06951" lon="5.69455">
        <ele>283</ele>
        <time>2017-10-22T02:12:13Z</time>
      </trkpt>
      <trkpt lat="45.06942" lon="5.69443">
        <ele>282</ele>
        <time>2017-10-22T02:12:28Z</time>
      </trkpt>
      <trkpt lat="45.06933" lon="5.69417">
        <ele>282</ele>
        <time>2017-10-22T02:12:40Z</time>
      </trkpt>
      <trkpt lat="45.06923" lon="5.69373">
        <ele>282</ele>
        <time>2017-10-22T02:12:47Z</time>
      </trkpt>
      <trkpt lat="45.0691" lon="5.69333">
        <ele>282</ele>
        <time>2017-10-22T02:13:05Z</time>
      </trkpt>
      <trkpt lat="45.06895" lon="5.69303">
        <ele>283</ele>
        <time>2017-10-22T02:13:22Z</time>
      </trkpt>
      <trkpt lat="45.06863" lon="5.69242">
        <ele>283</ele>
        <time>2017-10-22T02:13:32Z</time>
      </trkpt>
      <trkpt lat="45.06852" lon="5.69231">
        <ele>283</ele>
        <time>2017-10-22T02:13:50Z</time>
      </trkpt>
      <trkpt lat="45.06842" lon="5.69225">
        <ele>283</ele>
        <time>2017-10-22T02:13:58Z</time>
      </trkpt>
      <trkpt lat="45.06834" lon="5.69222">
        <ele>283</ele>
        <time>2017-10-22T02:14:04Z</time>
      </trkpt>
      <trkpt lat="45.06811" lon="5.69221">
        <ele>284</ele>
        <time>2017-10-22T02:14:21Z</time>
      </trkpt>
      <trkpt lat="45.06774" lon="5.69226">
        <ele>284</ele>
        <time>2017-10-22T02:14:32Z</time>
      </trkpt>
      <trkpt lat="45.06746" lon="5.69227">
        <ele>285</ele>
        <time>2017-10-22T02:14:48Z</time>
      </trkpt>
      <trkpt lat="45.06718" lon="5.6922">
        <ele>285</ele>
        <time>2017-10-22T02:14:57Z</time>
      </trkpt>
      <trkpt lat="45.06682" lon="5.69207">
        <ele>285</ele>
        <time>2017-10-22T02:15:04Z</time>
      </trkpt>
      <trkpt lat="45.06626" lon="5.69192">
        <ele>286</ele>
        <time>2017-10-22T02:15:09Z</time>
      </trkpt>
      <trkpt lat="45.06571" lon="5.69175">
        <ele>288</ele>
        <time>2017-10-22T02:15:18Z</time>
      </trkpt>
      <trkpt lat="45.06528" lon="5.69163">
        <ele>288</ele>
        <time>2017-10-22T02:15:25Z</time>
      </trkpt>
      <trkpt lat="45.06484" lon="5.69144">
        <ele>289</ele>
        <time>2017-10-22T02:15:45Z</time>
      </trkpt>
      <trkpt lat="45.06438" lon="5.69126">
        <ele>289</ele>
        <time>2017-10-22T02:15:48Z</time>
      </trkpt>
      <trkpt lat="45.06393" lon="5.69109">
        <ele>290</ele>
        <time>2017-10-22T02:16:01Z</time>
      </trkpt>
      <trkpt lat="45.06358" lon="5.69093">
        <ele>290</ele>
        <time>2017-10-22T02:16:18Z</time>
      </trkpt>
      <trkpt lat="45.06264" lon="5.6904">
        <ele>291</ele>
        <time>2017-10-22T02:16:29Z</time>
      </trkpt>
      <trkpt lat="45.06232" lon="5.6902">
        <ele>292</ele>
        <time>2017-10-22T02:16:36Z</time>
      </trkpt>
      <trkpt lat="45.06217" lon="5.69006">
        <ele>292</ele>
        <time>2017-10-22T02:16:44Z</time>
      </trkpt>
      <trkpt lat="45.06203" lon="5.68987">
        <ele>293</ele>
        <time>2017-10-22T02:16:58Z</time>
      </trkpt>
      <trkpt lat="45.06148" lon="5.68909">
        <ele>294</ele>
        <time>2017-10-22T02:17:16Z</time>
      </trkpt>
      <trkpt lat="45.06081" lon="5.6882">
        <ele>295</ele>
        <time>2017-10-22T02:17:30Z</time>
      </trkpt>
      <trkpt lat="45.06036" lon="5.68755">
        <ele>296</ele>
        <time>2017-10-22T02:17:50Z</time>
      </trkpt>
      <trkpt lat="45.05973" lon="5.6866">
        <ele>296</ele>
        <time>2017-10-22T02:17:58Z</time>
      </trkpt>
      <trkpt lat="45.05944" lon="5.68616">
        <ele>296</ele>
        <time>2017-10-22T02:18:09Z</time>
      </trkpt>
      <trkpt lat="45.05924" lon="5.68584">
        <ele>296</ele>
        <time>2017-10-22T02:18:22Z</time>
      </trkpt>
      <trkpt lat="45.05905" lon="5.68558">
        <ele>298</ele>
        <time>2017-10-22T02:18:27Z</time>
      </trkpt>
      <trkpt lat="45.05886" lon="5.6855">
        <ele>298</ele>
        <time>2017-10-22T02:18:44Z</time>
      </trkpt>
      <trkpt lat="45.05871" lon="5.6855">
        <ele>299</ele>
        <time>2017-10-22T02:18:48Z</time>
      </trkpt>
      <trkpt lat="45.05835" lon="5.68564">
        <ele>299</ele>
        <time>2017-10-22T02:18:53Z</time>
      </trkpt>
      <trkpt lat="45.05819" lon="5.68565">
        <ele>302</ele>
        <time>2017-10-22T02:18:57Z</time>
      </trkpt>
      <trkpt lat="45.0581" lon="5.68562">
        <ele>302</ele>
        <time>2017-10-22T02:19:16Z</time>
      </trkpt>
      <trkpt lat="45.05806" lon="5.68558">
        <ele>302</ele>
        <time>2017-10-22T02:19:26Z</time>
      </trkpt>
      <trkpt lat="45.05803" lon="5.68547">
        <ele>302</ele>
        <time>2017-10-22T02:19:31Z</time>
      </trkpt>
      <trkpt lat="45.05795" lon="5.68508">
        <ele>303</ele>
        <time>2017-10-22T02:19:39Z</time>
      </trkpt>
      <trkpt lat="45.05788" lon="5.68462">
        <ele>301</ele>
        <time>2017-10-22T02:19:58Z</time>
      </trkpt>
      <trkpt lat="45.05768" lon="5.68377">
        <ele>298</ele>
        <time>2017-10-22T02:20:09Z</time>
      </trkpt>
      <trkpt lat="45.05769" lon="5.68363">
        <ele>298</ele>
        <time>2017-10-22T02:20:20Z</time>
      </trkpt>
      <trkpt lat="45.05777" lon="5.68342">
        <ele>298</ele>
        <time>2017-10-22T02:20:39Z</time>
      </trkpt>
      <trkpt lat="45.05793" lon="5.68315">
        <ele>298</ele>
        <time>2017-10-22T02:20:58Z</time>
      </trkpt>
      <trkpt lat="45.05796" lon="5.68319">
        <ele>298</ele>
        <time>2017-10-22T02:21:13Z</time>
      </trkpt>
      <trkpt lat="45.05798" lon="5.68322">
        <ele>298</ele>
        <time>2017-10-22T02:21:25Z</time>
      </trkpt>
      <trkpt lat="45.05804" lon="5.68324">
        <ele>298</ele>
        <time>2017-10-22T02:21:39Z</time>
      </trkpt>
      <trkpt lat="45.05811" lon="5.68322">
        <ele>298</ele>
        <time>2017-10-22T02:21:55Z</time>
      </trkpt>
      <trkpt lat="45.05815" lon="5.68316">
        <ele>298</ele>
        <time>2017-10-22T02:22:06Z</time>
      </trkpt>
      <trkpt lat="45.05818" lon="5.68308">
        <ele>298</ele>
        <time>2017-10-22T02:22:08Z</time>
      </trkpt>
      <trkpt lat="45.05817" lon="5.68299">
        <ele>298</ele>
        <time>2017-10-22T02:22:21Z</time>
      </trkpt>
      <trkpt lat="45.05814" lon="5.68291">
        <ele>298</ele>
        <time>2017-10-22T02:22:38Z</time>
      </trkpt>
      <trkpt lat="45.05809" lon="5.68287">
        <ele>299</ele>
        <time>2017-10-22T02:22:50Z</time>
      </trkpt>
      <trkpt lat="45.05803" lon="5.68286">
        <ele>299</ele>
        <time>2017-10-22T02:22:58Z</time>
      </trkpt>
      <trkpt lat="45.05797" lon="5.68289">
        <ele>299</ele>
        <time>2017-10-22T02:23:14Z</time>
      </trkpt>
      <trkpt lat="45.05793" lon="5.68296">
        <ele>299</ele>
        <time>2017-10-22T02:23:32Z</time>
      </trkpt>
      <trkpt lat="45.05792" lon="5.68298">
        <ele>299</ele>
        <time>2017-10-22T02:23:38Z</time>
      </trkpt>
      <trkpt lat="45.05786" lon="5.68291">
        <ele>299</ele>
        <time>2017-10-22T02:23:50Z</time>
      </trkpt>
      <trkpt lat="45.05746" lon="5.68239">
        <ele>300</ele>
        <time>2017-10-22T02:24:00Z</time>
      </trkpt>
      <trkpt lat="45.0571" lon="5.68201">
        <ele>301</ele>
        <time>2017-10-22T02:24:13Z</time>
      </trkpt>
      <trkpt lat="45.05663" lon="5.68149">
        <ele>302</ele>
        <time>2017-10-22T02:24:19Z</time>
      </trkpt>
      <trkpt lat="45.05651" lon="5.68122">
        <ele>302</ele>
        <time>2017-10-22T02:24:35Z</time>
      </trkpt>
      <trkpt lat="45.05645" lon="5.68098">
        <ele>302</ele>
        <time>2017-10-22T02:24:39Z</time>
      </trkpt>
      <trkpt lat="45.05635" lon="5.68084">
        <ele>302</ele>
        <time>2017-10-22T02:24:51Z</time>
      </trkpt>
      <trkpt lat="45.05562" lon="5.68006">
        <ele>303</ele>
        <time>2017-10-22T02:24:57Z</time>
      </trkpt>
      <trkpt lat="45.05508" lon="5.67954">
        <ele>304</ele>
        <time>2017-10-22T02:25:16Z</time>
      </trkpt>
      <trkpt lat="45.05478" lon="5.67923">
        <ele>305</ele>
        <time>2017-10-22T02:25:31Z</time>
      </trkpt>
      <trkpt lat="45.05459" lon="5.67901">
        <ele>306</ele>
        <time>2017-10-22T02:25:51Z</time>
      </trkpt>
      <trkpt lat="45.05434" lon="5.6787">
        <ele>306</ele>
        <time>2017-10-22T02:26:02Z</time>
      </trkpt>
      <trkpt lat="45.05371" lon="5.67806">
        <ele>309</ele>
        <time>2017-10-22T02:26:15Z</time>
      </trkpt>
      <trkpt lat="45.05307" lon="5.67738">
        <ele>311</ele>
        <time>2017-10-22T02:26:23Z</time>
      </trkpt>
      <trkpt lat="45.05286" lon="5.67722">
        <ele>312</ele>
        <time>2017-10-22T02:26:43Z</time>
      </trkpt>
      <trkpt lat="45.05285" lon="5.67709">
        <ele>312</ele>
        <time>2017-10-22T02:26:52Z</time>
      </trkpt>
      <trkpt lat="45.0528" lon="5.67699">
        <ele>312</ele>
        <time>2017-10-22T02:27:09Z</time>
      </trkpt>
      <trkpt lat="45.05274" lon="5.67694">
        <ele>312</ele>
        <time>2017-10-22T02:27:19Z</time>
      </trkpt>
      <trkpt lat="45.05269" lon="5.67694">
        <ele>312</ele>
        <time>2017-10-22T02:27:39Z</time>
      </trkpt>
      <trkpt lat="45.05267" lon="5.67694">
        <ele>312</ele>
        <time>2017-10-22T02:27:51Z</time>
      </trkpt>
      <trkpt lat="45.05261" lon="5.67681">
        <ele>312</ele>
        <time>2017-10-22T02:28:05Z</time>
      </trkpt>
      <trkpt lat="45.05249" lon="5.67652">
        <ele>312</ele>
        <time>2017-10-22T02:28:18Z</time>
      </trkpt>
      <trkpt lat="45.05224" lon="5.67551">
        <ele>312</ele>
        <time>2017-10-22T02:28:27Z</time>
      </trkpt>
      <trkpt lat="45.05208" lon="5.67493">
        <ele>312</ele>
        <time>2017-10-22T02:28:41Z</time>
      </trkpt>
      <trkpt lat="45.05187" lon="5.67445">
        <ele>312</ele>
        <time>2017-10-22T02:28:57Z</time>
      </trkpt>
      <trkpt lat="45.05155" lon="5.67373">
        <ele>312</ele>
        <time>2017-10-22T02:29:11Z</time>
      </trkpt>
      <trkpt lat="45.05123" lon="5.67305">
        <ele>313</ele>
        <time>2017-10-22T02:29:31Z</time>
      </trkpt>
      <trkpt lat="45.05076" lon="5.67216">
        <ele>317</ele>
        <time>2017-10-22T02:29:36Z</time>
      </trkpt>
      <trkpt lat="45.04992" lon="5.67072">
        <ele>318</ele>
        <time>2017-10-22T02:29:40Z</time>
      </trkpt>
      <trkpt lat="45.04966" lon="5.67024">
        <ele>319</ele>
        <time>2017-10-22T02:29:42Z</time>
      </trkpt>
      <trkpt lat="45.04919" lon="5.66944">
        <ele>319</ele>
        <time>2017-10-22T02:29:51Z</time>
      </trkpt>
      <trkpt lat="45.04895" lon="5.66901">
        <ele>321</ele>
        <time>2017-10-22T02:30:06Z</time>
      </trkpt>
      <trkpt lat="45.04887" lon="5.66883">
        <ele>321</ele>
        <time>2017-10-22T02:30:19Z</time>
      </trkpt>
      <trkpt lat="45.04885" lon="5.66874">
        <ele>321</ele>
        <time>2017-10-22T02:30:29Z</time>
      </trkpt>
      <trkpt lat="45.04888" lon="5.66865">
        <ele>321</ele>
        <time>2017-10-22T02:30:45Z</time>
      </trkpt>
      <trkpt lat="45.04889" lon="5.66851">
        <ele>321</ele>
        <time>2017-10-22T02:30:49Z</time>
      </trkpt>
      <trkpt lat="45.04886" lon="5.66842">
        <ele>321</ele>
        <time>2017-10-22T02:31:04Z</time>
      </trkpt>
      <trkpt lat="45.04877" lon="5.6683">
        <ele>320</ele>
        <time>2017-10-22T02:31:11Z</time>
      </trkpt>
      <trkpt lat="45.04874" lon="5.66818">
        <ele>320</ele>
        <time>2017-10-22T02:31:27Z</time>
      </trkpt>
      <trkpt lat="45.04871" lon="5.66796">
        <ele>320</ele>
        <time>2017-10-22T02:31:36Z</time>
      </trkpt>
      <trkpt lat="45.04861" lon="5.66766">
        <ele>320</ele>
        <time>2017-10-22T02:31:48Z</time>
      </trkpt>
      <trkpt lat="45.04847" lon="5.66747">
        <ele>320</ele>
        <time>2017-10-22T02:31:54Z</time>
      </trkpt>
      <trkpt lat="45.04838" lon="5.66734">
        <ele>320</ele>
        <time>2017-10-22T02:32:02Z</time>
      </trkpt>
      <trkpt lat="45.04824" lon="5.66727">
        <ele>321</ele>
        <time>2017-10-22T02:32:12Z</time>
      </trkpt>
      <trkpt lat="45.04794" lon="5.66728">
        <ele>321</ele>
        <time>2017-10-22T02:32:29Z</time>
      </trkpt>
      <trkpt lat="45.0478" lon="5.66723">
        <ele>322</ele>
        <time>2017-10-22T02:32:47Z</time>
      </trkpt>
      <trkpt lat="45.04768" lon="5.66711">
        <ele>322</ele>
        <time>2017-10-22T02:33:07Z</time>
      </trkpt>
      <trkpt lat="45.04758" lon="5.66695">
        <ele>322</ele>
        <time>2017-10-22T02:33:15Z</time>
      </trkpt>
      <trkpt lat="45.04746" lon="5.66683">
        <ele>323</ele>
        <time>2017-10-22T02:33:29Z</time>
      </trkpt>
      <trkpt lat="45.04729" lon="5.66677">
        <ele>323</ele>
        <time>2017-10-22T02:33:43Z</time>
      </trkpt>
      <trkpt lat="45.04711" lon="5.66675">
        <ele>323</ele>
        <time>2017-10-22T02:33:59Z</time>
      </trkpt>
      <trkpt lat="45.04693" lon="5.66671">
        <ele>323</ele>
        <time>2017-10-22T02:34:01Z</time>
      </trkpt>
      <trkpt lat="45.04677" lon="5.66661">
        <ele>322</ele>
        <time>2017-10-22T02:34:15Z</time>
      </trkpt>
      <trkpt lat="45.04652" lon="5.6664">
        <ele>323</ele>
        <time>2017-10-22T02:34:32Z</time>
      </trkpt>
      <trkpt lat="45.04524" lon="5.66536">
        <ele>327</ele>
        <time>2017-10-22T02:34:34Z</time>
      </trkpt>
      <trkpt lat="45.04498" lon="5.66517">
        <ele>329</ele>
        <time>2017-10-22T02:34:54Z</time>
      </trkpt>
      <trkpt lat="45.04467" lon="5.66486">
        <ele>329</ele>
        <time>2017-10-22T02:34:58Z</time>
      </trkpt>
      <trkpt lat="45.04433" lon="5.6646">
        <ele>329</ele>
        <time>2017-10-22T02:35:14Z</time>
      </trkpt>
      <trkpt lat="45.04412" lon="5.66454">
        <ele>330</ele>
        <time>2017-10-22T02:35:31Z</time>
      </trkpt>
      <trkpt lat="45.04355" lon="5.66446">
        <ele>329</ele>
        <time>2017-10-22T02:35:33Z</time>
      </trkpt>
      <trkpt lat="45.0431" lon="5.66443">
        <ele>330</ele>
        <time>2017-10-22T02:35:43Z</time>
      </trkpt>
      <trkpt lat="45.04284" lon="5.66439">
        <ele>330</ele>
        <time>2017-10-22T02:35:57Z</time>
      </trkpt>
      <trkpt lat="45.04267" lon="5.66433">
        <ele>330</ele>
        <time>2017-10-22T02:36:15Z</time>
      </trkpt>
      <trkpt lat="45.04232" lon="5.66403">
        <ele>331</ele>
        <time>2017-10-22T02:36:23Z</time>
      </trkpt>
      <trkpt lat="45.0419" lon="5.66363">
        <ele>331</ele>
        <time>2017-10-22T02:36:33Z</time>
      </trkpt>
      <trkpt lat="45.04019" lon="5.66202">
        <ele>333</ele>
        <time>2017-10-22T02:36:44Z</time>
      </trkpt>
      <trkpt lat="45.0396" lon="5.66151">
        <ele>335</ele>
        <time>2017-10-22T02:36:52Z</time>
      </trkpt>
      <trkpt lat="45.03889" lon="5.66092">
        <ele>337</ele>
        <time>2017-10-22T02:36:57Z</time>
      </trkpt>
      <trkpt lat="45.03869" lon="5.66075">
        <ele>337</ele>
        <time>2017-10-22T02:37:07Z</time>
      </trkpt>
      <trkpt lat="45.03862" lon="5.66064">
        <ele>337</ele>
        <time>2017-10-22T02:37:17Z</time>
      </trkpt>
      <trkpt lat="45.03828" lon="5.66039">
        <ele>340</ele>
        <time>2017-10-22T02:37:22Z</time>
      </trkpt>
      <trkpt lat="45.0379" lon="5.66009">
        <ele>340</ele>
        <time>2017-10-22T02:37:39Z</time>
      </trkpt>
      <trkpt lat="45.03778" lon="5.66007">
        <ele>340</ele>
        <time>2017-10-22T02:37:56Z</time>
      </trkpt>
      <trkpt lat="45.03727" lon="5.65964">
        <ele>339</ele>
        <time>2017-10-22T02:38:12Z</time>
      </trkpt>
      <trkpt lat="45.03704" lon="5.65944">
        <ele>340</ele>
        <time>2017-10-22T02:38:26Z</time>
      </trkpt>
      <trkpt lat="45.0341" lon="5.65705">
        <ele>345</ele>
        <time>2017-10-22T02:38:39Z</time>
      </trkpt>
      <trkpt lat="45.03315" lon="5.65627">
        <ele>348</ele>
        <time>2017-10-22T02:38:55Z</time>
      </trkpt>
      <trkpt lat="45.03286" lon="5.65596">
        <ele>349</ele>
        <time>2017-10-22T02:39:05Z</time>
      </trkpt>
      <trkpt lat="45.0325" lon="5.65563">
        <ele>350</ele>
        <time>2017-10-22T02:39:12Z</time>
      </trkpt>
      <trkpt lat="45.03225" lon="5.65534">
        <ele>350</ele>
        <time>2017-10-22T02:39:17Z</time>
      </trkpt>
      <trkpt lat="45.03188" lon="5.65482">
        <ele>349</ele>
        <time>2017-10-22T02:39:27Z</time>
      </trkpt>
      <trkpt lat="45.03184" lon="5.65477">
        <ele>349</ele>
        <time>2017-10-22T02:39:41Z</time>
      </trkpt>
      <trkpt lat="45.03176" lon="5.65475">
        <ele>349</ele>
        <time>2017-10-22T02:39:56Z</time>
      </trkpt>
      <trkpt lat="45.0311" lon="5.65397">
        <ele>349</ele>
        <time>2017-10-22T02:40:07Z</time>
      </trkpt>
      <trkpt lat="45.03074" lon="5.65356">
        <ele>350</ele>
        <time>2017-10-22T02:40:11Z</time>
      </trkpt>
      <trkpt lat="45.03012" lon="5.65293">
        <ele>352</ele>
        <time>2017-10-22T02:40:29Z</time>
      </trkpt>
      <trkpt lat="45.02878" lon="5.65192">
        <ele>355</ele>
        <time>2017-10-22T02:40:46Z</time>
      </trkpt>
      <trkpt lat="45.02856" lon="5.65178">
        <ele>355</ele>
        <time>2017-10-22T02:41:01Z</time>
      </trkpt>
      <trkpt lat="45.02839" lon="5.65166">
        <ele>354</ele>
        <time>2017-10-22T02:41:15Z</time>
      </trkpt>
      <trkpt lat="45.02831" lon="5.65155">
        <ele>354</ele>
        <time>2017-10-22T02:41:19Z</time>
      </trkpt>
      <trkpt lat="45.02824" lon="5.65139">
        <ele>354</ele>
        <time>2017-10-22T02:41:26Z</time>
      </trkpt>
      <trkpt lat="45.02821" lon="5.6513">
        <ele>354</ele>
        <time>2017-10-22T02:41:36Z</time>
      </trkpt>
      <trkpt lat="45.02817" lon="5.65113">
        <ele>354</ele>
        <time>2017-10-22T02:41:46Z</time>
      </trkpt>
      <trkpt lat="45.02818" lon="5.65094">
        <ele>353</ele>
        <time>2017-10-22T02:41:57Z</time>
      </trkpt>
      <trkpt lat="45.0282" lon="5.65046">
        <ele>354</ele>
        <time>2017-10-22T02:42:01Z</time>
      </trkpt>
      <trkpt lat="45.0282" lon="5.6503">
        <ele>354</ele>
        <time>2017-10-22T02:42:04Z</time>
      </trkpt>
      <trkpt lat="45.02818" lon="5.6501">
        <ele>355</ele>
        <time>2017-10-22T02:42:08Z</time>
      </trkpt>
      <trkpt lat="45.02811" lon="5.64986">
        <ele>356</ele>
        <time>2017-10-22T02:42:24Z</time>
      </trkpt>
      <trkpt lat="45.02803" lon="5.64968">
        <ele>356</ele>
        <time>2017-10-22T02:42:41Z</time>
      </trkpt>
      <trkpt lat="45.02797" lon="5.64959">
        <ele>356</ele>
        <time>2017-10-22T02:42:59Z</time>
      </trkpt>
      <trkpt lat="45.02797" lon="5.64957">
        <ele>356</ele>
        <time>2017-10-22T02:43:01Z</time>
      </trkpt>
      <trkpt lat="45.02797" lon="5.64953">
        <ele>356</ele>
        <time>2017-10-22T02:43:06Z</time>
      </trkpt>
      <trkpt lat="45.02794" lon="5.64945">
        <ele>356</ele>
        <time>2017-10-22T02:43:14Z</time>
      </trkpt>
      <trkpt lat="45.02788" lon="5.64942">
        <ele>356</ele>
        <time>2017-10-22T02:43:18Z</time>
      </trkpt>
      <trkpt lat="45.02787" lon="5.64942">
        <ele>356</ele>
        <time>2017-10-22T02:43:25Z</time>
      </trkpt>
      <trkpt lat="45.02783" lon="5.64933">
        <ele>357</ele>
        <time>2017-10-22T02:43:36Z</time>
      </trkpt>
      <trkpt lat="45.02762" lon="5.6491">
        <ele>360</ele>
        <time>2017-10-22T02:43:39Z</time>
      </trkpt>
      <trkpt lat="45.02595" lon="5.64761">
        <ele>371</ele>
        <time>2017-10-22T02:43:46Z</time>
      </trkpt>
      <trkpt lat="45.02579" lon="5.64744">
        <ele>372</ele>
        <time>2017-10-22T02:43:55Z</time>
      </trkpt>
      <trkpt lat="45.02558" lon="5.64701">
        <ele>372</ele>
        <time>2017-10-22T02:44:14Z</time>
      </trkpt>
      <trkpt lat="45.02542" lon="5.64664">
        <ele>377</ele>
        <time>2017-10-22T02:44:27Z</time>
      </trkpt>
      <trkpt lat="45.02521" lon="5.64619">
        <ele>378</ele>
        <time>2017-10-22T02:44:32Z</time>
      </trkpt>
      <trkpt lat="45.02508" lon="5.64598">
        <ele>379</ele>
        <time>2017-10-22T02:44:37Z</time>
      </trkpt>
      <trkpt lat="45.02502" lon="5.6459">
        <ele>380</ele>
        <time>2017-10-22T02:44:48Z</time>
      </trkpt>
      <trkpt lat="45.02494" lon="5.64584">
        <ele>378</ele>
        <time>2017-10-22T02:44:52Z</time>
      </trkpt>
      <trkpt lat="45.02479" lon="5.64577">
        <ele>384</ele>
        <time>2017-10-22T02:45:08Z</time>
      </trkpt>
      <trkpt lat="45.02456" lon="5.64571">
        <ele>385</ele>
        <time>2017-10-22T02:45:17Z</time>
      </trkpt>
      <trkpt lat="45.02377" lon="5.64554">
        <ele>382</ele>
        <time>2017-10-22T02:45:22Z</time>
      </trkpt>
      <trkpt lat="45.02332" lon="5.64536">
        <ele>382</ele>
        <time>2017-10-22T02:45:31Z</time>
      </trkpt>
      <trkpt lat="45.02319" lon="5.6453">
        <ele>383</ele>
        <time>2017-10-22T02:45:33Z</time>
      </trkpt>
      <trkpt lat="45.02299" lon="5.64517">
        <ele>383</ele>
        <time>2017-10-22T02:45:43Z</time>
      </trkpt>
      <trkpt lat="45.02271" lon="5.64495">
        <ele>391</ele>
        <time>2017-10-22T02:45:58Z</time>
      </trkpt>
      <trkpt lat="45.02175" lon="5.64422">
        <ele>393</ele>
        <time>2017-10-22T02:46:04Z</time>
      </trkpt>
      <trkpt lat="45.02099" lon="5.64362">
        <ele>401</ele>
        <time>2017-10-22T02:46:18Z</time>
      </trkpt>
      <trkpt lat="45.02057" lon="5.64327">
        <ele>406</ele>
        <time>2017-10-22T02:46:35Z</time>
      </trkpt>
      <trkpt lat="45.02035" lon="5.64308">
        <ele>408</ele>
        <time>2017-10-22T02:46:37Z</time>
      </trkpt>
      <trkpt lat="45.0202" lon="5.64291">
        <ele>409</ele>
        <time>2017-10-22T02:46:48Z</time>
      </trkpt>
      <trkpt lat="45.02011" lon="5.64284">
        <ele>410</ele>
        <time>2017-10-22T02:47:01Z</time>
      </trkpt>
      <trkpt lat="45.01997" lon="5.64275">
        <ele>410</ele>
        <time>2017-10-22T02:47:09Z</time>
      </trkpt>
      <trkpt lat="45.01956" lon="5.64253">
        <ele>409</ele>
        <time>2017-10-22T02:47:17Z</time>
      </trkpt>
      <trkpt lat="45.01835" lon="5.64185">
        <ele>416</ele>
        <time>2017-10-22T02:47:25Z</time>
      </trkpt>
      <trkpt lat="45.01779" lon="5.64154">
        <ele>423</ele>
        <time>2017-10-22T02:47:35Z</time>
      </trkpt>
      <trkpt lat="45.01757" lon="5.64133">
        <ele>424</ele>
        <time>2017-10-22T02:47:53Z</time>
      </trkpt>
      <trkpt lat="45.01729" lon="5.64105">
        <ele>425</ele>
        <time>2017-10-22T02:48:08Z</time>
      </trkpt>
      <trkpt lat="45.01717" lon="5.64096">
        <ele>425</ele>
        <time>2017-10-22T02:48:18Z</time>
      </trkpt>
      <trkpt lat="45.01698" lon="5.64088">
        <ele>425</ele>
        <time>2017-10-22T02:48:33Z</time>
      </trkpt>
      <trkpt lat="45.01661" lon="5.64076">
        <ele>428</ele>
        <time>2017-10-22T02:48:40Z</time>
      </trkpt>
      <trkpt lat="45.01649" lon="5.64072">
        <ele>429</ele>
        <time>2017-10-22T02:48:45Z</time>
      </trkpt>
      <trkpt lat="45.01638" lon="5.64064">
        <ele>430</ele>
        <time>2017-10-22T02:49:02Z</time>
      </trkpt>
      <trkpt lat="45.01623" lon="5.64053">
        <ele>431</ele>
        <time>2017-10-22T02:49:22Z</time>
      </trkpt>
      <trkpt lat="45.01611" lon="5.6404">
        <ele>432</ele>
        <time>2017-10-22T02:49:41Z</time>
      </trkpt>
      <trkpt lat="45.0159" lon="5.64019">
        <ele>433</ele>
        <time>2017-10-22T02:49:54Z</time>
      </trkpt>
      <trkpt lat="45.01576" lon="5.6401">
        <ele>434</ele>
        <time>2017-10-22T02:50:04Z</time>
      </trkpt>
      <trkpt lat="45.01559" lon="5.64005">
        <ele>433</ele>
        <time>2017-10-22T02:50:20Z</time>
      </trkpt>
      <trkpt lat="45.01519" lon="5.63997">
        <ele>443</ele>
        <time>2017-10-22T02:50:33Z</time>
      </trkpt>
      <trkpt lat="45.01437" lon="5.63982">
        <ele>445</ele>
        <time>2017-10-22T02:50:39Z</time>
      </trkpt>
      <trkpt lat="45.014" lon="5.63977">
        <ele>446</ele>
        <time>2017-10-22T02:50:42Z</time>
      </trkpt>
      <trkpt lat="45.01379" lon="5.63968">
        <ele>447</ele>
        <time>2017-10-22T02:50:56Z</time>
      </trkpt>
      <trkpt lat="45.01368" lon="5.63958">
        <ele>447</ele>
        <time>2017-10-22T02:51:05Z</time>
      </trkpt>
      <trkpt lat="45.01366" lon="5.63953">
        <ele>448</ele>
        <time>2017-10-22T02:51:13Z</time>
      </trkpt>
      <trkpt lat="45.01356" lon="5.63927">
        <ele>449</ele>
        <time>2017-10-22T02:51:18Z</time>
      </trkpt>
      <trkpt lat="45.01349" lon="5.6389">
        <ele>458</ele>
        <time>2017-10-22T02:51:33Z</time>
      </trkpt>
      <trkpt lat="45.01347" lon="5.63878">
        <ele>459</ele>
        <time>2017-10-22T02:51:47Z</time>
      </trkpt>
      <trkpt lat="45.01325" lon="5.63826">
        <ele>467</ele>
        <time>2017-10-22T02:52:07Z</time>
      </trkpt>
      <trkpt lat="45.01308" lon="5.63799">
        <ele>473</ele>
        <time>2017-10-22T02:52:14Z</time>
      </trkpt>
      <trkpt lat="45.0129" lon="5.63784">
        <ele>475</ele>
        <time>2017-10-22T02:52:31Z</time>
      </trkpt>
      <trkpt lat="45.0126" lon="5.63768">
        <ele>478</ele>
        <time>2017-10-22T02:52:41Z</time>
      </trkpt>
      <trkpt lat="45.01229" lon="5.63756">
        <ele>475</ele>
        <time>2017-10-22T02:52:51Z</time>
      </trkpt>
      <trkpt lat="45.01176" lon="5.63744">
        <ele>484</ele>
        <time>2017-10-22T02:53:04Z</time>
      </trkpt>
      <trkpt lat="45.01147" lon="5.63729">
        <ele>483</ele>
        <time>2017-10-22T02:53:19Z</time>
      </trkpt>
      <trkpt lat="45.01127" lon="5.63714">
        <ele>485</ele>
        <time>2017-10-22T02:53:26Z</time>
      </trkpt>
      <trkpt lat="45.01118" lon="5.63706">
        <ele>485</ele>
        <time>2017-10-22T02:53:44Z</time>
      </trkpt>
      <trkpt lat="45.01102" lon="5.63679">
        <ele>488</ele>
        <time>2017-10-22T02:54:03Z</time>
      </trkpt>
      <trkpt lat="45.01048" lon="5.63583">
        <ele>504</ele>
        <time>2017-10-22T02:54:16Z</time>
      </trkpt>
      <trkpt lat="45.01026" lon="5.63545">
        <ele>502</ele>
        <time>2017-10-22T02:54:31Z</time>
      </trkpt>
      <trkpt lat="45.01014" lon="5.63519">
        <ele>502</ele>
        <time>2017-10-22T02:54:39Z</time>
      </trkpt>
      <trkpt lat="45.0101" lon="5.63491">
        <ele>506</ele>
        <time>2017-10-22T02:54:43Z</time>
      </trkpt>
      <trkpt lat="45.01015" lon="5.63429">
        <ele>511</ele>
        <time>2017-10-22T02:55:02Z</time>
      </trkpt>
      <trkpt lat="45.01016" lon="5.63395">
        <ele>515</ele>
        <time>2017-10-22T02:55:12Z</time>
      </trkpt>
      <trkpt lat="45.01011" lon="5.63345">
        <ele>515</ele>
        <time>2017-10-22T02:55:25Z</time>
      </trkpt>
      <trkpt lat="45.01007" lon="5.63319">
        <ele>520</ele>
        <time>2017-10-22T02:55:37Z</time>
      </trkpt>
      <trkpt lat="45.01001" lon="5.63305">
        <ele>523</ele>
        <time>2017-10-22T02:55:45Z</time>
      </trkpt>
      <trkpt lat="45.00993" lon="5.63291">
        <ele>519</ele>
        <time>2017-10-22T02:55:54Z</time>
      </trkpt>
      <trkpt lat="45.00982" lon="5.63284">
        <ele>520</ele>
        <time>2017-10-22T02:56:12Z</time>
      </trkpt>
      <trkpt lat="45.00961" lon="5.63277">
        <ele>521</ele>
        <time>2017-10-22T02:56:30Z</time>
      </trkpt>
      <trkpt lat="45.00896" lon="5.63266">
        <ele>523</ele>
        <time>2017-10-22T02:56:46Z</time>
      </trkpt>
      <trkpt lat="45.0087" lon="5.63263">
        <ele>520</ele>
        <time>2017-10-22T02:56:52Z</time>
      </trkpt>
      <trkpt lat="45.00847" lon="5.6327">
        <ele>519</ele>
        <time>2017-10-22T02:56:56Z</time>
      </trkpt>
      <trkpt lat="45.0084" lon="5.63271">
        <ele>519</ele>
        <time>2017-10-22T02:57:04Z</time>
      </trkpt>
      <trkpt lat="45.00834" lon="5.63269">
        <ele>520</ele>
        <time>2017-10-22T02:57:07Z</time>
      </trkpt>
      <trkpt lat="45.00829" lon="5.63264">
        <ele>516</ele>
        <time>2017-10-22T02:57:18Z</time>
      </trkpt>
      <trkpt lat="45.00826" lon="5.63256">
        <ele>518</ele>
        <time>2017-10-22T02:57:37Z</time>
      </trkpt>
      <trkpt lat="45.00826" lon="5.63245">
        <ele>525</ele>
        <time>2017-10-22T02:57:52Z</time>
      </trkpt>
      <trkpt lat="45.00832" lon="5.63221">
        <ele>527</ele>
        <time>2017-10-22T02:57:55Z</time>
      </trkpt>
      <trkpt lat="45.00835" lon="5.63195">
        <ele>539</ele>
        <time>2017-10-22T02:58:03Z</time>
      </trkpt>
      <trkpt lat="45.00832" lon="5.63168">
        <ele>541</ele>
        <time>2017-10-22T02:58:07Z</time>
      </trkpt>
      <trkpt lat="45.00825" lon="5.63149">
        <ele>546</ele>
        <time>2017-10-22T02:58:16Z</time>
      </trkpt>
      <trkpt lat="45.00813" lon="5.63131">
        <ele>549</ele>
        <time>2017-10-22T02:58:24Z</time>
      </trkpt>
      <trkpt lat="45.00801" lon="5.63122">
        <ele>550</ele>
        <time>2017-10-22T02:58:44Z</time>
      </trkpt>
      <trkpt lat="45.00742" lon="5.63092">
        <ele>547</ele>
        <time>2017-10-22T02:58:59Z</time>
      </trkpt>
      <trkpt lat="45.00723" lon="5.6308">
        <ele>555</ele>
        <time>2017-10-22T02:59:07Z</time>
      </trkpt>
      <trkpt lat="45.00682" lon="5.6304">
        <ele>555</ele>
        <time>2017-10-22T02:59:14Z</time>
      </trkpt>
      <trkpt lat="45.00667" lon="5.63012">
        <ele>558</ele>
        <time>2017-10-22T02:59:22Z</time>
      </trkpt>
      <trkpt lat="45.00654" lon="5.62969">
        <ele>565</ele>
        <time>2017-10-22T02:59:42Z</time>
      </trkpt>
      <trkpt lat="45.00643" lon="5.62919">
        <ele>568</ele>
        <time>2017-10-22T02:59:52Z</time>
      </trkpt>
      <trkpt lat="45.0064" lon="5.629">
        <ele>571</ele>
        <time>2017-10-22T03:00:01Z</time>
      </trkpt>
      <trkpt lat="45.00644" lon="5.62868">
        <ele>572</ele>
        <time>2017-10-22T03:00:06Z</time>
      </trkpt>
      <trkpt lat="45.00647" lon="5.62851">
        <ele>572</ele>
        <time>2017-10-22T03:00:14Z</time>
      </trkpt>
      <trkpt lat="45.00644" lon="5.62837">
        <ele>572</ele>
        <time>2017-10-22T03:00:23Z</time>
      </trkpt>
      <trkpt lat="45.00635" lon="5.62825">
        <ele>576</ele>
        <time>2017-10-22T03:00:29Z</time>
      </trkpt>
      <trkpt lat="45.00626" lon="5.62817">
        <ele>577</ele>
        <time>2017-10-22T03:00:40Z</time>
      </trkpt>
      <trkpt lat="45.00615" lon="5.62809">
        <ele>577</ele>
        <time>2017-10-22T03:00:49Z</time>
      </trkpt>
      <trkpt lat="45.00605" lon="5.62811">
        <ele>577</ele>
        <time>2017-10-22T03:00:53Z</time>
      </trkpt>
      <trkpt lat="45.00598" lon="5.62818">
        <ele>577</ele>
        <time>2017-10-22T03:00:59Z</time>
      </trkpt>
      <trkpt lat="45.00593" lon="5.62829">
        <ele>576</ele>
        <time>2017-10-22T03:01:17Z</time>
      </trkpt>
      <trkpt lat="45.0058" lon="5.62867">
        <ele>582</ele>
        <time>2017-10-22T03:01:29Z</time>
      </trkpt>
      <trkpt lat="45.00573" lon="5.62912">
        <ele>578</ele>
        <time>2017-10-22T03:01:31Z</time>
      </trkpt>
      <trkpt lat="45.0057" lon="5.62967">
        <ele>579</ele>
        <time>2017-10-22T03:01:47Z</time>
      </trkpt>
      <trkpt lat="45.00567" lon="5.62998">
        <ele>577</ele>
        <time>2017-10-22T03:02:03Z</time>
      </trkpt>
      <trkpt lat="45.0056" lon="5.63024">
        <ele>575</ele>
        <time>2017-10-22T03:02:22Z</time>
      </trkpt>
      <trkpt lat="45.00532" lon="5.63097">
        <ele>565</ele>
        <time>2017-10-22T03:02:41Z</time>
      </trkpt>
      <trkpt lat="45.00527" lon="5.63102">
        <ele>566</ele>
        <time>2017-10-22T03:02:59Z</time>
      </trkpt>
      <trkpt lat="45.00521" lon="5.63105">
        <ele>567</ele>
        <time>2017-10-22T03:03:12Z</time>
      </trkpt>
      <trkpt lat="45.00515" lon="5.63105">
        <ele>568</ele>
        <time>2017-10-22T03:03:27Z</time>
      </trkpt>
      <trkpt lat="45.00504" lon="5.631">
        <ele>572</ele>
        <time>2017-10-22T03:03:33Z</time>
      </trkpt>
      <trkpt lat="45.00455" lon="5.63048">
        <ele>585</ele>
        <time>2017-10-22T03:03:47Z</time>
      </trkpt>
      <trkpt lat="45.00444" lon="5.63027">
        <ele>586</ele>
        <time>2017-10-22T03:03:55Z</time>
      </trkpt>
      <trkpt lat="45.00441" lon="5.63008">
        <ele>587</ele>
        <time>2017-10-22T03:04:07Z</time>
      </trkpt>
      <trkpt lat="45.00441" lon="5.62971">
        <ele>594</ele>
        <time>2017-10-22T03:04:17Z</time>
      </trkpt>
      <trkpt lat="45.00439" lon="5.62946">
        <ele>595</ele>
        <time>2017-10-22T03:04:28Z</time>
      </trkpt>
      <trkpt lat="45.00434" lon="5.62934">
        <ele>596</ele>
        <time>2017-10-22T03:04:36Z</time>
      </trkpt>
      <trkpt lat="45.00428" lon="5.62925">
        <ele>597</ele>
        <time>2017-10-22T03:04:51Z</time>
      </trkpt>
      <trkpt lat="45.0042" lon="5.62918">
        <ele>598</ele>
        <time>2017-10-22T03:05:00Z</time>
      </trkpt>
      <trkpt lat="45.00409" lon="5.62917">
        <ele>599</ele>
        <time>2017-10-22T03:05:04Z</time>
      </trkpt>
      <trkpt lat="45.004" lon="5.62922">
        <ele>599</ele>
        <time>2017-10-22T03:05:21Z</time>
      </trkpt>
      <trkpt lat="45.00378" lon="5.62947">
        <ele>598</ele>
        <time>2017-10-22T03:05:33Z</time>
      </trkpt>
      <trkpt lat="45.00357" lon="5.62969">
        <ele>598</ele>
        <time>2017-10-22T03:05:49Z</time>
      </trkpt>
      <trkpt lat="45.00335" lon="5.63">
        <ele>598</ele>
        <time>2017-10-22T03:06:00Z</time>
      </trkpt>
      <trkpt lat="45.0032" lon="5.63016">
        <ele>595</ele>
        <time>2017-10-22T03:06:04Z</time>
      </trkpt>
      <trkpt lat="45.00307" lon="5.63024">
        <ele>595</ele>
        <time>2017-10-22T03:06:21Z</time>
      </trkpt>
      <trkpt lat="45.00288" lon="5.6303">
        <ele>595</ele>
        <time>2017-10-22T03:06:35Z</time>
      </trkpt>
      <trkpt lat="45.00278" lon="5.6303">
        <ele>595</ele>
        <time>2017-10-22T03:06:37Z</time>
      </trkpt>
      <trkpt lat="45.00265" lon="5.63025">
        <ele>596</ele>
        <time>2017-10-22T03:06:57Z</time>
      </trkpt>
      <trkpt lat="45.00238" lon="5.63006">
        <ele>602</ele>
        <time>2017-10-22T03:07:17Z</time>
      </trkpt>
      <trkpt lat="45.00131" lon="5.62957">
        <ele>613</ele>
        <time>2017-10-22T03:07:25Z</time>
      </trkpt>
      <trkpt lat="45.00119" lon="5.62953">
        <ele>614</ele>
        <time>2017-10-22T03:07:39Z</time>
      </trkpt>
      <trkpt lat="45.00107" lon="5.62954">
        <ele>614</ele>
        <time>2017-10-22T03:07:56Z</time>
      </trkpt>
      <trkpt lat="45.00078" lon="5.62964">
        <ele>618</ele>
        <time>2017-10-22T03:08:03Z</time>
      </trkpt>
      <trkpt lat="45.00065" lon="5.62968">
        <ele>618</ele>
        <time>2017-10-22T03:08:18Z</time>
      </trkpt>
      <trkpt lat="45.00055" lon="5.62967">
        <ele>618</ele>
        <time>2017-10-22T03:08:24Z</time>
      </trkpt>
      <trkpt lat="45.0003" lon="5.62956">
        <ele>619</ele>
        <time>2017-10-22T03:08:34Z</time>
      </trkpt>
      <trkpt lat="45.00002" lon="5.62942">
        <ele>620</ele>
        <time>2017-10-22T03:08:50Z</time>
      </trkpt>
      <trkpt lat="44.99992" lon="5.62939">
        <ele>623</ele>
        <time>2017-10-22T03:08:55Z</time>
      </trkpt>
      <trkpt lat="44.99959" lon="5.62945">
        <ele>624</ele>
        <time>2017-10-22T03:09:11Z</time>
      </trkpt>
      <trkpt lat="44.99917" lon="5.62954">
        <ele>625</ele>
        <time>2017-10-22T03:09:21Z</time>
      </trkpt>
      <trkpt lat="44.99899" lon="5.62957">
        <ele>627</ele>
        <time>2017-10-22T03:09:30Z</time>
      </trkpt>
      <trkpt lat="44.99882" lon="5.62956">
        <ele>627</ele>
        <time>2017-10-22T03:09:36Z</time>
      </trkpt>
      <trkpt lat="44.99834" lon="5.62944">
        <ele>629</ele>
        <time>2017-10-22T03:09:55Z</time>
      </trkpt>
      <trkpt lat="44.99796" lon="5.62927">
        <ele>630</ele>
        <time>2017-10-22T03:10:12Z</time>
      </trkpt>
      <trkpt lat="44.99776" lon="5.62911">
        <ele>634</ele>
        <time>2017-10-22T03:10:19Z</time>
      </trkpt>
      <trkpt lat="44.99755" lon="5.62888">
        <ele>634</ele>
        <time>2017-10-22T03:10:29Z</time>
      </trkpt>
      <trkpt lat="44.99716" lon="5.6282">
        <ele>639</ele>
        <time>2017-10-22T03:10:43Z</time>
      </trkpt>
      <trkpt lat="44.99698" lon="5.62792">
        <ele>640</ele>
        <time>2017-10-22T03:10:48Z</time>
      </trkpt>
      <trkpt lat="44.99684" lon="5.62781">
        <ele>641</ele>
        <time>2017-10-22T03:10:54Z</time>
      </trkpt>
      <trkpt lat="44.99652" lon="5.62766">
        <ele>643</ele>
        <time>2017-10-22T03:10:56Z</time>
      </trkpt>
      <trkpt lat="44.99514" lon="5.62715">
        <ele>649</ele>
        <time>2017-10-22T03:10:59Z</time>
      </trkpt>
      <trkpt lat="44.99463" lon="5.62688">
        <ele>650</ele>
        <time>2017-10-22T03:11:03Z</time>
      </trkpt>
      <trkpt lat="44.99411" lon="5.62658">
        <ele>654</ele>
        <time>2017-10-22T03:11:20Z</time>
      </trkpt>
      <trkpt lat="44.99349" lon="5.62622">
        <ele>657</ele>
        <time>2017-10-22T03:11:34Z</time>
      </trkpt>
      <trkpt lat="44.99268" lon="5.62557">
        <ele>662</ele>
        <time>2017-10-22T03:11:52Z</time>
      </trkpt>
      <trkpt lat="44.99156" lon="5.62465">
        <ele>668</ele>
        <time>2017-10-22T03:11:58Z</time>
      </trkpt>
      <trkpt lat="44.99101" lon="5.62406">
        <ele>673</ele>
        <time>2017-10-22T03:12:04Z</time>
      </trkpt>
      <trkpt lat="44.99055" lon="5.62358">
        <ele>673</ele>
        <time>2017-10-22T03:12:24Z</time>
      </trkpt>
      <trkpt lat="44.99007" lon="5.62322">
        <ele>679</ele>
        <time>2017-10-22T03:12:30Z</time>
      </trkpt>
      <trkpt lat="44.98965" lon="5.62294">
        <ele>678</ele>
        <time>2017-10-22T03:12:35Z</time>
      </trkpt>
      <trkpt lat="44.98948" lon="5.62276">
        <ele>678</ele>
        <time>2017-10-22T03:12:51Z</time>
      </trkpt>
      <trkpt lat="44.98939" lon="5.62253">
        <ele>679</ele>
        <time>2017-10-22T03:12:56Z</time>
      </trkpt>
      <trkpt lat="44.98929" lon="5.62216">
        <ele>689</ele>
        <time>2017-10-22T03:13:14Z</time>
      </trkpt>
      <trkpt lat="44.98919" lon="5.62189">
        <ele>692</ele>
        <time>2017-10-22T03:13:23Z</time>
      </trkpt>
      <trkpt lat="44.98915" lon="5.62183">
        <ele>690</ele>
        <time>2017-10-22T03:13:35Z</time>
      </trkpt>
      <trkpt lat="44.98903" lon="5.62174">
        <ele>691</ele>
        <time>2017-10-22T03:13:54Z</time>
      </trkpt>
      <trkpt lat="44.98896" lon="5.62172">
        <ele>690</ele>
        <time>2017-10-22T03:13:56Z</time>
      </trkpt>
      <trkpt lat="44.98889" lon="5.62175">
        <ele>689</ele>
        <time>2017-10-22T03:14:14Z</time>
      </trkpt>
      <trkpt lat="44.98879" lon="5.62186">
        <ele>688</ele>
        <time>2017-10-22T03:14:30Z</time>
      </trkpt>
      <trkpt lat="44.98864" lon="5.62215">
        <ele>686</ele>
        <time>2017-10-22T03:14:46Z</time>
      </trkpt>
      <trkpt lat="44.98856" lon="5.62225">
        <ele>685</ele>
        <time>2017-10-22T03:15:00Z</time>
      </trkpt>
      <trkpt lat="44.98847" lon="5.62231">
        <ele>684</ele>
        <time>2017-10-22T03:15:14Z</time>
      </trkpt>
      <trkpt lat="44.98834" lon="5.62231">
        <ele>683</ele>
        <time>2017-10-22T03:15:23Z</time>
      </trkpt>
      <trkpt lat="44.98822" lon="5.62225">
        <ele>684</ele>
        <time>2017-10-22T03:15:26Z</time>
      </trkpt>
      <trkpt lat="44.98817" lon="5.6222">
        <ele>685</ele>
        <time>2017-10-22T03:15:44Z</time>
      </trkpt>
      <trkpt lat="44.98809" lon="5.62206">
        <ele>687</ele>
        <time>2017-10-22T03:15:47Z</time>
      </trkpt>
      <trkpt lat="44.98804" lon="5.62196">
        <ele>688</ele>
        <time>2017-10-22T03:15:54Z</time>
      </trkpt>
      <trkpt lat="44.98792" lon="5.62176">
        <ele>689</ele>
        <time>2017-10-22T03:16:05Z</time>
      </trkpt>
      <trkpt lat="44.98777" lon="5.62157">
        <ele>696</ele>
        <time>2017-10-22T03:16:16Z</time>
      </trkpt>
      <trkpt lat="44.9876" lon="5.6214">
        <ele>697</ele>
        <time>2017-10-22T03:16:23Z</time>
      </trkpt>
      <trkpt lat="44.9874" lon="5.6211">
        <ele>700</ele>
        <time>2017-10-22T03:16:43Z</time>
      </trkpt>
      <trkpt lat="44.98729" lon="5.62095">
        <ele>700</ele>
        <time>2017-10-22T03:16:56Z</time>
      </trkpt>
      <trkpt lat="44.98715" lon="5.62091">
        <ele>701</ele>
        <time>2017-10-22T03:17:05Z</time>
      </trkpt>
      <trkpt lat="44.98707" lon="5.62089">
        <ele>701</ele>
        <time>2017-10-22T03:17:22Z</time>
      </trkpt>
      <trkpt lat="44.98701" lon="5.62091">
        <ele>702</ele>
        <time>2017-10-22T03:17:42Z</time>
      </trkpt>
      <trkpt lat="44.98693" lon="5.62098">
        <ele>702</ele>
        <time>2017-10-22T03:17:47Z</time>
      </trkpt>
      <trkpt lat="44.98688" lon="5.6212">
        <ele>701</ele>
        <time>2017-10-22T03:17:56Z</time>
      </trkpt>
      <trkpt lat="44.98686" lon="5.62169">
        <ele>695</ele>
        <time>2017-10-22T03:18:02Z</time>
      </trkpt>
      <trkpt lat="44.98688" lon="5.62195">
        <ele>693</ele>
        <time>2017-10-22T03:18:21Z</time>
      </trkpt>
      <trkpt lat="44.98684" lon="5.62223">
        <ele>692</ele>
        <time>2017-10-22T03:18:24Z</time>
      </trkpt>
      <trkpt lat="44.98674" lon="5.62242">
        <ele>693</ele>
        <time>2017-10-22T03:18:35Z</time>
      </trkpt>
      <trkpt lat="44.98654" lon="5.62258">
        <ele>694</ele>
        <time>2017-10-22T03:18:49Z</time>
      </trkpt>
      <trkpt lat="44.98633" lon="5.6227">
        <ele>694</ele>
        <time>2017-10-22T03:18:51Z</time>
      </trkpt>
      <trkpt lat="44.98602" lon="5.62281">
        <ele>696</ele>
        <time>2017-10-22T03:19:11Z</time>
      </trkpt>
      <trkpt lat="44.98495" lon="5.62313">
        <ele>701</ele>
        <time>2017-10-22T03:19:29Z</time>
      </trkpt>
      <trkpt lat="44.98471" lon="5.62318">
        <ele>702</ele>
        <time>2017-10-22T03:19:45Z</time>
      </trkpt>
      <trkpt lat="44.98463" lon="5.62317">
        <ele>702</ele>
        <time>2017-10-22T03:20:05Z</time>
      </trkpt>
      <trkpt lat="44.98455" lon="5.62313">
        <ele>703</ele>
        <time>2017-10-22T03:20:21Z</time>
      </trkpt>
      <trkpt lat="44.98441" lon="5.62299">
        <ele>704</ele>
        <time>2017-10-22T03:20:32Z</time>
      </trkpt>
      <trkpt lat="44.98424" lon="5.62284">
        <ele>705</ele>
        <time>2017-10-22T03:20:48Z</time>
      </trkpt>
      <trkpt lat="44.98413" lon="5.62276">
        <ele>708</ele>
        <time>2017-10-22T03:20:53Z</time>
      </trkpt>
      <trkpt lat="44.98406" lon="5.62273">
        <ele>708</ele>
        <time>2017-10-22T03:21:09Z</time>
      </trkpt>
      <trkpt lat="44.98387" lon="5.62274">
        <ele>708</ele>
        <time>2017-10-22T03:21:22Z</time>
      </trkpt>
      <trkpt lat="44.9835" lon="5.6228">
        <ele>708</ele>
        <time>2017-10-22T03:21:38Z</time>
      </trkpt>
      <trkpt lat="44.98293" lon="5.62293">
        <ele>711</ele>
        <time>2017-10-22T03:21:42Z</time>
      </trkpt>
      <trkpt lat="44.98262" lon="5.62298">
        <ele>711</ele>
        <time>2017-10-22T03:22:01Z</time>
      </trkpt>
      <trkpt lat="44.98211" lon="5.62305">
        <ele>715</ele>
        <time>2017-10-22T03:22:05Z</time>
      </trkpt>
      <trkpt lat="44.98174" lon="5.62305">
        <ele>716</ele>
        <time>2017-10-22T03:22:13Z</time>
      </trkpt>
      <trkpt lat="44.98152" lon="5.62305">
        <ele>717</ele>
        <time>2017-10-22T03:22:22Z</time>
      </trkpt>
      <trkpt lat="44.98118" lon="5.62305">
        <ele>717</ele>
        <time>2017-10-22T03:22:24Z</time>
      </trkpt>
      <trkpt lat="44.98102" lon="5.62302">
        <ele>717</ele>
        <time>2017-10-22T03:22:33Z</time>
      </trkpt>
      <trkpt lat="44.98085" lon="5.62294">
        <ele>717</ele>
        <time>2017-10-22T03:22:41Z</time>
      </trkpt>
      <trkpt lat="44.98042" lon="5.62265">
        <ele>716</ele>
        <time>2017-10-22T03:22:57Z</time>
      </trkpt>
      <trkpt lat="44.98016" lon="5.62246">
        <ele>722</ele>
        <time>2017-10-22T03:23:07Z</time>
      </trkpt>
      <trkpt lat="44.97985" lon="5.62217">
        <ele>722</ele>
        <time>2017-10-22T03:23:22Z</time>
      </trkpt>
      <trkpt lat="44.97963" lon="5.62196">
        <ele>723</ele>
        <time>2017-10-22T03:23:41Z</time>
      </trkpt>
      <trkpt lat="44.97948" lon="5.62187">
        <ele>723</ele>
        <time>2017-10-22T03:23:50Z</time>
      </trkpt>
      <trkpt lat="44.97933" lon="5.62183">
        <ele>724</ele>
        <time>2017-10-22T03:24:01Z</time>
      </trkpt>
      <trkpt lat="44.97906" lon="5.62182">
        <ele>723</ele>
        <time>2017-10-22T03:24:12Z</time>
      </trkpt>
      <trkpt lat="44.97857" lon="5.6218">
        <ele>722</ele>
        <time>2017-10-22T03:24:27Z</time>
      </trkpt>
      <trkpt lat="44.97746" lon="5.62175">
        <ele>727</ele>
        <time>2017-10-22T03:24:45Z</time>
      </trkpt>
      <trkpt lat="44.97702" lon="5.6217">
        <ele>726</ele>
        <time>2017-10-22T03:25:05Z</time>
      </trkpt>
      <trkpt lat="44.97686" lon="5.62167">
        <ele>727</ele>
        <time>2017-10-22T03:25:25Z</time>
      </trkpt>
      <trkpt lat="44.97667" lon="5.62161">
        <ele>732</ele>
        <time>2017-10-22T03:25:40Z</time>
      </trkpt>
      <trkpt lat="44.97626" lon="5.62131">
        <ele>738</ele>
        <time>2017-10-22T03:25:45Z</time>
      </trkpt>
      <trkpt lat="44.97608" lon="5.6212">
        <ele>739</ele>
        <time>2017-10-22T03:26:04Z</time>
      </trkpt>
      <trkpt lat="44.9759" lon="5.62114">
        <ele>740</ele>
        <time>2017-10-22T03:26:22Z</time>
      </trkpt>
      <trkpt lat="44.97565" lon="5.6211">
        <ele>743</ele>
        <time>2017-10-22T03:26:41Z</time>
      </trkpt>
      <trkpt lat="44.97511" lon="5.621">
        <ele>748</ele>
        <time>2017-10-22T03:26:46Z</time>
      </trkpt>
      <trkpt lat="44.97484" lon="5.62096">
        <ele>749</ele>
        <time>2017-10-22T03:27:06Z</time>
      </trkpt>
      <trkpt lat="44.97474" lon="5.62094">
        <ele>749</ele>
        <time>2017-10-22T03:27:09Z</time>
      </trkpt>
      <trkpt lat="44.97451" lon="5.62087">
        <ele>749</ele>
        <time>2017-10-22T03:27:25Z</time>
      </trkpt>
      <trkpt lat="44.97428" lon="5.62076">
        <ele>758</ele>
        <time>2017-10-22T03:27:39Z</time>
      </trkpt>
      <trkpt lat="44.97403" lon="5.62069">
        <ele>757</ele>
        <time>2017-10-22T03:27:58Z</time>
      </trkpt>
      <trkpt lat="44.97381" lon="5.62061">
        <ele>758</ele>
        <time>2017-10-22T03:28:02Z</time>
      </trkpt>
      <trkpt lat="44.97355" lon="5.62052">
        <ele>757</ele>
        <time>2017-10-22T03:28:20Z</time>
      </trkpt>
      <trkpt lat="44.97332" lon="5.62036">
        <ele>756</ele>
        <time>2017-10-22T03:28:39Z</time>
      </trkpt>
      <trkpt lat="44.97322" lon="5.62021">
        <ele>758</ele>
        <time>2017-10-22T03:28:57Z</time>
      </trkpt>
      <trkpt lat="44.97317" lon="5.62006">
        <ele>760</ele>
        <time>2017-10-22T03:29:10Z</time>
      </trkpt>
      <trkpt lat="44.97309" lon="5.6198">
        <ele>768</ele>
        <time>2017-10-22T03:29:22Z</time>
      </trkpt>
      <trkpt lat="44.97299" lon="5.61966">
        <ele>769</ele>
        <time>2017-10-22T03:29:28Z</time>
      </trkpt>
      <trkpt lat="44.97283" lon="5.61954">
        <ele>770</ele>
        <time>2017-10-22T03:29:39Z</time>
      </trkpt>
      <trkpt lat="44.97269" lon="5.61949">
        <ele>770</ele>
        <time>2017-10-22T03:29:44Z</time>
      </trkpt>
      <trkpt lat="44.97256" lon="5.61948">
        <ele>770</ele>
        <time>2017-10-22T03:30:01Z</time>
      </trkpt>
      <trkpt lat="44.97238" lon="5.61949">
        <ele>765</ele>
        <time>2017-10-22T03:30:20Z</time>
      </trkpt>
      <trkpt lat="44.97218" lon="5.61952">
        <ele>764</ele>
        <time>2017-10-22T03:30:31Z</time>
      </trkpt>
      <trkpt lat="44.97211" lon="5.61948">
        <ele>763</ele>
        <time>2017-10-22T03:30:46Z</time>
      </trkpt>
      <trkpt lat="44.97208" lon="5.61941">
        <ele>763</ele>
        <time>2017-10-22T03:31:00Z</time>
      </trkpt>
      <trkpt lat="44.97211" lon="5.61929">
        <ele>764</ele>
        <time>2017-10-22T03:31:06Z</time>
      </trkpt>
      <trkpt lat="44.97219" lon="5.61922">
        <ele>765</ele>
        <time>2017-10-22T03:31:22Z</time>
      </trkpt>
      <trkpt lat="44.97234" lon="5.61914">
        <ele>773</ele>
        <time>2017-10-22T03:31:35Z</time>
      </trkpt>
      <trkpt lat="44.97258" lon="5.61884">
        <ele>780</ele>
        <time>2017-10-22T03:31:46Z</time>
      </trkpt>
      <trkpt lat="44.97278" lon="5.61857">
        <ele>783</ele>
        <time>2017-10-22T03:31:58Z</time>
      </trkpt>
      <trkpt lat="44.97311" lon="5.61823">
        <ele>790</ele>
        <time>2017-10-22T03:32:15Z</time>
      </trkpt>
      <trkpt lat="44.97356" lon="5.61803">
        <ele>791</ele>
        <time>2017-10-22T03:32:28Z</time>
      </trkpt>
      <trkpt lat="44.97368" lon="5.61795">
        <ele>791</ele>
        <time>2017-10-22T03:32:38Z</time>
      </trkpt>
      <trkpt lat="44.9737" lon="5.61789">
        <ele>792</ele>
        <time>2017-10-22T03:32:48Z</time>
      </trkpt>
      <trkpt lat="44.97371" lon="5.61773">
        <ele>793</ele>
        <time>2017-10-22T03:33:06Z</time>
      </trkpt>
      <trkpt lat="44.97368" lon="5.61769">
        <ele>793</ele>
        <time>2017-10-22T03:33:14Z</time>
      </trkpt>
      <trkpt lat="44.97362" lon="5.61765">
        <ele>793</ele>
        <time>2017-10-22T03:33:24Z</time>
      </trkpt>
      <trkpt lat="44.97319" lon="5.61768">
        <ele>794</ele>
        <time>2017-10-22T03:33:38Z</time>
      </trkpt>
      <trkpt lat="44.97282" lon="5.61775">
        <ele>793</ele>
        <time>2017-10-22T03:33:49Z</time>
      </trkpt>
      <trkpt lat="44.9726" lon="5.61782">
        <ele>793</ele>
        <time>2017-10-22T03:34:00Z</time>
      </trkpt>
      <trkpt lat="44.97244" lon="5.61781">
        <ele>785</ele>
        <time>2017-10-22T03:34:04Z</time>
      </trkpt>
      <trkpt lat="44.97233" lon="5.61772">
        <ele>785</ele>
        <time>2017-10-22T03:34:22Z</time>
      </trkpt>
      <trkpt lat="44.97226" lon="5.61759">
        <ele>785</ele>
        <time>2017-10-22T03:34:42Z</time>
      </trkpt>
      <trkpt lat="44.97222" lon="5.6174">
        <ele>785</ele>
        <time>2017-10-22T03:34:58Z</time>
      </trkpt>
      <trkpt lat="44.97223" lon="5.61722">
        <ele>784</ele>
        <time>2017-10-22T03:35:14Z</time>
      </trkpt>
      <trkpt lat="44.97231" lon="5.61678">
        <ele>788</ele>
        <time>2017-10-22T03:35:19Z</time>
      </trkpt>
      <trkpt lat="44.97236" lon="5.61661">
        <ele>791</ele>
        <time>2017-10-22T03:35:36Z</time>
      </trkpt>
      <trkpt lat="44.97244" lon="5.61646">
        <ele>790</ele>
        <time>2017-10-22T03:35:41Z</time>
      </trkpt>
      <trkpt lat="44.97251" lon="5.61627">
        <ele>807</ele>
        <time>2017-10-22T03:35:52Z</time>
      </trkpt>
      <trkpt lat="44.9726" lon="5.61619">
        <ele>808</ele>
        <time>2017-10-22T03:36:12Z</time>
      </trkpt>
      <trkpt lat="44.97268" lon="5.61614">
        <ele>809</ele>
        <time>2017-10-22T03:36:31Z</time>
      </trkpt>
      <trkpt lat="44.9728" lon="5.61617">
        <ele>810</ele>
        <time>2017-10-22T03:36:38Z</time>
      </trkpt>
      <trkpt lat="44.97306" lon="5.61633">
        <ele>812</ele>
        <time>2017-10-22T03:36:54Z</time>
      </trkpt>
      <trkpt lat="44.97317" lon="5.61635">
        <ele>813</ele>
        <time>2017-10-22T03:36:57Z</time>
      </trkpt>
      <trkpt lat="44.97322" lon="5.61634">
        <ele>813</ele>
        <time>2017-10-22T03:37:02Z</time>
      </trkpt>
      <trkpt lat="44.97332" lon="5.61631">
        <ele>814</ele>
        <time>2017-10-22T03:37:06Z</time>
      </trkpt>
      <trkpt lat="44.97344" lon="5.61623">
        <ele>823</ele>
        <time>2017-10-22T03:37:11Z</time>
      </trkpt>
      <trkpt lat="44.97366" lon="5.61593">
        <ele>826</ele>
        <time>2017-10-22T03:37:20Z</time>
      </trkpt>
      <trkpt lat="44.97375" lon="5.6158">
        <ele>837</ele>
        <time>2017-10-22T03:37:26Z</time>
      </trkpt>
      <trkpt lat="44.9738" lon="5.61578">
        <ele>838</ele>
        <time>2017-10-22T03:37:32Z</time>
      </trkpt>
      <trkpt lat="44.97389" lon="5.61573">
        <ele>838</ele>
        <time>2017-10-22T03:37:46Z</time>
      </trkpt>
      <trkpt lat="44.97403" lon="5.61571">
        <ele>838</ele>
        <time>2017-10-22T03:37:54Z</time>
      </trkpt>
      <trkpt lat="44.97418" lon="5.61576">
        <ele>839</ele>
        <time>2017-10-22T03:38:01Z</time>
      </trkpt>
      <trkpt lat="44.97434" lon="5.61584">
        <ele>832</ele>
        <time>2017-10-22T03:38:11Z</time>
      </trkpt>
      <trkpt lat="44.97447" lon="5.61587">
        <ele>832</ele>
        <time>2017-10-22T03:38:16Z</time>
      </trkpt>
      <trkpt lat="44.97452" lon="5.61586">
        <ele>832</ele>
        <time>2017-10-22T03:38:31Z</time>
      </trkpt>
      <trkpt lat="44.97458" lon="5.61581">
        <ele>844</ele>
        <time>2017-10-22T03:38:51Z</time>
      </trkpt>
      <trkpt lat="44.9746" lon="5.61574">
        <ele>844</ele>
        <time>2017-10-22T03:39:04Z</time>
      </trkpt>
      <trkpt lat="44.9746" lon="5.61566">
        <ele>845</ele>
        <time>2017-10-22T03:39:12Z</time>
      </trkpt>
      <trkpt lat="44.97453" lon="5.61556">
        <ele>846</ele>
        <time>2017-10-22T03:39:22Z</time>
      </trkpt>
      <trkpt lat="44.97445" lon="5.61553">
        <ele>845</ele>
        <time>2017-10-22T03:39:41Z</time>
      </trkpt>
      <trkpt lat="44.97432" lon="5.61546">
        <ele>846</ele>
        <time>2017-10-22T03:39:54Z</time>
      </trkpt>
      <trkpt lat="44.97407" lon="5.61526">
        <ele>844</ele>
        <time>2017-10-22T03:40:05Z</time>
      </trkpt>
      <trkpt lat="44.97328" lon="5.61482">
        <ele>846</ele>
        <time>2017-10-22T03:40:11Z</time>
      </trkpt>
      <trkpt lat="44.97309" lon="5.61463">
        <ele>848</ele>
        <time>2017-10-22T03:40:17Z</time>
      </trkpt>
      <trkpt lat="44.9729" lon="5.61432">
        <ele>850</ele>
        <time>2017-10-22T03:40:34Z</time>
      </trkpt>
      <trkpt lat="44.97264" lon="5.61395">
        <ele>863</ele>
        <time>2017-10-22T03:40:37Z</time>
      </trkpt>
      <trkpt lat="44.97222" lon="5.61346">
        <ele>856</ele>
        <time>2017-10-22T03:40:47Z</time>
      </trkpt>
      <trkpt lat="44.97191" lon="5.61314">
        <ele>866</ele>
        <time>2017-10-22T03:41:00Z</time>
      </trkpt>
      <trkpt lat="44.97183" lon="5.61302">
        <ele>867</ele>
        <time>2017-10-22T03:41:17Z</time>
      </trkpt>
      <trkpt lat="44.9718" lon="5.61293">
        <ele>868</ele>
        <time>2017-10-22T03:41:33Z</time>
      </trkpt>
      <trkpt lat="44.97182" lon="5.61284">
        <ele>870</ele>
        <time>2017-10-22T03:41:42Z</time>
      </trkpt>
      <trkpt lat="44.97187" lon="5.61279">
        <ele>871</ele>
        <time>2017-10-22T03:42:02Z</time>
      </trkpt>
      <trkpt lat="44.97192" lon="5.61278">
        <ele>871</ele>
        <time>2017-10-22T03:42:17Z</time>
      </trkpt>
      <trkpt lat="44.97199" lon="5.61282">
        <ele>872</ele>
        <time>2017-10-22T03:42:31Z</time>
      </trkpt>
      <trkpt lat="44.97219" lon="5.61306">
        <ele>872</ele>
        <time>2017-10-22T03:42:39Z</time>
      </trkpt>
      <trkpt lat="44.97234" lon="5.61316">
        <ele>872</ele>
        <time>2017-10-22T03:42:44Z</time>
      </trkpt>
      <trkpt lat="44.97279" lon="5.61337">
        <ele>872</ele>
        <time>2017-10-22T03:42:50Z</time>
      </trkpt>
      <trkpt lat="44.97304" lon="5.6136">
        <ele>872</ele>
        <time>2017-10-22T03:43:01Z</time>
      </trkpt>
      <trkpt lat="44.97312" lon="5.61364">
        <ele>872</ele>
        <time>2017-10-22T03:43:08Z</time>
      </trkpt>
      <trkpt lat="44.97318" lon="5.61361">
        <ele>873</ele>
        <time>2017-10-22T03:43:20Z</time>
      </trkpt>
      <trkpt lat="44.97322" lon="5.61354">
        <ele>875</ele>
        <time>2017-10-22T03:43:24Z</time>
      </trkpt>
      <trkpt lat="44.97323" lon="5.61346">
        <ele>877</ele>
        <time>2017-10-22T03:43:41Z</time>
      </trkpt>
      <trkpt lat="44.9732" lon="5.61335">
        <ele>878</ele>
        <time>2017-10-22T03:43:50Z</time>
      </trkpt>
      <trkpt lat="44.97299" lon="5.61326">
        <ele>885</ele>
        <time>2017-10-22T03:44:10Z</time>
      </trkpt>
      <trkpt lat="44.97285" lon="5.61316">
        <ele>885</ele>
        <time>2017-10-22T03:44:22Z</time>
      </trkpt>
      <trkpt lat="44.9722" lon="5.61217">
        <ele>890</ele>
        <time>2017-10-22T03:44:26Z</time>
      </trkpt>
      <trkpt lat="44.97196" lon="5.61176">
        <ele>889</ele>
        <time>2017-10-22T03:44:45Z</time>
      </trkpt>
      <trkpt lat="44.97189" lon="5.61147">
        <ele>896</ele>
        <time>2017-10-22T03:44:58Z</time>
      </trkpt>
      <trkpt lat="44.97183" lon="5.61106">
        <ele>898</ele>
        <time>2017-10-22T03:45:08Z</time>
      </trkpt>
      <trkpt lat="44.97177" lon="5.61088">
        <ele>895</ele>
        <time>2017-10-22T03:45:15Z</time>
      </trkpt>
      <trkpt lat="44.9717" lon="5.61074">
        <ele>897</ele>
        <time>2017-10-22T03:45:35Z</time>
      </trkpt>
      <trkpt lat="44.97154" lon="5.61056">
        <ele>887</ele>
        <time>2017-10-22T03:45:45Z</time>
      </trkpt>
      <trkpt lat="44.9711" lon="5.6101">
        <ele>884</ele>
        <time>2017-10-22T03:46:00Z</time>
      </trkpt>
      <trkpt lat="44.97087" lon="5.60981">
        <ele>890</ele>
        <time>2017-10-22T03:46:04Z</time>
      </trkpt>
      <trkpt lat="44.97057" lon="5.60969">
        <ele>881</ele>
        <time>2017-10-22T03:46:17Z</time>
      </trkpt>
      <trkpt lat="44.97035" lon="5.60962">
        <ele>880</ele>
        <time>2017-10-22T03:46:33Z</time>
      </trkpt>
      <trkpt lat="44.97027" lon="5.60955">
        <ele>879</ele>
        <time>2017-10-22T03:46:42Z</time>
      </trkpt>
      <trkpt lat="44.97023" lon="5.60947">
        <ele>879</ele>
        <time>2017-10-22T03:46:49Z</time>
      </trkpt>
      <trkpt lat="44.97018" lon="5.60921">
        <ele>878</ele>
        <time>2017-10-22T03:47:00Z</time>
      </trkpt>
      <trkpt lat="44.9701" lon="5.60876">
        <ele>882</ele>
        <time>2017-10-22T03:47:04Z</time>
      </trkpt>
      <trkpt lat="44.97" lon="5.60844">
        <ele>874</ele>
        <time>2017-10-22T03:47:12Z</time>
      </trkpt>
      <trkpt lat="44.96984" lon="5.60816">
        <ele>875</ele>
        <time>2017-10-22T03:47:24Z</time>
      </trkpt>
      <trkpt lat="44.9693" lon="5.60756">
        <ele>872</ele>
        <time>2017-10-22T03:47:38Z</time>
      </trkpt>
      <trkpt lat="44.96868" lon="5.60697">
        <ele>866</ele>
        <time>2017-10-22T03:47:56Z</time>
      </trkpt>
      <trkpt lat="44.96808" lon="5.60641">
        <ele>858</ele>
        <time>2017-10-22T03:48:13Z</time>
      </trkpt>
      <trkpt lat="44.96764" lon="5.60602">
        <ele>857</ele>
        <time>2017-10-22T03:48:28Z</time>
      </trkpt>
      <trkpt lat="44.96743" lon="5.6058">
        <ele>855</ele>
        <time>2017-10-22T03:48:38Z</time>
      </trkpt>
      <trkpt lat="44.96702" lon="5.6054">
        <ele>850</ele>
        <time>2017-10-22T03:48:53Z</time>
      </trkpt>
      <trkpt lat="44.96689" lon="5.60519">
        <ele>849</ele>
        <time>2017-10-22T03:49:05Z</time>
      </trkpt>
      <trkpt lat="44.96671" lon="5.60484">
        <ele>851</ele>
        <time>2017-10-22T03:49:20Z</time>
      </trkpt>
      <trkpt lat="44.96654" lon="5.60442">
        <ele>837</ele>
        <time>2017-10-22T03:49:30Z</time>
      </trkpt>
      <trkpt lat="44.96637" lon="5.60395">
        <ele>836</ele>
        <time>2017-10-22T03:49:50Z</time>
      </trkpt>
      <trkpt lat="44.96622" lon="5.60349">
        <ele>833</ele>
        <time>2017-10-22T03:50:01Z</time>
      </trkpt>
      <trkpt lat="44.96612" lon="5.60303">
        <ele>830</ele>
        <time>2017-10-22T03:50:07Z</time>
      </trkpt>
      <trkpt lat="44.96611" lon="5.60277">
        <ele>829</ele>
        <time>2017-10-22T03:50:13Z</time>
      </trkpt>
      <trkpt lat="44.96614" lon="5.60247">
        <ele>822</ele>
        <time>2017-10-22T03:50:24Z</time>
      </trkpt>
      <trkpt lat="44.96618" lon="5.60226">
        <ele>823</ele>
        <time>2017-10-22T03:50:30Z</time>
      </trkpt>
      <trkpt lat="44.96626" lon="5.60209">
        <ele>824</ele>
        <time>2017-10-22T03:50:39Z</time>
      </trkpt>
      <trkpt lat="44.96641" lon="5.60193">
        <ele>825</ele>
        <time>2017-10-22T03:50:47Z</time>
      </trkpt>
      <trkpt lat="44.9665" lon="5.60176">
        <ele>826</ele>
        <time>2017-10-22T03:50:55Z</time>
      </trkpt>
      <trkpt lat="44.96677" lon="5.60105">
        <ele>830</ele>
        <time>2017-10-22T03:51:04Z</time>
      </trkpt>
      <trkpt lat="44.96683" lon="5.60083">
        <ele>823</ele>
        <time>2017-10-22T03:51:15Z</time>
      </trkpt>
      <trkpt lat="44.96685" lon="5.60064">
        <ele>825</ele>
        <time>2017-10-22T03:51:28Z</time>
      </trkpt>
      <trkpt lat="44.96682" lon="5.60039">
        <ele>826</ele>
        <time>2017-10-22T03:51:45Z</time>
      </trkpt>
      <trkpt lat="44.96672" lon="5.59985">
        <ele>818</ele>
        <time>2017-10-22T03:52:05Z</time>
      </trkpt>
      <trkpt lat="44.96662" lon="5.59914">
        <ele>806</ele>
        <time>2017-10-22T03:52:24Z</time>
      </trkpt>
      <trkpt lat="44.96658" lon="5.59894">
        <ele>800</ele>
        <time>2017-10-22T03:52:35Z</time>
      </trkpt>
      <trkpt lat="44.96652" lon="5.59875">
        <ele>799</ele>
        <time>2017-10-22T03:52:52Z</time>
      </trkpt>
      <trkpt lat="44.96645" lon="5.59855">
        <ele>799</ele>
        <time>2017-10-22T03:52:59Z</time>
      </trkpt>
      <trkpt lat="44.96641" lon="5.59834">
        <ele>800</ele>
        <time>2017-10-22T03:53:07Z</time>
      </trkpt>
      <trkpt lat="44.96634" lon="5.59763">
        <ele>803</ele>
        <time>2017-10-22T03:53:18Z</time>
      </trkpt>
      <trkpt lat="44.9663" lon="5.59745">
        <ele>810</ele>
        <time>2017-10-22T03:53:37Z</time>
      </trkpt>
      <trkpt lat="44.96625" lon="5.59731">
        <ele>810</ele>
        <time>2017-10-22T03:53:45Z</time>
      </trkpt>
      <trkpt lat="44.96614" lon="5.59715">
        <ele>809</ele>
        <time>2017-10-22T03:53:55Z</time>
      </trkpt>
      <trkpt lat="44.96599" lon="5.59703">
        <ele>808</ele>
        <time>2017-10-22T03:54:00Z</time>
      </trkpt>
      <trkpt lat="44.96575" lon="5.59691">
        <ele>787</ele>
        <time>2017-10-22T03:54:12Z</time>
      </trkpt>
      <trkpt lat="44.96556" lon="5.59675">
        <ele>785</ele>
        <time>2017-10-22T03:54:15Z</time>
      </trkpt>
      <trkpt lat="44.96543" lon="5.59654">
        <ele>788</ele>
        <time>2017-10-22T03:54:34Z</time>
      </trkpt>
      <trkpt lat="44.96534" lon="5.59619">
        <ele>788</ele>
        <time>2017-10-22T03:54:52Z</time>
      </trkpt>
      <trkpt lat="44.96529" lon="5.59564">
        <ele>797</ele>
        <time>2017-10-22T03:54:54Z</time>
      </trkpt>
      <trkpt lat="44.96524" lon="5.59549">
        <ele>798</ele>
        <time>2017-10-22T03:55:04Z</time>
      </trkpt>
      <trkpt lat="44.96501" lon="5.59506">
        <ele>795</ele>
        <time>2017-10-22T03:55:09Z</time>
      </trkpt>
      <trkpt lat="44.9649" lon="5.59488">
        <ele>796</ele>
        <time>2017-10-22T03:55:11Z</time>
      </trkpt>
      <trkpt lat="44.96477" lon="5.59471">
        <ele>798</ele>
        <time>2017-10-22T03:55:29Z</time>
      </trkpt>
      <trkpt lat="44.96464" lon="5.5946">
        <ele>799</ele>
        <time>2017-10-22T03:55:48Z</time>
      </trkpt>
      <trkpt lat="44.96455" lon="5.59455">
        <ele>799</ele>
        <time>2017-10-22T03:56:01Z</time>
      </trkpt>
      <trkpt lat="44.9644" lon="5.59448">
        <ele>799</ele>
        <time>2017-10-22T03:56:19Z</time>
      </trkpt>
      <trkpt lat="44.96427" lon="5.59446">
        <ele>799</ele>
        <time>2017-10-22T03:56:37Z</time>
      </trkpt>
      <trkpt lat="44.96413" lon="5.59446">
        <ele>789</ele>
        <time>2017-10-22T03:56:47Z</time>
      </trkpt>
      <trkpt lat="44.96394" lon="5.59451">
        <ele>785</ele>
        <time>2017-10-22T03:57:00Z</time>
      </trkpt>
      <trkpt lat="44.96382" lon="5.59453">
        <ele>783</ele>
        <time>2017-10-22T03:57:03Z</time>
      </trkpt>
      <trkpt lat="44.96371" lon="5.59451">
        <ele>783</ele>
        <time>2017-10-22T03:57:12Z</time>
      </trkpt>
      <trkpt lat="44.96358" lon="5.59446">
        <ele>783</ele>
        <time>2017-10-22T03:57:15Z</time>
      </trkpt>
      <trkpt lat="44.96347" lon="5.59437">
        <ele>785</ele>
        <time>2017-10-22T03:57:24Z</time>
      </trkpt>
      <trkpt lat="44.96328" lon="5.5942">
        <ele>784</ele>
        <time>2017-10-22T03:57:26Z</time>
      </trkpt>
      <trkpt lat="44.96303" lon="5.59405">
        <ele>781</ele>
        <time>2017-10-22T03:57:42Z</time>
      </trkpt>
      <trkpt lat="44.96274" lon="5.59385">
        <ele>775</ele>
        <time>2017-10-22T03:58:00Z</time>
      </trkpt>
      <trkpt lat="44.96266" lon="5.59373">
        <ele>774</ele>
        <time>2017-10-22T03:58:20Z</time>
      </trkpt>
      <trkpt lat="44.96264" lon="5.59361">
        <ele>774</ele>
        <time>2017-10-22T03:58:36Z</time>
      </trkpt>
      <trkpt lat="44.96268" lon="5.59331">
        <ele>774</ele>
        <time>2017-10-22T03:58:39Z</time>
      </trkpt>
      <trkpt lat="44.96268" lon="5.59314">
        <ele>776</ele>
        <time>2017-10-22T03:58:55Z</time>
      </trkpt>
      <trkpt lat="44.96263" lon="5.59308">
        <ele>776</ele>
        <time>2017-10-22T03:59:08Z</time>
      </trkpt>
      <trkpt lat="44.96256" lon="5.59309">
        <ele>774</ele>
        <time>2017-10-22T03:59:28Z</time>
      </trkpt>
      <trkpt lat="44.9625" lon="5.59316">
        <ele>754</ele>
        <time>2017-10-22T03:59:44Z</time>
      </trkpt>
      <trkpt lat="44.96241" lon="5.59341">
        <ele>756</ele>
        <time>2017-10-22T03:59:55Z</time>
      </trkpt>
      <trkpt lat="44.96238" lon="5.59367">
        <ele>749</ele>
        <time>2017-10-22T04:00:02Z</time>
      </trkpt>
      <trkpt lat="44.96242" lon="5.59386">
        <ele>749</ele>
        <time>2017-10-22T04:00:06Z</time>
      </trkpt>
      <trkpt lat="44.96244" lon="5.59395">
        <ele>750</ele>
        <time>2017-10-22T04:00:12Z</time>
      </trkpt>
      <trkpt lat="44.96254" lon="5.59414">
        <ele>762</ele>
        <time>2017-10-22T04:00:16Z</time>
      </trkpt>
      <trkpt lat="44.96267" lon="5.59429">
        <ele>761</ele>
        <time>2017-10-22T04:00:33Z</time>
      </trkpt>
      <trkpt lat="44.96277" lon="5.59446">
        <ele>761</ele>
        <time>2017-10-22T04:00:53Z</time>
      </trkpt>
      <trkpt lat="44.963" lon="5.59473">
        <ele>760</ele>
        <time>2017-10-22T04:01:13Z</time>
      </trkpt>
      <trkpt lat="44.96303" lon="5.5948">
        <ele>759</ele>
        <time>2017-10-22T04:01:23Z</time>
      </trkpt>
      <trkpt lat="44.96303" lon="5.59489">
        <ele>758</ele>
        <time>2017-10-22T04:01:25Z</time>
      </trkpt>
      <trkpt lat="44.96301" lon="5.59494">
        <ele>758</ele>
        <time>2017-10-22T04:01:33Z</time>
      </trkpt>
      <trkpt lat="44.96297" lon="5.59495">
        <ele>757</ele>
        <time>2017-10-22T04:01:38Z</time>
      </trkpt>
      <trkpt lat="44.9629" lon="5.59493">
        <ele>756</ele>
        <time>2017-10-22T04:01:44Z</time>
      </trkpt>
      <trkpt lat="44.96275" lon="5.59481">
        <ele>755</ele>
        <time>2017-10-22T04:01:54Z</time>
      </trkpt>
      <trkpt lat="44.96256" lon="5.59466">
        <ele>755</ele>
        <time>2017-10-22T04:02:12Z</time>
      </trkpt>
      <trkpt lat="44.96234" lon="5.59456">
        <ele>742</ele>
        <time>2017-10-22T04:02:18Z</time>
      </trkpt>
      <trkpt lat="44.96214" lon="5.59448">
        <ele>740</ele>
        <time>2017-10-22T04:02:21Z</time>
      </trkpt>
      <trkpt lat="44.96206" lon="5.59441">
        <ele>739</ele>
        <time>2017-10-22T04:02:24Z</time>
      </trkpt>
      <trkpt lat="44.96199" lon="5.59429">
        <ele>738</ele>
        <time>2017-10-22T04:02:32Z</time>
      </trkpt>
      <trkpt lat="44.96197" lon="5.59421">
        <ele>737</ele>
        <time>2017-10-22T04:02:52Z</time>
      </trkpt>
      <trkpt lat="44.96194" lon="5.59371">
        <ele>740</ele>
        <time>2017-10-22T04:02:59Z</time>
      </trkpt>
      <trkpt lat="44.9619" lon="5.59326">
        <ele>736</ele>
        <time>2017-10-22T04:03:04Z</time>
      </trkpt>
      <trkpt lat="44.96186" lon="5.59261">
        <ele>734</ele>
        <time>2017-10-22T04:03:15Z</time>
      </trkpt>
      <trkpt lat="44.96187" lon="5.59244">
        <ele>730</ele>
        <time>2017-10-22T04:03:34Z</time>
      </trkpt>
      <trkpt lat="44.96191" lon="5.59215">
        <ele>732</ele>
        <time>2017-10-22T04:03:38Z</time>
      </trkpt>
      <trkpt lat="44.96199" lon="5.59194">
        <ele>732</ele>
        <time>2017-10-22T04:03:52Z</time>
      </trkpt>
      <trkpt lat="44.96204" lon="5.59185">
        <ele>733</ele>
        <time>2017-10-22T04:03:54Z</time>
      </trkpt>
      <trkpt lat="44.96215" lon="5.59169">
        <ele>735</ele>
        <time>2017-10-22T04:04:06Z</time>
      </trkpt>
      <trkpt lat="44.96222" lon="5.59152">
        <ele>730</ele>
        <time>2017-10-22T04:04:09Z</time>
      </trkpt>
      <trkpt lat="44.96228" lon="5.59118">
        <ele>729</ele>
        <time>2017-10-22T04:04:12Z</time>
      </trkpt>
      <trkpt lat="44.96231" lon="5.59063">
        <ele>722</ele>
        <time>2017-10-22T04:04:25Z</time>
      </trkpt>
      <trkpt lat="44.96239" lon="5.59014">
        <ele>720</ele>
        <time>2017-10-22T04:04:41Z</time>
      </trkpt>
      <trkpt lat="44.96246" lon="5.58972">
        <ele>712</ele>
        <time>2017-10-22T04:04:45Z</time>
      </trkpt>
      <trkpt lat="44.96248" lon="5.58949">
        <ele>710</ele>
        <time>2017-10-22T04:04:57Z</time>
      </trkpt>
      <trkpt lat="44.96247" lon="5.58926">
        <ele>712</ele>
        <time>2017-10-22T04:05:09Z</time>
      </trkpt>
      <trkpt lat="44.96245" lon="5.58913">
        <ele>712</ele>
        <time>2017-10-22T04:05:26Z</time>
      </trkpt>
      <trkpt lat="44.96241" lon="5.58911">
        <ele>710</ele>
        <time>2017-10-22T04:05:36Z</time>
      </trkpt>
      <trkpt lat="44.96236" lon="5.58904">
        <ele>707</ele>
        <time>2017-10-22T04:05:43Z</time>
      </trkpt>
      <trkpt lat="44.96232" lon="5.58893">
        <ele>704</ele>
        <time>2017-10-22T04:06:01Z</time>
      </trkpt>
      <trkpt lat="44.96216" lon="5.58849">
        <ele>701</ele>
        <time>2017-10-22T04:06:14Z</time>
      </trkpt>
      <trkpt lat="44.96201" lon="5.58801">
        <ele>703</ele>
        <time>2017-10-22T04:06:30Z</time>
      </trkpt>
      <trkpt lat="44.9619" lon="5.58766">
        <ele>702</ele>
        <time>2017-10-22T04:06:49Z</time>
      </trkpt>
      <trkpt lat="44.96183" lon="5.58754">
        <ele>698</ele>
        <time>2017-10-22T04:07:01Z</time>
      </trkpt>
      <trkpt lat="44.96166" lon="5.5873">
        <ele>685</ele>
        <time>2017-10-22T04:07:12Z</time>
      </trkpt>
      <trkpt lat="44.96153" lon="5.58708">
        <ele>685</ele>
        <time>2017-10-22T04:07:25Z</time>
      </trkpt>
      <trkpt lat="44.96141" lon="5.58675">
        <ele>688</ele>
        <time>2017-10-22T04:07:36Z</time>
      </trkpt>
      <trkpt lat="44.96133" lon="5.58649">
        <ele>695</ele>
        <time>2017-10-22T04:07:43Z</time>
      </trkpt>
      <trkpt lat="44.96129" lon="5.58628">
        <ele>695</ele>
        <time>2017-10-22T04:07:49Z</time>
      </trkpt>
      <trkpt lat="44.96124" lon="5.58608">
        <ele>696</ele>
        <time>2017-10-22T04:07:52Z</time>
      </trkpt>
      <trkpt lat="44.96118" lon="5.58605">
        <ele>694</ele>
        <time>2017-10-22T04:07:56Z</time>
      </trkpt>
      <trkpt lat="44.96113" lon="5.5861">
        <ele>692</ele>
        <time>2017-10-22T04:08:10Z</time>
      </trkpt>
      <trkpt lat="44.96113" lon="5.58616">
        <ele>692</ele>
        <time>2017-10-22T04:08:17Z</time>
      </trkpt>
      <trkpt lat="44.96118" lon="5.58669">
        <ele>680</ele>
        <time>2017-10-22T04:08:20Z</time>
      </trkpt>
      <trkpt lat="44.9612" lon="5.58706">
        <ele>679</ele>
        <time>2017-10-22T04:08:22Z</time>
      </trkpt>
      <trkpt lat="44.96119" lon="5.58726">
        <ele>677</ele>
        <time>2017-10-22T04:08:31Z</time>
      </trkpt>
      <trkpt lat="44.96122" lon="5.58752">
        <ele>670</ele>
        <time>2017-10-22T04:08:41Z</time>
      </trkpt>
      <trkpt lat="44.96134" lon="5.58797">
        <ele>670</ele>
        <time>2017-10-22T04:08:46Z</time>
      </trkpt>
      <trkpt lat="44.96137" lon="5.58835">
        <ele>668</ele>
        <time>2017-10-22T04:08:58Z</time>
      </trkpt>
      <trkpt lat="44.96134" lon="5.58858">
        <ele>667</ele>
        <time>2017-10-22T04:09:15Z</time>
      </trkpt>
      <trkpt lat="44.9613" lon="5.58869">
        <ele>667</ele>
        <time>2017-10-22T04:09:18Z</time>
      </trkpt>
      <trkpt lat="44.96125" lon="5.58874">
        <ele>666</ele>
        <time>2017-10-22T04:09:31Z</time>
      </trkpt>
      <trkpt lat="44.9612" lon="5.58871">
        <ele>665</ele>
        <time>2017-10-22T04:09:48Z</time>
      </trkpt>
      <trkpt lat="44.96118" lon="5.58862">
        <ele>664</ele>
        <time>2017-10-22T04:10:03Z</time>
      </trkpt>
      <trkpt lat="44.96117" lon="5.58854">
        <ele>664</ele>
        <time>2017-10-22T04:10:21Z</time>
      </trkpt>
      <trkpt lat="44.96117" lon="5.58805">
        <ele>667</ele>
        <time>2017-10-22T04:10:32Z</time>
      </trkpt>
      <trkpt lat="44.96111" lon="5.58774">
        <ele>667</ele>
        <time>2017-10-22T04:10:42Z</time>
      </trkpt>
      <trkpt lat="44.96105" lon="5.58762">
        <ele>666</ele>
        <time>2017-10-22T04:10:45Z</time>
      </trkpt>
      <trkpt lat="44.96097" lon="5.58755">
        <ele>664</ele>
        <time>2017-10-22T04:10:55Z</time>
      </trkpt>
      <trkpt lat="44.96089" lon="5.58753">
        <ele>661</ele>
        <time>2017-10-22T04:11:04Z</time>
      </trkpt>
      <trkpt lat="44.96079" lon="5.58756">
        <ele>657</ele>
        <time>2017-10-22T04:11:24Z</time>
      </trkpt>
      <trkpt lat="44.9606" lon="5.58766">
        <ele>654</ele>
        <time>2017-10-22T04:11:42Z</time>
      </trkpt>
      <trkpt lat="44.96029" lon="5.58787">
        <ele>651</ele>
        <time>2017-10-22T04:11:55Z</time>
      </trkpt>
      <trkpt lat="44.96016" lon="5.58801">
        <ele>650</ele>
        <time>2017-10-22T04:12:11Z</time>
      </trkpt>
      <trkpt lat="44.9601" lon="5.58811">
        <ele>650</ele>
        <time>2017-10-22T04:12:13Z</time>
      </trkpt>
      <trkpt lat="44.96006" lon="5.58823">
        <ele>649</ele>
        <time>2017-10-22T04:12:19Z</time>
      </trkpt>
      <trkpt lat="44.96003" lon="5.58839">
        <ele>648</ele>
        <time>2017-10-22T04:12:39Z</time>
      </trkpt>
      <trkpt lat="44.95998" lon="5.58877">
        <ele>651</ele>
        <time>2017-10-22T04:12:44Z</time>
      </trkpt>
      <trkpt lat="44.95991" lon="5.58896">
        <ele>651</ele>
        <time>2017-10-22T04:12:52Z</time>
      </trkpt>
      <trkpt lat="44.95978" lon="5.58911">
        <ele>651</ele>
        <time>2017-10-22T04:13:12Z</time>
      </trkpt>
      <trkpt lat="44.95965" lon="5.58918">
        <ele>651</ele>
        <time>2017-10-22T04:13:20Z</time>
      </trkpt>
      <trkpt lat="44.95947" lon="5.58922">
        <ele>653</ele>
        <time>2017-10-22T04:13:26Z</time>
      </trkpt>
      <trkpt lat="44.95853" lon="5.58935">
        <ele>661</ele>
        <time>2017-10-22T04:13:46Z</time>
      </trkpt>
      <trkpt lat="44.95784" lon="5.58943">
        <ele>668</ele>
        <time>2017-10-22T04:13:49Z</time>
      </trkpt>
      <trkpt lat="44.95747" lon="5.58949">
        <ele>675</ele>
        <time>2017-10-22T04:14:03Z</time>
      </trkpt>
      <trkpt lat="44.95729" lon="5.58957">
        <ele>675</ele>
        <time>2017-10-22T04:14:18Z</time>
      </trkpt>
      <trkpt lat="44.95715" lon="5.58969">
        <ele>676</ele>
        <time>2017-10-22T04:14:28Z</time>
      </trkpt>
      <trkpt lat="44.95699" lon="5.58983">
        <ele>677</ele>
        <time>2017-10-22T04:14:30Z</time>
      </trkpt>
      <trkpt lat="44.95689" lon="5.58988">
        <ele>677</ele>
        <time>2017-10-22T04:14:37Z</time>
      </trkpt>
      <trkpt lat="44.95682" lon="5.58988">
        <ele>678</ele>
        <time>2017-10-22T04:14:43Z</time>
      </trkpt>
      <trkpt lat="44.95678" lon="5.58985">
        <ele>678</ele>
        <time>2017-10-22T04:14:49Z</time>
      </trkpt>
      <trkpt lat="44.95674" lon="5.58979">
        <ele>678</ele>
        <time>2017-10-22T04:14:59Z</time>
      </trkpt>
      <trkpt lat="44.95672" lon="5.58966">
        <ele>678</ele>
        <time>2017-10-22T04:15:01Z</time>
      </trkpt>
      <trkpt lat="44.95676" lon="5.58939">
        <ele>680</ele>
        <time>2017-10-22T04:15:14Z</time>
      </trkpt>
      <trkpt lat="44.9571" lon="5.58811">
        <ele>688</ele>
        <time>2017-10-22T04:15:17Z</time>
      </trkpt>
      <trkpt lat="44.95726" lon="5.58749">
        <ele>689</ele>
        <time>2017-10-22T04:15:23Z</time>
      </trkpt>
      <trkpt lat="44.95724" lon="5.58732">
        <ele>689</ele>
        <time>2017-10-22T04:15:35Z</time>
      </trkpt>
      <trkpt lat="44.95718" lon="5.58725">
        <ele>689</ele>
        <time>2017-10-22T04:15:54Z</time>
      </trkpt>
      <trkpt lat="44.95709" lon="5.58722">
        <ele>690</ele>
        <time>2017-10-22T04:16:02Z</time>
      </trkpt>
      <trkpt lat="44.95692" lon="5.5873">
        <ele>692</ele>
        <time>2017-10-22T04:16:05Z</time>
      </trkpt>
      <trkpt lat="44.95662" lon="5.58751">
        <ele>697</ele>
        <time>2017-10-22T04:16:21Z</time>
      </trkpt>
      <trkpt lat="44.95642" lon="5.58758">
        <ele>698</ele>
        <time>2017-10-22T04:16:29Z</time>
      </trkpt>
      <trkpt lat="44.95589" lon="5.58767">
        <ele>702</ele>
        <time>2017-10-22T04:16:35Z</time>
      </trkpt>
      <trkpt lat="44.95569" lon="5.58774">
        <ele>705</ele>
        <time>2017-10-22T04:16:40Z</time>
      </trkpt>
      <trkpt lat="44.95563" lon="5.58779">
        <ele>705</ele>
        <time>2017-10-22T04:16:48Z</time>
      </trkpt>
      <trkpt lat="44.95557" lon="5.58793">
        <ele>705</ele>
        <time>2017-10-22T04:16:53Z</time>
      </trkpt>
      <trkpt lat="44.95554" lon="5.5882">
        <ele>704</ele>
        <time>2017-10-22T04:17:10Z</time>
      </trkpt>
      <trkpt lat="44.95552" lon="5.58826">
        <ele>704</ele>
        <time>2017-10-22T04:17:12Z</time>
      </trkpt>
      <trkpt lat="44.95531" lon="5.58865">
        <ele>702</ele>
        <time>2017-10-22T04:17:27Z</time>
      </trkpt>
      <trkpt lat="44.95524" lon="5.58873">
        <ele>701</ele>
        <time>2017-10-22T04:17:35Z</time>
      </trkpt>
      <trkpt lat="44.95518" lon="5.58874">
        <ele>702</ele>
        <time>2017-10-22T04:17:52Z</time>
      </trkpt>
      <trkpt lat="44.95495" lon="5.58867">
        <ele>708</ele>
        <time>2017-10-22T04:17:55Z</time>
      </trkpt>
      <trkpt lat="44.95468" lon="5.58862">
        <ele>709</ele>
        <time>2017-10-22T04:18:03Z</time>
      </trkpt>
      <trkpt lat="44.95454" lon="5.5886">
        <ele>710</ele>
        <time>2017-10-22T04:18:10Z</time>
      </trkpt>
      <trkpt lat="44.9544" lon="5.58863">
        <ele>711</ele>
        <time>2017-10-22T04:18:17Z</time>
      </trkpt>
      <trkpt lat="44.95416" lon="5.58878">
        <ele>720</ele>
        <time>2017-10-22T04:18:28Z</time>
      </trkpt>
      <trkpt lat="44.95407" lon="5.58887">
        <ele>720</ele>
        <time>2017-10-22T04:18:47Z</time>
      </trkpt>
      <trkpt lat="44.95398" lon="5.58901">
        <ele>719</ele>
        <time>2017-10-22T04:18:50Z</time>
      </trkpt>
      <trkpt lat="44.95386" lon="5.58945">
        <ele>718</ele>
        <time>2017-10-22T04:18:52Z</time>
      </trkpt>
      <trkpt lat="44.95371" lon="5.59">
        <ele>719</ele>
        <time>2017-10-22T04:19:09Z</time>
      </trkpt>
      <trkpt lat="44.95352" lon="5.59048">
        <ele>718</ele>
        <time>2017-10-22T04:19:23Z</time>
      </trkpt>
      <trkpt lat="44.95343" lon="5.59068">
        <ele>720</ele>
        <time>2017-10-22T04:19:36Z</time>
      </trkpt>
      <trkpt lat="44.9533" lon="5.59084">
        <ele>726</ele>
        <time>2017-10-22T04:19:52Z</time>
      </trkpt>
      <trkpt lat="44.95289" lon="5.59129">
        <ele>736</ele>
        <time>2017-10-22T04:19:55Z</time>
      </trkpt>
      <trkpt lat="44.95283" lon="5.59136">
        <ele>737</ele>
        <time>2017-10-22T04:19:58Z</time>
      </trkpt>
      <trkpt lat="44.95278" lon="5.59149">
        <ele>738</ele>
        <time>2017-10-22T04:20:04Z</time>
      </trkpt>
      <trkpt lat="44.95274" lon="5.59167">
        <ele>739</ele>
        <time>2017-10-22T04:20:13Z</time>
      </trkpt>
      <trkpt lat="44.95275" lon="5.59187">
        <ele>738</ele>
        <time>2017-10-22T04:20:24Z</time>
      </trkpt>
      <trkpt lat="44.95281" lon="5.59247">
        <ele>739</ele>
        <time>2017-10-22T04:20:33Z</time>
      </trkpt>
      <trkpt lat="44.95282" lon="5.59299">
        <ele>741</ele>
        <time>2017-10-22T04:20:35Z</time>
      </trkpt>
      <trkpt lat="44.95276" lon="5.59405">
        <ele>747</ele>
        <time>2017-10-22T04:20:47Z</time>
      </trkpt>
      <trkpt lat="44.95274" lon="5.59476">
        <ele>748</ele>
        <time>2017-10-22T04:20:55Z</time>
      </trkpt>
      <trkpt lat="44.95268" lon="5.59534">
        <ele>747</ele>
        <time>2017-10-22T04:20:59Z</time>
      </trkpt>
      <trkpt lat="44.95255" lon="5.59587">
        <ele>749</ele>
        <time>2017-10-22T04:21:02Z</time>
      </trkpt>
      <trkpt lat="44.9523" lon="5.59639">
        <ele>758</ele>
        <time>2017-10-22T04:21:20Z</time>
      </trkpt>
      <trkpt lat="44.95184" lon="5.59724">
        <ele>759</ele>
        <time>2017-10-22T04:21:27Z</time>
      </trkpt>
      <trkpt lat="44.9516" lon="5.59761">
        <ele>767</ele>
        <time>2017-10-22T04:21:43Z</time>
      </trkpt>
      <trkpt lat="44.9515" lon="5.59781">
        <ele>771</ele>
        <time>2017-10-22T04:21:58Z</time>
      </trkpt>
      <trkpt lat="44.95132" lon="5.59855">
        <ele>772</ele>
        <time>2017-10-22T04:22:09Z</time>
      </trkpt>
      <trkpt lat="44.95116" lon="5.5992">
        <ele>775</ele>
        <time>2017-10-22T04:22:12Z</time>
      </trkpt>
      <trkpt lat="44.95112" lon="5.59956">
        <ele>775</ele>
        <time>2017-10-22T04:22:14Z</time>
      </trkpt>
      <trkpt lat="44.95108" lon="5.59984">
        <ele>776</ele>
        <time>2017-10-22T04:22:22Z</time>
      </trkpt>
      <trkpt lat="44.95093" lon="5.60022">
        <ele>780</ele>
        <time>2017-10-22T04:22:35Z</time>
      </trkpt>
      <trkpt lat="44.95084" lon="5.60052">
        <ele>780</ele>
        <time>2017-10-22T04:22:45Z</time>
      </trkpt>
      <trkpt lat="44.95083" lon="5.60079">
        <ele>786</ele>
        <time>2017-10-22T04:22:50Z</time>
      </trkpt>
      <trkpt lat="44.95088" lon="5.60103">
        <ele>786</ele>
        <time>2017-10-22T04:23:07Z</time>
      </trkpt>
      <trkpt lat="44.951" lon="5.6013">
        <ele>789</ele>
        <time>2017-10-22T04:23:24Z</time>
      </trkpt>
      <trkpt lat="44.95117" lon="5.60152">
        <ele>790</ele>
        <time>2017-10-22T04:23:27Z</time>
      </trkpt>
      <trkpt lat="44.95128" lon="5.60159">
        <ele>790</ele>
        <time>2017-10-22T04:23:47Z</time>
      </trkpt>
      <trkpt lat="44.95156" lon="5.60164">
        <ele>790</ele>
        <time>2017-10-22T04:24:04Z</time>
      </trkpt>
      <trkpt lat="44.95165" lon="5.60172">
        <ele>793</ele>
        <time>2017-10-22T04:24:08Z</time>
      </trkpt>
      <trkpt lat="44.95168" lon="5.60182">
        <ele>788</ele>
        <time>2017-10-22T04:24:20Z</time>
      </trkpt>
      <trkpt lat="44.95169" lon="5.60189">
        <ele>787</ele>
        <time>2017-10-22T04:24:34Z</time>
      </trkpt>
      <trkpt lat="44.95167" lon="5.60202">
        <ele>786</ele>
        <time>2017-10-22T04:24:41Z</time>
      </trkpt>
      <trkpt lat="44.95154" lon="5.60244">
        <ele>796</ele>
        <time>2017-10-22T04:24:50Z</time>
      </trkpt>
      <trkpt lat="44.95141" lon="5.60278">
        <ele>802</ele>
        <time>2017-10-22T04:24:57Z</time>
      </trkpt>
      <trkpt lat="44.95137" lon="5.60298">
        <ele>803</ele>
        <time>2017-10-22T04:25:08Z</time>
      </trkpt>
      <trkpt lat="44.95136" lon="5.60315">
        <ele>803</ele>
        <time>2017-10-22T04:25:22Z</time>
      </trkpt>
      <trkpt lat="44.95138" lon="5.60333">
        <ele>802</ele>
        <time>2017-10-22T04:25:25Z</time>
      </trkpt>
      <trkpt lat="44.95145" lon="5.6036">
        <ele>804</ele>
        <time>2017-10-22T04:25:43Z</time>
      </trkpt>
      <trkpt lat="44.95156" lon="5.60391">
        <ele>805</ele>
        <time>2017-10-22T04:25:59Z</time>
      </trkpt>
      <trkpt lat="44.95158" lon="5.60418">
        <ele>804</ele>
        <time>2017-10-22T04:26:18Z</time>
      </trkpt>
      <trkpt lat="44.95156" lon="5.60434">
        <ele>805</ele>
        <time>2017-10-22T04:26:30Z</time>
      </trkpt>
      <trkpt lat="44.95151" lon="5.60447">
        <ele>806</ele>
        <time>2017-10-22T04:26:37Z</time>
      </trkpt>
      <trkpt lat="44.95138" lon="5.60464">
        <ele>807</ele>
        <time>2017-10-22T04:26:55Z</time>
      </trkpt>
      <trkpt lat="44.95122" lon="5.60481">
        <ele>809</ele>
        <time>2017-10-22T04:27:09Z</time>
      </trkpt>
      <trkpt lat="44.95109" lon="5.60491">
        <ele>810</ele>
        <time>2017-10-22T04:27:15Z</time>
      </trkpt>
      <trkpt lat="44.95055" lon="5.60521">
        <ele>817</ele>
        <time>2017-10-22T04:27:32Z</time>
      </trkpt>
      <trkpt lat="44.95036" lon="5.60531">
        <ele>818</ele>
        <time>2017-10-22T04:27:45Z</time>
      </trkpt>
      <trkpt lat="44.95024" lon="5.60531">
        <ele>818</ele>
        <time>2017-10-22T04:27:58Z</time>
      </trkpt>
      <trkpt lat="44.94961" lon="5.60504">
        <ele>823</ele>
        <time>2017-10-22T04:28:14Z</time>
      </trkpt>
      <trkpt lat="44.94867" lon="5.60461">
        <ele>827</ele>
        <time>2017-10-22T04:28:17Z</time>
      </trkpt>
      <trkpt lat="44.94764" lon="5.60415">
        <ele>835</ele>
        <time>2017-10-22T04:28:21Z</time>
      </trkpt>
      <trkpt lat="44.9473" lon="5.60405">
        <ele>840</ele>
        <time>2017-10-22T04:28:30Z</time>
      </trkpt>
      <trkpt lat="44.94718" lon="5.60404">
        <ele>841</ele>
        <time>2017-10-22T04:28:35Z</time>
      </trkpt>
      <trkpt lat="44.94709" lon="5.60404">
        <ele>842</ele>
        <time>2017-10-22T04:28:54Z</time>
      </trkpt>
      <trkpt lat="44.94705" lon="5.60406">
        <ele>842</ele>
        <time>2017-10-22T04:29:09Z</time>
      </trkpt>
      <trkpt lat="44.94693" lon="5.60414">
        <ele>843</ele>
        <time>2017-10-22T04:29:18Z</time>
      </trkpt>
      <trkpt lat="44.94674" lon="5.60429">
        <ele>840</ele>
        <time>2017-10-22T04:29:25Z</time>
      </trkpt>
      <trkpt lat="44.94663" lon="5.60446">
        <ele>842</ele>
        <time>2017-10-22T04:29:39Z</time>
      </trkpt>
      <trkpt lat="44.94651" lon="5.60468">
        <ele>841</ele>
        <time>2017-10-22T04:29:41Z</time>
      </trkpt>
      <trkpt lat="44.94622" lon="5.60512">
        <ele>837</ele>
        <time>2017-10-22T04:29:54Z</time>
      </trkpt>
      <trkpt lat="44.9458" lon="5.60558">
        <ele>841</ele>
        <time>2017-10-22T04:30:12Z</time>
      </trkpt>
      <trkpt lat="44.94549" lon="5.60587">
        <ele>837</ele>
        <time>2017-10-22T04:30:29Z</time>
      </trkpt>
      <trkpt lat="44.94514" lon="5.60613">
        <ele>838</ele>
        <time>2017-10-22T04:30:33Z</time>
      </trkpt>
      <trkpt lat="44.94497" lon="5.60624">
        <ele>839</ele>
        <time>2017-10-22T04:30:45Z</time>
      </trkpt>
      <trkpt lat="44.94458" lon="5.60642">
        <ele>838</ele>
        <time>2017-10-22T04:31:05Z</time>
      </trkpt>
      <trkpt lat="44.94434" lon="5.60649">
        <ele>838</ele>
        <time>2017-10-22T04:31:19Z</time>
      </trkpt>
      <trkpt lat="44.94418" lon="5.60652">
        <ele>838</ele>
        <time>2017-10-22T04:31:28Z</time>
      </trkpt>
      <trkpt lat="44.94402" lon="5.60652">
        <ele>838</ele>
        <time>2017-10-22T04:31:45Z</time>
      </trkpt>
      <trkpt lat="44.94386" lon="5.60649">
        <ele>839</ele>
        <time>2017-10-22T04:31:57Z</time>
      </trkpt>
      <trkpt lat="44.94346" lon="5.6064">
        <ele>838</ele>
        <time>2017-10-22T04:32:00Z</time>
      </trkpt>
      <trkpt lat="44.94331" lon="5.60639">
        <ele>839</ele>
        <time>2017-10-22T04:32:13Z</time>
      </trkpt>
      <trkpt lat="44.94316" lon="5.60642">
        <ele>840</ele>
        <time>2017-10-22T04:32:20Z</time>
      </trkpt>
      <trkpt lat="44.94304" lon="5.60647">
        <ele>840</ele>
        <time>2017-10-22T04:32:22Z</time>
      </trkpt>
      <trkpt lat="44.94289" lon="5.6066">
        <ele>840</ele>
        <time>2017-10-22T04:32:25Z</time>
      </trkpt>
      <trkpt lat="44.94234" lon="5.60716">
        <ele>837</ele>
        <time>2017-10-22T04:32:43Z</time>
      </trkpt>
      <trkpt lat="44.94192" lon="5.60756">
        <ele>835</ele>
        <time>2017-10-22T04:32:53Z</time>
      </trkpt>
      <trkpt lat="44.94155" lon="5.60781">
        <ele>838</ele>
        <time>2017-10-22T04:32:55Z</time>
      </trkpt>
      <trkpt lat="44.94104" lon="5.60806">
        <ele>838</ele>
        <time>2017-10-22T04:33:10Z</time>
      </trkpt>
      <trkpt lat="44.94061" lon="5.60833">
        <ele>841</ele>
        <time>2017-10-22T04:33:14Z</time>
      </trkpt>
      <trkpt lat="44.94019" lon="5.60863">
        <ele>839</ele>
        <time>2017-10-22T04:33:25Z</time>
      </trkpt>
      <trkpt lat="44.93971" lon="5.60893">
        <ele>842</ele>
        <time>2017-10-22T04:33:33Z</time>
      </trkpt>
      <trkpt lat="44.93956" lon="5.60899">
        <ele>843</ele>
        <time>2017-10-22T04:33:38Z</time>
      </trkpt>
      <trkpt lat="44.93936" lon="5.60904">
        <ele>843</ele>
        <time>2017-10-22T04:33:52Z</time>
      </trkpt>
      <trkpt lat="44.93868" lon="5.6091">
        <ele>846</ele>
        <time>2017-10-22T04:34:01Z</time>
      </trkpt>
      <trkpt lat="44.93848" lon="5.60916">
        <ele>846</ele>
        <time>2017-10-22T04:34:06Z</time>
      </trkpt>
      <trkpt lat="44.93815" lon="5.60934">
        <ele>846</ele>
        <time>2017-10-22T04:34:23Z</time>
      </trkpt>
      <trkpt lat="44.93791" lon="5.60951">
        <ele>846</ele>
        <time>2017-10-22T04:34:41Z</time>
      </trkpt>
      <trkpt lat="44.93766" lon="5.60973">
        <ele>846</ele>
        <time>2017-10-22T04:34:55Z</time>
      </trkpt>
      <trkpt lat="44.9375" lon="5.60981">
        <ele>846</ele>
        <time>2017-10-22T04:35:04Z</time>
      </trkpt>
      <trkpt lat="44.93734" lon="5.60986">
        <ele>847</ele>
        <time>2017-10-22T04:35:18Z</time>
      </trkpt>
      <trkpt lat="44.93715" lon="5.60992">
        <ele>848</ele>
        <time>2017-10-22T04:35:31Z</time>
      </trkpt>
      <trkpt lat="44.93702" lon="5.60997">
        <ele>848</ele>
        <time>2017-10-22T04:35:37Z</time>
      </trkpt>
      <trkpt lat="44.93694" lon="5.61003">
        <ele>846</ele>
        <time>2017-10-22T04:35:45Z</time>
      </trkpt>
      <trkpt lat="44.93685" lon="5.61012">
        <ele>846</ele>
        <time>2017-10-22T04:35:51Z</time>
      </trkpt>
      <trkpt lat="44.93674" lon="5.61026">
        <ele>846</ele>
        <time>2017-10-22T04:35:56Z</time>
      </trkpt>
      <trkpt lat="44.9366" lon="5.61051">
        <ele>849</ele>
        <time>2017-10-22T04:36:05Z</time>
      </trkpt>
      <trkpt lat="44.93647" lon="5.61073">
        <ele>849</ele>
        <time>2017-10-22T04:36:20Z</time>
      </trkpt>
      <trkpt lat="44.93632" lon="5.61094">
        <ele>847</ele>
        <time>2017-10-22T04:36:32Z</time>
      </trkpt>
      <trkpt lat="44.93596" lon="5.61133">
        <ele>848</ele>
        <time>2017-10-22T04:36:49Z</time>
      </trkpt>
      <trkpt lat="44.93563" lon="5.61171">
        <ele>846</ele>
        <time>2017-10-22T04:36:55Z</time>
      </trkpt>
      <trkpt lat="44.93522" lon="5.61232">
        <ele>846</ele>
        <time>2017-10-22T04:37:05Z</time>
      </trkpt>
      <trkpt lat="44.93484" lon="5.61295">
        <ele>845</ele>
        <time>2017-10-22T04:37:20Z</time>
      </trkpt>
      <trkpt lat="44.93464" lon="5.61345">
        <ele>842</ele>
        <time>2017-10-22T04:37:24Z</time>
      </trkpt>
      <trkpt lat="44.93451" lon="5.61387">
        <ele>843</ele>
        <time>2017-10-22T04:37:43Z</time>
      </trkpt>
      <trkpt lat="44.93425" lon="5.61456">
        <ele>842</ele>
        <time>2017-10-22T04:37:48Z</time>
      </trkpt>
      <trkpt lat="44.93419" lon="5.6148">
        <ele>842</ele>
        <time>2017-10-22T04:37:58Z</time>
      </trkpt>
      <trkpt lat="44.93415" lon="5.61505">
        <ele>844</ele>
        <time>2017-10-22T04:38:06Z</time>
      </trkpt>
      <trkpt lat="44.9341" lon="5.61567">
        <ele>847</ele>
        <time>2017-10-22T04:38:10Z</time>
      </trkpt>
      <trkpt lat="44.93406" lon="5.6165">
        <ele>846</ele>
        <time>2017-10-22T04:38:28Z</time>
      </trkpt>
      <trkpt lat="44.9341" lon="5.61808">
        <ele>836</ele>
        <time>2017-10-22T04:38:44Z</time>
      </trkpt>
      <trkpt lat="44.93413" lon="5.61868">
        <ele>832</ele>
        <time>2017-10-22T04:39:01Z</time>
      </trkpt>
      <trkpt lat="44.93418" lon="5.61893">
        <ele>827</ele>
        <time>2017-10-22T04:39:15Z</time>
      </trkpt>
      <trkpt lat="44.93429" lon="5.61931">
        <ele>824</ele>
        <time>2017-10-22T04:39:32Z</time>
      </trkpt>
      <trkpt lat="44.93437" lon="5.61955">
        <ele>822</ele>
        <time>2017-10-22T04:39:38Z</time>
      </trkpt>
      <trkpt lat="44.93441" lon="5.61976">
        <ele>821</ele>
        <time>2017-10-22T04:39:56Z</time>
      </trkpt>
      <trkpt lat="44.93439" lon="5.61992">
        <ele>821</ele>
        <time>2017-10-22T04:40:08Z</time>
      </trkpt>
      <trkpt lat="44.93436" lon="5.61998">
        <ele>821</ele>
        <time>2017-10-22T04:40:14Z</time>
      </trkpt>
      <trkpt lat="44.93425" lon="5.6201">
        <ele>821</ele>
        <time>2017-10-22T04:40:33Z</time>
      </trkpt>
      <trkpt lat="44.9342" lon="5.62011">
        <ele>821</ele>
        <time>2017-10-22T04:40:51Z</time>
      </trkpt>
      <trkpt lat="44.93405" lon="5.62009">
        <ele>821</ele>
        <time>2017-10-22T04:41:10Z</time>
      </trkpt>
      <trkpt lat="44.93353" lon="5.6199">
        <ele>823</ele>
        <time>2017-10-22T04:41:27Z</time>
      </trkpt>
      <trkpt lat="44.93334" lon="5.61985">
        <ele>822</ele>
        <time>2017-10-22T04:41:41Z</time>
      </trkpt>
      <trkpt lat="44.93317" lon="5.61985">
        <ele>822</ele>
        <time>2017-10-22T04:41:59Z</time>
      </trkpt>
      <trkpt lat="44.93299" lon="5.61988">
        <ele>822</ele>
        <time>2017-10-22T04:42:09Z</time>
      </trkpt>
      <trkpt lat="44.93276" lon="5.61996">
        <ele>822</ele>
        <time>2017-10-22T04:42:25Z</time>
      </trkpt>
      <trkpt lat="44.93225" lon="5.62025">
        <ele>816</ele>
        <time>2017-10-22T04:42:43Z</time>
      </trkpt>
      <trkpt lat="44.93177" lon="5.62058">
        <ele>814</ele>
        <time>2017-10-22T04:42:47Z</time>
      </trkpt>
      <trkpt lat="44.93145" lon="5.62084">
        <ele>812</ele>
        <time>2017-10-22T04:42:56Z</time>
      </trkpt>
      <trkpt lat="44.93134" lon="5.62098">
        <ele>812</ele>
        <time>2017-10-22T04:43:11Z</time>
      </trkpt>
      <trkpt lat="44.93126" lon="5.62117">
        <ele>813</ele>
        <time>2017-10-22T04:43:17Z</time>
      </trkpt>
      <trkpt lat="44.93121" lon="5.62137">
        <ele>813</ele>
        <time>2017-10-22T04:43:22Z</time>
      </trkpt>
      <trkpt lat="44.93121" lon="5.62163">
        <ele>812</ele>
        <time>2017-10-22T04:43:26Z</time>
      </trkpt>
      <trkpt lat="44.93127" lon="5.62223">
        <ele>811</ele>
        <time>2017-10-22T04:43:40Z</time>
      </trkpt>
      <trkpt lat="44.93129" lon="5.62247">
        <ele>810</ele>
        <time>2017-10-22T04:44:00Z</time>
      </trkpt>
      <trkpt lat="44.93129" lon="5.6227">
        <ele>808</ele>
        <time>2017-10-22T04:44:14Z</time>
      </trkpt>
      <trkpt lat="44.93121" lon="5.62309">
        <ele>807</ele>
        <time>2017-10-22T04:44:18Z</time>
      </trkpt>
      <trkpt lat="44.93055" lon="5.62512">
        <ele>804</ele>
        <time>2017-10-22T04:44:22Z</time>
      </trkpt>
      <trkpt lat="44.93022" lon="5.6261">
        <ele>804</ele>
        <time>2017-10-22T04:44:30Z</time>
      </trkpt>
      <trkpt lat="44.92966" lon="5.62787">
        <ele>808</ele>
        <time>2017-10-22T04:44:50Z</time>
      </trkpt>
      <trkpt lat="44.92956" lon="5.62819">
        <ele>808</ele>
        <time>2017-10-22T04:45:00Z</time>
      </trkpt>
      <trkpt lat="44.92936" lon="5.62867">
        <ele>808</ele>
        <time>2017-10-22T04:45:04Z</time>
      </trkpt>
      <trkpt lat="44.92903" lon="5.62912">
        <ele>812</ele>
        <time>2017-10-22T04:45:12Z</time>
      </trkpt>
      <trkpt lat="44.92873" lon="5.6295">
        <ele>814</ele>
        <time>2017-10-22T04:45:19Z</time>
      </trkpt>
      <trkpt lat="44.92867" lon="5.62966">
        <ele>814</ele>
        <time>2017-10-22T04:45:35Z</time>
      </trkpt>
      <trkpt lat="44.92865" lon="5.62982">
        <ele>814</ele>
        <time>2017-10-22T04:45:52Z</time>
      </trkpt>
      <trkpt lat="44.92866" lon="5.63005">
        <ele>814</ele>
        <time>2017-10-22T04:45:56Z</time>
      </trkpt>
      <trkpt lat="44.92877" lon="5.63089">
        <ele>814</ele>
        <time>2017-10-22T04:46:14Z</time>
      </trkpt>
      <trkpt lat="44.92887" lon="5.63135">
        <ele>814</ele>
        <time>2017-10-22T04:46:27Z</time>
      </trkpt>
      <trkpt lat="44.92898" lon="5.63183">
        <ele>815</ele>
        <time>2017-10-22T04:46:33Z</time>
      </trkpt>
      <trkpt lat="44.92909" lon="5.63217">
        <ele>815</ele>
        <time>2017-10-22T04:46:39Z</time>
      </trkpt>
      <trkpt lat="44.92918" lon="5.63238">
        <ele>809</ele>
        <time>2017-10-22T04:46:58Z</time>
      </trkpt>
      <trkpt lat="44.92964" lon="5.63307">
        <ele>810</ele>
        <time>2017-10-22T04:47:14Z</time>
      </trkpt>
      <trkpt lat="44.92984" lon="5.63347">
        <ele>814</ele>
        <time>2017-10-22T04:47:24Z</time>
      </trkpt>
      <trkpt lat="44.92993" lon="5.63375">
        <ele>815</ele>
        <time>2017-10-22T04:47:37Z</time>
      </trkpt>
      <trkpt lat="44.92996" lon="5.63397">
        <ele>815</ele>
        <time>2017-10-22T04:47:52Z</time>
      </trkpt>
      <trkpt lat="44.92994" lon="5.63407">
        <ele>815</ele>
        <time>2017-10-22T04:47:55Z</time>
      </trkpt>
      <trkpt lat="44.92989" lon="5.63417">
        <ele>814</ele>
        <time>2017-10-22T04:48:09Z</time>
      </trkpt>
      <trkpt lat="44.92979" lon="5.63428">
        <ele>814</ele>
        <time>2017-10-22T04:48:11Z</time>
      </trkpt>
      <trkpt lat="44.92955" lon="5.63446">
        <ele>815</ele>
        <time>2017-10-22T04:48:16Z</time>
      </trkpt>
      <trkpt lat="44.92914" lon="5.63481">
        <ele>820</ele>
        <time>2017-10-22T04:48:19Z</time>
      </trkpt>
      <trkpt lat="44.92883" lon="5.63506">
        <ele>811</ele>
        <time>2017-10-22T04:48:26Z</time>
      </trkpt>
      <trkpt lat="44.92848" lon="5.63522">
        <ele>813</ele>
        <time>2017-10-22T04:48:29Z</time>
      </trkpt>
      <trkpt lat="44.92825" lon="5.63526">
        <ele>815</ele>
        <time>2017-10-22T04:48:39Z</time>
      </trkpt>
      <trkpt lat="44.92798" lon="5.63523">
        <ele>814</ele>
        <time>2017-10-22T04:48:59Z</time>
      </trkpt>
      <trkpt lat="44.92774" lon="5.63516">
        <ele>816</ele>
        <time>2017-10-22T04:49:14Z</time>
      </trkpt>
      <trkpt lat="44.92745" lon="5.63512">
        <ele>819</ele>
        <time>2017-10-22T04:49:21Z</time>
      </trkpt>
      <trkpt lat="44.92673" lon="5.63513">
        <ele>815</ele>
        <time>2017-10-22T04:49:39Z</time>
      </trkpt>
      <trkpt lat="44.92638" lon="5.63504">
        <ele>812</ele>
        <time>2017-10-22T04:49:52Z</time>
      </trkpt>
      <trkpt lat="44.92606" lon="5.63493">
        <ele>829</ele>
        <time>2017-10-22T04:50:06Z</time>
      </trkpt>
      <trkpt lat="44.92592" lon="5.63488">
        <ele>826</ele>
        <time>2017-10-22T04:50:18Z</time>
      </trkpt>
      <trkpt lat="44.92579" lon="5.63487">
        <ele>824</ele>
        <time>2017-10-22T04:50:23Z</time>
      </trkpt>
      <trkpt lat="44.92553" lon="5.63487">
        <ele>827</ele>
        <time>2017-10-22T04:50:33Z</time>
      </trkpt>
      <trkpt lat="44.92526" lon="5.63486">
        <ele>826</ele>
        <time>2017-10-22T04:50:40Z</time>
      </trkpt>
      <trkpt lat="44.92504" lon="5.63481">
        <ele>823</ele>
        <time>2017-10-22T04:50:53Z</time>
      </trkpt>
      <trkpt lat="44.92464" lon="5.63467">
        <ele>826</ele>
        <time>2017-10-22T04:51:06Z</time>
      </trkpt>
      <trkpt lat="44.92438" lon="5.63464">
        <ele>826</ele>
        <time>2017-10-22T04:51:16Z</time>
      </trkpt>
      <trkpt lat="44.92409" lon="5.63464">
        <ele>825</ele>
        <time>2017-10-22T04:51:25Z</time>
      </trkpt>
      <trkpt lat="44.92378" lon="5.63468">
        <ele>826</ele>
        <time>2017-10-22T04:51:42Z</time>
      </trkpt>
      <trkpt lat="44.92346" lon="5.63473">
        <ele>825</ele>
        <time>2017-10-22T04:52:02Z</time>
      </trkpt>
      <trkpt lat="44.92298" lon="5.63487">
        <ele>825</ele>
        <time>2017-10-22T04:52:08Z</time>
      </trkpt>
      <trkpt lat="44.92266" lon="5.63501">
        <ele>810</ele>
        <time>2017-10-22T04:52:27Z</time>
      </trkpt>
      <trkpt lat="44.92241" lon="5.63513">
        <ele>809</ele>
        <time>2017-10-22T04:52:37Z</time>
      </trkpt>
      <trkpt lat="44.92206" lon="5.63535">
        <ele>807</ele>
        <time>2017-10-22T04:52:52Z</time>
      </trkpt>
      <trkpt lat="44.92175" lon="5.63556">
        <ele>806</ele>
        <time>2017-10-22T04:53:00Z</time>
      </trkpt>
      <trkpt lat="44.92164" lon="5.63567">
        <ele>805</ele>
        <time>2017-10-22T04:53:20Z</time>
      </trkpt>
      <trkpt lat="44.92157" lon="5.6358">
        <ele>805</ele>
        <time>2017-10-22T04:53:38Z</time>
      </trkpt>
      <trkpt lat="44.92152" lon="5.63584">
        <ele>805</ele>
        <time>2017-10-22T04:53:49Z</time>
      </trkpt>
      <trkpt lat="44.92148" lon="5.63593">
        <ele>805</ele>
        <time>2017-10-22T04:53:55Z</time>
      </trkpt>
      <trkpt lat="44.92141" lon="5.63602">
        <ele>806</ele>
        <time>2017-10-22T04:53:59Z</time>
      </trkpt>
      <trkpt lat="44.92126" lon="5.63613">
        <ele>806</ele>
        <time>2017-10-22T04:54:07Z</time>
      </trkpt>
      <trkpt lat="44.92122" lon="5.6361">
        <ele>806</ele>
        <time>2017-10-22T04:54:12Z</time>
      </trkpt>
      <trkpt lat="44.92118" lon="5.63609">
        <ele>806</ele>
        <time>2017-10-22T04:54:29Z</time>
      </trkpt>
      <trkpt lat="44.92097" lon="5.63557">
        <ele>807</ele>
        <time>2017-10-22T04:54:34Z</time>
      </trkpt>
      <trkpt lat="44.92087" lon="5.63539">
        <ele>807</ele>
        <time>2017-10-22T04:54:45Z</time>
      </trkpt>
      <trkpt lat="44.92061" lon="5.63507">
        <ele>808</ele>
        <time>2017-10-22T04:55:00Z</time>
      </trkpt>
      <trkpt lat="44.92036" lon="5.63487">
        <ele>812</ele>
        <time>2017-10-22T04:55:12Z</time>
      </trkpt>
      <trkpt lat="44.92017" lon="5.63478">
        <ele>812</ele>
        <time>2017-10-22T04:55:19Z</time>
      </trkpt>
      <trkpt lat="44.91992" lon="5.63471">
        <ele>813</ele>
        <time>2017-10-22T04:55:32Z</time>
      </trkpt>
      <trkpt lat="44.91952" lon="5.63466">
        <ele>813</ele>
        <time>2017-10-22T04:55:34Z</time>
      </trkpt>
      <trkpt lat="44.91934" lon="5.63462">
        <ele>814</ele>
        <time>2017-10-22T04:55:42Z</time>
      </trkpt>
      <trkpt lat="44.91918" lon="5.63454">
        <ele>814</ele>
        <time>2017-10-22T04:55:51Z</time>
      </trkpt>
      <trkpt lat="44.91896" lon="5.63435">
        <ele>816</ele>
        <time>2017-10-22T04:55:58Z</time>
      </trkpt>
      <trkpt lat="44.9178" lon="5.63319">
        <ele>832</ele>
        <time>2017-10-22T04:56:18Z</time>
      </trkpt>
      <trkpt lat="44.91765" lon="5.63309">
        <ele>832</ele>
        <time>2017-10-22T04:56:27Z</time>
      </trkpt>
      <trkpt lat="44.91755" lon="5.63305">
        <ele>832</ele>
        <time>2017-10-22T04:56:35Z</time>
      </trkpt>
      <trkpt lat="44.91741" lon="5.63301">
        <ele>830</ele>
        <time>2017-10-22T04:56:40Z</time>
      </trkpt>
      <trkpt lat="44.91725" lon="5.63301">
        <ele>830</ele>
        <time>2017-10-22T04:56:42Z</time>
      </trkpt>
      <trkpt lat="44.91712" lon="5.63304">
        <ele>830</ele>
        <time>2017-10-22T04:56:51Z</time>
      </trkpt>
      <trkpt lat="44.91688" lon="5.63317">
        <ele>828</ele>
        <time>2017-10-22T04:57:03Z</time>
      </trkpt>
      <trkpt lat="44.91681" lon="5.63321">
        <ele>827</ele>
        <time>2017-10-22T04:57:17Z</time>
      </trkpt>
      <trkpt lat="44.91632" lon="5.63375">
        <ele>826</ele>
        <time>2017-10-22T04:57:27Z</time>
      </trkpt>
      <trkpt lat="44.91615" lon="5.63394">
        <ele>827</ele>
        <time>2017-10-22T04:57:38Z</time>
      </trkpt>
      <trkpt lat="44.91608" lon="5.63399">
        <ele>828</ele>
        <time>2017-10-22T04:57:52Z</time>
      </trkpt>
      <trkpt lat="44.91597" lon="5.63404">
        <ele>829</ele>
        <time>2017-10-22T04:58:02Z</time>
      </trkpt>
      <trkpt lat="44.91582" lon="5.63404">
        <ele>832</ele>
        <time>2017-10-22T04:58:05Z</time>
      </trkpt>
      <trkpt lat="44.91565" lon="5.634">
        <ele>833</ele>
        <time>2017-10-22T04:58:15Z</time>
      </trkpt>
      <trkpt lat="44.91548" lon="5.63396">
        <ele>834</ele>
        <time>2017-10-22T04:58:34Z</time>
      </trkpt>
      <trkpt lat="44.91418" lon="5.63326">
        <ele>842</ele>
        <time>2017-10-22T04:58:45Z</time>
      </trkpt>
      <trkpt lat="44.91309" lon="5.63265">
        <ele>846</ele>
        <time>2017-10-22T04:59:04Z</time>
      </trkpt>
      <trkpt lat="44.9131" lon="5.63263">
        <ele>847</ele>
        <time>2017-10-22T04:59:23Z</time>
      </trkpt>
      <trkpt lat="44.91309" lon="5.63259">
        <ele>847</ele>
        <time>2017-10-22T04:59:39Z</time>
      </trkpt>
      <trkpt lat="44.91308" lon="5.63256">
        <ele>847</ele>
        <time>2017-10-22T04:59:44Z</time>
      </trkpt>
      <trkpt lat="44.91303" lon="5.63254">
        <ele>847</ele>
        <time>2017-10-22T04:59:53Z</time>
      </trkpt>
      <trkpt lat="44.91299" lon="5.63257">
        <ele>847</ele>
        <time>2017-10-22T05:00:12Z</time>
      </trkpt>
      <trkpt lat="44.91298" lon="5.63258">
        <ele>847</ele>
        <time>2017-10-22T05:00:32Z</time>
      </trkpt>
      <trkpt lat="44.91256" lon="5.63237">
        <ele>847</ele>
        <time>2017-10-22T05:00:45Z</time>
      </trkpt>
      <trkpt lat="44.91193" lon="5.63201">
        <ele>850</ele>
        <time>2017-10-22T05:00:50Z</time>
      </trkpt>
      <trkpt lat="44.91175" lon="5.63189">
        <ele>851</ele>
        <time>2017-10-22T05:00:57Z</time>
      </trkpt>
      <trkpt lat="44.91129" lon="5.63167">
        <ele>853</ele>
        <time>2017-10-22T05:00:59Z</time>
      </trkpt>
      <trkpt lat="44.90994" lon="5.63095">
        <ele>868</ele>
        <time>2017-10-22T05:01:13Z</time>
      </trkpt>
      <trkpt lat="44.90928" lon="5.63058">
        <ele>874</ele>
        <time>2017-10-22T05:01:26Z</time>
      </trkpt>
      <trkpt lat="44.90888" lon="5.6303">
        <ele>878</ele>
        <time>2017-10-22T05:01:38Z</time>
      </trkpt>
      <trkpt lat="44.90864" lon="5.63009">
        <ele>878</ele>
        <time>2017-10-22T05:01:51Z</time>
      </trkpt>
      <trkpt lat="44.90838" lon="5.62979">
        <ele>877</ele>
        <time>2017-10-22T05:01:56Z</time>
      </trkpt>
      <trkpt lat="44.90828" lon="5.62963">
        <ele>883</ele>
        <time>2017-10-22T05:02:00Z</time>
      </trkpt>
      <trkpt lat="44.90825" lon="5.62954">
        <ele>883</ele>
        <time>2017-10-22T05:02:06Z</time>
      </trkpt>
      <trkpt lat="44.90812" lon="5.62928">
        <ele>883</ele>
        <time>2017-10-22T05:02:25Z</time>
      </trkpt>
      <trkpt lat="44.90789" lon="5.62872">
        <ele>885</ele>
        <time>2017-10-22T05:02:32Z</time>
      </trkpt>
      <trkpt lat="44.90781" lon="5.62845">
        <ele>886</ele>
        <time>2017-10-22T05:02:47Z</time>
      </trkpt>
      <trkpt lat="44.90777" lon="5.62823">
        <ele>886</ele>
        <time>2017-10-22T05:03:07Z</time>
      </trkpt>
      <trkpt lat="44.90778" lon="5.628">
        <ele>885</ele>
        <time>2017-10-22T05:03:13Z</time>
      </trkpt>
      <trkpt lat="44.90751" lon="5.6279">
        <ele>886</ele>
        <time>2017-10-22T05:03:15Z</time>
      </trkpt>
      <trkpt lat="44.9074" lon="5.62782">
        <ele>893</ele>
        <time>2017-10-22T05:03:34Z</time>
      </trkpt>
      <trkpt lat="44.90729" lon="5.6276">
        <ele>893</ele>
        <time>2017-10-22T05:03:43Z</time>
      </trkpt>
      <trkpt lat="44.90709" lon="5.62717">
        <ele>895</ele>
        <time>2017-10-22T05:03:45Z</time>
      </trkpt>
      <trkpt lat="44.90688" lon="5.62687">
        <ele>897</ele>
        <time>2017-10-22T05:03:56Z</time>
      </trkpt>
      <trkpt lat="44.90673" lon="5.6267">
        <ele>899</ele>
        <time>2017-10-22T05:04:12Z</time>
      </trkpt>
      <trkpt lat="44.90651" lon="5.62654">
        <ele>902</ele>
        <time>2017-10-22T05:04:14Z</time>
      </trkpt>
      <trkpt lat="44.90572" lon="5.62614">
        <ele>900</ele>
        <time>2017-10-22T05:04:26Z</time>
      </trkpt>
      <trkpt lat="44.90557" lon="5.62615">
        <ele>900</ele>
        <time>2017-10-22T05:04:37Z</time>
      </trkpt>
      <trkpt lat="44.90543" lon="5.6262">
        <ele>899</ele>
        <time>2017-10-22T05:04:52Z</time>
      </trkpt>
      <trkpt lat="44.90525" lon="5.62629">
        <ele>899</ele>
        <time>2017-10-22T05:05:11Z</time>
      </trkpt>
      <trkpt lat="44.90509" lon="5.62647">
        <ele>899</ele>
        <time>2017-10-22T05:05:31Z</time>
      </trkpt>
      <trkpt lat="44.90465" lon="5.62711">
        <ele>897</ele>
        <time>2017-10-22T05:05:36Z</time>
      </trkpt>
      <trkpt lat="44.90454" lon="5.62726">
        <ele>897</ele>
        <time>2017-10-22T05:05:53Z</time>
      </trkpt>
      <trkpt lat="44.90442" lon="5.62735">
        <ele>896</ele>
        <time>2017-10-22T05:06:07Z</time>
      </trkpt>
      <trkpt lat="44.90423" lon="5.62746">
        <ele>894</ele>
        <time>2017-10-22T05:06:18Z</time>
      </trkpt>
      <trkpt lat="44.9042" lon="5.62747">
        <ele>894</ele>
        <time>2017-10-22T05:06:34Z</time>
      </trkpt>
      <trkpt lat="44.90404" lon="5.62759">
        <ele>894</ele>
        <time>2017-10-22T05:06:46Z</time>
      </trkpt>
      <trkpt lat="44.90393" lon="5.62772">
        <ele>893</ele>
        <time>2017-10-22T05:06:49Z</time>
      </trkpt>
      <trkpt lat="44.90371" lon="5.62817">
        <ele>895</ele>
        <time>2017-10-22T05:07:04Z</time>
      </trkpt>
      <trkpt lat="44.90357" lon="5.62846">
        <ele>903</ele>
        <time>2017-10-22T05:07:19Z</time>
      </trkpt>
      <trkpt lat="44.90346" lon="5.62862">
        <ele>904</ele>
        <time>2017-10-22T05:07:23Z</time>
      </trkpt>
      <trkpt lat="44.90322" lon="5.62888">
        <ele>901</ele>
        <time>2017-10-22T05:07:25Z</time>
      </trkpt>
      <trkpt lat="44.9031" lon="5.62895">
        <ele>901</ele>
        <time>2017-10-22T05:07:38Z</time>
      </trkpt>
      <trkpt lat="44.90302" lon="5.62896">
        <ele>901</ele>
        <time>2017-10-22T05:07:51Z</time>
      </trkpt>
      <trkpt lat="44.90289" lon="5.6289">
        <ele>899</ele>
        <time>2017-10-22T05:07:57Z</time>
      </trkpt>
      <trkpt lat="44.9027" lon="5.6287">
        <ele>896</ele>
        <time>2017-10-22T05:08:01Z</time>
      </trkpt>
      <trkpt lat="44.90263" lon="5.62868">
        <ele>895</ele>
        <time>2017-10-22T05:08:08Z</time>
      </trkpt>
      <trkpt lat="44.90252" lon="5.62871">
        <ele>895</ele>
        <time>2017-10-22T05:08:27Z</time>
      </trkpt>
      <trkpt lat="44.90235" lon="5.6288">
        <ele>893</ele>
        <time>2017-10-22T05:08:44Z</time>
      </trkpt>
      <trkpt lat="44.90219" lon="5.62882">
        <ele>893</ele>
        <time>2017-10-22T05:08:47Z</time>
      </trkpt>
      <trkpt lat="44.90208" lon="5.62877">
        <ele>891</ele>
        <time>2017-10-22T05:09:00Z</time>
      </trkpt>
      <trkpt lat="44.90182" lon="5.62852">
        <ele>886</ele>
        <time>2017-10-22T05:09:15Z</time>
      </trkpt>
      <trkpt lat="44.90168" lon="5.62841">
        <ele>881</ele>
        <time>2017-10-22T05:09:28Z</time>
      </trkpt>
      <trkpt lat="44.90158" lon="5.62837">
        <ele>879</ele>
        <time>2017-10-22T05:09:34Z</time>
      </trkpt>
      <trkpt lat="44.9014" lon="5.62838">
        <ele>881</ele>
        <time>2017-10-22T05:09:39Z</time>
      </trkpt>
      <trkpt lat="44.90119" lon="5.6285">
        <ele>882</ele>
        <time>2017-10-22T05:09:51Z</time>
      </trkpt>
      <trkpt lat="44.90105" lon="5.62856">
        <ele>881</ele>
        <time>2017-10-22T05:10:02Z</time>
      </trkpt>
      <trkpt lat="44.9009" lon="5.62853">
        <ele>880</ele>
        <time>2017-10-22T05:10:17Z</time>
      </trkpt>
      <trkpt lat="44.90076" lon="5.62838">
        <ele>876</ele>
        <time>2017-10-22T05:10:27Z</time>
      </trkpt>
      <trkpt lat="44.90065" lon="5.62822">
        <ele>868</ele>
        <time>2017-10-22T05:10:34Z</time>
      </trkpt>
      <trkpt lat="44.90046" lon="5.62807">
        <ele>865</ele>
        <time>2017-10-22T05:10:40Z</time>
      </trkpt>
      <trkpt lat="44.90007" lon="5.62787">
        <ele>862</ele>
        <time>2017-10-22T05:10:48Z</time>
      </trkpt>
      <trkpt lat="44.89983" lon="5.62779">
        <ele>858</ele>
        <time>2017-10-22T05:10:50Z</time>
      </trkpt>
      <trkpt lat="44.89963" lon="5.62779">
        <ele>858</ele>
        <time>2017-10-22T05:11:07Z</time>
      </trkpt>
      <trkpt lat="44.89924" lon="5.6279">
        <ele>858</ele>
        <time>2017-10-22T05:11:17Z</time>
      </trkpt>
      <trkpt lat="44.89868" lon="5.62807">
        <ele>852</ele>
        <time>2017-10-22T05:11:23Z</time>
      </trkpt>
      <trkpt lat="44.89855" lon="5.62813">
        <ele>852</ele>
        <time>2017-10-22T05:11:39Z</time>
      </trkpt>
      <trkpt lat="44.89844" lon="5.62822">
        <ele>852</ele>
        <time>2017-10-22T05:11:50Z</time>
      </trkpt>
      <trkpt lat="44.89834" lon="5.62832">
        <ele>852</ele>
        <time>2017-10-22T05:12:02Z</time>
      </trkpt>
      <trkpt lat="44.8982" lon="5.62856">
        <ele>851</ele>
        <time>2017-10-22T05:12:17Z</time>
      </trkpt>
      <trkpt lat="44.89797" lon="5.6291">
        <ele>850</ele>
        <time>2017-10-22T05:12:20Z</time>
      </trkpt>
      <trkpt lat="44.89786" lon="5.62937">
        <ele>849</ele>
        <time>2017-10-22T05:12:35Z</time>
      </trkpt>
      <trkpt lat="44.89784" lon="5.62958">
        <ele>849</ele>
        <time>2017-10-22T05:12:48Z</time>
      </trkpt>
      <trkpt lat="44.89785" lon="5.6297">
        <ele>849</ele>
        <time>2017-10-22T05:12:51Z</time>
      </trkpt>
      <trkpt lat="44.89789" lon="5.6298">
        <ele>849</ele>
        <time>2017-10-22T05:12:57Z</time>
      </trkpt>
      <trkpt lat="44.89798" lon="5.62991">
        <ele>850</ele>
        <time>2017-10-22T05:13:17Z</time>
      </trkpt>
      <trkpt lat="44.89812" lon="5.63">
        <ele>851</ele>
        <time>2017-10-22T05:13:34Z</time>
      </trkpt>
      <trkpt lat="44.89822" lon="5.63009">
        <ele>851</ele>
        <time>2017-10-22T05:13:40Z</time>
      </trkpt>
      <trkpt lat="44.89825" lon="5.63017">
        <ele>851</ele>
        <time>2017-10-22T05:13:42Z</time>
      </trkpt>
      <trkpt lat="44.89826" lon="5.63027">
        <ele>850</ele>
        <time>2017-10-22T05:13:50Z</time>
      </trkpt>
      <trkpt lat="44.89824" lon="5.63038">
        <ele>850</ele>
        <time>2017-10-22T05:14:08Z</time>
      </trkpt>
      <trkpt lat="44.8982" lon="5.63043">
        <ele>850</ele>
        <time>2017-10-22T05:14:27Z</time>
      </trkpt>
      <trkpt lat="44.8981" lon="5.6305">
        <ele>849</ele>
        <time>2017-10-22T05:14:41Z</time>
      </trkpt>
      <trkpt lat="44.89778" lon="5.6306">
        <ele>846</ele>
        <time>2017-10-22T05:14:46Z</time>
      </trkpt>
      <trkpt lat="44.89765" lon="5.63063">
        <ele>844</ele>
        <time>2017-10-22T05:14:51Z</time>
      </trkpt>
      <trkpt lat="44.89756" lon="5.6307">
        <ele>842</ele>
        <time>2017-10-22T05:15:05Z</time>
      </trkpt>
      <trkpt lat="44.89744" lon="5.63085">
        <ele>837</ele>
        <time>2017-10-22T05:15:21Z</time>
      </trkpt>
      <trkpt lat="44.89738" lon="5.6311">
        <ele>834</ele>
        <time>2017-10-22T05:15:40Z</time>
      </trkpt>
      <trkpt lat="44.89739" lon="5.63129">
        <ele>834</ele>
        <time>2017-10-22T05:15:45Z</time>
      </trkpt>
      <trkpt lat="44.89752" lon="5.63162">
        <ele>841</ele>
        <time>2017-10-22T05:15:59Z</time>
      </trkpt>
      <trkpt lat="44.89757" lon="5.63176">
        <ele>843</ele>
        <time>2017-10-22T05:16:06Z</time>
      </trkpt>
      <trkpt lat="44.89758" lon="5.6319">
        <ele>846</ele>
        <time>2017-10-22T05:16:16Z</time>
      </trkpt>
      <trkpt lat="44.89751" lon="5.6322">
        <ele>846</ele>
        <time>2017-10-22T05:16:29Z</time>
      </trkpt>
      <trkpt lat="44.89736" lon="5.63266">
        <ele>834</ele>
        <time>2017-10-22T05:16:37Z</time>
      </trkpt>
      <trkpt lat="44.89729" lon="5.63294">
        <ele>832</ele>
        <time>2017-10-22T05:16:55Z</time>
      </trkpt>
      <trkpt lat="44.89728" lon="5.6332">
        <ele>833</ele>
        <time>2017-10-22T05:17:09Z</time>
      </trkpt>
      <trkpt lat="44.89732" lon="5.63356">
        <ele>835</ele>
        <time>2017-10-22T05:17:27Z</time>
      </trkpt>
      <trkpt lat="44.89731" lon="5.63379">
        <ele>836</ele>
        <time>2017-10-22T05:17:44Z</time>
      </trkpt>
      <trkpt lat="44.89727" lon="5.63392">
        <ele>836</ele>
        <time>2017-10-22T05:18:04Z</time>
      </trkpt>
      <trkpt lat="44.89721" lon="5.63403">
        <ele>836</ele>
        <time>2017-10-22T05:18:15Z</time>
      </trkpt>
      <trkpt lat="44.89708" lon="5.63416">
        <ele>834</ele>
        <time>2017-10-22T05:18:27Z</time>
      </trkpt>
      <trkpt lat="44.89676" lon="5.63444">
        <ele>838</ele>
        <time>2017-10-22T05:18:32Z</time>
      </trkpt>
      <trkpt lat="44.89644" lon="5.63476">
        <ele>827</ele>
        <time>2017-10-22T05:18:35Z</time>
      </trkpt>
      <trkpt lat="44.89607" lon="5.63508">
        <ele>832</ele>
        <time>2017-10-22T05:18:44Z</time>
      </trkpt>
      <trkpt lat="44.89589" lon="5.63519">
        <ele>830</ele>
        <time>2017-10-22T05:18:47Z</time>
      </trkpt>
      <trkpt lat="44.8948" lon="5.63541">
        <ele>817</ele>
        <time>2017-10-22T05:18:49Z</time>
      </trkpt>
      <trkpt lat="44.89413" lon="5.63555">
        <ele>813</ele>
        <time>2017-10-22T05:19:09Z</time>
      </trkpt>
      <trkpt lat="44.89398" lon="5.63564">
        <ele>814</ele>
        <time>2017-10-22T05:19:19Z</time>
      </trkpt>
      <trkpt lat="44.89377" lon="5.63571">
        <ele>813</ele>
        <time>2017-10-22T05:19:21Z</time>
      </trkpt>
      <trkpt lat="44.89361" lon="5.63567">
        <ele>813</ele>
        <time>2017-10-22T05:19:41Z</time>
      </trkpt>
      <trkpt lat="44.89338" lon="5.63553">
        <ele>812</ele>
        <time>2017-10-22T05:19:52Z</time>
      </trkpt>
      <trkpt lat="44.89325" lon="5.63542">
        <ele>813</ele>
        <time>2017-10-22T05:20:09Z</time>
      </trkpt>
      <trkpt lat="44.8931" lon="5.63527">
        <ele>811</ele>
        <time>2017-10-22T05:20:27Z</time>
      </trkpt>
      <trkpt lat="44.89296" lon="5.63509">
        <ele>811</ele>
        <time>2017-10-22T05:20:42Z</time>
      </trkpt>
      <trkpt lat="44.89267" lon="5.63461">
        <ele>798</ele>
        <time>2017-10-22T05:20:47Z</time>
      </trkpt>
      <trkpt lat="44.89248" lon="5.63436">
        <ele>796</ele>
        <time>2017-10-22T05:20:54Z</time>
      </trkpt>
      <trkpt lat="44.89233" lon="5.63426">
        <ele>796</ele>
        <time>2017-10-22T05:21:06Z</time>
      </trkpt>
      <trkpt lat="44.89217" lon="5.63424">
        <ele>796</ele>
        <time>2017-10-22T05:21:22Z</time>
      </trkpt>
      <trkpt lat="44.89201" lon="5.63432">
        <ele>796</ele>
        <time>2017-10-22T05:21:33Z</time>
      </trkpt>
      <trkpt lat="44.891" lon="5.63527">
        <ele>800</ele>
        <time>2017-10-22T05:21:39Z</time>
      </trkpt>
      <trkpt lat="44.89002" lon="5.63622">
        <ele>800</ele>
        <time>2017-10-22T05:21:48Z</time>
      </trkpt>
      <trkpt lat="44.88935" lon="5.63694">
        <ele>793</ele>
        <time>2017-10-22T05:21:51Z</time>
      </trkpt>
      <trkpt lat="44.889" lon="5.6373">
        <ele>782</ele>
        <time>2017-10-22T05:22:11Z</time>
      </trkpt>
      <trkpt lat="44.88856" lon="5.63767">
        <ele>787</ele>
        <time>2017-10-22T05:22:29Z</time>
      </trkpt>
      <trkpt lat="44.88753" lon="5.63844">
        <ele>780</ele>
        <time>2017-10-22T05:22:45Z</time>
      </trkpt>
      <trkpt lat="44.88745" lon="5.63848">
        <ele>775</ele>
        <time>2017-10-22T05:22:55Z</time>
      </trkpt>
      <trkpt lat="44.88737" lon="5.63849">
        <ele>775</ele>
        <time>2017-10-22T05:23:03Z</time>
      </trkpt>
      <trkpt lat="44.88691" lon="5.63848">
        <ele>771</ele>
        <time>2017-10-22T05:23:09Z</time>
      </trkpt>
      <trkpt lat="44.8868" lon="5.63852">
        <ele>770</ele>
        <time>2017-10-22T05:23:27Z</time>
      </trkpt>
      <trkpt lat="44.88664" lon="5.63861">
        <ele>765</ele>
        <time>2017-10-22T05:23:37Z</time>
      </trkpt>
      <trkpt lat="44.88641" lon="5.63877">
        <ele>765</ele>
        <time>2017-10-22T05:23:55Z</time>
      </trkpt>
      <trkpt lat="44.88629" lon="5.63891">
        <ele>766</ele>
        <time>2017-10-22T05:24:12Z</time>
      </trkpt>
      <trkpt lat="44.88612" lon="5.63916">
        <ele>766</ele>
        <time>2017-10-22T05:24:31Z</time>
      </trkpt>
      <trkpt lat="44.88608" lon="5.63928">
        <ele>769</ele>
        <time>2017-10-22T05:24:51Z</time>
      </trkpt>
      <trkpt lat="44.88605" lon="5.63947">
        <ele>769</ele>
        <time>2017-10-22T05:25:04Z</time>
      </trkpt>
      <trkpt lat="44.88601" lon="5.64079">
        <ele>766</ele>
        <time>2017-10-22T05:25:17Z</time>
      </trkpt>
      <trkpt lat="44.88599" lon="5.64104">
        <ele>766</ele>
        <time>2017-10-22T05:25:26Z</time>
      </trkpt>
      <trkpt lat="44.88596" lon="5.64117">
        <ele>766</ele>
        <time>2017-10-22T05:25:46Z</time>
      </trkpt>
      <trkpt lat="44.88582" lon="5.6415">
        <ele>761</ele>
        <time>2017-10-22T05:25:58Z</time>
      </trkpt>
      <trkpt lat="44.88488" lon="5.64298">
        <ele>756</ele>
        <time>2017-10-22T05:26:08Z</time>
      </trkpt>
      <trkpt lat="44.88475" lon="5.64323">
        <ele>756</ele>
        <time>2017-10-22T05:26:21Z</time>
      </trkpt>
      <trkpt lat="44.88466" lon="5.64356">
        <ele>756</ele>
        <time>2017-10-22T05:26:25Z</time>
      </trkpt>
      <trkpt lat="44.88463" lon="5.64388">
        <ele>756</ele>
        <time>2017-10-22T05:26:42Z</time>
      </trkpt>
      <trkpt lat="44.88464" lon="5.64481">
        <ele>757</ele>
        <time>2017-10-22T05:26:54Z</time>
      </trkpt>
      <trkpt lat="44.88462" lon="5.64498">
        <ele>757</ele>
        <time>2017-10-22T05:27:13Z</time>
      </trkpt>
      <trkpt lat="44.88458" lon="5.64512">
        <ele>759</ele>
        <time>2017-10-22T05:27:28Z</time>
      </trkpt>
      <trkpt lat="44.88448" lon="5.64535">
        <ele>759</ele>
        <time>2017-10-22T05:27:36Z</time>
      </trkpt>
      <trkpt lat="44.8844" lon="5.64546">
        <ele>759</ele>
        <time>2017-10-22T05:27:40Z</time>
      </trkpt>
      <trkpt lat="44.88415" lon="5.64569">
        <ele>754</ele>
        <time>2017-10-22T05:27:46Z</time>
      </trkpt>
      <trkpt lat="44.88326" lon="5.64644">
        <ele>750</ele>
        <time>2017-10-22T05:28:02Z</time>
      </trkpt>
      <trkpt lat="44.8831" lon="5.6466">
        <ele>750</ele>
        <time>2017-10-22T05:28:20Z</time>
      </trkpt>
      <trkpt lat="44.88265" lon="5.64721">
        <ele>751</ele>
        <time>2017-10-22T05:28:38Z</time>
      </trkpt>
      <trkpt lat="44.88172" lon="5.64845">
        <ele>754</ele>
        <time>2017-10-22T05:28:42Z</time>
      </trkpt>
      <trkpt lat="44.88161" lon="5.64855">
        <ele>748</ele>
        <time>2017-10-22T05:28:53Z</time>
      </trkpt>
      <trkpt lat="44.88148" lon="5.64864">
        <ele>748</ele>
        <time>2017-10-22T05:28:59Z</time>
      </trkpt>
      <trkpt lat="44.88134" lon="5.64869">
        <ele>748</ele>
        <time>2017-10-22T05:29:01Z</time>
      </trkpt>
      <trkpt lat="44.88085" lon="5.64866">
        <ele>746</ele>
        <time>2017-10-22T05:29:19Z</time>
      </trkpt>
      <trkpt lat="44.88064" lon="5.64871">
        <ele>744</ele>
        <time>2017-10-22T05:29:27Z</time>
      </trkpt>
      <trkpt lat="44.88054" lon="5.64877">
        <ele>744</ele>
        <time>2017-10-22T05:29:47Z</time>
      </trkpt>
      <trkpt lat="44.88032" lon="5.64892">
        <ele>744</ele>
        <time>2017-10-22T05:29:52Z</time>
      </trkpt>
      <trkpt lat="44.8801" lon="5.64903">
        <ele>745</ele>
        <time>2017-10-22T05:29:54Z</time>
      </trkpt>
      <trkpt lat="44.87998" lon="5.64905">
        <ele>745</ele>
        <time>2017-10-22T05:30:13Z</time>
      </trkpt>
      <trkpt lat="44.87971" lon="5.64901">
        <ele>744</ele>
        <time>2017-10-22T05:30:29Z</time>
      </trkpt>
      <trkpt lat="44.87913" lon="5.64881">
        <ele>739</ele>
        <time>2017-10-22T05:30:31Z</time>
      </trkpt>
      <trkpt lat="44.87899" lon="5.6488">
        <ele>738</ele>
        <time>2017-10-22T05:30:36Z</time>
      </trkpt>
      <trkpt lat="44.87889" lon="5.64882">
        <ele>738</ele>
        <time>2017-10-22T05:30:45Z</time>
      </trkpt>
      <trkpt lat="44.8788" lon="5.64887">
        <ele>738</ele>
        <time>2017-10-22T05:31:02Z</time>
      </trkpt>
      <trkpt lat="44.87869" lon="5.64897">
        <ele>737</ele>
        <time>2017-10-22T05:31:14Z</time>
      </trkpt>
      <trkpt lat="44.87859" lon="5.64911">
        <ele>737</ele>
        <time>2017-10-22T05:31:23Z</time>
      </trkpt>
      <trkpt lat="44.87843" lon="5.64947">
        <ele>742</ele>
        <time>2017-10-22T05:31:31Z</time>
      </trkpt>
      <trkpt lat="44.87822" lon="5.64998">
        <ele>738</ele>
        <time>2017-10-22T05:31:45Z</time>
      </trkpt>
      <trkpt lat="44.87811" lon="5.65021">
        <ele>740</ele>
        <time>2017-10-22T05:31:55Z</time>
      </trkpt>
      <trkpt lat="44.878" lon="5.65037">
        <ele>740</ele>
        <time>2017-10-22T05:31:58Z</time>
      </trkpt>
      <trkpt lat="44.87788" lon="5.65048">
        <ele>739</ele>
        <time>2017-10-22T05:32:11Z</time>
      </trkpt>
      <trkpt lat="44.87772" lon="5.65054">
        <ele>739</ele>
        <time>2017-10-22T05:32:27Z</time>
      </trkpt>
      <trkpt lat="44.87726" lon="5.65062">
        <ele>733</ele>
        <time>2017-10-22T05:32:45Z</time>
      </trkpt>
      <trkpt lat="44.87683" lon="5.65067">
        <ele>732</ele>
        <time>2017-10-22T05:32:59Z</time>
      </trkpt>
      <trkpt lat="44.87649" lon="5.65068">
        <ele>732</ele>
        <time>2017-10-22T05:33:14Z</time>
      </trkpt>
      <trkpt lat="44.87623" lon="5.6506">
        <ele>732</ele>
        <time>2017-10-22T05:33:22Z</time>
      </trkpt>
      <trkpt lat="44.87517" lon="5.64999">
        <ele>728</ele>
        <time>2017-10-22T05:33:35Z</time>
      </trkpt>
      <trkpt lat="44.87457" lon="5.64965">
        <ele>725</ele>
        <time>2017-10-22T05:33:53Z</time>
      </trkpt>
      <trkpt lat="44.8744" lon="5.64962">
        <ele>725</ele>
        <time>2017-10-22T05:34:02Z</time>
      </trkpt>
      <trkpt lat="44.87424" lon="5.64966">
        <ele>725</ele>
        <time>2017-10-22T05:34:04Z</time>
      </trkpt>
      <trkpt lat="44.8741" lon="5.64977">
        <ele>722</ele>
        <time>2017-10-22T05:34:14Z</time>
      </trkpt>
      <trkpt lat="44.874" lon="5.6499">
        <ele>723</ele>
        <time>2017-10-22T05:34:25Z</time>
      </trkpt>
      <trkpt lat="44.87389" lon="5.65011">
        <ele>725</ele>
        <time>2017-10-22T05:34:35Z</time>
      </trkpt>
      <trkpt lat="44.8737" lon="5.65058">
        <ele>723</ele>
        <time>2017-10-22T05:34:43Z</time>
      </trkpt>
      <trkpt lat="44.8736" lon="5.65076">
        <ele>723</ele>
        <time>2017-10-22T05:34:56Z</time>
      </trkpt>
      <trkpt lat="44.87349" lon="5.65087">
        <ele>724</ele>
        <time>2017-10-22T05:34:59Z</time>
      </trkpt>
      <trkpt lat="44.87313" lon="5.65119">
        <ele>720</ele>
        <time>2017-10-22T05:35:11Z</time>
      </trkpt>
      <trkpt lat="44.87294" lon="5.65141">
        <ele>720</ele>
        <time>2017-10-22T05:35:15Z</time>
      </trkpt>
      <trkpt lat="44.87277" lon="5.65172">
        <ele>722</ele>
        <time>2017-10-22T05:35:20Z</time>
      </trkpt>
      <trkpt lat="44.87265" lon="5.65211">
        <ele>722</ele>
        <time>2017-10-22T05:35:30Z</time>
      </trkpt>
      <trkpt lat="44.87252" lon="5.65263">
        <ele>719</ele>
        <time>2017-10-22T05:35:39Z</time>
      </trkpt>
      <trkpt lat="44.87249" lon="5.65288">
        <ele>712</ele>
        <time>2017-10-22T05:35:57Z</time>
      </trkpt>
      <trkpt lat="44.87253" lon="5.65307">
        <ele>718</ele>
        <time>2017-10-22T05:36:09Z</time>
      </trkpt>
      <trkpt lat="44.87265" lon="5.65333">
        <ele>717</ele>
        <time>2017-10-22T05:36:12Z</time>
      </trkpt>
      <trkpt lat="44.87301" lon="5.65401">
        <ele>712</ele>
        <time>2017-10-22T05:36:28Z</time>
      </trkpt>
      <trkpt lat="44.87336" lon="5.65468">
        <ele>716</ele>
        <time>2017-10-22T05:36:36Z</time>
      </trkpt>
      <trkpt lat="44.87353" lon="5.65496">
        <ele>715</ele>
        <time>2017-10-22T05:36:42Z</time>
      </trkpt>
      <trkpt lat="44.87369" lon="5.65509">
        <ele>717</ele>
        <time>2017-10-22T05:36:58Z</time>
      </trkpt>
      <trkpt lat="44.87375" lon="5.65518">
        <ele>718</ele>
        <time>2017-10-22T05:37:05Z</time>
      </trkpt>
      <trkpt lat="44.87377" lon="5.65529">
        <ele>719</ele>
        <time>2017-10-22T05:37:19Z</time>
      </trkpt>
      <trkpt lat="44.87376" lon="5.65537">
        <ele>719</ele>
        <time>2017-10-22T05:37:25Z</time>
      </trkpt>
      <trkpt lat="44.87373" lon="5.65544">
        <ele>719</ele>
        <time>2017-10-22T05:37:43Z</time>
      </trkpt>
      <trkpt lat="44.87368" lon="5.65548">
        <ele>719</ele>
        <time>2017-10-22T05:38:02Z</time>
      </trkpt>
      <trkpt lat="44.87361" lon="5.65549">
        <ele>719</ele>
        <time>2017-10-22T05:38:11Z</time>
      </trkpt>
      <trkpt lat="44.87303" lon="5.65539">
        <ele>706</ele>
        <time>2017-10-22T05:38:23Z</time>
      </trkpt>
      <trkpt lat="44.87266" lon="5.65535">
        <ele>703</ele>
        <time>2017-10-22T05:38:40Z</time>
      </trkpt>
      <trkpt lat="44.87243" lon="5.65537">
        <ele>693</ele>
        <time>2017-10-22T05:38:48Z</time>
      </trkpt>
      <trkpt lat="44.87229" lon="5.65545">
        <ele>694</ele>
        <time>2017-10-22T05:39:00Z</time>
      </trkpt>
      <trkpt lat="44.87205" lon="5.65569">
        <ele>693</ele>
        <time>2017-10-22T05:39:02Z</time>
      </trkpt>
      <trkpt lat="44.8719" lon="5.65574">
        <ele>692</ele>
        <time>2017-10-22T05:39:04Z</time>
      </trkpt>
      <trkpt lat="44.87168" lon="5.65575">
        <ele>691</ele>
        <time>2017-10-22T05:39:10Z</time>
      </trkpt>
      <trkpt lat="44.87151" lon="5.65578">
        <ele>685</ele>
        <time>2017-10-22T05:39:24Z</time>
      </trkpt>
      <trkpt lat="44.87142" lon="5.65585">
        <ele>688</ele>
        <time>2017-10-22T05:39:26Z</time>
      </trkpt>
      <trkpt lat="44.87135" lon="5.65594">
        <ele>688</ele>
        <time>2017-10-22T05:39:45Z</time>
      </trkpt>
      <trkpt lat="44.87122" lon="5.65623">
        <ele>688</ele>
        <time>2017-10-22T05:39:54Z</time>
      </trkpt>
      <trkpt lat="44.87099" lon="5.65676">
        <ele>692</ele>
        <time>2017-10-22T05:40:12Z</time>
      </trkpt>
      <trkpt lat="44.87085" lon="5.65693">
        <ele>694</ele>
        <time>2017-10-22T05:40:18Z</time>
      </trkpt>
      <trkpt lat="44.8706" lon="5.65711">
        <ele>678</ele>
        <time>2017-10-22T05:40:26Z</time>
      </trkpt>
      <trkpt lat="44.87053" lon="5.65722">
        <ele>677</ele>
        <time>2017-10-22T05:40:40Z</time>
      </trkpt>
      <trkpt lat="44.87049" lon="5.65743">
        <ele>678</ele>
        <time>2017-10-22T05:40:44Z</time>
      </trkpt>
      <trkpt lat="44.87045" lon="5.65786">
        <ele>683</ele>
        <time>2017-10-22T05:40:47Z</time>
      </trkpt>
      <trkpt lat="44.87041" lon="5.65797">
        <ele>683</ele>
        <time>2017-10-22T05:40:51Z</time>
      </trkpt>
      <trkpt lat="44.87036" lon="5.658">
        <ele>682</ele>
        <time>2017-10-22T05:41:11Z</time>
      </trkpt>
      <trkpt lat="44.8702" lon="5.65806">
        <ele>680</ele>
        <time>2017-10-22T05:41:23Z</time>
      </trkpt>
      <trkpt lat="44.87003" lon="5.65813">
        <ele>678</ele>
        <time>2017-10-22T05:41:25Z</time>
      </trkpt>
      <trkpt lat="44.86982" lon="5.65833">
        <ele>663</ele>
        <time>2017-10-22T05:41:42Z</time>
      </trkpt>
      <trkpt lat="44.86923" lon="5.65896">
        <ele>663</ele>
        <time>2017-10-22T05:41:57Z</time>
      </trkpt>
      <trkpt lat="44.86905" lon="5.65918">
        <ele>650</ele>
        <time>2017-10-22T05:41:59Z</time>
      </trkpt>
      <trkpt lat="44.8689" lon="5.65944">
        <ele>642</ele>
        <time>2017-10-22T05:42:15Z</time>
      </trkpt>
      <trkpt lat="44.86868" lon="5.65988">
        <ele>639</ele>
        <time>2017-10-22T05:42:20Z</time>
      </trkpt>
      <trkpt lat="44.86865" lon="5.66">
        <ele>641</ele>
        <time>2017-10-22T05:42:32Z</time>
      </trkpt>
      <trkpt lat="44.86865" lon="5.66013">
        <ele>641</ele>
        <time>2017-10-22T05:42:35Z</time>
      </trkpt>
      <trkpt lat="44.86873" lon="5.66029">
        <ele>642</ele>
        <time>2017-10-22T05:42:43Z</time>
      </trkpt>
      <trkpt lat="44.86882" lon="5.66035">
        <ele>643</ele>
        <time>2017-10-22T05:43:00Z</time>
      </trkpt>
      <trkpt lat="44.86925" lon="5.66057">
        <ele>655</ele>
        <time>2017-10-22T05:43:11Z</time>
      </trkpt>
      <trkpt lat="44.86946" lon="5.66071">
        <ele>656</ele>
        <time>2017-10-22T05:43:24Z</time>
      </trkpt>
      <trkpt lat="44.86977" lon="5.66098">
        <ele>648</ele>
        <time>2017-10-22T05:43:42Z</time>
      </trkpt>
      <trkpt lat="44.87008" lon="5.66134">
        <ele>660</ele>
        <time>2017-10-22T05:43:53Z</time>
      </trkpt>
      <trkpt lat="44.87018" lon="5.66152">
        <ele>658</ele>
        <time>2017-10-22T05:44:03Z</time>
      </trkpt>
      <trkpt lat="44.87018" lon="5.66163">
        <ele>656</ele>
        <time>2017-10-22T05:44:11Z</time>
      </trkpt>
      <trkpt lat="44.87015" lon="5.6617">
        <ele>654</ele>
        <time>2017-10-22T05:44:28Z</time>
      </trkpt>
      <trkpt lat="44.86997" lon="5.66182">
        <ele>641</ele>
        <time>2017-10-22T05:44:44Z</time>
      </trkpt>
      <trkpt lat="44.86976" lon="5.66198">
        <ele>638</ele>
        <time>2017-10-22T05:44:47Z</time>
      </trkpt>
      <trkpt lat="44.86958" lon="5.66222">
        <ele>636</ele>
        <time>2017-10-22T05:45:07Z</time>
      </trkpt>
      <trkpt lat="44.86949" lon="5.66241">
        <ele>634</ele>
        <time>2017-10-22T05:45:12Z</time>
      </trkpt>
      <trkpt lat="44.86941" lon="5.6629">
        <ele>638</ele>
        <time>2017-10-22T05:45:25Z</time>
      </trkpt>
      <trkpt lat="44.86936" lon="5.66308">
        <ele>637</ele>
        <time>2017-10-22T05:45:39Z</time>
      </trkpt>
      <trkpt lat="44.86921" lon="5.66333">
        <ele>629</ele>
        <time>2017-10-22T05:45:54Z</time>
      </trkpt>
      <trkpt lat="44.86891" lon="5.66374">
        <ele>611</ele>
        <time>2017-10-22T05:46:02Z</time>
      </trkpt>
      <trkpt lat="44.86887" lon="5.66384">
        <ele>610</ele>
        <time>2017-10-22T05:46:06Z</time>
      </trkpt>
      <trkpt lat="44.86885" lon="5.66397">
        <ele>610</ele>
        <time>2017-10-22T05:46:12Z</time>
      </trkpt>
      <trkpt lat="44.86886" lon="5.66411">
        <ele>611</ele>
        <time>2017-10-22T05:46:15Z</time>
      </trkpt>
      <trkpt lat="44.86896" lon="5.6645">
        <ele>605</ele>
        <time>2017-10-22T05:46:32Z</time>
      </trkpt>
      <trkpt lat="44.86916" lon="5.66513">
        <ele>603</ele>
        <time>2017-10-22T05:46:43Z</time>
      </trkpt>
      <trkpt lat="44.86925" lon="5.66531">
        <ele>616</ele>
        <time>2017-10-22T05:46:51Z</time>
      </trkpt>
      <trkpt lat="44.86935" lon="5.66544">
        <ele>614</ele>
        <time>2017-10-22T05:47:06Z</time>
      </trkpt>
      <trkpt lat="44.86943" lon="5.66554">
        <ele>614</ele>
        <time>2017-10-22T05:47:20Z</time>
      </trkpt>
      <trkpt lat="44.8696" lon="5.66568">
        <ele>615</ele>
        <time>2017-10-22T05:47:36Z</time>
      </trkpt>
      <trkpt lat="44.87024" lon="5.66608">
        <ele>612</ele>
        <time>2017-10-22T05:47:40Z</time>
      </trkpt>
      <trkpt lat="44.87042" lon="5.6662">
        <ele>613</ele>
        <time>2017-10-22T05:47:59Z</time>
      </trkpt>
      <trkpt lat="44.87047" lon="5.66635">
        <ele>611</ele>
        <time>2017-10-22T05:48:19Z</time>
      </trkpt>
      <trkpt lat="44.87048" lon="5.66643">
        <ele>611</ele>
        <time>2017-10-22T05:48:31Z</time>
      </trkpt>
      <trkpt lat="44.87045" lon="5.66652">
        <ele>610</ele>
        <time>2017-10-22T05:48:43Z</time>
      </trkpt>
      <trkpt lat="44.87037" lon="5.6667">
        <ele>600</ele>
        <time>2017-10-22T05:48:53Z</time>
      </trkpt>
      <trkpt lat="44.87034" lon="5.66684">
        <ele>600</ele>
        <time>2017-10-22T05:49:04Z</time>
      </trkpt>
      <trkpt lat="44.87039" lon="5.66727">
        <ele>598</ele>
        <time>2017-10-22T05:49:21Z</time>
      </trkpt>
      <trkpt lat="44.87049" lon="5.66747">
        <ele>598</ele>
        <time>2017-10-22T05:49:28Z</time>
      </trkpt>
      <trkpt lat="44.87069" lon="5.66765">
        <ele>597</ele>
        <time>2017-10-22T05:49:48Z</time>
      </trkpt>
      <trkpt lat="44.8709" lon="5.66783">
        <ele>605</ele>
        <time>2017-10-22T05:50:04Z</time>
      </trkpt>
      <trkpt lat="44.87094" lon="5.6679">
        <ele>605</ele>
        <time>2017-10-22T05:50:21Z</time>
      </trkpt>
      <trkpt lat="44.87095" lon="5.66805">
        <ele>605</ele>
        <time>2017-10-22T05:50:30Z</time>
      </trkpt>
      <trkpt lat="44.87092" lon="5.66811">
        <ele>604</ele>
        <time>2017-10-22T05:50:44Z</time>
      </trkpt>
      <trkpt lat="44.87086" lon="5.66814">
        <ele>604</ele>
        <time>2017-10-22T05:50:53Z</time>
      </trkpt>
      <trkpt lat="44.87047" lon="5.66812">
        <ele>595</ele>
        <time>2017-10-22T05:51:03Z</time>
      </trkpt>
      <trkpt lat="44.86991" lon="5.66815">
        <ele>585</ele>
        <time>2017-10-22T05:51:20Z</time>
      </trkpt>
      <trkpt lat="44.86959" lon="5.66821">
        <ele>581</ele>
        <time>2017-10-22T05:51:35Z</time>
      </trkpt>
      <trkpt lat="44.86949" lon="5.66829">
        <ele>579</ele>
        <time>2017-10-22T05:51:46Z</time>
      </trkpt>
      <trkpt lat="44.86941" lon="5.66839">
        <ele>579</ele>
        <time>2017-10-22T05:51:51Z</time>
      </trkpt>
      <trkpt lat="44.86937" lon="5.6685">
        <ele>579</ele>
        <time>2017-10-22T05:52:07Z</time>
      </trkpt>
      <trkpt lat="44.86933" lon="5.66868">
        <ele>579</ele>
        <time>2017-10-22T05:52:25Z</time>
      </trkpt>
      <trkpt lat="44.8693" lon="5.66976">
        <ele>577</ele>
        <time>2017-10-22T05:52:35Z</time>
      </trkpt>
      <trkpt lat="44.8693" lon="5.67028">
        <ele>569</ele>
        <time>2017-10-22T05:52:51Z</time>
      </trkpt>
      <trkpt lat="44.86927" lon="5.67036">
        <ele>568</ele>
        <time>2017-10-22T05:53:05Z</time>
      </trkpt>
      <trkpt lat="44.86924" lon="5.67038">
        <ele>567</ele>
        <time>2017-10-22T05:53:25Z</time>
      </trkpt>
      <trkpt lat="44.86915" lon="5.67035">
        <ele>546</ele>
        <time>2017-10-22T05:53:42Z</time>
      </trkpt>
      <trkpt lat="44.86912" lon="5.67031">
        <ele>547</ele>
        <time>2017-10-22T05:53:48Z</time>
      </trkpt>
      <trkpt lat="44.86911" lon="5.67018">
        <ele>552</ele>
        <time>2017-10-22T05:54:01Z</time>
      </trkpt>
      <trkpt lat="44.86913" lon="5.66971">
        <ele>556</ele>
        <time>2017-10-22T05:54:08Z</time>
      </trkpt>
      <trkpt lat="44.86912" lon="5.66943">
        <ele>558</ele>
        <time>2017-10-22T05:54:18Z</time>
      </trkpt>
      <trkpt lat="44.86904" lon="5.66913">
        <ele>562</ele>
        <time>2017-10-22T05:54:23Z</time>
      </trkpt>
      <trkpt lat="44.86883" lon="5.66858">
        <ele>553</ele>
        <time>2017-10-22T05:54:27Z</time>
      </trkpt>
      <trkpt lat="44.86879" lon="5.66831">
        <ele>554</ele>
        <time>2017-10-22T05:54:42Z</time>
      </trkpt>
      <trkpt lat="44.86876" lon="5.6682">
        <ele>553</ele>
        <time>2017-10-22T05:54:59Z</time>
      </trkpt>
      <trkpt lat="44.86872" lon="5.66817">
        <ele>551</ele>
        <time>2017-10-22T05:55:14Z</time>
      </trkpt>
      <trkpt lat="44.86867" lon="5.66821">
        <ele>549</ele>
        <time>2017-10-22T05:55:33Z</time>
      </trkpt>
      <trkpt lat="44.86866" lon="5.66836">
        <ele>547</ele>
        <time>2017-10-22T05:55:35Z</time>
      </trkpt>
      <trkpt lat="44.86865" lon="5.66875">
        <ele>548</ele>
        <time>2017-10-22T05:55:47Z</time>
      </trkpt>
      <trkpt lat="44.86858" lon="5.66932">
        <ele>544</ele>
        <time>2017-10-22T05:56:03Z</time>
      </trkpt>
      <trkpt lat="44.86851" lon="5.66978">
        <ele>544</ele>
        <time>2017-10-22T05:56:23Z</time>
      </trkpt>
      <trkpt lat="44.86846" lon="5.67006">
        <ele>536</ele>
        <time>2017-10-22T05:56:29Z</time>
      </trkpt>
      <trkpt lat="44.8684" lon="5.67023">
        <ele>535</ele>
        <time>2017-10-22T05:56:40Z</time>
      </trkpt>
      <trkpt lat="44.86807" lon="5.67106">
        <ele>515</ele>
        <time>2017-10-22T05:56:45Z</time>
      </trkpt>
      <trkpt lat="44.86792" lon="5.67141">
        <ele>518</ele>
        <time>2017-10-22T05:56:53Z</time>
      </trkpt>
      <trkpt lat="44.86764" lon="5.67195">
        <ele>538</ele>
        <time>2017-10-22T05:57:13Z</time>
      </trkpt>
      <trkpt lat="44.86742" lon="5.6723">
        <ele>554</ele>
        <time>2017-10-22T05:57:21Z</time>
      </trkpt>
      <trkpt lat="44.86731" lon="5.67258">
        <ele>563</ele>
        <time>2017-10-22T05:57:33Z</time>
      </trkpt>
      <trkpt lat="44.86725" lon="5.67279">
        <ele>566</ele>
        <time>2017-10-22T05:57:35Z</time>
      </trkpt>
      <trkpt lat="44.86722" lon="5.67299">
        <ele>567</ele>
        <time>2017-10-22T05:57:39Z</time>
      </trkpt>
      <trkpt lat="44.86719" lon="5.67328">
        <ele>569</ele>
        <time>2017-10-22T05:57:55Z</time>
      </trkpt>
      <trkpt lat="44.86718" lon="5.67361">
        <ele>574</ele>
        <time>2017-10-22T05:57:57Z</time>
      </trkpt>
      <trkpt lat="44.86713" lon="5.67447">
        <ele>577</ele>
        <time>2017-10-22T05:58:03Z</time>
      </trkpt>
      <trkpt lat="44.86711" lon="5.67488">
        <ele>577</ele>
        <time>2017-10-22T05:58:17Z</time>
      </trkpt>
      <trkpt lat="44.86713" lon="5.67515">
        <ele>578</ele>
        <time>2017-10-22T05:58:31Z</time>
      </trkpt>
      <trkpt lat="44.86725" lon="5.67583">
        <ele>577</ele>
        <time>2017-10-22T05:58:35Z</time>
      </trkpt>
      <trkpt lat="44.86725" lon="5.67625">
        <ele>580</ele>
        <time>2017-10-22T05:58:39Z</time>
      </trkpt>
      <trkpt lat="44.86724" lon="5.67653">
        <ele>580</ele>
        <time>2017-10-22T05:58:58Z</time>
      </trkpt>
      <trkpt lat="44.86721" lon="5.6766">
        <ele>581</ele>
        <time>2017-10-22T05:59:10Z</time>
      </trkpt>
      <trkpt lat="44.86715" lon="5.67666">
        <ele>581</ele>
        <time>2017-10-22T05:59:28Z</time>
      </trkpt>
      <trkpt lat="44.86708" lon="5.67663">
        <ele>581</ele>
        <time>2017-10-22T05:59:45Z</time>
      </trkpt>
      <trkpt lat="44.86705" lon="5.6766">
        <ele>581</ele>
        <time>2017-10-22T06:00:00Z</time>
      </trkpt>
      <trkpt lat="44.86703" lon="5.6765">
        <ele>581</ele>
        <time>2017-10-22T06:00:12Z</time>
      </trkpt>
      <trkpt lat="44.86702" lon="5.67593">
        <ele>580</ele>
        <time>2017-10-22T06:00:31Z</time>
      </trkpt>
      <trkpt lat="44.86698" lon="5.67576">
        <ele>579</ele>
        <time>2017-10-22T06:00:39Z</time>
      </trkpt>
      <trkpt lat="44.86682" lon="5.67536">
        <ele>579</ele>
        <time>2017-10-22T06:00:57Z</time>
      </trkpt>
      <trkpt lat="44.86653" lon="5.67457">
        <ele>587</ele>
        <time>2017-10-22T06:00:59Z</time>
      </trkpt>
      <trkpt lat="44.86625" lon="5.67376">
        <ele>586</ele>
        <time>2017-10-22T06:01:07Z</time>
      </trkpt>
      <trkpt lat="44.86619" lon="5.67361">
        <ele>586</ele>
        <time>2017-10-22T06:01:13Z</time>
      </trkpt>
      <trkpt lat="44.86615" lon="5.67357">
        <ele>586</ele>
        <time>2017-10-22T06:01:20Z</time>
      </trkpt>
      <trkpt lat="44.86607" lon="5.67356">
        <ele>586</ele>
        <time>2017-10-22T06:01:34Z</time>
      </trkpt>
      <trkpt lat="44.86603" lon="5.67359">
        <ele>587</ele>
        <time>2017-10-22T06:01:41Z</time>
      </trkpt>
      <trkpt lat="44.86599" lon="5.67365">
        <ele>587</ele>
        <time>2017-10-22T06:01:47Z</time>
      </trkpt>
      <trkpt lat="44.86598" lon="5.67373">
        <ele>588</ele>
        <time>2017-10-22T06:01:53Z</time>
      </trkpt>
      <trkpt lat="44.86601" lon="5.67386">
        <ele>588</ele>
        <time>2017-10-22T06:02:05Z</time>
      </trkpt>
      <trkpt lat="44.86607" lon="5.67426">
        <ele>592</ele>
        <time>2017-10-22T06:02:23Z</time>
      </trkpt>
      <trkpt lat="44.86604" lon="5.67453">
        <ele>592</ele>
        <time>2017-10-22T06:02:37Z</time>
      </trkpt>
      <trkpt lat="44.86593" lon="5.67492">
        <ele>595</ele>
        <time>2017-10-22T06:02:53Z</time>
      </trkpt>
      <trkpt lat="44.86552" lon="5.67588">
        <ele>603</ele>
        <time>2017-10-22T06:03:06Z</time>
      </trkpt>
      <trkpt lat="44.86528" lon="5.67648">
        <ele>605</ele>
        <time>2017-10-22T06:03:26Z</time>
      </trkpt>
      <trkpt lat="44.86514" lon="5.67703">
        <ele>606</ele>
        <time>2017-10-22T06:03:45Z</time>
      </trkpt>
      <trkpt lat="44.86508" lon="5.6772">
        <ele>606</ele>
        <time>2017-10-22T06:03:49Z</time>
      </trkpt>
      <trkpt lat="44.86502" lon="5.67729">
        <ele>607</ele>
        <time>2017-10-22T06:03:53Z</time>
      </trkpt>
      <trkpt lat="44.86493" lon="5.67731">
        <ele>614</ele>
        <time>2017-10-22T06:04:09Z</time>
      </trkpt>
      <trkpt lat="44.8649" lon="5.67729">
        <ele>614</ele>
        <time>2017-10-22T06:04:28Z</time>
      </trkpt>
      <trkpt lat="44.86486" lon="5.67722">
        <ele>615</ele>
        <time>2017-10-22T06:04:43Z</time>
      </trkpt>
      <trkpt lat="44.86476" lon="5.67677">
        <ele>615</ele>
        <time>2017-10-22T06:04:58Z</time>
      </trkpt>
      <trkpt lat="44.86461" lon="5.67608">
        <ele>619</ele>
        <time>2017-10-22T06:05:14Z</time>
      </trkpt>
      <trkpt lat="44.86453" lon="5.67548">
        <ele>619</ele>
        <time>2017-10-22T06:05:24Z</time>
      </trkpt>
      <trkpt lat="44.86449" lon="5.67536">
        <ele>619</ele>
        <time>2017-10-22T06:05:37Z</time>
      </trkpt>
      <trkpt lat="44.8644" lon="5.67535">
        <ele>620</ele>
        <time>2017-10-22T06:05:48Z</time>
      </trkpt>
      <trkpt lat="44.86435" lon="5.67542">
        <ele>620</ele>
        <time>2017-10-22T06:05:54Z</time>
      </trkpt>
      <trkpt lat="44.86433" lon="5.67565">
        <ele>622</ele>
        <time>2017-10-22T06:05:57Z</time>
      </trkpt>
      <trkpt lat="44.86428" lon="5.67599">
        <ele>624</ele>
        <time>2017-10-22T06:06:00Z</time>
      </trkpt>
      <trkpt lat="44.86418" lon="5.67626">
        <ele>622</ele>
        <time>2017-10-22T06:06:15Z</time>
      </trkpt>
      <trkpt lat="44.86361" lon="5.67757">
        <ele>634</ele>
        <time>2017-10-22T06:06:33Z</time>
      </trkpt>
      <trkpt lat="44.8632" lon="5.67849">
        <ele>646</ele>
        <time>2017-10-22T06:06:42Z</time>
      </trkpt>
      <trkpt lat="44.86291" lon="5.67922">
        <ele>649</ele>
        <time>2017-10-22T06:06:53Z</time>
      </trkpt>
      <trkpt lat="44.86282" lon="5.67945">
        <ele>649</ele>
        <time>2017-10-22T06:07:07Z</time>
      </trkpt>
      <trkpt lat="44.86268" lon="5.6797">
        <ele>650</ele>
        <time>2017-10-22T06:07:22Z</time>
      </trkpt>
      <trkpt lat="44.86243" lon="5.68017">
        <ele>656</ele>
        <time>2017-10-22T06:07:32Z</time>
      </trkpt>
      <trkpt lat="44.8621" lon="5.68072">
        <ele>657</ele>
        <time>2017-10-22T06:07:41Z</time>
      </trkpt>
      <trkpt lat="44.86189" lon="5.68102">
        <ele>656</ele>
        <time>2017-10-22T06:08:00Z</time>
      </trkpt>
      <trkpt lat="44.86176" lon="5.68119">
        <ele>655</ele>
        <time>2017-10-22T06:08:05Z</time>
      </trkpt>
      <trkpt lat="44.86163" lon="5.68131">
        <ele>661</ele>
        <time>2017-10-22T06:08:20Z</time>
      </trkpt>
      <trkpt lat="44.86154" lon="5.68137">
        <ele>661</ele>
        <time>2017-10-22T06:08:28Z</time>
      </trkpt>
      <trkpt lat="44.86136" lon="5.68145">
        <ele>662</ele>
        <time>2017-10-22T06:08:43Z</time>
      </trkpt>
      <trkpt lat="44.8607" lon="5.68168">
        <ele>668</ele>
        <time>2017-10-22T06:08:46Z</time>
      </trkpt>
      <trkpt lat="44.86053" lon="5.68176">
        <ele>670</ele>
        <time>2017-10-22T06:09:06Z</time>
      </trkpt>
      <trkpt lat="44.86035" lon="5.68191">
        <ele>672</ele>
        <time>2017-10-22T06:09:16Z</time>
      </trkpt>
      <trkpt lat="44.86023" lon="5.68213">
        <ele>672</ele>
        <time>2017-10-22T06:09:27Z</time>
      </trkpt>
      <trkpt lat="44.86018" lon="5.68237">
        <ele>672</ele>
        <time>2017-10-22T06:09:40Z</time>
      </trkpt>
      <trkpt lat="44.86016" lon="5.68286">
        <ele>673</ele>
        <time>2017-10-22T06:09:42Z</time>
      </trkpt>
      <trkpt lat="44.86015" lon="5.68299">
        <ele>673</ele>
        <time>2017-10-22T06:09:49Z</time>
      </trkpt>
      <trkpt lat="44.8601" lon="5.68318">
        <ele>675</ele>
        <time>2017-10-22T06:10:05Z</time>
      </trkpt>
      <trkpt lat="44.86002" lon="5.68331">
        <ele>677</ele>
        <time>2017-10-22T06:10:11Z</time>
      </trkpt>
      <trkpt lat="44.85994" lon="5.68339">
        <ele>679</ele>
        <time>2017-10-22T06:10:24Z</time>
      </trkpt>
      <trkpt lat="44.85981" lon="5.68343">
        <ele>680</ele>
        <time>2017-10-22T06:10:40Z</time>
      </trkpt>
      <trkpt lat="44.85963" lon="5.68344">
        <ele>681</ele>
        <time>2017-10-22T06:10:48Z</time>
      </trkpt>
      <trkpt lat="44.85837" lon="5.68337">
        <ele>694</ele>
        <time>2017-10-22T06:10:51Z</time>
      </trkpt>
      <trkpt lat="44.85819" lon="5.68342">
        <ele>704</ele>
        <time>2017-10-22T06:11:01Z</time>
      </trkpt>
      <trkpt lat="44.85802" lon="5.68358">
        <ele>710</ele>
        <time>2017-10-22T06:11:21Z</time>
      </trkpt>
      <trkpt lat="44.85793" lon="5.6838">
        <ele>711</ele>
        <time>2017-10-22T06:11:29Z</time>
      </trkpt>
      <trkpt lat="44.85791" lon="5.6839">
        <ele>711</ele>
        <time>2017-10-22T06:11:33Z</time>
      </trkpt>
      <trkpt lat="44.85775" lon="5.68424">
        <ele>707</ele>
        <time>2017-10-22T06:11:46Z</time>
      </trkpt>
      <trkpt lat="44.85741" lon="5.68467">
        <ele>723</ele>
        <time>2017-10-22T06:12:01Z</time>
      </trkpt>
      <trkpt lat="44.85661" lon="5.68562">
        <ele>732</ele>
        <time>2017-10-22T06:12:14Z</time>
      </trkpt>
      <trkpt lat="44.85635" lon="5.68593">
        <ele>725</ele>
        <time>2017-10-22T06:12:20Z</time>
      </trkpt>
      <trkpt lat="44.85615" lon="5.68622">
        <ele>727</ele>
        <time>2017-10-22T06:12:34Z</time>
      </trkpt>
      <trkpt lat="44.85571" lon="5.68673">
        <ele>732</ele>
        <time>2017-10-22T06:12:48Z</time>
      </trkpt>
      <trkpt lat="44.8553" lon="5.68713">
        <ele>737</ele>
        <time>2017-10-22T06:12:57Z</time>
      </trkpt>
      <trkpt lat="44.85489" lon="5.68757">
        <ele>740</ele>
        <time>2017-10-22T06:13:06Z</time>
      </trkpt>
      <trkpt lat="44.85451" lon="5.68794">
        <ele>744</ele>
        <time>2017-10-22T06:13:26Z</time>
      </trkpt>
      <trkpt lat="44.85419" lon="5.68828">
        <ele>745</ele>
        <time>2017-10-22T06:13:40Z</time>
      </trkpt>
      <trkpt lat="44.8536" lon="5.68886">
        <ele>747</ele>
        <time>2017-10-22T06:14:00Z</time>
      </trkpt>
      <trkpt lat="44.8526" lon="5.68988">
        <ele>753</ele>
        <time>2017-10-22T06:14:10Z</time>
      </trkpt>
      <trkpt lat="44.85236" lon="5.69014">
        <ele>758</ele>
        <time>2017-10-22T06:14:15Z</time>
      </trkpt>
      <trkpt lat="44.8522" lon="5.69034">
        <ele>761</ele>
        <time>2017-10-22T06:14:19Z</time>
      </trkpt>
      <trkpt lat="44.85207" lon="5.69055">
        <ele>761</ele>
        <time>2017-10-22T06:14:36Z</time>
      </trkpt>
      <trkpt lat="44.85191" lon="5.6909">
        <ele>756</ele>
        <time>2017-10-22T06:14:47Z</time>
      </trkpt>
      <trkpt lat="44.85172" lon="5.69145">
        <ele>753</ele>
        <time>2017-10-22T06:14:59Z</time>
      </trkpt>
      <trkpt lat="44.85161" lon="5.69166">
        <ele>760</ele>
        <time>2017-10-22T06:15:14Z</time>
      </trkpt>
      <trkpt lat="44.85145" lon="5.69186">
        <ele>758</ele>
        <time>2017-10-22T06:15:23Z</time>
      </trkpt>
      <trkpt lat="44.85136" lon="5.69193">
        <ele>759</ele>
        <time>2017-10-22T06:15:32Z</time>
      </trkpt>
      <trkpt lat="44.85117" lon="5.69202">
        <ele>760</ele>
        <time>2017-10-22T06:15:36Z</time>
      </trkpt>
      <trkpt lat="44.85067" lon="5.69223">
        <ele>767</ele>
        <time>2017-10-22T06:15:41Z</time>
      </trkpt>
      <trkpt lat="44.85048" lon="5.69224">
        <ele>768</ele>
        <time>2017-10-22T06:15:59Z</time>
      </trkpt>
      <trkpt lat="44.85024" lon="5.69217">
        <ele>770</ele>
        <time>2017-10-22T06:16:13Z</time>
      </trkpt>
      <trkpt lat="44.85004" lon="5.69208">
        <ele>771</ele>
        <time>2017-10-22T06:16:32Z</time>
      </trkpt>
      <trkpt lat="44.84985" lon="5.69204">
        <ele>779</ele>
        <time>2017-10-22T06:16:46Z</time>
      </trkpt>
      <trkpt lat="44.84974" lon="5.69206">
        <ele>779</ele>
        <time>2017-10-22T06:17:01Z</time>
      </trkpt>
      <trkpt lat="44.84959" lon="5.69214">
        <ele>779</ele>
        <time>2017-10-22T06:17:08Z</time>
      </trkpt>
      <trkpt lat="44.84939" lon="5.69229">
        <ele>779</ele>
        <time>2017-10-22T06:17:22Z</time>
      </trkpt>
      <trkpt lat="44.8489" lon="5.69277">
        <ele>780</ele>
        <time>2017-10-22T06:17:37Z</time>
      </trkpt>
      <trkpt lat="44.84808" lon="5.69352">
        <ele>788</ele>
        <time>2017-10-22T06:17:42Z</time>
      </trkpt>
      <trkpt lat="44.84781" lon="5.69381">
        <ele>790</ele>
        <time>2017-10-22T06:17:50Z</time>
      </trkpt>
      <trkpt lat="44.84758" lon="5.69412">
        <ele>791</ele>
        <time>2017-10-22T06:17:56Z</time>
      </trkpt>
      <trkpt lat="44.8474" lon="5.69445">
        <ele>795</ele>
        <time>2017-10-22T06:18:09Z</time>
      </trkpt>
      <trkpt lat="44.84722" lon="5.69483">
        <ele>794</ele>
        <time>2017-10-22T06:18:26Z</time>
      </trkpt>
      <trkpt lat="44.84705" lon="5.69512">
        <ele>791</ele>
        <time>2017-10-22T06:18:35Z</time>
      </trkpt>
      <trkpt lat="44.84692" lon="5.69528">
        <ele>792</ele>
        <time>2017-10-22T06:18:49Z</time>
      </trkpt>
      <trkpt lat="44.84674" lon="5.69548">
        <ele>792</ele>
        <time>2017-10-22T06:19:06Z</time>
      </trkpt>
      <trkpt lat="44.84651" lon="5.69565">
        <ele>801</ele>
        <time>2017-10-22T06:19:09Z</time>
      </trkpt>
      <trkpt lat="44.84525" lon="5.69657">
        <ele>807</ele>
        <time>2017-10-22T06:19:17Z</time>
      </trkpt>
      <trkpt lat="44.84324" lon="5.69809">
        <ele>827</ele>
        <time>2017-10-22T06:19:24Z</time>
      </trkpt>
      <trkpt lat="44.84283" lon="5.69841">
        <ele>827</ele>
        <time>2017-10-22T06:19:42Z</time>
      </trkpt>
      <trkpt lat="44.84263" lon="5.6986">
        <ele>829</ele>
        <time>2017-10-22T06:19:55Z</time>
      </trkpt>
      <trkpt lat="44.84243" lon="5.69885">
        <ele>841</ele>
        <time>2017-10-22T06:19:59Z</time>
      </trkpt>
      <trkpt lat="44.84218" lon="5.69933">
        <ele>840</ele>
        <time>2017-10-22T06:20:10Z</time>
      </trkpt>
      <trkpt lat="44.8419" lon="5.70003">
        <ele>841</ele>
        <time>2017-10-22T06:20:29Z</time>
      </trkpt>
      <trkpt lat="44.84145" lon="5.70111">
        <ele>851</ele>
        <time>2017-10-22T06:20:37Z</time>
      </trkpt>
      <trkpt lat="44.84047" lon="5.70344">
        <ele>857</ele>
        <time>2017-10-22T06:20:43Z</time>
      </trkpt>
      <trkpt lat="44.84025" lon="5.70401">
        <ele>858</ele>
        <time>2017-10-22T06:20:54Z</time>
      </trkpt>
      <trkpt lat="44.84015" lon="5.70433">
        <ele>860</ele>
        <time>2017-10-22T06:20:58Z</time>
      </trkpt>
      <trkpt lat="44.8401" lon="5.70469">
        <ele>862</ele>
        <time>2017-10-22T06:21:13Z</time>
      </trkpt>
      <trkpt lat="44.84008" lon="5.70506">
        <ele>868</ele>
        <time>2017-10-22T06:21:20Z</time>
      </trkpt>
      <trkpt lat="44.84008" lon="5.7059">
        <ele>872</ele>
        <time>2017-10-22T06:21:30Z</time>
      </trkpt>
      <trkpt lat="44.84006" lon="5.7066">
        <ele>875</ele>
        <time>2017-10-22T06:21:44Z</time>
      </trkpt>
      <trkpt lat="44.84008" lon="5.70747">
        <ele>880</ele>
        <time>2017-10-22T06:21:59Z</time>
      </trkpt>
      <trkpt lat="44.84019" lon="5.708">
        <ele>879</ele>
        <time>2017-10-22T06:22:08Z</time>
      </trkpt>
      <trkpt lat="44.8403" lon="5.70845">
        <ele>882</ele>
        <time>2017-10-22T06:22:16Z</time>
      </trkpt>
      <trkpt lat="44.84035" lon="5.70877">
        <ele>881</ele>
        <time>2017-10-22T06:22:25Z</time>
      </trkpt>
      <trkpt lat="44.84035" lon="5.70909">
        <ele>882</ele>
        <time>2017-10-22T06:22:44Z</time>
      </trkpt>
      <trkpt lat="44.84031" lon="5.70945">
        <ele>884</ele>
        <time>2017-10-22T06:22:53Z</time>
      </trkpt>
      <trkpt lat="44.8401" lon="5.71015">
        <ele>885</ele>
        <time>2017-10-22T06:23:13Z</time>
      </trkpt>
      <trkpt lat="44.84007" lon="5.71069">
        <ele>883</ele>
        <time>2017-10-22T06:23:28Z</time>
      </trkpt>
      <trkpt lat="44.84019" lon="5.7112">
        <ele>883</ele>
        <time>2017-10-22T06:23:31Z</time>
      </trkpt>
      <trkpt lat="44.84041" lon="5.71203">
        <ele>883</ele>
        <time>2017-10-22T06:23:42Z</time>
      </trkpt>
      <trkpt lat="44.84044" lon="5.7124">
        <ele>883</ele>
        <time>2017-10-22T06:23:52Z</time>
      </trkpt>
      <trkpt lat="44.84045" lon="5.71318">
        <ele>880</ele>
        <time>2017-10-22T06:23:54Z</time>
      </trkpt>
      <trkpt lat="44.84047" lon="5.71431">
        <ele>873</ele>
        <time>2017-10-22T06:24:13Z</time>
      </trkpt>
      <trkpt lat="44.84051" lon="5.7163">
        <ele>867</ele>
        <time>2017-10-22T06:24:31Z</time>
      </trkpt>
      <trkpt lat="44.84055" lon="5.71719">
        <ele>864</ele>
        <time>2017-10-22T06:24:34Z</time>
      </trkpt>
      <trkpt lat="44.84055" lon="5.71763">
        <ele>861</ele>
        <time>2017-10-22T06:24:52Z</time>
      </trkpt>
      <trkpt lat="44.84051" lon="5.71798">
        <ele>860</ele>
        <time>2017-10-22T06:25:02Z</time>
      </trkpt>
      <trkpt lat="44.84044" lon="5.71832">
        <ele>860</ele>
        <time>2017-10-22T06:25:05Z</time>
      </trkpt>
      <trkpt lat="44.84031" lon="5.71873">
        <ele>858</ele>
        <time>2017-10-22T06:25:13Z</time>
      </trkpt>
      <trkpt lat="44.84015" lon="5.71909">
        <ele>858</ele>
        <time>2017-10-22T06:25:29Z</time>
      </trkpt>
      <trkpt lat="44.83998" lon="5.71939">
        <ele>857</ele>
        <time>2017-10-22T06:25:42Z</time>
      </trkpt>
      <trkpt lat="44.83976" lon="5.71967">
        <ele>856</ele>
        <time>2017-10-22T06:25:49Z</time>
      </trkpt>
      <trkpt lat="44.83963" lon="5.7198">
        <ele>856</ele>
        <time>2017-10-22T06:26:00Z</time>
      </trkpt>
      <trkpt lat="44.83939" lon="5.71997">
        <ele>857</ele>
        <time>2017-10-22T06:26:08Z</time>
      </trkpt>
      <trkpt lat="44.83907" lon="5.72012">
        <ele>857</ele>
        <time>2017-10-22T06:26:22Z</time>
      </trkpt>
      <trkpt lat="44.83874" lon="5.72019">
        <ele>858</ele>
        <time>2017-10-22T06:26:37Z</time>
      </trkpt>
      <trkpt lat="44.83748" lon="5.72026">
        <ele>859</ele>
        <time>2017-10-22T06:26:43Z</time>
      </trkpt>
      <trkpt lat="44.8355" lon="5.72038">
        <ele>862</ele>
        <time>2017-10-22T06:26:56Z</time>
      </trkpt>
      <trkpt lat="44.83513" lon="5.72037">
        <ele>862</ele>
        <time>2017-10-22T06:27:01Z</time>
      </trkpt>
      <trkpt lat="44.83494" lon="5.72036">
        <ele>864</ele>
        <time>2017-10-22T06:27:19Z</time>
      </trkpt>
      <trkpt lat="44.83465" lon="5.7203">
        <ele>865</ele>
        <time>2017-10-22T06:27:28Z</time>
      </trkpt>
      <trkpt lat="44.83384" lon="5.7201">
        <ele>867</ele>
        <time>2017-10-22T06:27:38Z</time>
      </trkpt>
      <trkpt lat="44.8323" lon="5.71973">
        <ele>863</ele>
        <time>2017-10-22T06:27:47Z</time>
      </trkpt>
      <trkpt lat="44.83204" lon="5.71967">
        <ele>863</ele>
        <time>2017-10-22T06:28:06Z</time>
      </trkpt>
      <trkpt lat="44.83187" lon="5.71966">
        <ele>864</ele>
        <time>2017-10-22T06:28:16Z</time>
      </trkpt>
      <trkpt lat="44.83161" lon="5.71969">
        <ele>865</ele>
        <time>2017-10-22T06:28:26Z</time>
      </trkpt>
      <trkpt lat="44.83082" lon="5.71988">
        <ele>870</ele>
        <time>2017-10-22T06:28:46Z</time>
      </trkpt>
      <trkpt lat="44.83043" lon="5.71989">
        <ele>868</ele>
        <time>2017-10-22T06:28:51Z</time>
      </trkpt>
      <trkpt lat="44.82977" lon="5.71984">
        <ele>870</ele>
        <time>2017-10-22T06:28:57Z</time>
      </trkpt>
      <trkpt lat="44.82936" lon="5.71985">
        <ele>870</ele>
        <time>2017-10-22T06:29:06Z</time>
      </trkpt>
      <trkpt lat="44.8291" lon="5.71995">
        <ele>872</ele>
        <time>2017-10-22T06:29:15Z</time>
      </trkpt>
      <trkpt lat="44.82889" lon="5.7201">
        <ele>874</ele>
        <time>2017-10-22T06:29:17Z</time>
      </trkpt>
      <trkpt lat="44.8287" lon="5.7203">
        <ele>874</ele>
        <time>2017-10-22T06:29:22Z</time>
      </trkpt>
      <trkpt lat="44.82853" lon="5.72056">
        <ele>874</ele>
        <time>2017-10-22T06:29:31Z</time>
      </trkpt>
      <trkpt lat="44.82839" lon="5.72089">
        <ele>876</ele>
        <time>2017-10-22T06:29:41Z</time>
      </trkpt>
      <trkpt lat="44.82805" lon="5.7221">
        <ele>877</ele>
        <time>2017-10-22T06:29:43Z</time>
      </trkpt>
      <trkpt lat="44.82788" lon="5.72267">
        <ele>880</ele>
        <time>2017-10-22T06:29:53Z</time>
      </trkpt>
      <trkpt lat="44.82779" lon="5.72301">
        <ele>880</ele>
        <time>2017-10-22T06:29:56Z</time>
      </trkpt>
      <trkpt lat="44.82764" lon="5.72341">
        <ele>881</ele>
        <time>2017-10-22T06:30:06Z</time>
      </trkpt>
      <trkpt lat="44.82749" lon="5.72374">
        <ele>877</ele>
        <time>2017-10-22T06:30:25Z</time>
      </trkpt>
      <trkpt lat="44.82728" lon="5.7241">
        <ele>878</ele>
        <time>2017-10-22T06:30:43Z</time>
      </trkpt>
      <trkpt lat="44.82708" lon="5.72437">
        <ele>881</ele>
        <time>2017-10-22T06:30:55Z</time>
      </trkpt>
      <trkpt lat="44.82684" lon="5.72465">
        <ele>882</ele>
        <time>2017-10-22T06:31:02Z</time>
      </trkpt>
      <trkpt lat="44.82642" lon="5.725">
        <ele>881</ele>
        <time>2017-10-22T06:31:19Z</time>
      </trkpt>
      <trkpt lat="44.82574" lon="5.72551">
        <ele>883</ele>
        <time>2017-10-22T06:31:39Z</time>
      </trkpt>
      <trkpt lat="44.82561" lon="5.72564">
        <ele>883</ele>
        <time>2017-10-22T06:31:53Z</time>
      </trkpt>
      <trkpt lat="44.82553" lon="5.72577">
        <ele>883</ele>
        <time>2017-10-22T06:31:55Z</time>
      </trkpt>
      <trkpt lat="44.82544" lon="5.72603">
        <ele>879</ele>
        <time>2017-10-22T06:32:01Z</time>
      </trkpt>
      <trkpt lat="44.82542" lon="5.72625">
        <ele>878</ele>
        <time>2017-10-22T06:32:16Z</time>
      </trkpt>
      <trkpt lat="44.82541" lon="5.72719">
        <ele>873</ele>
        <time>2017-10-22T06:32:30Z</time>
      </trkpt>
      <trkpt lat="44.82543" lon="5.72783">
        <ele>869</ele>
        <time>2017-10-22T06:32:38Z</time>
      </trkpt>
      <trkpt lat="44.82547" lon="5.7282">
        <ele>868</ele>
        <time>2017-10-22T06:32:40Z</time>
      </trkpt>
      <trkpt lat="44.82562" lon="5.72866">
        <ele>865</ele>
        <time>2017-10-22T06:32:42Z</time>
      </trkpt>
      <trkpt lat="44.82564" lon="5.72893">
        <ele>865</ele>
        <time>2017-10-22T06:32:52Z</time>
      </trkpt>
      <trkpt lat="44.82561" lon="5.72926">
        <ele>863</ele>
        <time>2017-10-22T06:32:56Z</time>
      </trkpt>
      <trkpt lat="44.82557" lon="5.72949">
        <ele>860</ele>
        <time>2017-10-22T06:33:00Z</time>
      </trkpt>
      <trkpt lat="44.82556" lon="5.72956">
        <ele>860</ele>
        <time>2017-10-22T06:33:17Z</time>
      </trkpt>
      <trkpt lat="44.8256" lon="5.72974">
        <ele>860</ele>
        <time>2017-10-22T06:33:32Z</time>
      </trkpt>
      <trkpt lat="44.82568" lon="5.73011">
        <ele>860</ele>
        <time>2017-10-22T06:33:52Z</time>
      </trkpt>
      <trkpt lat="44.8258" lon="5.73053">
        <ele>856</ele>
        <time>2017-10-22T06:33:59Z</time>
      </trkpt>
      <trkpt lat="44.82602" lon="5.73123">
        <ele>862</ele>
        <time>2017-10-22T06:34:03Z</time>
      </trkpt>
      <trkpt lat="44.82625" lon="5.73197">
        <ele>855</ele>
        <time>2017-10-22T06:34:18Z</time>
      </trkpt>
      <trkpt lat="44.82637" lon="5.73229">
        <ele>854</ele>
        <time>2017-10-22T06:34:23Z</time>
      </trkpt>
      <trkpt lat="44.82652" lon="5.73257">
        <ele>850</ele>
        <time>2017-10-22T06:34:35Z</time>
      </trkpt>
      <trkpt lat="44.82678" lon="5.73287">
        <ele>860</ele>
        <time>2017-10-22T06:34:46Z</time>
      </trkpt>
      <trkpt lat="44.82693" lon="5.73314">
        <ele>858</ele>
        <time>2017-10-22T06:35:03Z</time>
      </trkpt>
      <trkpt lat="44.82697" lon="5.7333">
        <ele>858</ele>
        <time>2017-10-22T06:35:23Z</time>
      </trkpt>
      <trkpt lat="44.82698" lon="5.73346">
        <ele>854</ele>
        <time>2017-10-22T06:35:39Z</time>
      </trkpt>
      <trkpt lat="44.82696" lon="5.73362">
        <ele>854</ele>
        <time>2017-10-22T06:35:48Z</time>
      </trkpt>
      <trkpt lat="44.82689" lon="5.73384">
        <ele>853</ele>
        <time>2017-10-22T06:35:57Z</time>
      </trkpt>
      <trkpt lat="44.8267" lon="5.73441">
        <ele>848</ele>
        <time>2017-10-22T06:36:13Z</time>
      </trkpt>
      <trkpt lat="44.82664" lon="5.73481">
        <ele>833</ele>
        <time>2017-10-22T06:36:29Z</time>
      </trkpt>
      <trkpt lat="44.82664" lon="5.73524">
        <ele>829</ele>
        <time>2017-10-22T06:36:36Z</time>
      </trkpt>
      <trkpt lat="44.82674" lon="5.73577">
        <ele>836</ele>
        <time>2017-10-22T06:36:38Z</time>
      </trkpt>
      <trkpt lat="44.82686" lon="5.73616">
        <ele>834</ele>
        <time>2017-10-22T06:36:44Z</time>
      </trkpt>
      <trkpt lat="44.82697" lon="5.73643">
        <ele>832</ele>
        <time>2017-10-22T06:36:59Z</time>
      </trkpt>
      <trkpt lat="44.82716" lon="5.73673">
        <ele>826</ele>
        <time>2017-10-22T06:37:07Z</time>
      </trkpt>
      <trkpt lat="44.82751" lon="5.73725">
        <ele>836</ele>
        <time>2017-10-22T06:37:14Z</time>
      </trkpt>
      <trkpt lat="44.82767" lon="5.73749">
        <ele>834</ele>
        <time>2017-10-22T06:37:27Z</time>
      </trkpt>
      <trkpt lat="44.82773" lon="5.73765">
        <ele>835</ele>
        <time>2017-10-22T06:37:39Z</time>
      </trkpt>
      <trkpt lat="44.82774" lon="5.73784">
        <ele>836</ele>
        <time>2017-10-22T06:37:41Z</time>
      </trkpt>
      <trkpt lat="44.82771" lon="5.73797">
        <ele>836</ele>
        <time>2017-10-22T06:37:48Z</time>
      </trkpt>
      <trkpt lat="44.82767" lon="5.73803">
        <ele>836</ele>
        <time>2017-10-22T06:37:54Z</time>
      </trkpt>
      <trkpt lat="44.82758" lon="5.73812">
        <ele>834</ele>
        <time>2017-10-22T06:38:13Z</time>
      </trkpt>
      <trkpt lat="44.82723" lon="5.73828">
        <ele>822</ele>
        <time>2017-10-22T06:38:23Z</time>
      </trkpt>
      <trkpt lat="44.82708" lon="5.73836">
        <ele>826</ele>
        <time>2017-10-22T06:38:32Z</time>
      </trkpt>
      <trkpt lat="44.82684" lon="5.73846">
        <ele>823</ele>
        <time>2017-10-22T06:38:37Z</time>
      </trkpt>
      <trkpt lat="44.8265" lon="5.73848">
        <ele>816</ele>
        <time>2017-10-22T06:38:48Z</time>
      </trkpt>
      <trkpt lat="44.82623" lon="5.73856">
        <ele>816</ele>
        <time>2017-10-22T06:38:57Z</time>
      </trkpt>
      <trkpt lat="44.82571" lon="5.73877">
        <ele>811</ele>
        <time>2017-10-22T06:39:11Z</time>
      </trkpt>
      <trkpt lat="44.82539" lon="5.7389">
        <ele>810</ele>
        <time>2017-10-22T06:39:18Z</time>
      </trkpt>
      <trkpt lat="44.82512" lon="5.73904">
        <ele>810</ele>
        <time>2017-10-22T06:39:25Z</time>
      </trkpt>
      <trkpt lat="44.82489" lon="5.73918">
        <ele>812</ele>
        <time>2017-10-22T06:39:34Z</time>
      </trkpt>
      <trkpt lat="44.82476" lon="5.73922">
        <ele>813</ele>
        <time>2017-10-22T06:39:38Z</time>
      </trkpt>
      <trkpt lat="44.82463" lon="5.73925">
        <ele>813</ele>
        <time>2017-10-22T06:39:46Z</time>
      </trkpt>
      <trkpt lat="44.82445" lon="5.73924">
        <ele>811</ele>
        <time>2017-10-22T06:40:02Z</time>
      </trkpt>
      <trkpt lat="44.82432" lon="5.73921">
        <ele>809</ele>
        <time>2017-10-22T06:40:14Z</time>
      </trkpt>
      <trkpt lat="44.8239" lon="5.73913">
        <ele>797</ele>
        <time>2017-10-22T06:40:21Z</time>
      </trkpt>
      <trkpt lat="44.82332" lon="5.73901">
        <ele>794</ele>
        <time>2017-10-22T06:40:40Z</time>
      </trkpt>
      <trkpt lat="44.82313" lon="5.73897">
        <ele>792</ele>
        <time>2017-10-22T06:40:43Z</time>
      </trkpt>
      <trkpt lat="44.82292" lon="5.73896">
        <ele>791</ele>
        <time>2017-10-22T06:40:59Z</time>
      </trkpt>
      <trkpt lat="44.82253" lon="5.73902">
        <ele>791</ele>
        <time>2017-10-22T06:41:08Z</time>
      </trkpt>
      <trkpt lat="44.82214" lon="5.73909">
        <ele>785</ele>
        <time>2017-10-22T06:41:23Z</time>
      </trkpt>
      <trkpt lat="44.82194" lon="5.73913">
        <ele>784</ele>
        <time>2017-10-22T06:41:31Z</time>
      </trkpt>
      <trkpt lat="44.82168" lon="5.73915">
        <ele>785</ele>
        <time>2017-10-22T06:41:35Z</time>
      </trkpt>
      <trkpt lat="44.82147" lon="5.73911">
        <ele>781</ele>
        <time>2017-10-22T06:41:45Z</time>
      </trkpt>
      <trkpt lat="44.82128" lon="5.73903">
        <ele>780</ele>
        <time>2017-10-22T06:41:54Z</time>
      </trkpt>
      <trkpt lat="44.82081" lon="5.73878">
        <ele>775</ele>
        <time>2017-10-22T06:42:13Z</time>
      </trkpt>
      <trkpt lat="44.82064" lon="5.73871">
        <ele>774</ele>
        <time>2017-10-22T06:42:29Z</time>
      </trkpt>
      <trkpt lat="44.82045" lon="5.73873">
        <ele>773</ele>
        <time>2017-10-22T06:42:47Z</time>
      </trkpt>
      <trkpt lat="44.82034" lon="5.73877">
        <ele>773</ele>
        <time>2017-10-22T06:42:50Z</time>
      </trkpt>
      <trkpt lat="44.82024" lon="5.73885">
        <ele>772</ele>
        <time>2017-10-22T06:43:04Z</time>
      </trkpt>
      <trkpt lat="44.82005" lon="5.73913">
        <ele>770</ele>
        <time>2017-10-22T06:43:17Z</time>
      </trkpt>
      <trkpt lat="44.81997" lon="5.73932">
        <ele>766</ele>
        <time>2017-10-22T06:43:20Z</time>
      </trkpt>
      <trkpt lat="44.8199" lon="5.73959">
        <ele>764</ele>
        <time>2017-10-22T06:43:26Z</time>
      </trkpt>
      <trkpt lat="44.81983" lon="5.74018">
        <ele>766</ele>
        <time>2017-10-22T06:43:31Z</time>
      </trkpt>
      <trkpt lat="44.81978" lon="5.74054">
        <ele>765</ele>
        <time>2017-10-22T06:43:38Z</time>
      </trkpt>
      <trkpt lat="44.81972" lon="5.74078">
        <ele>765</ele>
        <time>2017-10-22T06:43:55Z</time>
      </trkpt>
      <trkpt lat="44.81959" lon="5.74107">
        <ele>767</ele>
        <time>2017-10-22T06:43:57Z</time>
      </trkpt>
      <trkpt lat="44.81945" lon="5.74127">
        <ele>766</ele>
        <time>2017-10-22T06:44:14Z</time>
      </trkpt>
      <trkpt lat="44.81917" lon="5.74166">
        <ele>762</ele>
        <time>2017-10-22T06:44:19Z</time>
      </trkpt>
      <trkpt lat="44.81891" lon="5.74201">
        <ele>757</ele>
        <time>2017-10-22T06:44:35Z</time>
      </trkpt>
      <trkpt lat="44.81881" lon="5.74222">
        <ele>757</ele>
        <time>2017-10-22T06:44:50Z</time>
      </trkpt>
      <trkpt lat="44.81881" lon="5.74245">
        <ele>757</ele>
        <time>2017-10-22T06:45:07Z</time>
      </trkpt>
      <trkpt lat="44.81898" lon="5.74292">
        <ele>757</ele>
        <time>2017-10-22T06:45:15Z</time>
      </trkpt>
      <trkpt lat="44.81907" lon="5.74325">
        <ele>758</ele>
        <time>2017-10-22T06:45:31Z</time>
      </trkpt>
      <trkpt lat="44.81907" lon="5.74352">
        <ele>756</ele>
        <time>2017-10-22T06:45:45Z</time>
      </trkpt>
      <trkpt lat="44.819" lon="5.74368">
        <ele>754</ele>
        <time>2017-10-22T06:46:02Z</time>
      </trkpt>
      <trkpt lat="44.81889" lon="5.74379">
        <ele>753</ele>
        <time>2017-10-22T06:46:21Z</time>
      </trkpt>
      <trkpt lat="44.8187" lon="5.74384">
        <ele>751</ele>
        <time>2017-10-22T06:46:28Z</time>
      </trkpt>
      <trkpt lat="44.81835" lon="5.7439">
        <ele>750</ele>
        <time>2017-10-22T06:46:42Z</time>
      </trkpt>
      <trkpt lat="44.81819" lon="5.7439">
        <ele>747</ele>
        <time>2017-10-22T06:46:46Z</time>
      </trkpt>
      <trkpt lat="44.81777" lon="5.74377">
        <ele>748</ele>
        <time>2017-10-22T06:46:52Z</time>
      </trkpt>
      <trkpt lat="44.81756" lon="5.7437">
        <ele>748</ele>
        <time>2017-10-22T06:47:02Z</time>
      </trkpt>
      <trkpt lat="44.81742" lon="5.74367">
        <ele>749</ele>
        <time>2017-10-22T06:47:15Z</time>
      </trkpt>
      <trkpt lat="44.8173" lon="5.74366">
        <ele>749</ele>
        <time>2017-10-22T06:47:26Z</time>
      </trkpt>
      <trkpt lat="44.81722" lon="5.74367">
        <ele>749</ele>
        <time>2017-10-22T06:47:29Z</time>
      </trkpt>
      <trkpt lat="44.81707" lon="5.74374">
        <ele>749</ele>
        <time>2017-10-22T06:47:42Z</time>
      </trkpt>
      <trkpt lat="44.81684" lon="5.74392">
        <ele>750</ele>
        <time>2017-10-22T06:47:54Z</time>
      </trkpt>
      <trkpt lat="44.8166" lon="5.74425">
        <ele>754</ele>
        <time>2017-10-22T06:48:00Z</time>
      </trkpt>
      <trkpt lat="44.81649" lon="5.74448">
        <ele>756</ele>
        <time>2017-10-22T06:48:17Z</time>
      </trkpt>
      <trkpt lat="44.81644" lon="5.74469">
        <ele>757</ele>
        <time>2017-10-22T06:48:28Z</time>
      </trkpt>
      <trkpt lat="44.81641" lon="5.74498">
        <ele>758</ele>
        <time>2017-10-22T06:48:39Z</time>
      </trkpt>
      <trkpt lat="44.81652" lon="5.74646">
        <ele>765</ele>
        <time>2017-10-22T06:48:52Z</time>
      </trkpt>
      <trkpt lat="44.81653" lon="5.74657">
        <ele>765</ele>
        <time>2017-10-22T06:49:03Z</time>
      </trkpt>
      <trkpt lat="44.81666" lon="5.74786">
        <ele>769</ele>
        <time>2017-10-22T06:49:14Z</time>
      </trkpt>
      <trkpt lat="44.81668" lon="5.74808">
        <ele>767</ele>
        <time>2017-10-22T06:49:24Z</time>
      </trkpt>
      <trkpt lat="44.81642" lon="5.74812">
        <ele>769</ele>
        <time>2017-10-22T06:49:35Z</time>
      </trkpt>
      <trkpt lat="44.81597" lon="5.74814">
        <ele>770</ele>
        <time>2017-10-22T06:49:43Z</time>
      </trkpt>
      <trkpt lat="44.81588" lon="5.74816">
        <ele>770</ele>
        <time>2017-10-22T06:50:03Z</time>
      </trkpt>
      <trkpt lat="44.81566" lon="5.74828">
        <ele>770</ele>
        <time>2017-10-22T06:50:18Z</time>
      </trkpt>
      <trkpt lat="44.81542" lon="5.74842">
        <ele>770</ele>
        <time>2017-10-22T06:50:22Z</time>
      </trkpt>
      <trkpt lat="44.8153" lon="5.74851">
        <ele>769</ele>
        <time>2017-10-22T06:50:42Z</time>
      </trkpt>
    </trkseg>
  </trk>
</gpx>